<?xml version='1.0' encoding='UTF-8'?><gpx version="1.1" creator="JPX - https://github.com/jenetics/jpx" xmlns="http://www.topografix.com/GPX/1/1"><trk><trkseg><trkpt lat="43.42208" lon="11.181234"><ele>173.42857142857142</ele><time>2026-03-30T14:29:40.804Z</time></trkpt><trkpt lat="43.4221493" lon="11.1812011"><ele>172.85714285714286</ele><time>2026-03-30T14:29:49.785Z</time></trkpt><trkpt lat="43.4222104" lon="11.1811585"><ele>172.28571428571428</ele><time>2026-03-30T14:29:53.795Z</time></trkpt><trkpt lat="43.422273" lon="11.1812032"><ele>171.71428571428572</ele><time>2026-03-30T14:29:58.794Z</time></trkpt><trkpt lat="43.4222832" lon="11.1813043"><ele>171.14285714285714</ele><time>2026-03-30T14:30:01.799Z</time></trkpt><trkpt lat="43.422308" lon="11.1813894"><ele>170.57142857142858</ele><time>2026-03-30T14:30:04.792Z</time></trkpt><trkpt lat="43.4223353" lon="11.1814995"><ele>170.0</ele><time>2026-03-30T14:30:07.79Z</time></trkpt><trkpt lat="43.4223277" lon="11.1816001"><ele>170.0</ele><time>2026-03-30T14:30:09.782Z</time></trkpt><trkpt lat="43.4223005" lon="11.1816987"><ele>170.0</ele><time>2026-03-30T14:30:11.788Z</time></trkpt><trkpt lat="43.4222578" lon="11.1817861"><ele>170.0</ele><time>2026-03-30T14:30:13.78Z</time></trkpt><trkpt lat="43.4221915" lon="11.1818754"><ele>170.0</ele><time>2026-03-30T14:30:16.798Z</time></trkpt><trkpt lat="43.4221279" lon="11.1819514"><ele>170.0</ele><time>2026-03-30T14:30:19.803Z</time></trkpt><trkpt lat="43.4220689" lon="11.1820275"><ele>170.0</ele><time>2026-03-30T14:30:23.783Z</time></trkpt><trkpt lat="43.4220623" lon="11.1821203"><ele>170.5</ele><time>2026-03-30T14:30:26.798Z</time></trkpt><trkpt lat="43.4220844" lon="11.1822138"><ele>171.0</ele><time>2026-03-30T14:30:28.796Z</time></trkpt><trkpt lat="43.4221171" lon="11.1823103"><ele>171.5</ele><time>2026-03-30T14:30:30.794Z</time></trkpt><trkpt lat="43.4221606" lon="11.1824154"><ele>172.0</ele><time>2026-03-30T14:30:32.808Z</time></trkpt><trkpt lat="43.4221919" lon="11.1825087"><ele>172.5</ele><time>2026-03-30T14:30:34.799Z</time></trkpt><trkpt lat="43.4222337" lon="11.1826086"><ele>173.0</ele><time>2026-03-30T14:30:37.79Z</time></trkpt><trkpt lat="43.4223154" lon="11.1826226"><ele>173.0</ele><time>2026-03-30T14:30:40.817Z</time></trkpt><trkpt lat="43.422376" lon="11.1825806"><ele>173.0</ele><time>2026-03-30T14:30:42.788Z</time></trkpt><trkpt lat="43.422438" lon="11.1825293"><ele>173.0</ele><time>2026-03-30T14:30:44.788Z</time></trkpt><trkpt lat="43.4225182" lon="11.1824697"><ele>173.0</ele><time>2026-03-30T14:30:46.79Z</time></trkpt><trkpt lat="43.4226163" lon="11.1824272"><ele>173.0</ele><time>2026-03-30T14:30:48.808Z</time></trkpt><trkpt lat="43.4227123" lon="11.1823862"><ele>173.0</ele><time>2026-03-30T14:30:50.786Z</time></trkpt><trkpt lat="43.4228066" lon="11.1823604"><ele>173.0</ele><time>2026-03-30T14:30:52.792Z</time></trkpt><trkpt lat="43.4229018" lon="11.1823702"><ele>173.0</ele><time>2026-03-30T14:30:54.776Z</time></trkpt><trkpt lat="43.4229992" lon="11.1823935"><ele>173.0</ele><time>2026-03-30T14:30:56.794Z</time></trkpt><trkpt lat="43.4230954" lon="11.1823976"><ele>173.0</ele><time>2026-03-30T14:30:58.792Z</time></trkpt><trkpt lat="43.423188" lon="11.1823793"><ele>173.0</ele><time>2026-03-30T14:31:00.79Z</time></trkpt><trkpt lat="43.4232763" lon="11.1823456"><ele>172.33333333333331</ele><time>2026-03-30T14:31:02.775Z</time></trkpt><trkpt lat="43.4233624" lon="11.1823117"><ele>171.66666666666666</ele><time>2026-03-30T14:31:04.784Z</time></trkpt><trkpt lat="43.4234371" lon="11.1822798"><ele>171.0</ele><time>2026-03-30T14:31:06.781Z</time></trkpt><trkpt lat="43.4235063" lon="11.1822587"><ele>170.33333333333334</ele><time>2026-03-30T14:31:08.791Z</time></trkpt><trkpt lat="43.4235758" lon="11.1822581"><ele>169.66666666666669</ele><time>2026-03-30T14:31:10.781Z</time></trkpt><trkpt lat="43.4236493" lon="11.1822665"><ele>169.0</ele><time>2026-03-30T14:31:12.787Z</time></trkpt><trkpt lat="43.4237521" lon="11.1823002"><ele>168.2</ele><time>2026-03-30T14:31:14.782Z</time></trkpt><trkpt lat="43.4238628" lon="11.1823069"><ele>167.39999999999998</ele><time>2026-03-30T14:31:16.793Z</time></trkpt><trkpt lat="43.4239653" lon="11.1823398"><ele>166.6</ele><time>2026-03-30T14:31:18.787Z</time></trkpt><trkpt lat="43.424076" lon="11.1823668"><ele>165.8</ele><time>2026-03-30T14:31:20.784Z</time></trkpt><trkpt lat="43.4241879" lon="11.1824129"><ele>165.0</ele><time>2026-03-30T14:31:22.789Z</time></trkpt><trkpt lat="43.4242877" lon="11.1824498"><ele>165.0</ele><time>2026-03-30T14:31:24.777Z</time></trkpt><trkpt lat="43.4243876" lon="11.1824786"><ele>165.0</ele><time>2026-03-30T14:31:26.786Z</time></trkpt><trkpt lat="43.4245022" lon="11.1825029"><ele>165.0</ele><time>2026-03-30T14:31:28.786Z</time></trkpt><trkpt lat="43.4245601" lon="11.182537"><ele>165.0</ele><time>2026-03-30T14:31:29.802Z</time></trkpt><trkpt lat="43.4246495" lon="11.1826518"><ele>165.0</ele><time>2026-03-30T14:31:31.798Z</time></trkpt><trkpt lat="43.4246767" lon="11.1827305"><ele>164.16666666666666</ele><time>2026-03-30T14:31:32.792Z</time></trkpt><trkpt lat="43.4247385" lon="11.1828597"><ele>163.33333333333334</ele><time>2026-03-30T14:31:34.792Z</time></trkpt><trkpt lat="43.4248125" lon="11.1829661"><ele>162.5</ele><time>2026-03-30T14:31:36.804Z</time></trkpt><trkpt lat="43.4248556" lon="11.1830341"><ele>161.66666666666669</ele><time>2026-03-30T14:31:37.785Z</time></trkpt><trkpt lat="43.4249027" lon="11.1831076"><ele>160.83333333333334</ele><time>2026-03-30T14:31:38.801Z</time></trkpt><trkpt lat="43.4249502" lon="11.1831723"><ele>160.0</ele><time>2026-03-30T14:31:39.79Z</time></trkpt><trkpt lat="43.4249971" lon="11.1832319"><ele>158.8</ele><time>2026-03-30T14:31:40.787Z</time></trkpt><trkpt lat="43.4250871" lon="11.1833282"><ele>157.6</ele><time>2026-03-30T14:31:42.788Z</time></trkpt><trkpt lat="43.4251789" lon="11.1833937"><ele>156.4</ele><time>2026-03-30T14:31:44.78Z</time></trkpt><trkpt lat="43.4252813" lon="11.1833354"><ele>155.2</ele><time>2026-03-30T14:31:46.786Z</time></trkpt><trkpt lat="43.4253284" lon="11.1832689"><ele>154.0</ele><time>2026-03-30T14:31:47.779Z</time></trkpt><trkpt lat="43.425368" lon="11.1831846"><ele>155.0</ele><time>2026-03-30T14:31:48.787Z</time></trkpt><trkpt lat="43.4254102" lon="11.1831022"><ele>156.0</ele><time>2026-03-30T14:31:49.781Z</time></trkpt><trkpt lat="43.4254554" lon="11.1830138"><ele>157.0</ele><time>2026-03-30T14:31:50.798Z</time></trkpt><trkpt lat="43.4255037" lon="11.1829221"><ele>158.0</ele><time>2026-03-30T14:31:51.782Z</time></trkpt><trkpt lat="43.4255546" lon="11.182819"><ele>159.0</ele><time>2026-03-30T14:31:52.795Z</time></trkpt><trkpt lat="43.4256043" lon="11.182718"><ele>160.0</ele><time>2026-03-30T14:31:53.786Z</time></trkpt><trkpt lat="43.425648" lon="11.1826117"><ele>157.5</ele><time>2026-03-30T14:31:54.797Z</time></trkpt><trkpt lat="43.4256937" lon="11.1825093"><ele>155.0</ele><time>2026-03-30T14:31:55.789Z</time></trkpt><trkpt lat="43.4257365" lon="11.1824098"><ele>152.5</ele><time>2026-03-30T14:31:56.8Z</time></trkpt><trkpt lat="43.4257799" lon="11.1823196"><ele>150.0</ele><time>2026-03-30T14:31:57.781Z</time></trkpt><trkpt lat="43.4258272" lon="11.1822409"><ele>147.5</ele><time>2026-03-30T14:31:58.787Z</time></trkpt><trkpt lat="43.4258832" lon="11.1821824"><ele>145.0</ele><time>2026-03-30T14:31:59.782Z</time></trkpt><trkpt lat="43.425951" lon="11.1821568"><ele>145.0</ele><time>2026-03-30T14:32:00.795Z</time></trkpt><trkpt lat="43.4260166" lon="11.182153"><ele>145.0</ele><time>2026-03-30T14:32:01.787Z</time></trkpt><trkpt lat="43.4260808" lon="11.1821479"><ele>145.0</ele><time>2026-03-30T14:32:02.796Z</time></trkpt><trkpt lat="43.4261848" lon="11.1821572"><ele>145.0</ele><time>2026-03-30T14:32:04.795Z</time></trkpt><trkpt lat="43.4262623" lon="11.1821667"><ele>145.0</ele><time>2026-03-30T14:32:06.787Z</time></trkpt><trkpt lat="43.4263442" lon="11.1821379"><ele>145.0</ele><time>2026-03-30T14:32:08.794Z</time></trkpt><trkpt lat="43.4264408" lon="11.1821454"><ele>144.66666666666669</ele><time>2026-03-30T14:32:10.795Z</time></trkpt><trkpt lat="43.4265274" lon="11.1821285"><ele>144.33333333333334</ele><time>2026-03-30T14:32:12.801Z</time></trkpt><trkpt lat="43.4266201" lon="11.1821066"><ele>144.0</ele><time>2026-03-30T14:32:14.788Z</time></trkpt><trkpt lat="43.4267052" lon="11.1820858"><ele>143.66666666666666</ele><time>2026-03-30T14:32:16.796Z</time></trkpt><trkpt lat="43.4267833" lon="11.1820561"><ele>143.33333333333331</ele><time>2026-03-30T14:32:18.781Z</time></trkpt><trkpt lat="43.4268644" lon="11.1820265"><ele>143.0</ele><time>2026-03-30T14:32:20.78Z</time></trkpt><trkpt lat="43.4269408" lon="11.1820001"><ele>142.99999999999997</ele><time>2026-03-30T14:32:22.803Z</time></trkpt><trkpt lat="43.4270166" lon="11.1819715"><ele>143.0</ele><time>2026-03-30T14:32:24.803Z</time></trkpt><trkpt lat="43.4270898" lon="11.1819567"><ele>143.0</ele><time>2026-03-30T14:32:26.791Z</time></trkpt><trkpt lat="43.4271538" lon="11.181922"><ele>143.0</ele><time>2026-03-30T14:32:28.787Z</time></trkpt><trkpt lat="43.4272178" lon="11.1818915"><ele>143.0</ele><time>2026-03-30T14:32:30.792Z</time></trkpt><trkpt lat="43.4272808" lon="11.1818557"><ele>142.99999999999997</ele><time>2026-03-30T14:32:32.79Z</time></trkpt><trkpt lat="43.4273449" lon="11.1818068"><ele>143.0</ele><time>2026-03-30T14:32:34.791Z</time></trkpt><trkpt lat="43.427417" lon="11.1817528"><ele>142.99999999999997</ele><time>2026-03-30T14:32:36.805Z</time></trkpt><trkpt lat="43.4274911" lon="11.1817089"><ele>143.0</ele><time>2026-03-30T14:32:38.787Z</time></trkpt><trkpt lat="43.4275549" lon="11.1816851"><ele>143.0</ele><time>2026-03-30T14:32:40.783Z</time></trkpt><trkpt lat="43.4275682" lon="11.1815875"><ele>143.0</ele><time>2026-03-30T14:32:44.803Z</time></trkpt><trkpt lat="43.4275251" lon="11.1815024"><ele>143.0</ele><time>2026-03-30T14:32:48.791Z</time></trkpt><trkpt lat="43.4275396" lon="11.1814059"><ele>142.99999999999997</ele><time>2026-03-30T14:32:51.789Z</time></trkpt><trkpt lat="43.4275711" lon="11.1813055"><ele>143.0</ele><time>2026-03-30T14:32:54.797Z</time></trkpt><trkpt lat="43.4276066" lon="11.1812084"><ele>143.0</ele><time>2026-03-30T14:32:57.787Z</time></trkpt><trkpt lat="43.4276642" lon="11.1811133"><ele>143.0</ele><time>2026-03-30T14:32:59.791Z</time></trkpt><trkpt lat="43.4277163" lon="11.1810163"><ele>143.0</ele><time>2026-03-30T14:33:01.804Z</time></trkpt><trkpt lat="43.4277663" lon="11.1809149"><ele>143.0</ele><time>2026-03-30T14:33:03.795Z</time></trkpt><trkpt lat="43.4278029" lon="11.1808167"><ele>143.0</ele><time>2026-03-30T14:33:05.787Z</time></trkpt><trkpt lat="43.4278174" lon="11.1807302"><ele>143.0</ele><time>2026-03-30T14:33:07.796Z</time></trkpt><trkpt lat="43.4278172" lon="11.1806334"><ele>143.16666666666666</ele><time>2026-03-30T14:33:09.784Z</time></trkpt><trkpt lat="43.4278257" lon="11.1805244"><ele>143.33333333333331</ele><time>2026-03-30T14:33:11.792Z</time></trkpt><trkpt lat="43.4278901" lon="11.1804129"><ele>143.5</ele><time>2026-03-30T14:33:13.784Z</time></trkpt><trkpt lat="43.4279334" lon="11.1803463"><ele>143.66666666666666</ele><time>2026-03-30T14:33:14.795Z</time></trkpt><trkpt lat="43.4279751" lon="11.1802741"><ele>143.83333333333334</ele><time>2026-03-30T14:33:15.791Z</time></trkpt><trkpt lat="43.4280202" lon="11.1802059"><ele>144.0</ele><time>2026-03-30T14:33:16.805Z</time></trkpt><trkpt lat="43.4280631" lon="11.1801288"><ele>144.00000000000003</ele><time>2026-03-30T14:33:17.798Z</time></trkpt><trkpt lat="43.4281096" lon="11.1800516"><ele>144.0</ele><time>2026-03-30T14:33:18.786Z</time></trkpt><trkpt lat="43.4281598" lon="11.1799854"><ele>144.0</ele><time>2026-03-30T14:33:19.787Z</time></trkpt><trkpt lat="43.4282156" lon="11.1799264"><ele>144.0</ele><time>2026-03-30T14:33:20.805Z</time></trkpt><trkpt lat="43.4282756" lon="11.1798747"><ele>144.0</ele><time>2026-03-30T14:33:21.789Z</time></trkpt><trkpt lat="43.4283352" lon="11.1798422"><ele>144.00000000000003</ele><time>2026-03-30T14:33:22.789Z</time></trkpt><trkpt lat="43.4284292" lon="11.1798016"><ele>144.0</ele><time>2026-03-30T14:33:24.795Z</time></trkpt><trkpt lat="43.4285057" lon="11.1797704"><ele>143.0</ele><time>2026-03-30T14:33:26.784Z</time></trkpt><trkpt lat="43.428572" lon="11.1797258"><ele>142.0</ele><time>2026-03-30T14:33:28.781Z</time></trkpt><trkpt lat="43.4286407" lon="11.179654"><ele>141.0</ele><time>2026-03-30T14:33:31.795Z</time></trkpt><trkpt lat="43.428705" lon="11.1795674"><ele>140.0</ele><time>2026-03-30T14:33:34.792Z</time></trkpt><trkpt lat="43.4287465" lon="11.1794975"><ele>139.0</ele><time>2026-03-30T14:33:36.835Z</time></trkpt><trkpt lat="43.4287967" lon="11.1794369"><ele>138.0</ele><time>2026-03-30T14:33:38.802Z</time></trkpt><trkpt lat="43.4288441" lon="11.1793682"><ele>138.0</ele><time>2026-03-30T14:33:40.799Z</time></trkpt><trkpt lat="43.4288984" lon="11.1792781"><ele>138.0</ele><time>2026-03-30T14:33:42.797Z</time></trkpt><trkpt lat="43.4289569" lon="11.1791633"><ele>138.0</ele><time>2026-03-30T14:33:44.817Z</time></trkpt><trkpt lat="43.4290082" lon="11.1790349"><ele>138.0</ele><time>2026-03-30T14:33:46.799Z</time></trkpt><trkpt lat="43.4290503" lon="11.1788976"><ele>138.0</ele><time>2026-03-30T14:33:48.805Z</time></trkpt><trkpt lat="43.429092" lon="11.1787687"><ele>136.8</ele><time>2026-03-30T14:33:50.801Z</time></trkpt><trkpt lat="43.4291277" lon="11.1786328"><ele>135.60000000000002</ele><time>2026-03-30T14:33:52.818Z</time></trkpt><trkpt lat="43.4291738" lon="11.1785079"><ele>134.39999999999998</ele><time>2026-03-30T14:33:54.799Z</time></trkpt><trkpt lat="43.4292168" lon="11.1783794"><ele>133.2</ele><time>2026-03-30T14:33:56.805Z</time></trkpt><trkpt lat="43.4292613" lon="11.1782527"><ele>132.0</ele><time>2026-03-30T14:33:58.803Z</time></trkpt><trkpt lat="43.4293051" lon="11.1781251"><ele>132.0</ele><time>2026-03-30T14:34:00.816Z</time></trkpt><trkpt lat="43.4293531" lon="11.1779926"><ele>132.0</ele><time>2026-03-30T14:34:02.806Z</time></trkpt><trkpt lat="43.4294048" lon="11.1778634"><ele>132.0</ele><time>2026-03-30T14:34:04.803Z</time></trkpt><trkpt lat="43.4294692" lon="11.1777464"><ele>132.0</ele><time>2026-03-30T14:34:06.916Z</time></trkpt><trkpt lat="43.4295499" lon="11.177659"><ele>132.0</ele><time>2026-03-30T14:34:08.897Z</time></trkpt><trkpt lat="43.4296416" lon="11.1776013"><ele>131.79999999999998</ele><time>2026-03-30T14:34:10.8Z</time></trkpt><trkpt lat="43.4297363" lon="11.1775673"><ele>131.6</ele><time>2026-03-30T14:34:12.782Z</time></trkpt><trkpt lat="43.4298291" lon="11.177556"><ele>131.39999999999998</ele><time>2026-03-30T14:34:14.799Z</time></trkpt><trkpt lat="43.4299073" lon="11.1775671"><ele>131.2</ele><time>2026-03-30T14:34:16.788Z</time></trkpt><trkpt lat="43.4299951" lon="11.1775939"><ele>131.0</ele><time>2026-03-30T14:34:18.773Z</time></trkpt><trkpt lat="43.4300867" lon="11.1776349"><ele>131.0</ele><time>2026-03-30T14:34:20.794Z</time></trkpt><trkpt lat="43.4301767" lon="11.1776798"><ele>131.0</ele><time>2026-03-30T14:34:22.801Z</time></trkpt><trkpt lat="43.4302646" lon="11.1777263"><ele>131.0</ele><time>2026-03-30T14:34:24.81Z</time></trkpt><trkpt lat="43.4303536" lon="11.1777656"><ele>131.0</ele><time>2026-03-30T14:34:26.796Z</time></trkpt><trkpt lat="43.4304385" lon="11.1778114"><ele>131.0</ele><time>2026-03-30T14:34:28.807Z</time></trkpt><trkpt lat="43.4305239" lon="11.1778653"><ele>131.2</ele><time>2026-03-30T14:34:30.805Z</time></trkpt><trkpt lat="43.4306108" lon="11.1779296"><ele>131.39999999999998</ele><time>2026-03-30T14:34:32.802Z</time></trkpt><trkpt lat="43.4306983" lon="11.1779938"><ele>131.6</ele><time>2026-03-30T14:34:34.799Z</time></trkpt><trkpt lat="43.4307871" lon="11.178062"><ele>131.79999999999998</ele><time>2026-03-30T14:34:36.8Z</time></trkpt><trkpt lat="43.4308754" lon="11.1781299"><ele>132.0</ele><time>2026-03-30T14:34:38.815Z</time></trkpt><trkpt lat="43.4309684" lon="11.1781954"><ele>132.0</ele><time>2026-03-30T14:34:40.809Z</time></trkpt><trkpt lat="43.4310679" lon="11.1782418"><ele>132.0</ele><time>2026-03-30T14:34:42.801Z</time></trkpt><trkpt lat="43.4311667" lon="11.1782918"><ele>132.0</ele><time>2026-03-30T14:34:44.806Z</time></trkpt><trkpt lat="43.4312688" lon="11.1783586"><ele>132.0</ele><time>2026-03-30T14:34:46.873Z</time></trkpt><trkpt lat="43.4313729" lon="11.1784199"><ele>132.0</ele><time>2026-03-30T14:34:48.78Z</time></trkpt><trkpt lat="43.4314814" lon="11.1784848"><ele>132.2</ele><time>2026-03-30T14:34:50.804Z</time></trkpt><trkpt lat="43.4315858" lon="11.1785531"><ele>132.39999999999998</ele><time>2026-03-30T14:34:52.807Z</time></trkpt><trkpt lat="43.4316837" lon="11.1786179"><ele>132.60000000000002</ele><time>2026-03-30T14:34:54.789Z</time></trkpt><trkpt lat="43.4317706" lon="11.1786823"><ele>132.8</ele><time>2026-03-30T14:34:56.784Z</time></trkpt><trkpt lat="43.431849" lon="11.1787495"><ele>133.0</ele><time>2026-03-30T14:34:58.878Z</time></trkpt><trkpt lat="43.4319122" lon="11.1788241"><ele>133.0</ele><time>2026-03-30T14:35:00.803Z</time></trkpt><trkpt lat="43.4319758" lon="11.1788869"><ele>133.0</ele><time>2026-03-30T14:35:02.777Z</time></trkpt><trkpt lat="43.4320411" lon="11.1789381"><ele>133.0</ele><time>2026-03-30T14:35:04.789Z</time></trkpt><trkpt lat="43.4321145" lon="11.1789783"><ele>133.0</ele><time>2026-03-30T14:35:06.847Z</time></trkpt><trkpt lat="43.4321983" lon="11.1790205"><ele>133.0</ele><time>2026-03-30T14:35:08.812Z</time></trkpt><trkpt lat="43.4322933" lon="11.179049"><ele>133.0</ele><time>2026-03-30T14:35:10.8Z</time></trkpt><trkpt lat="43.432396" lon="11.179068"><ele>133.4</ele><time>2026-03-30T14:35:12.804Z</time></trkpt><trkpt lat="43.4324933" lon="11.1790821"><ele>133.8</ele><time>2026-03-30T14:35:14.811Z</time></trkpt><trkpt lat="43.4325755" lon="11.1790718"><ele>134.2</ele><time>2026-03-30T14:35:16.81Z</time></trkpt><trkpt lat="43.432649" lon="11.1790359"><ele>134.6</ele><time>2026-03-30T14:35:18.807Z</time></trkpt><trkpt lat="43.4327337" lon="11.1789687"><ele>135.0</ele><time>2026-03-30T14:35:20.807Z</time></trkpt><trkpt lat="43.432817" lon="11.1788727"><ele>135.0</ele><time>2026-03-30T14:35:22.814Z</time></trkpt><trkpt lat="43.4329067" lon="11.1787858"><ele>135.0</ele><time>2026-03-30T14:35:24.812Z</time></trkpt><trkpt lat="43.4330032" lon="11.1787152"><ele>135.0</ele><time>2026-03-30T14:35:26.797Z</time></trkpt><trkpt lat="43.433107" lon="11.1786557"><ele>135.0</ele><time>2026-03-30T14:35:28.802Z</time></trkpt><trkpt lat="43.4332112" lon="11.1786186"><ele>135.0</ele><time>2026-03-30T14:35:30.807Z</time></trkpt><trkpt lat="43.4333166" lon="11.1786148"><ele>134.16666666666666</ele><time>2026-03-30T14:35:32.795Z</time></trkpt><trkpt lat="43.4334196" lon="11.1786437"><ele>133.33333333333334</ele><time>2026-03-30T14:35:34.799Z</time></trkpt><trkpt lat="43.4335141" lon="11.1787101"><ele>132.5</ele><time>2026-03-30T14:35:36.865Z</time></trkpt><trkpt lat="43.4335542" lon="11.1787796"><ele>131.66666666666669</ele><time>2026-03-30T14:35:37.807Z</time></trkpt><trkpt lat="43.4335904" lon="11.1788606"><ele>130.83333333333334</ele><time>2026-03-30T14:35:38.889Z</time></trkpt><trkpt lat="43.4336728" lon="11.1789011"><ele>130.0</ele><time>2026-03-30T14:35:40.798Z</time></trkpt><trkpt lat="43.4337626" lon="11.1789111"><ele>129.8</ele><time>2026-03-30T14:35:42.877Z</time></trkpt><trkpt lat="43.4338545" lon="11.1789212"><ele>129.6</ele><time>2026-03-30T14:35:44.786Z</time></trkpt><trkpt lat="43.4339557" lon="11.1789305"><ele>129.4</ele><time>2026-03-30T14:35:46.892Z</time></trkpt><trkpt lat="43.4340664" lon="11.1789316"><ele>129.2</ele><time>2026-03-30T14:35:48.873Z</time></trkpt><trkpt lat="43.4341794" lon="11.1789221"><ele>129.0</ele><time>2026-03-30T14:35:50.8Z</time></trkpt><trkpt lat="43.4342866" lon="11.178906"><ele>129.0</ele><time>2026-03-30T14:35:52.801Z</time></trkpt><trkpt lat="43.4343933" lon="11.1788857"><ele>129.0</ele><time>2026-03-30T14:35:54.798Z</time></trkpt><trkpt lat="43.434502" lon="11.1788662"><ele>129.0</ele><time>2026-03-30T14:35:56.81Z</time></trkpt><trkpt lat="43.4346072" lon="11.1788469"><ele>129.0</ele><time>2026-03-30T14:35:58.802Z</time></trkpt><trkpt lat="43.434711" lon="11.1788287"><ele>129.0</ele><time>2026-03-30T14:36:00.807Z</time></trkpt><trkpt lat="43.4348166" lon="11.1788112"><ele>129.2</ele><time>2026-03-30T14:36:02.852Z</time></trkpt><trkpt lat="43.4349164" lon="11.1787946"><ele>129.4</ele><time>2026-03-30T14:36:04.817Z</time></trkpt><trkpt lat="43.4350121" lon="11.178783"><ele>129.6</ele><time>2026-03-30T14:36:06.82Z</time></trkpt><trkpt lat="43.4351082" lon="11.1787733"><ele>129.8</ele><time>2026-03-30T14:36:08.805Z</time></trkpt><trkpt lat="43.4352041" lon="11.1787574"><ele>130.0</ele><time>2026-03-30T14:36:10.808Z</time></trkpt><trkpt lat="43.4353037" lon="11.1787437"><ele>130.0</ele><time>2026-03-30T14:36:12.8Z</time></trkpt><trkpt lat="43.4354053" lon="11.178729"><ele>130.0</ele><time>2026-03-30T14:36:14.804Z</time></trkpt><trkpt lat="43.4355075" lon="11.1787155"><ele>130.0</ele><time>2026-03-30T14:36:16.801Z</time></trkpt><trkpt lat="43.4356154" lon="11.1786947"><ele>130.0</ele><time>2026-03-30T14:36:18.81Z</time></trkpt><trkpt lat="43.4357175" lon="11.1786745"><ele>130.0</ele><time>2026-03-30T14:36:20.809Z</time></trkpt><trkpt lat="43.4358252" lon="11.1786542"><ele>129.6</ele><time>2026-03-30T14:36:22.816Z</time></trkpt><trkpt lat="43.435937" lon="11.1786305"><ele>129.2</ele><time>2026-03-30T14:36:24.812Z</time></trkpt><trkpt lat="43.4360512" lon="11.1786154"><ele>128.8</ele><time>2026-03-30T14:36:26.819Z</time></trkpt><trkpt lat="43.4361613" lon="11.1786155"><ele>128.4</ele><time>2026-03-30T14:36:28.802Z</time></trkpt><trkpt lat="43.4362707" lon="11.1786272"><ele>128.0</ele><time>2026-03-30T14:36:30.801Z</time></trkpt><trkpt lat="43.4363783" lon="11.1786407"><ele>128.0</ele><time>2026-03-30T14:36:32.814Z</time></trkpt><trkpt lat="43.4364811" lon="11.1786687"><ele>128.0</ele><time>2026-03-30T14:36:34.807Z</time></trkpt><trkpt lat="43.4365829" lon="11.1787034"><ele>128.0</ele><time>2026-03-30T14:36:36.814Z</time></trkpt><trkpt lat="43.4366891" lon="11.1787441"><ele>128.0</ele><time>2026-03-30T14:36:38.806Z</time></trkpt><trkpt lat="43.4367948" lon="11.1787912"><ele>128.0</ele><time>2026-03-30T14:36:40.812Z</time></trkpt><trkpt lat="43.4369005" lon="11.1788458"><ele>128.0</ele><time>2026-03-30T14:36:42.802Z</time></trkpt><trkpt lat="43.4370013" lon="11.1789024"><ele>128.0</ele><time>2026-03-30T14:36:44.809Z</time></trkpt><trkpt lat="43.437102" lon="11.1789527"><ele>128.0</ele><time>2026-03-30T14:36:46.785Z</time></trkpt><trkpt lat="43.4372053" lon="11.1790044"><ele>128.0</ele><time>2026-03-30T14:36:48.786Z</time></trkpt><trkpt lat="43.4373102" lon="11.1790515"><ele>128.0</ele><time>2026-03-30T14:36:50.802Z</time></trkpt><trkpt lat="43.437415" lon="11.179092"><ele>127.60000000000001</ele><time>2026-03-30T14:36:52.81Z</time></trkpt><trkpt lat="43.4375223" lon="11.1791289"><ele>127.20000000000002</ele><time>2026-03-30T14:36:54.813Z</time></trkpt><trkpt lat="43.4376316" lon="11.1791655"><ele>126.8</ele><time>2026-03-30T14:36:56.799Z</time></trkpt><trkpt lat="43.4377402" lon="11.179206"><ele>126.4</ele><time>2026-03-30T14:36:58.804Z</time></trkpt><trkpt lat="43.4378463" lon="11.1792431"><ele>126.0</ele><time>2026-03-30T14:37:00.81Z</time></trkpt><trkpt lat="43.4379522" lon="11.1792904"><ele>125.8</ele><time>2026-03-30T14:37:02.801Z</time></trkpt><trkpt lat="43.4380571" lon="11.1793221"><ele>125.6</ele><time>2026-03-30T14:37:04.802Z</time></trkpt><trkpt lat="43.4381622" lon="11.1793299"><ele>125.4</ele><time>2026-03-30T14:37:06.801Z</time></trkpt><trkpt lat="43.4382628" lon="11.1793183"><ele>125.2</ele><time>2026-03-30T14:37:08.813Z</time></trkpt><trkpt lat="43.4383597" lon="11.1792992"><ele>125.0</ele><time>2026-03-30T14:37:10.815Z</time></trkpt><trkpt lat="43.4384498" lon="11.1792746"><ele>124.99999999999999</ele><time>2026-03-30T14:37:12.815Z</time></trkpt><trkpt lat="43.4385409" lon="11.1792412"><ele>125.0</ele><time>2026-03-30T14:37:14.807Z</time></trkpt><trkpt lat="43.4386439" lon="11.1791897"><ele>125.0</ele><time>2026-03-30T14:37:16.806Z</time></trkpt><trkpt lat="43.4387015" lon="11.1791519"><ele>125.0</ele><time>2026-03-30T14:37:17.82Z</time></trkpt><trkpt lat="43.4387574" lon="11.179106"><ele>124.99999999999999</ele><time>2026-03-30T14:37:18.802Z</time></trkpt><trkpt lat="43.438809" lon="11.1790524"><ele>125.0</ele><time>2026-03-30T14:37:19.819Z</time></trkpt><trkpt lat="43.438895" lon="11.1789292"><ele>125.0</ele><time>2026-03-30T14:37:21.81Z</time></trkpt><trkpt lat="43.4389763" lon="11.1788026"><ele>125.0</ele><time>2026-03-30T14:37:23.807Z</time></trkpt><trkpt lat="43.4390507" lon="11.178676"><ele>125.0</ele><time>2026-03-30T14:37:25.815Z</time></trkpt><trkpt lat="43.4391313" lon="11.178551"><ele>125.0</ele><time>2026-03-30T14:37:27.81Z</time></trkpt><trkpt lat="43.4392068" lon="11.178421"><ele>125.0</ele><time>2026-03-30T14:37:29.811Z</time></trkpt><trkpt lat="43.4392734" lon="11.1782866"><ele>125.0</ele><time>2026-03-30T14:37:31.812Z</time></trkpt><trkpt lat="43.4393038" lon="11.1781462"><ele>125.0</ele><time>2026-03-30T14:37:33.816Z</time></trkpt><trkpt lat="43.4393219" lon="11.1780112"><ele>125.0</ele><time>2026-03-30T14:37:35.805Z</time></trkpt><trkpt lat="43.4393272" lon="11.1778691"><ele>125.0</ele><time>2026-03-30T14:37:37.805Z</time></trkpt><trkpt lat="43.4393055" lon="11.1777126"><ele>125.0</ele><time>2026-03-30T14:37:39.817Z</time></trkpt><trkpt lat="43.4392783" lon="11.1775592"><ele>125.0</ele><time>2026-03-30T14:37:41.798Z</time></trkpt><trkpt lat="43.4392488" lon="11.1773993"><ele>125.0</ele><time>2026-03-30T14:37:43.805Z</time></trkpt><trkpt lat="43.4392232" lon="11.1772372"><ele>125.0</ele><time>2026-03-30T14:37:45.813Z</time></trkpt><trkpt lat="43.4392077" lon="11.1770754"><ele>125.0</ele><time>2026-03-30T14:37:47.803Z</time></trkpt><trkpt lat="43.4391994" lon="11.1769169"><ele>125.0</ele><time>2026-03-30T14:37:49.812Z</time></trkpt><trkpt lat="43.4392031" lon="11.1767689"><ele>125.0</ele><time>2026-03-30T14:37:51.817Z</time></trkpt><trkpt lat="43.4392202" lon="11.1766208"><ele>125.0</ele><time>2026-03-30T14:37:53.822Z</time></trkpt><trkpt lat="43.4392412" lon="11.1764697"><ele>125.0</ele><time>2026-03-30T14:37:55.816Z</time></trkpt><trkpt lat="43.4392665" lon="11.1763227"><ele>124.66666666666666</ele><time>2026-03-30T14:37:57.8Z</time></trkpt><trkpt lat="43.4392918" lon="11.1761757"><ele>124.33333333333334</ele><time>2026-03-30T14:37:59.794Z</time></trkpt><trkpt lat="43.4393227" lon="11.1760241"><ele>124.0</ele><time>2026-03-30T14:38:01.883Z</time></trkpt><trkpt lat="43.4393976" lon="11.1756744"><ele>124.0</ele><time>2026-03-30T14:38:06.777Z</time></trkpt><trkpt lat="43.439448" lon="11.1755206"><ele>124.0</ele><time>2026-03-30T14:38:08.798Z</time></trkpt><trkpt lat="43.4394762" lon="11.1753789"><ele>124.0</ele><time>2026-03-30T14:38:10.801Z</time></trkpt><trkpt lat="43.4395201" lon="11.1752269"><ele>124.0</ele><time>2026-03-30T14:38:12.884Z</time></trkpt><trkpt lat="43.4395599" lon="11.175079"><ele>124.0</ele><time>2026-03-30T14:38:14.809Z</time></trkpt><trkpt lat="43.439585" lon="11.1749303"><ele>124.0</ele><time>2026-03-30T14:38:16.797Z</time></trkpt><trkpt lat="43.4396057" lon="11.1747823"><ele>124.0</ele><time>2026-03-30T14:38:18.799Z</time></trkpt><trkpt lat="43.4396148" lon="11.1746331"><ele>124.0</ele><time>2026-03-30T14:38:20.815Z</time></trkpt><trkpt lat="43.4396149" lon="11.1744832"><ele>124.0</ele><time>2026-03-30T14:38:22.796Z</time></trkpt><trkpt lat="43.4396011" lon="11.1743313"><ele>123.75</ele><time>2026-03-30T14:38:24.815Z</time></trkpt><trkpt lat="43.4395721" lon="11.1741841"><ele>123.5</ele><time>2026-03-30T14:38:26.805Z</time></trkpt><trkpt lat="43.4395366" lon="11.1740367"><ele>123.25</ele><time>2026-03-30T14:38:28.809Z</time></trkpt><trkpt lat="43.4395047" lon="11.1738836"><ele>123.0</ele><time>2026-03-30T14:38:30.793Z</time></trkpt><trkpt lat="43.4394612" lon="11.1737371"><ele>123.0</ele><time>2026-03-30T14:38:32.878Z</time></trkpt><trkpt lat="43.4394172" lon="11.1736269"><ele>123.00000000000001</ele><time>2026-03-30T14:38:34.797Z</time></trkpt><trkpt lat="43.4393887" lon="11.1734773"><ele>123.00000000000001</ele><time>2026-03-30T14:38:36.873Z</time></trkpt><trkpt lat="43.4393668" lon="11.1733371"><ele>123.0</ele><time>2026-03-30T14:38:38.795Z</time></trkpt><trkpt lat="43.4393806" lon="11.1731921"><ele>123.0</ele><time>2026-03-30T14:38:40.795Z</time></trkpt><trkpt lat="43.439446" lon="11.1730637"><ele>122.60000000000001</ele><time>2026-03-30T14:38:42.81Z</time></trkpt><trkpt lat="43.4395513" lon="11.1729909"><ele>122.20000000000002</ele><time>2026-03-30T14:38:44.801Z</time></trkpt><trkpt lat="43.4396557" lon="11.1729268"><ele>121.8</ele><time>2026-03-30T14:38:46.783Z</time></trkpt><trkpt lat="43.4397518" lon="11.172853"><ele>121.4</ele><time>2026-03-30T14:38:48.879Z</time></trkpt><trkpt lat="43.4398355" lon="11.1727757"><ele>121.0</ele><time>2026-03-30T14:38:50.796Z</time></trkpt><trkpt lat="43.4399157" lon="11.1726808"><ele>121.0</ele><time>2026-03-30T14:38:52.779Z</time></trkpt><trkpt lat="43.4399961" lon="11.1725939"><ele>121.0</ele><time>2026-03-30T14:38:54.802Z</time></trkpt><trkpt lat="43.4400716" lon="11.1725129"><ele>121.0</ele><time>2026-03-30T14:38:56.803Z</time></trkpt><trkpt lat="43.4401655" lon="11.1724391"><ele>121.0</ele><time>2026-03-30T14:38:58.878Z</time></trkpt><trkpt lat="43.4402492" lon="11.1723719"><ele>121.0</ele><time>2026-03-30T14:39:00.803Z</time></trkpt><trkpt lat="43.4403147" lon="11.1722688"><ele>121.5</ele><time>2026-03-30T14:39:02.808Z</time></trkpt><trkpt lat="43.4403997" lon="11.1721522"><ele>122.0</ele><time>2026-03-30T14:39:04.786Z</time></trkpt><trkpt lat="43.4404846" lon="11.172039"><ele>122.5</ele><time>2026-03-30T14:39:06.872Z</time></trkpt><trkpt lat="43.4405672" lon="11.1719441"><ele>123.0</ele><time>2026-03-30T14:39:08.878Z</time></trkpt><trkpt lat="43.4406402" lon="11.1718062"><ele>123.0</ele><time>2026-03-30T14:39:10.806Z</time></trkpt><trkpt lat="43.4407022" lon="11.1716639"><ele>123.00000000000001</ele><time>2026-03-30T14:39:12.877Z</time></trkpt><trkpt lat="43.4407611" lon="11.1715015"><ele>123.00000000000001</ele><time>2026-03-30T14:39:14.792Z</time></trkpt><trkpt lat="43.4407919" lon="11.1714252"><ele>123.0</ele><time>2026-03-30T14:39:15.808Z</time></trkpt><trkpt lat="43.4408274" lon="11.1712803"><ele>123.0</ele><time>2026-03-30T14:39:17.879Z</time></trkpt><trkpt lat="43.4408338" lon="11.1711393"><ele>123.2</ele><time>2026-03-30T14:39:19.772Z</time></trkpt><trkpt lat="43.4408344" lon="11.1709911"><ele>123.4</ele><time>2026-03-30T14:39:21.794Z</time></trkpt><trkpt lat="43.4408438" lon="11.1708433"><ele>123.60000000000001</ele><time>2026-03-30T14:39:23.788Z</time></trkpt><trkpt lat="43.4408545" lon="11.1706952"><ele>123.80000000000001</ele><time>2026-03-30T14:39:25.799Z</time></trkpt><trkpt lat="43.4408648" lon="11.1705429"><ele>124.0</ele><time>2026-03-30T14:39:27.794Z</time></trkpt><trkpt lat="43.4408601" lon="11.1703775"><ele>124.4</ele><time>2026-03-30T14:39:29.805Z</time></trkpt><trkpt lat="43.4408258" lon="11.1702424"><ele>124.80000000000001</ele><time>2026-03-30T14:39:31.798Z</time></trkpt><trkpt lat="43.4407722" lon="11.1701069"><ele>125.19999999999999</ele><time>2026-03-30T14:39:33.819Z</time></trkpt><trkpt lat="43.4407211" lon="11.1699656"><ele>125.6</ele><time>2026-03-30T14:39:35.783Z</time></trkpt><trkpt lat="43.4406767" lon="11.1698248"><ele>126.0</ele><time>2026-03-30T14:39:37.787Z</time></trkpt><trkpt lat="43.4406395" lon="11.169674"><ele>125.19999999999999</ele><time>2026-03-30T14:39:39.795Z</time></trkpt><trkpt lat="43.4405905" lon="11.1695392"><ele>124.39999999999999</ele><time>2026-03-30T14:39:41.802Z</time></trkpt><trkpt lat="43.4405363" lon="11.1694083"><ele>123.6</ele><time>2026-03-30T14:39:43.796Z</time></trkpt><trkpt lat="43.4404908" lon="11.1692795"><ele>122.8</ele><time>2026-03-30T14:39:45.816Z</time></trkpt><trkpt lat="43.4404402" lon="11.1691511"><ele>122.0</ele><time>2026-03-30T14:39:47.788Z</time></trkpt><trkpt lat="43.4403892" lon="11.1690299"><ele>122.19999999999999</ele><time>2026-03-30T14:39:49.795Z</time></trkpt><trkpt lat="43.4403411" lon="11.1689171"><ele>122.39999999999999</ele><time>2026-03-30T14:39:51.803Z</time></trkpt><trkpt lat="43.4402861" lon="11.1687745"><ele>122.60000000000001</ele><time>2026-03-30T14:39:53.789Z</time></trkpt><trkpt lat="43.4402286" lon="11.1686463"><ele>122.80000000000001</ele><time>2026-03-30T14:39:55.817Z</time></trkpt><trkpt lat="43.4401679" lon="11.1685336"><ele>123.0</ele><time>2026-03-30T14:39:57.8Z</time></trkpt><trkpt lat="43.4401076" lon="11.1684158"><ele>123.0</ele><time>2026-03-30T14:39:59.794Z</time></trkpt><trkpt lat="43.4400329" lon="11.1682922"><ele>123.00000000000001</ele><time>2026-03-30T14:40:01.803Z</time></trkpt><trkpt lat="43.4399593" lon="11.1681644"><ele>123.00000000000001</ele><time>2026-03-30T14:40:03.868Z</time></trkpt><trkpt lat="43.4399085" lon="11.1680414"><ele>123.0</ele><time>2026-03-30T14:40:05.813Z</time></trkpt><trkpt lat="43.4398909" lon="11.1679243"><ele>123.0</ele><time>2026-03-30T14:40:07.795Z</time></trkpt><trkpt lat="43.4398545" lon="11.1677855"><ele>122.60000000000001</ele><time>2026-03-30T14:40:09.813Z</time></trkpt><trkpt lat="43.4397807" lon="11.1676586"><ele>122.20000000000002</ele><time>2026-03-30T14:40:11.802Z</time></trkpt><trkpt lat="43.4396951" lon="11.1675498"><ele>121.8</ele><time>2026-03-30T14:40:13.791Z</time></trkpt><trkpt lat="43.4396376" lon="11.1675002"><ele>121.4</ele><time>2026-03-30T14:40:17.802Z</time></trkpt><trkpt lat="43.4395593" lon="11.1673997"><ele>121.0</ele><time>2026-03-30T14:40:19.802Z</time></trkpt><trkpt lat="43.4395065" lon="11.1673119"><ele>122.6</ele><time>2026-03-30T14:40:21.808Z</time></trkpt><trkpt lat="43.4394549" lon="11.1672528"><ele>124.19999999999999</ele><time>2026-03-30T14:40:23.805Z</time></trkpt><trkpt lat="43.4393896" lon="11.1671803"><ele>125.80000000000001</ele><time>2026-03-30T14:40:26.802Z</time></trkpt><trkpt lat="43.4393367" lon="11.1671333"><ele>127.4</ele><time>2026-03-30T14:40:28.818Z</time></trkpt><trkpt lat="43.4392128" lon="11.1670841"><ele>129.0</ele><time>2026-03-30T14:40:30.803Z</time></trkpt><trkpt lat="43.4390924" lon="11.1670262"><ele>129.0</ele><time>2026-03-30T14:40:32.812Z</time></trkpt><trkpt lat="43.4390317" lon="11.1669763"><ele>129.0</ele><time>2026-03-30T14:40:33.804Z</time></trkpt><trkpt lat="43.4389779" lon="11.1669244"><ele>129.0</ele><time>2026-03-30T14:40:34.804Z</time></trkpt><trkpt lat="43.4388811" lon="11.1668204"><ele>129.0</ele><time>2026-03-30T14:40:36.81Z</time></trkpt><trkpt lat="43.4387874" lon="11.1667412"><ele>129.0</ele><time>2026-03-30T14:40:38.806Z</time></trkpt><trkpt lat="43.4387052" lon="11.1666716"><ele>128.5</ele><time>2026-03-30T14:40:40.796Z</time></trkpt><trkpt lat="43.4386267" lon="11.1666196"><ele>128.0</ele><time>2026-03-30T14:40:42.805Z</time></trkpt><trkpt lat="43.4385521" lon="11.166564"><ele>127.5</ele><time>2026-03-30T14:40:44.799Z</time></trkpt><trkpt lat="43.4384893" lon="11.1665083"><ele>127.0</ele><time>2026-03-30T14:40:46.809Z</time></trkpt><trkpt lat="43.4384273" lon="11.1664408"><ele>126.5</ele><time>2026-03-30T14:40:48.799Z</time></trkpt><trkpt lat="43.43836" lon="11.1663598"><ele>126.0</ele><time>2026-03-30T14:40:50.808Z</time></trkpt><trkpt lat="43.4382816" lon="11.1662686"><ele>126.0</ele><time>2026-03-30T14:40:52.806Z</time></trkpt><trkpt lat="43.4382315" lon="11.166215"><ele>126.0</ele><time>2026-03-30T14:40:53.785Z</time></trkpt><trkpt lat="43.438183" lon="11.1661464"><ele>126.0</ele><time>2026-03-30T14:40:54.84Z</time></trkpt><trkpt lat="43.4381357" lon="11.1660657"><ele>126.0</ele><time>2026-03-30T14:40:55.784Z</time></trkpt><trkpt lat="43.4380914" lon="11.1659847"><ele>126.0</ele><time>2026-03-30T14:40:56.803Z</time></trkpt><trkpt lat="43.4380516" lon="11.1659023"><ele>126.0</ele><time>2026-03-30T14:40:57.801Z</time></trkpt><trkpt lat="43.4380089" lon="11.16582"><ele>126.0</ele><time>2026-03-30T14:40:58.797Z</time></trkpt><trkpt lat="43.4379691" lon="11.1657411"><ele>125.42857142857143</ele><time>2026-03-30T14:40:59.799Z</time></trkpt><trkpt lat="43.4379315" lon="11.1656612"><ele>124.85714285714286</ele><time>2026-03-30T14:41:00.78Z</time></trkpt><trkpt lat="43.4378947" lon="11.1655811"><ele>124.28571428571428</ele><time>2026-03-30T14:41:01.862Z</time></trkpt><trkpt lat="43.4378559" lon="11.1655004"><ele>123.71428571428571</ele><time>2026-03-30T14:41:02.782Z</time></trkpt><trkpt lat="43.4378126" lon="11.1654262"><ele>123.14285714285714</ele><time>2026-03-30T14:41:03.807Z</time></trkpt><trkpt lat="43.4377684" lon="11.1653514"><ele>122.57142857142856</ele><time>2026-03-30T14:41:04.808Z</time></trkpt><trkpt lat="43.4377272" lon="11.1652816"><ele>121.99999999999999</ele><time>2026-03-30T14:41:05.799Z</time></trkpt><trkpt lat="43.4376881" lon="11.1652072"><ele>121.99999999999999</ele><time>2026-03-30T14:41:06.807Z</time></trkpt><trkpt lat="43.4376516" lon="11.1651353"><ele>122.0</ele><time>2026-03-30T14:41:07.829Z</time></trkpt><trkpt lat="43.4376153" lon="11.1650527"><ele>122.0</ele><time>2026-03-30T14:41:08.795Z</time></trkpt><trkpt lat="43.4375803" lon="11.164973"><ele>122.0</ele><time>2026-03-30T14:41:09.815Z</time></trkpt><trkpt lat="43.4375517" lon="11.1648923"><ele>121.99999999999999</ele><time>2026-03-30T14:41:10.791Z</time></trkpt><trkpt lat="43.4375251" lon="11.1648079"><ele>122.0</ele><time>2026-03-30T14:41:11.874Z</time></trkpt><trkpt lat="43.4374812" lon="11.1646509"><ele>122.0</ele><time>2026-03-30T14:41:13.819Z</time></trkpt><trkpt lat="43.4374441" lon="11.1645012"><ele>121.99999999999999</ele><time>2026-03-30T14:41:15.798Z</time></trkpt><trkpt lat="43.4374152" lon="11.1643557"><ele>121.99999999999999</ele><time>2026-03-30T14:41:17.802Z</time></trkpt><trkpt lat="43.4373909" lon="11.1642169"><ele>122.0</ele><time>2026-03-30T14:41:19.814Z</time></trkpt><trkpt lat="43.4373669" lon="11.1640692"><ele>122.0</ele><time>2026-03-30T14:41:21.866Z</time></trkpt><trkpt lat="43.4373685" lon="11.1639272"><ele>122.0</ele><time>2026-03-30T14:41:23.796Z</time></trkpt><trkpt lat="43.4373595" lon="11.1638077"><ele>121.99999999999999</ele><time>2026-03-30T14:41:25.802Z</time></trkpt><trkpt lat="43.4373444" lon="11.1636627"><ele>121.99999999999999</ele><time>2026-03-30T14:41:27.866Z</time></trkpt><trkpt lat="43.4373342" lon="11.1635102"><ele>122.0</ele><time>2026-03-30T14:41:29.813Z</time></trkpt><trkpt lat="43.4373268" lon="11.1633476"><ele>122.0</ele><time>2026-03-30T14:41:31.809Z</time></trkpt><trkpt lat="43.4373255" lon="11.163216"><ele>122.0</ele><time>2026-03-30T14:41:33.804Z</time></trkpt><trkpt lat="43.4373259" lon="11.1630721"><ele>121.99999999999999</ele><time>2026-03-30T14:41:35.794Z</time></trkpt><trkpt lat="43.4373312" lon="11.1629308"><ele>121.99999999999999</ele><time>2026-03-30T14:41:37.864Z</time></trkpt><trkpt lat="43.4373262" lon="11.1628197"><ele>122.0</ele><time>2026-03-30T14:41:39.791Z</time></trkpt><trkpt lat="43.4373463" lon="11.1626688"><ele>122.0</ele><time>2026-03-30T14:41:41.8Z</time></trkpt><trkpt lat="43.4373748" lon="11.1625043"><ele>121.6</ele><time>2026-03-30T14:41:43.802Z</time></trkpt><trkpt lat="43.4374022" lon="11.1623439"><ele>121.19999999999999</ele><time>2026-03-30T14:41:45.799Z</time></trkpt><trkpt lat="43.4374241" lon="11.1621989"><ele>120.8</ele><time>2026-03-30T14:41:47.877Z</time></trkpt><trkpt lat="43.4374461" lon="11.1620546"><ele>120.4</ele><time>2026-03-30T14:41:49.806Z</time></trkpt><trkpt lat="43.4374642" lon="11.161898"><ele>120.0</ele><time>2026-03-30T14:41:51.792Z</time></trkpt><trkpt lat="43.4374852" lon="11.1617408"><ele>120.33333333333334</ele><time>2026-03-30T14:41:53.861Z</time></trkpt><trkpt lat="43.4375534" lon="11.161393"><ele>120.66666666666667</ele><time>2026-03-30T14:41:58.842Z</time></trkpt><trkpt lat="43.4375556" lon="11.1612374"><ele>121.0</ele><time>2026-03-30T14:42:00.804Z</time></trkpt><trkpt lat="43.4375808" lon="11.1611139"><ele>121.0</ele><time>2026-03-30T14:42:02.796Z</time></trkpt><trkpt lat="43.4376048" lon="11.160965"><ele>121.0</ele><time>2026-03-30T14:42:04.785Z</time></trkpt><trkpt lat="43.437635" lon="11.1608158"><ele>121.0</ele><time>2026-03-30T14:42:06.798Z</time></trkpt><trkpt lat="43.4376669" lon="11.1606655"><ele>121.0</ele><time>2026-03-30T14:42:08.805Z</time></trkpt><trkpt lat="43.4377021" lon="11.160516"><ele>120.75</ele><time>2026-03-30T14:42:10.814Z</time></trkpt><trkpt lat="43.4377415" lon="11.1603737"><ele>120.5</ele><time>2026-03-30T14:42:12.875Z</time></trkpt><trkpt lat="43.4377839" lon="11.1602287"><ele>120.25</ele><time>2026-03-30T14:42:14.801Z</time></trkpt><trkpt lat="43.4378331" lon="11.1600843"><ele>120.0</ele><time>2026-03-30T14:42:16.803Z</time></trkpt><trkpt lat="43.4378779" lon="11.1599419"><ele>120.75</ele><time>2026-03-30T14:42:18.814Z</time></trkpt><trkpt lat="43.4379316" lon="11.159803"><ele>121.5</ele><time>2026-03-30T14:42:20.799Z</time></trkpt><trkpt lat="43.4379847" lon="11.1596644"><ele>122.25</ele><time>2026-03-30T14:42:22.803Z</time></trkpt><trkpt lat="43.4380365" lon="11.1595252"><ele>123.0</ele><time>2026-03-30T14:42:24.806Z</time></trkpt><trkpt lat="43.4380927" lon="11.1593891"><ele>123.0</ele><time>2026-03-30T14:42:26.811Z</time></trkpt><trkpt lat="43.4381495" lon="11.1592566"><ele>123.0</ele><time>2026-03-30T14:42:28.806Z</time></trkpt><trkpt lat="43.4382066" lon="11.1591234"><ele>123.0</ele><time>2026-03-30T14:42:30.806Z</time></trkpt><trkpt lat="43.4382732" lon="11.1589934"><ele>123.0</ele><time>2026-03-30T14:42:32.797Z</time></trkpt><trkpt lat="43.4383415" lon="11.1588738"><ele>123.0</ele><time>2026-03-30T14:42:34.806Z</time></trkpt><trkpt lat="43.4384082" lon="11.1587614"><ele>123.00000000000001</ele><time>2026-03-30T14:42:36.8Z</time></trkpt><trkpt lat="43.4384677" lon="11.1586482"><ele>123.00000000000001</ele><time>2026-03-30T14:42:38.803Z</time></trkpt><trkpt lat="43.4385272" lon="11.1585358"><ele>123.0</ele><time>2026-03-30T14:42:40.791Z</time></trkpt><trkpt lat="43.4385918" lon="11.1584318"><ele>123.0</ele><time>2026-03-30T14:42:42.81Z</time></trkpt><trkpt lat="43.4386542" lon="11.1583379"><ele>123.0</ele><time>2026-03-30T14:42:44.808Z</time></trkpt><trkpt lat="43.4387109" lon="11.1582393"><ele>123.00000000000001</ele><time>2026-03-30T14:42:46.809Z</time></trkpt><trkpt lat="43.4387666" lon="11.1581418"><ele>123.00000000000001</ele><time>2026-03-30T14:42:48.802Z</time></trkpt><trkpt lat="43.4388263" lon="11.1580472"><ele>123.0</ele><time>2026-03-30T14:42:50.81Z</time></trkpt><trkpt lat="43.4388885" lon="11.1579513"><ele>123.0</ele><time>2026-03-30T14:42:52.802Z</time></trkpt><trkpt lat="43.438954" lon="11.1578534"><ele>123.0</ele><time>2026-03-30T14:42:54.801Z</time></trkpt><trkpt lat="43.4390113" lon="11.1577379"><ele>123.00000000000001</ele><time>2026-03-30T14:42:56.799Z</time></trkpt><trkpt lat="43.4390334" lon="11.1576089"><ele>123.00000000000001</ele><time>2026-03-30T14:42:58.799Z</time></trkpt><trkpt lat="43.4390403" lon="11.1574648"><ele>123.0</ele><time>2026-03-30T14:43:00.799Z</time></trkpt><trkpt lat="43.4390535" lon="11.1573159"><ele>123.0</ele><time>2026-03-30T14:43:02.813Z</time></trkpt><trkpt lat="43.4390628" lon="11.157156"><ele>121.5</ele><time>2026-03-30T14:43:04.808Z</time></trkpt><trkpt lat="43.4390627" lon="11.1569936"><ele>120.0</ele><time>2026-03-30T14:43:06.806Z</time></trkpt><trkpt lat="43.4390567" lon="11.156833"><ele>118.5</ele><time>2026-03-30T14:43:08.803Z</time></trkpt><trkpt lat="43.4390351" lon="11.1566745"><ele>117.0</ele><time>2026-03-30T14:43:10.801Z</time></trkpt><trkpt lat="43.4389839" lon="11.1565273"><ele>116.75</ele><time>2026-03-30T14:43:12.81Z</time></trkpt><trkpt lat="43.4389225" lon="11.1563803"><ele>116.5</ele><time>2026-03-30T14:43:14.796Z</time></trkpt><trkpt lat="43.4388551" lon="11.156241"><ele>116.25</ele><time>2026-03-30T14:43:16.79Z</time></trkpt><trkpt lat="43.4387945" lon="11.156103"><ele>116.0</ele><time>2026-03-30T14:43:18.807Z</time></trkpt><trkpt lat="43.4387422" lon="11.1559628"><ele>116.0</ele><time>2026-03-30T14:43:20.801Z</time></trkpt><trkpt lat="43.4386965" lon="11.1558147"><ele>116.0</ele><time>2026-03-30T14:43:22.8Z</time></trkpt><trkpt lat="43.4386788" lon="11.1556721"><ele>116.0</ele><time>2026-03-30T14:43:24.81Z</time></trkpt><trkpt lat="43.438701" lon="11.1555256"><ele>116.0</ele><time>2026-03-30T14:43:26.806Z</time></trkpt><trkpt lat="43.4387544" lon="11.155396"><ele>116.0</ele><time>2026-03-30T14:43:28.802Z</time></trkpt><trkpt lat="43.4388208" lon="11.1552905"><ele>116.0</ele><time>2026-03-30T14:43:30.8Z</time></trkpt><trkpt lat="43.4388918" lon="11.1551846"><ele>116.0</ele><time>2026-03-30T14:43:32.812Z</time></trkpt><trkpt lat="43.438962" lon="11.1550759"><ele>116.0</ele><time>2026-03-30T14:43:34.796Z</time></trkpt><trkpt lat="43.4390336" lon="11.1549629"><ele>116.0</ele><time>2026-03-30T14:43:36.801Z</time></trkpt><trkpt lat="43.4391019" lon="11.1548462"><ele>116.0</ele><time>2026-03-30T14:43:38.807Z</time></trkpt><trkpt lat="43.4391789" lon="11.1547252"><ele>116.4</ele><time>2026-03-30T14:43:40.815Z</time></trkpt><trkpt lat="43.4392512" lon="11.1546155"><ele>116.8</ele><time>2026-03-30T14:43:42.811Z</time></trkpt><trkpt lat="43.4393201" lon="11.1545305"><ele>117.20000000000002</ele><time>2026-03-30T14:43:44.801Z</time></trkpt><trkpt lat="43.4393934" lon="11.154461"><ele>117.60000000000001</ele><time>2026-03-30T14:43:46.8Z</time></trkpt><trkpt lat="43.439468" lon="11.1543973"><ele>118.0</ele><time>2026-03-30T14:43:48.807Z</time></trkpt><trkpt lat="43.4395473" lon="11.1543284"><ele>117.60000000000001</ele><time>2026-03-30T14:43:50.803Z</time></trkpt><trkpt lat="43.4396355" lon="11.1542524"><ele>117.20000000000002</ele><time>2026-03-30T14:43:52.81Z</time></trkpt><trkpt lat="43.4397224" lon="11.1541749"><ele>116.8</ele><time>2026-03-30T14:43:54.809Z</time></trkpt><trkpt lat="43.4398134" lon="11.1540989"><ele>116.4</ele><time>2026-03-30T14:43:56.801Z</time></trkpt><trkpt lat="43.4399004" lon="11.1540259"><ele>116.0</ele><time>2026-03-30T14:43:58.803Z</time></trkpt><trkpt lat="43.4399898" lon="11.1539515"><ele>116.0</ele><time>2026-03-30T14:44:00.799Z</time></trkpt><trkpt lat="43.440082" lon="11.153883"><ele>116.0</ele><time>2026-03-30T14:44:02.779Z</time></trkpt><trkpt lat="43.4401782" lon="11.1538213"><ele>116.0</ele><time>2026-03-30T14:44:04.809Z</time></trkpt><trkpt lat="43.440267" lon="11.1537603"><ele>116.0</ele><time>2026-03-30T14:44:06.802Z</time></trkpt><trkpt lat="43.4403489" lon="11.1536902"><ele>116.0</ele><time>2026-03-30T14:44:08.81Z</time></trkpt><trkpt lat="43.4404425" lon="11.1536202"><ele>115.75</ele><time>2026-03-30T14:44:10.801Z</time></trkpt><trkpt lat="43.4405541" lon="11.1535632"><ele>115.5</ele><time>2026-03-30T14:44:12.804Z</time></trkpt><trkpt lat="43.4406659" lon="11.1535189"><ele>115.25</ele><time>2026-03-30T14:44:14.809Z</time></trkpt><trkpt lat="43.4407785" lon="11.1535013"><ele>115.0</ele><time>2026-03-30T14:44:16.805Z</time></trkpt><trkpt lat="43.4408979" lon="11.1535038"><ele>115.0</ele><time>2026-03-30T14:44:18.798Z</time></trkpt><trkpt lat="43.4410159" lon="11.1535041"><ele>115.0</ele><time>2026-03-30T14:44:20.802Z</time></trkpt><trkpt lat="43.4411254" lon="11.1535532"><ele>115.0</ele><time>2026-03-30T14:44:22.811Z</time></trkpt><trkpt lat="43.4412123" lon="11.1536468"><ele>115.0</ele><time>2026-03-30T14:44:24.799Z</time></trkpt><trkpt lat="43.4412927" lon="11.1537511"><ele>114.8</ele><time>2026-03-30T14:44:26.801Z</time></trkpt><trkpt lat="43.4413678" lon="11.1538579"><ele>114.6</ele><time>2026-03-30T14:44:28.8Z</time></trkpt><trkpt lat="43.4414496" lon="11.1539541"><ele>114.4</ele><time>2026-03-30T14:44:30.796Z</time></trkpt><trkpt lat="43.4415462" lon="11.1540177"><ele>114.2</ele><time>2026-03-30T14:44:32.805Z</time></trkpt><trkpt lat="43.4416534" lon="11.1540309"><ele>114.0</ele><time>2026-03-30T14:44:34.799Z</time></trkpt><trkpt lat="43.4417727" lon="11.1540104"><ele>114.0</ele><time>2026-03-30T14:44:36.81Z</time></trkpt><trkpt lat="43.4418805" lon="11.1539773"><ele>114.0</ele><time>2026-03-30T14:44:38.811Z</time></trkpt><trkpt lat="43.4419785" lon="11.1539327"><ele>114.0</ele><time>2026-03-30T14:44:40.818Z</time></trkpt><trkpt lat="43.4420827" lon="11.1538758"><ele>114.0</ele><time>2026-03-30T14:44:42.817Z</time></trkpt><trkpt lat="43.4421837" lon="11.1538146"><ele>114.0</ele><time>2026-03-30T14:44:44.809Z</time></trkpt><trkpt lat="43.442272" lon="11.1537099"><ele>114.2</ele><time>2026-03-30T14:44:46.803Z</time></trkpt><trkpt lat="43.4423614" lon="11.1535899"><ele>114.4</ele><time>2026-03-30T14:44:48.816Z</time></trkpt><trkpt lat="43.4424066" lon="11.1535266"><ele>114.6</ele><time>2026-03-30T14:44:49.805Z</time></trkpt><trkpt lat="43.4424997" lon="11.1534312"><ele>114.8</ele><time>2026-03-30T14:44:51.801Z</time></trkpt><trkpt lat="43.4426039" lon="11.1533331"><ele>115.0</ele><time>2026-03-30T14:44:53.814Z</time></trkpt><trkpt lat="43.442675" lon="11.1531913"><ele>114.66666666666667</ele><time>2026-03-30T14:44:55.799Z</time></trkpt><trkpt lat="43.4427173" lon="11.1531153"><ele>114.33333333333334</ele><time>2026-03-30T14:44:56.8Z</time></trkpt><trkpt lat="43.4427942" lon="11.1529784"><ele>114.0</ele><time>2026-03-30T14:44:58.798Z</time></trkpt><trkpt lat="43.4428361" lon="11.1529115"><ele>113.66666666666666</ele><time>2026-03-30T14:44:59.805Z</time></trkpt><trkpt lat="43.44288" lon="11.1528433"><ele>113.33333333333333</ele><time>2026-03-30T14:45:00.804Z</time></trkpt><trkpt lat="43.4429271" lon="11.1527804"><ele>113.0</ele><time>2026-03-30T14:45:01.809Z</time></trkpt><trkpt lat="43.4429801" lon="11.1527235"><ele>112.71428571428572</ele><time>2026-03-30T14:45:02.811Z</time></trkpt><trkpt lat="43.4430325" lon="11.1526718"><ele>112.42857142857142</ele><time>2026-03-30T14:45:03.816Z</time></trkpt><trkpt lat="43.4430871" lon="11.1526268"><ele>112.14285714285714</ele><time>2026-03-30T14:45:04.801Z</time></trkpt><trkpt lat="43.4431437" lon="11.152586"><ele>111.85714285714286</ele><time>2026-03-30T14:45:05.808Z</time></trkpt><trkpt lat="43.4432029" lon="11.1525552"><ele>111.57142857142858</ele><time>2026-03-30T14:45:06.809Z</time></trkpt><trkpt lat="43.4432691" lon="11.1525342"><ele>111.28571428571428</ele><time>2026-03-30T14:45:07.809Z</time></trkpt><trkpt lat="43.4433363" lon="11.1525149"><ele>111.0</ele><time>2026-03-30T14:45:08.81Z</time></trkpt><trkpt lat="43.4434609" lon="11.1525214"><ele>111.0</ele><time>2026-03-30T14:45:10.811Z</time></trkpt><trkpt lat="43.4435247" lon="11.1525316"><ele>111.0</ele><time>2026-03-30T14:45:11.819Z</time></trkpt><trkpt lat="43.4436439" lon="11.1525439"><ele>111.0</ele><time>2026-03-30T14:45:13.806Z</time></trkpt><trkpt lat="43.4437623" lon="11.152553"><ele>111.0</ele><time>2026-03-30T14:45:15.812Z</time></trkpt><trkpt lat="43.4438754" lon="11.1525284"><ele>111.0</ele><time>2026-03-30T14:45:17.808Z</time></trkpt><trkpt lat="43.443942" lon="11.1524972"><ele>111.0</ele><time>2026-03-30T14:45:18.779Z</time></trkpt><trkpt lat="43.4440146" lon="11.1524569"><ele>111.0</ele><time>2026-03-30T14:45:19.787Z</time></trkpt><trkpt lat="43.4440824" lon="11.1523531"><ele>111.0</ele><time>2026-03-30T14:45:21.79Z</time></trkpt><trkpt lat="43.44416" lon="11.1522269"><ele>111.0</ele><time>2026-03-30T14:45:23.813Z</time></trkpt><trkpt lat="43.444253" lon="11.152139"><ele>111.0</ele><time>2026-03-30T14:45:25.805Z</time></trkpt><trkpt lat="43.4443601" lon="11.1521043"><ele>111.25</ele><time>2026-03-30T14:45:27.875Z</time></trkpt><trkpt lat="43.4444759" lon="11.1521185"><ele>111.5</ele><time>2026-03-30T14:45:29.804Z</time></trkpt><trkpt lat="43.4445787" lon="11.1521352"><ele>111.75</ele><time>2026-03-30T14:45:31.8Z</time></trkpt><trkpt lat="43.4446952" lon="11.1521285"><ele>112.0</ele><time>2026-03-30T14:45:33.806Z</time></trkpt><trkpt lat="43.4448168" lon="11.1521258"><ele>112.0</ele><time>2026-03-30T14:45:35.808Z</time></trkpt><trkpt lat="43.4449335" lon="11.15212"><ele>112.0</ele><time>2026-03-30T14:45:37.875Z</time></trkpt><trkpt lat="43.4450535" lon="11.1521068"><ele>112.0</ele><time>2026-03-30T14:45:39.786Z</time></trkpt><trkpt lat="43.4451808" lon="11.1521002"><ele>112.0</ele><time>2026-03-30T14:45:41.877Z</time></trkpt><trkpt lat="43.445303" lon="11.1520945"><ele>112.0</ele><time>2026-03-30T14:45:43.793Z</time></trkpt><trkpt lat="43.4453676" lon="11.1520946"><ele>111.99999999999999</ele><time>2026-03-30T14:45:44.796Z</time></trkpt><trkpt lat="43.4454321" lon="11.1520886"><ele>111.99999999999999</ele><time>2026-03-30T14:45:45.806Z</time></trkpt><trkpt lat="43.445551" lon="11.1520839"><ele>112.0</ele><time>2026-03-30T14:45:47.869Z</time></trkpt><trkpt lat="43.4456656" lon="11.1521285"><ele>112.0</ele><time>2026-03-30T14:45:49.789Z</time></trkpt><trkpt lat="43.4457563" lon="11.1522309"><ele>112.0</ele><time>2026-03-30T14:45:51.803Z</time></trkpt><trkpt lat="43.4458368" lon="11.1523593"><ele>112.0</ele><time>2026-03-30T14:45:53.812Z</time></trkpt><trkpt lat="43.4459151" lon="11.1524837"><ele>112.0</ele><time>2026-03-30T14:45:55.818Z</time></trkpt><trkpt lat="43.4460068" lon="11.152576"><ele>112.0</ele><time>2026-03-30T14:45:57.805Z</time></trkpt><trkpt lat="43.4461148" lon="11.1526398"><ele>112.0</ele><time>2026-03-30T14:45:59.808Z</time></trkpt><trkpt lat="43.4462233" lon="11.1527067"><ele>111.99999999999999</ele><time>2026-03-30T14:46:01.808Z</time></trkpt><trkpt lat="43.4463434" lon="11.152734"><ele>111.99999999999999</ele><time>2026-03-30T14:46:03.773Z</time></trkpt><trkpt lat="43.4464549" lon="11.1527406"><ele>112.0</ele><time>2026-03-30T14:46:05.822Z</time></trkpt><trkpt lat="43.4465235" lon="11.1527237"><ele>112.0</ele><time>2026-03-30T14:46:06.897Z</time></trkpt><trkpt lat="43.4466533" lon="11.1526936"><ele>112.0</ele><time>2026-03-30T14:46:08.809Z</time></trkpt><trkpt lat="43.4467681" lon="11.1526715"><ele>112.0</ele><time>2026-03-30T14:46:10.799Z</time></trkpt><trkpt lat="43.4468754" lon="11.1526474"><ele>112.0</ele><time>2026-03-30T14:46:12.887Z</time></trkpt><trkpt lat="43.4469866" lon="11.1526191"><ele>112.0</ele><time>2026-03-30T14:46:14.809Z</time></trkpt><trkpt lat="43.4471059" lon="11.1525922"><ele>112.5</ele><time>2026-03-30T14:46:16.797Z</time></trkpt><trkpt lat="43.4472243" lon="11.1525657"><ele>113.0</ele><time>2026-03-30T14:46:18.874Z</time></trkpt><trkpt lat="43.4473461" lon="11.1525474"><ele>113.5</ele><time>2026-03-30T14:46:20.808Z</time></trkpt><trkpt lat="43.4474704" lon="11.1525073"><ele>114.0</ele><time>2026-03-30T14:46:22.865Z</time></trkpt><trkpt lat="43.4475914" lon="11.1524787"><ele>114.0</ele><time>2026-03-30T14:46:24.792Z</time></trkpt><trkpt lat="43.4476519" lon="11.152453"><ele>114.0</ele><time>2026-03-30T14:46:25.804Z</time></trkpt><trkpt lat="43.4477137" lon="11.1524324"><ele>114.0</ele><time>2026-03-30T14:46:26.898Z</time></trkpt><trkpt lat="43.4478274" lon="11.152406"><ele>114.0</ele><time>2026-03-30T14:46:28.816Z</time></trkpt><trkpt lat="43.4479377" lon="11.1523921"><ele>114.0</ele><time>2026-03-30T14:46:30.812Z</time></trkpt><trkpt lat="43.4480357" lon="11.1523753"><ele>114.0</ele><time>2026-03-30T14:46:32.863Z</time></trkpt><trkpt lat="43.4481481" lon="11.1523707"><ele>114.0</ele><time>2026-03-30T14:46:34.807Z</time></trkpt><trkpt lat="43.4482487" lon="11.1523543"><ele>114.0</ele><time>2026-03-30T14:46:36.805Z</time></trkpt><trkpt lat="43.4483627" lon="11.1523258"><ele>114.0</ele><time>2026-03-30T14:46:38.805Z</time></trkpt><trkpt lat="43.4484325" lon="11.1523113"><ele>114.0</ele><time>2026-03-30T14:46:39.799Z</time></trkpt><trkpt lat="43.4485047" lon="11.1522902"><ele>114.0</ele><time>2026-03-30T14:46:40.798Z</time></trkpt><trkpt lat="43.4485737" lon="11.1522595"><ele>114.0</ele><time>2026-03-30T14:46:41.867Z</time></trkpt><trkpt lat="43.4486935" lon="11.1522116"><ele>114.0</ele><time>2026-03-30T14:46:43.869Z</time></trkpt><trkpt lat="43.4487576" lon="11.1521671"><ele>114.0</ele><time>2026-03-30T14:46:44.792Z</time></trkpt><trkpt lat="43.4488183" lon="11.152118"><ele>114.0</ele><time>2026-03-30T14:46:45.799Z</time></trkpt><trkpt lat="43.448871" lon="11.1520679"><ele>114.0</ele><time>2026-03-30T14:46:46.807Z</time></trkpt><trkpt lat="43.448929" lon="11.1520109"><ele>113.75</ele><time>2026-03-30T14:46:47.804Z</time></trkpt><trkpt lat="43.449032" lon="11.1518996"><ele>113.5</ele><time>2026-03-30T14:46:49.805Z</time></trkpt><trkpt lat="43.4491125" lon="11.1517871"><ele>113.25</ele><time>2026-03-30T14:46:51.81Z</time></trkpt><trkpt lat="43.4491904" lon="11.1516724"><ele>113.0</ele><time>2026-03-30T14:46:53.804Z</time></trkpt><trkpt lat="43.4492763" lon="11.1515568"><ele>113.0</ele><time>2026-03-30T14:46:55.802Z</time></trkpt><trkpt lat="43.4493582" lon="11.1514421"><ele>113.0</ele><time>2026-03-30T14:46:57.799Z</time></trkpt><trkpt lat="43.4494509" lon="11.1513458"><ele>113.0</ele><time>2026-03-30T14:46:59.806Z</time></trkpt><trkpt lat="43.4495452" lon="11.1512629"><ele>113.0</ele><time>2026-03-30T14:47:01.889Z</time></trkpt><trkpt lat="43.4496461" lon="11.151198"><ele>112.60000000000001</ele><time>2026-03-30T14:47:03.808Z</time></trkpt><trkpt lat="43.4497418" lon="11.1511212"><ele>112.20000000000002</ele><time>2026-03-30T14:47:05.804Z</time></trkpt><trkpt lat="43.4498177" lon="11.1510302"><ele>111.8</ele><time>2026-03-30T14:47:07.782Z</time></trkpt><trkpt lat="43.4498896" lon="11.1509358"><ele>111.4</ele><time>2026-03-30T14:47:09.797Z</time></trkpt><trkpt lat="43.4499802" lon="11.1508607"><ele>111.0</ele><time>2026-03-30T14:47:11.806Z</time></trkpt><trkpt lat="43.4500638" lon="11.1507915"><ele>111.0</ele><time>2026-03-30T14:47:13.783Z</time></trkpt><trkpt lat="43.4501406" lon="11.1507359"><ele>111.0</ele><time>2026-03-30T14:47:15.806Z</time></trkpt><trkpt lat="43.4502214" lon="11.1507045"><ele>111.0</ele><time>2026-03-30T14:47:17.866Z</time></trkpt><trkpt lat="43.4502992" lon="11.150691"><ele>111.0</ele><time>2026-03-30T14:47:19.817Z</time></trkpt><trkpt lat="43.4504148" lon="11.1507151"><ele>111.0</ele><time>2026-03-30T14:47:21.804Z</time></trkpt><trkpt lat="43.4504823" lon="11.1507393"><ele>111.0</ele><time>2026-03-30T14:47:22.796Z</time></trkpt><trkpt lat="43.4505487" lon="11.1507688"><ele>110.8</ele><time>2026-03-30T14:47:23.804Z</time></trkpt><trkpt lat="43.4506117" lon="11.1507976"><ele>110.6</ele><time>2026-03-30T14:47:24.817Z</time></trkpt><trkpt lat="43.4507279" lon="11.1508595"><ele>110.4</ele><time>2026-03-30T14:47:26.809Z</time></trkpt><trkpt lat="43.450831" lon="11.1509408"><ele>110.2</ele><time>2026-03-30T14:47:28.781Z</time></trkpt><trkpt lat="43.4509166" lon="11.151049"><ele>110.0</ele><time>2026-03-30T14:47:30.806Z</time></trkpt><trkpt lat="43.4509803" lon="11.1511723"><ele>110.0</ele><time>2026-03-30T14:47:32.802Z</time></trkpt><trkpt lat="43.4510498" lon="11.1512739"><ele>110.0</ele><time>2026-03-30T14:47:34.797Z</time></trkpt><trkpt lat="43.4511256" lon="11.1513499"><ele>110.0</ele><time>2026-03-30T14:47:36.874Z</time></trkpt><trkpt lat="43.4511964" lon="11.1514028"><ele>110.0</ele><time>2026-03-30T14:47:38.78Z</time></trkpt><trkpt lat="43.451268" lon="11.151444"><ele>110.0</ele><time>2026-03-30T14:47:40.803Z</time></trkpt><trkpt lat="43.4513589" lon="11.1514946"><ele>110.66666666666666</ele><time>2026-03-30T14:47:42.82Z</time></trkpt><trkpt lat="43.4514523" lon="11.1515714"><ele>111.33333333333333</ele><time>2026-03-30T14:47:44.797Z</time></trkpt><trkpt lat="43.4515624" lon="11.1516597"><ele>112.0</ele><time>2026-03-30T14:47:46.808Z</time></trkpt><trkpt lat="43.4516227" lon="11.1517097"><ele>112.66666666666666</ele><time>2026-03-30T14:47:47.804Z</time></trkpt><trkpt lat="43.451681" lon="11.151763"><ele>113.33333333333333</ele><time>2026-03-30T14:47:48.788Z</time></trkpt><trkpt lat="43.4517354" lon="11.1518203"><ele>114.0</ele><time>2026-03-30T14:47:49.812Z</time></trkpt><trkpt lat="43.451786" lon="11.1518805"><ele>114.0</ele><time>2026-03-30T14:47:50.81Z</time></trkpt><trkpt lat="43.4518323" lon="11.1519426"><ele>114.0</ele><time>2026-03-30T14:47:51.808Z</time></trkpt><trkpt lat="43.4518718" lon="11.1520149"><ele>114.0</ele><time>2026-03-30T14:47:52.808Z</time></trkpt><trkpt lat="43.4518899" lon="11.1521813"><ele>114.0</ele><time>2026-03-30T14:47:54.805Z</time></trkpt><trkpt lat="43.4518805" lon="11.1523302"><ele>114.0</ele><time>2026-03-30T14:47:56.8Z</time></trkpt><trkpt lat="43.4519193" lon="11.1524659"><ele>113.80000000000001</ele><time>2026-03-30T14:47:58.809Z</time></trkpt><trkpt lat="43.4520182" lon="11.152565"><ele>113.60000000000001</ele><time>2026-03-30T14:48:00.806Z</time></trkpt><trkpt lat="43.4521293" lon="11.1526378"><ele>113.4</ele><time>2026-03-30T14:48:02.812Z</time></trkpt><trkpt lat="43.4522266" lon="11.1527045"><ele>113.2</ele><time>2026-03-30T14:48:04.791Z</time></trkpt><trkpt lat="43.4523043" lon="11.1527806"><ele>113.0</ele><time>2026-03-30T14:48:06.809Z</time></trkpt><trkpt lat="43.4523317" lon="11.1528703"><ele>112.60000000000001</ele><time>2026-03-30T14:48:08.793Z</time></trkpt><trkpt lat="43.4523116" lon="11.1530109"><ele>112.20000000000002</ele><time>2026-03-30T14:48:10.796Z</time></trkpt><trkpt lat="43.452323" lon="11.1531363"><ele>111.8</ele><time>2026-03-30T14:48:12.818Z</time></trkpt><trkpt lat="43.4523564" lon="11.1532552"><ele>111.4</ele><time>2026-03-30T14:48:14.798Z</time></trkpt><trkpt lat="43.4523778" lon="11.1533678"><ele>111.0</ele><time>2026-03-30T14:48:16.8Z</time></trkpt><trkpt lat="43.452398" lon="11.1534831"><ele>110.4</ele><time>2026-03-30T14:48:18.811Z</time></trkpt><trkpt lat="43.452427" lon="11.153597"><ele>109.8</ele><time>2026-03-30T14:48:20.808Z</time></trkpt><trkpt lat="43.4524504" lon="11.1537192"><ele>109.20000000000002</ele><time>2026-03-30T14:48:22.821Z</time></trkpt><trkpt lat="43.4524688" lon="11.1538481"><ele>108.60000000000001</ele><time>2026-03-30T14:48:24.805Z</time></trkpt><trkpt lat="43.4525017" lon="11.1539835"><ele>108.0</ele><time>2026-03-30T14:48:26.806Z</time></trkpt><trkpt lat="43.4525278" lon="11.1541113"><ele>108.0</ele><time>2026-03-30T14:48:28.811Z</time></trkpt><trkpt lat="43.4525545" lon="11.1542487"><ele>108.00000000000001</ele><time>2026-03-30T14:48:30.818Z</time></trkpt><trkpt lat="43.4525849" lon="11.1543909"><ele>108.00000000000001</ele><time>2026-03-30T14:48:32.802Z</time></trkpt><trkpt lat="43.4526434" lon="11.1545153"><ele>108.0</ele><time>2026-03-30T14:48:34.8Z</time></trkpt><trkpt lat="43.4527224" lon="11.154623"><ele>108.0</ele><time>2026-03-30T14:48:36.812Z</time></trkpt><trkpt lat="43.4528104" lon="11.1547211"><ele>108.0</ele><time>2026-03-30T14:48:38.804Z</time></trkpt><trkpt lat="43.4529066" lon="11.1548203"><ele>108.0</ele><time>2026-03-30T14:48:40.803Z</time></trkpt><trkpt lat="43.4530033" lon="11.1549165"><ele>108.0</ele><time>2026-03-30T14:48:42.804Z</time></trkpt><trkpt lat="43.4530984" lon="11.1550131"><ele>108.0</ele><time>2026-03-30T14:48:44.802Z</time></trkpt><trkpt lat="43.4531934" lon="11.1550986"><ele>108.25</ele><time>2026-03-30T14:48:46.807Z</time></trkpt><trkpt lat="43.453297" lon="11.1551696"><ele>108.5</ele><time>2026-03-30T14:48:48.805Z</time></trkpt><trkpt lat="43.4533991" lon="11.1552316"><ele>108.75</ele><time>2026-03-30T14:48:50.803Z</time></trkpt><trkpt lat="43.4535077" lon="11.1552885"><ele>109.0</ele><time>2026-03-30T14:48:52.808Z</time></trkpt><trkpt lat="43.4536081" lon="11.1553399"><ele>109.0</ele><time>2026-03-30T14:48:54.809Z</time></trkpt><trkpt lat="43.4536752" lon="11.1554274"><ele>109.0</ele><time>2026-03-30T14:48:56.819Z</time></trkpt><trkpt lat="43.4536692" lon="11.1555586"><ele>109.0</ele><time>2026-03-30T14:48:58.811Z</time></trkpt><trkpt lat="43.4536403" lon="11.1556846"><ele>109.0</ele><time>2026-03-30T14:49:00.803Z</time></trkpt><trkpt lat="43.4536532" lon="11.1558095"><ele>109.0</ele><time>2026-03-30T14:49:02.806Z</time></trkpt><trkpt lat="43.4537118" lon="11.1559032"><ele>109.4</ele><time>2026-03-30T14:49:04.814Z</time></trkpt><trkpt lat="43.4537834" lon="11.1559892"><ele>109.80000000000001</ele><time>2026-03-30T14:49:06.815Z</time></trkpt><trkpt lat="43.4538625" lon="11.1560785"><ele>110.19999999999999</ele><time>2026-03-30T14:49:08.818Z</time></trkpt><trkpt lat="43.4539375" lon="11.1561814"><ele>110.6</ele><time>2026-03-30T14:49:10.809Z</time></trkpt><trkpt lat="43.4540189" lon="11.1562915"><ele>111.0</ele><time>2026-03-30T14:49:12.8Z</time></trkpt><trkpt lat="43.4540971" lon="11.1563935"><ele>110.8</ele><time>2026-03-30T14:49:14.809Z</time></trkpt><trkpt lat="43.4541776" lon="11.1565014"><ele>110.6</ele><time>2026-03-30T14:49:16.798Z</time></trkpt><trkpt lat="43.454251" lon="11.1566112"><ele>110.4</ele><time>2026-03-30T14:49:18.805Z</time></trkpt><trkpt lat="43.454323" lon="11.1567187"><ele>110.2</ele><time>2026-03-30T14:49:20.811Z</time></trkpt><trkpt lat="43.4544005" lon="11.1568157"><ele>110.0</ele><time>2026-03-30T14:49:22.805Z</time></trkpt><trkpt lat="43.4544826" lon="11.1569172"><ele>110.0</ele><time>2026-03-30T14:49:24.814Z</time></trkpt><trkpt lat="43.4545548" lon="11.1570346"><ele>110.0</ele><time>2026-03-30T14:49:26.808Z</time></trkpt><trkpt lat="43.4546305" lon="11.1571554"><ele>110.0</ele><time>2026-03-30T14:49:28.81Z</time></trkpt><trkpt lat="43.4547078" lon="11.1572662"><ele>110.0</ele><time>2026-03-30T14:49:30.797Z</time></trkpt><trkpt lat="43.4547848" lon="11.157382"><ele>109.6</ele><time>2026-03-30T14:49:32.804Z</time></trkpt><trkpt lat="43.4548599" lon="11.1574904"><ele>109.2</ele><time>2026-03-30T14:49:34.808Z</time></trkpt><trkpt lat="43.4549321" lon="11.1576059"><ele>108.80000000000001</ele><time>2026-03-30T14:49:36.805Z</time></trkpt><trkpt lat="43.4549984" lon="11.1577201"><ele>108.4</ele><time>2026-03-30T14:49:38.803Z</time></trkpt><trkpt lat="43.4550689" lon="11.1578251"><ele>108.0</ele><time>2026-03-30T14:49:40.809Z</time></trkpt><trkpt lat="43.4551471" lon="11.1579218"><ele>108.0</ele><time>2026-03-30T14:49:42.787Z</time></trkpt><trkpt lat="43.4552273" lon="11.1580193"><ele>108.00000000000001</ele><time>2026-03-30T14:49:44.786Z</time></trkpt><trkpt lat="43.4553294" lon="11.1580741"><ele>108.00000000000001</ele><time>2026-03-30T14:49:46.784Z</time></trkpt><trkpt lat="43.4554401" lon="11.1580807"><ele>108.0</ele><time>2026-03-30T14:49:48.803Z</time></trkpt><trkpt lat="43.4555562" lon="11.1580801"><ele>108.0</ele><time>2026-03-30T14:49:50.812Z</time></trkpt><trkpt lat="43.4556235" lon="11.1580784"><ele>107.83333333333333</ele><time>2026-03-30T14:49:51.818Z</time></trkpt><trkpt lat="43.4556998" lon="11.1580841"><ele>107.66666666666666</ele><time>2026-03-30T14:49:52.804Z</time></trkpt><trkpt lat="43.4557809" lon="11.1580834"><ele>107.5</ele><time>2026-03-30T14:49:53.809Z</time></trkpt><trkpt lat="43.4558593" lon="11.1580838"><ele>107.33333333333333</ele><time>2026-03-30T14:49:54.799Z</time></trkpt><trkpt lat="43.4559327" lon="11.1580865"><ele>107.16666666666666</ele><time>2026-03-30T14:49:55.788Z</time></trkpt><trkpt lat="43.4560088" lon="11.1580955"><ele>107.0</ele><time>2026-03-30T14:49:56.806Z</time></trkpt><trkpt lat="43.4560808" lon="11.1581113"><ele>107.00000000000001</ele><time>2026-03-30T14:49:57.819Z</time></trkpt><trkpt lat="43.4561521" lon="11.158133"><ele>107.0</ele><time>2026-03-30T14:49:58.807Z</time></trkpt><trkpt lat="43.4562202" lon="11.1581568"><ele>107.0</ele><time>2026-03-30T14:49:59.814Z</time></trkpt><trkpt lat="43.456285" lon="11.1581923"><ele>107.0</ele><time>2026-03-30T14:50:00.805Z</time></trkpt><trkpt lat="43.4563456" lon="11.1582363"><ele>107.0</ele><time>2026-03-30T14:50:01.803Z</time></trkpt><trkpt lat="43.4564047" lon="11.1582758"><ele>107.00000000000001</ele><time>2026-03-30T14:50:02.828Z</time></trkpt><trkpt lat="43.4564647" lon="11.1583093"><ele>107.0</ele><time>2026-03-30T14:50:03.805Z</time></trkpt><trkpt lat="43.4565237" lon="11.1583441"><ele>106.83333333333333</ele><time>2026-03-30T14:50:04.797Z</time></trkpt><trkpt lat="43.4566091" lon="11.1584306"><ele>106.66666666666666</ele><time>2026-03-30T14:50:06.807Z</time></trkpt><trkpt lat="43.4566416" lon="11.1585394"><ele>106.5</ele><time>2026-03-30T14:50:08.807Z</time></trkpt><trkpt lat="43.4566668" lon="11.1586391"><ele>106.33333333333334</ele><time>2026-03-30T14:50:10.805Z</time></trkpt><trkpt lat="43.4567374" lon="11.1586744"><ele>106.16666666666667</ele><time>2026-03-30T14:50:13.808Z</time></trkpt><trkpt lat="43.4568366" lon="11.1586816"><ele>106.0</ele><time>2026-03-30T14:50:15.784Z</time></trkpt><trkpt lat="43.4568989" lon="11.1587041"><ele>106.0</ele><time>2026-03-30T14:50:16.807Z</time></trkpt><trkpt lat="43.4569651" lon="11.1587196"><ele>106.0</ele><time>2026-03-30T14:50:17.803Z</time></trkpt><trkpt lat="43.4570879" lon="11.1587435"><ele>106.0</ele><time>2026-03-30T14:50:19.806Z</time></trkpt><trkpt lat="43.4572" lon="11.1587538"><ele>106.0</ele><time>2026-03-30T14:50:21.803Z</time></trkpt><trkpt lat="43.4572959" lon="11.1587647"><ele>106.0</ele><time>2026-03-30T14:50:23.802Z</time></trkpt><trkpt lat="43.4573912" lon="11.1587739"><ele>106.16666666666667</ele><time>2026-03-30T14:50:25.815Z</time></trkpt><trkpt lat="43.4574779" lon="11.1587998"><ele>106.33333333333334</ele><time>2026-03-30T14:50:27.802Z</time></trkpt><trkpt lat="43.457552" lon="11.1587887"><ele>106.5</ele><time>2026-03-30T14:50:29.805Z</time></trkpt><trkpt lat="43.4576188" lon="11.1587397"><ele>106.66666666666666</ele><time>2026-03-30T14:50:31.806Z</time></trkpt><trkpt lat="43.4576806" lon="11.1586833"><ele>106.83333333333333</ele><time>2026-03-30T14:50:33.815Z</time></trkpt><trkpt lat="43.4577496" lon="11.1586276"><ele>107.0</ele><time>2026-03-30T14:50:35.803Z</time></trkpt><trkpt lat="43.4578226" lon="11.1586468"><ele>106.99999999999999</ele><time>2026-03-30T14:50:38.784Z</time></trkpt><trkpt lat="43.4578942" lon="11.1586936"><ele>107.0</ele><time>2026-03-30T14:50:41.8Z</time></trkpt><trkpt lat="43.4579065" lon="11.1587857"><ele>107.0</ele><time>2026-03-30T14:50:44.815Z</time></trkpt><trkpt lat="43.457933" lon="11.1588704"><ele>107.0</ele><time>2026-03-30T14:50:47.88Z</time></trkpt><trkpt lat="43.4580002" lon="11.1589165"><ele>106.99999999999999</ele><time>2026-03-30T14:50:49.799Z</time></trkpt><trkpt lat="43.4580741" lon="11.158969"><ele>107.0</ele><time>2026-03-30T14:50:51.805Z</time></trkpt><trkpt lat="43.4581449" lon="11.1590398"><ele>107.19999999999999</ele><time>2026-03-30T14:50:53.81Z</time></trkpt><trkpt lat="43.4582123" lon="11.1591338"><ele>107.39999999999999</ele><time>2026-03-30T14:50:55.801Z</time></trkpt><trkpt lat="43.4582636" lon="11.1592325"><ele>107.60000000000001</ele><time>2026-03-30T14:50:57.801Z</time></trkpt><trkpt lat="43.4583174" lon="11.1593401"><ele>107.80000000000001</ele><time>2026-03-30T14:50:59.823Z</time></trkpt><trkpt lat="43.4583692" lon="11.1594625"><ele>108.0</ele><time>2026-03-30T14:51:01.88Z</time></trkpt><trkpt lat="43.4584158" lon="11.1595768"><ele>108.0</ele><time>2026-03-30T14:51:03.867Z</time></trkpt><trkpt lat="43.4584764" lon="11.159688"><ele>108.00000000000001</ele><time>2026-03-30T14:51:05.82Z</time></trkpt><trkpt lat="43.4585387" lon="11.1597902"><ele>108.00000000000001</ele><time>2026-03-30T14:51:07.87Z</time></trkpt><trkpt lat="43.4585945" lon="11.1599005"><ele>108.0</ele><time>2026-03-30T14:51:09.799Z</time></trkpt><trkpt lat="43.4586601" lon="11.1599986"><ele>108.0</ele><time>2026-03-30T14:51:11.814Z</time></trkpt><trkpt lat="43.4587498" lon="11.1600424"><ele>107.80000000000001</ele><time>2026-03-30T14:51:13.787Z</time></trkpt><trkpt lat="43.4588526" lon="11.1600285"><ele>107.60000000000001</ele><time>2026-03-30T14:51:15.785Z</time></trkpt><trkpt lat="43.4589166" lon="11.159991"><ele>107.39999999999999</ele><time>2026-03-30T14:51:16.804Z</time></trkpt><trkpt lat="43.459019" lon="11.1599084"><ele>107.19999999999999</ele><time>2026-03-30T14:51:18.798Z</time></trkpt><trkpt lat="43.4591165" lon="11.1598684"><ele>107.0</ele><time>2026-03-30T14:51:20.815Z</time></trkpt><trkpt lat="43.459222" lon="11.1598306"><ele>108.19999999999999</ele><time>2026-03-30T14:51:22.807Z</time></trkpt><trkpt lat="43.4593239" lon="11.1597843"><ele>109.39999999999999</ele><time>2026-03-30T14:51:24.871Z</time></trkpt><trkpt lat="43.4594237" lon="11.159724"><ele>110.60000000000001</ele><time>2026-03-30T14:51:26.813Z</time></trkpt><trkpt lat="43.4595232" lon="11.159678"><ele>111.80000000000001</ele><time>2026-03-30T14:51:28.805Z</time></trkpt><trkpt lat="43.4596274" lon="11.1596583"><ele>113.0</ele><time>2026-03-30T14:51:30.78Z</time></trkpt><trkpt lat="43.4597305" lon="11.1596413"><ele>113.4</ele><time>2026-03-30T14:51:32.799Z</time></trkpt><trkpt lat="43.4598385" lon="11.1596179"><ele>113.80000000000001</ele><time>2026-03-30T14:51:34.804Z</time></trkpt><trkpt lat="43.4599489" lon="11.1595882"><ele>114.2</ele><time>2026-03-30T14:51:36.868Z</time></trkpt><trkpt lat="43.4600177" lon="11.1595819"><ele>114.6</ele><time>2026-03-30T14:51:37.795Z</time></trkpt><trkpt lat="43.4600851" lon="11.1595666"><ele>115.0</ele><time>2026-03-30T14:51:38.816Z</time></trkpt><trkpt lat="43.4601906" lon="11.1595465"><ele>115.0</ele><time>2026-03-30T14:51:40.787Z</time></trkpt><trkpt lat="43.4602905" lon="11.159532"><ele>115.0</ele><time>2026-03-30T14:51:42.801Z</time></trkpt><trkpt lat="43.4603981" lon="11.1595272"><ele>115.0</ele><time>2026-03-30T14:51:44.783Z</time></trkpt><trkpt lat="43.4605118" lon="11.1595183"><ele>115.0</ele><time>2026-03-30T14:51:46.807Z</time></trkpt><trkpt lat="43.460617" lon="11.1595085"><ele>115.0</ele><time>2026-03-30T14:51:48.803Z</time></trkpt><trkpt lat="43.4607087" lon="11.1595361"><ele>115.2</ele><time>2026-03-30T14:51:50.812Z</time></trkpt><trkpt lat="43.460813" lon="11.1595782"><ele>115.4</ele><time>2026-03-30T14:51:52.804Z</time></trkpt><trkpt lat="43.4609185" lon="11.1595902"><ele>115.6</ele><time>2026-03-30T14:51:54.778Z</time></trkpt><trkpt lat="43.4610169" lon="11.1596465"><ele>115.8</ele><time>2026-03-30T14:51:56.798Z</time></trkpt><trkpt lat="43.4611052" lon="11.1597254"><ele>116.0</ele><time>2026-03-30T14:51:58.804Z</time></trkpt><trkpt lat="43.4611917" lon="11.159781"><ele>115.99999999999999</ele><time>2026-03-30T14:52:00.811Z</time></trkpt><trkpt lat="43.4612756" lon="11.1598402"><ele>116.0</ele><time>2026-03-30T14:52:02.789Z</time></trkpt><trkpt lat="43.4613274" lon="11.1599274"><ele>116.0</ele><time>2026-03-30T14:52:04.791Z</time></trkpt><trkpt lat="43.4613797" lon="11.1599908"><ele>116.0</ele><time>2026-03-30T14:52:06.799Z</time></trkpt><trkpt lat="43.4614348" lon="11.1600333"><ele>115.99999999999999</ele><time>2026-03-30T14:52:08.882Z</time></trkpt><trkpt lat="43.4614192" lon="11.1601263"><ele>116.0</ele><time>2026-03-30T14:52:15.814Z</time></trkpt><trkpt lat="43.4613657" lon="11.1601945"><ele>114.99999999999999</ele><time>2026-03-30T14:52:17.88Z</time></trkpt><trkpt lat="43.4613129" lon="11.160283"><ele>114.0</ele><time>2026-03-30T14:52:19.795Z</time></trkpt><trkpt lat="43.4612639" lon="11.1603742"><ele>113.0</ele><time>2026-03-30T14:52:21.809Z</time></trkpt><trkpt lat="43.461256" lon="11.1604783"><ele>112.0</ele><time>2026-03-30T14:52:23.888Z</time></trkpt><trkpt lat="43.4612785" lon="11.1605824"><ele>110.99999999999999</ele><time>2026-03-30T14:52:25.812Z</time></trkpt><trkpt lat="43.4613208" lon="11.1606623"><ele>110.0</ele><time>2026-03-30T14:52:27.868Z</time></trkpt><trkpt lat="43.4613824" lon="11.1607241"><ele>109.16666666666666</ele><time>2026-03-30T14:52:30.821Z</time></trkpt><trkpt lat="43.4614272" lon="11.1607853"><ele>108.33333333333333</ele><time>2026-03-30T14:52:32.878Z</time></trkpt><trkpt lat="43.4614913" lon="11.1608605"><ele>107.5</ele><time>2026-03-30T14:52:34.8Z</time></trkpt><trkpt lat="43.4615655" lon="11.1609238"><ele>106.66666666666666</ele><time>2026-03-30T14:52:36.786Z</time></trkpt><trkpt lat="43.4616396" lon="11.1609839"><ele>105.83333333333333</ele><time>2026-03-30T14:52:38.815Z</time></trkpt><trkpt lat="43.4617168" lon="11.1610497"><ele>105.0</ele><time>2026-03-30T14:52:40.814Z</time></trkpt><trkpt lat="43.461802" lon="11.1610932"><ele>105.0</ele><time>2026-03-30T14:52:42.806Z</time></trkpt><trkpt lat="43.4618921" lon="11.1611382"><ele>105.0</ele><time>2026-03-30T14:52:44.796Z</time></trkpt><trkpt lat="43.4619804" lon="11.1611652"><ele>105.0</ele><time>2026-03-30T14:52:46.803Z</time></trkpt><trkpt lat="43.4620693" lon="11.1612012"><ele>105.0</ele><time>2026-03-30T14:52:48.844Z</time></trkpt><trkpt lat="43.4621629" lon="11.1612414"><ele>105.0</ele><time>2026-03-30T14:52:50.81Z</time></trkpt><trkpt lat="43.4622657" lon="11.1612771"><ele>105.2</ele><time>2026-03-30T14:52:52.806Z</time></trkpt><trkpt lat="43.4623653" lon="11.161317"><ele>105.4</ele><time>2026-03-30T14:52:54.82Z</time></trkpt><trkpt lat="43.4624574" lon="11.1613656"><ele>105.6</ele><time>2026-03-30T14:52:56.801Z</time></trkpt><trkpt lat="43.4625428" lon="11.1614138"><ele>105.8</ele><time>2026-03-30T14:52:58.813Z</time></trkpt><trkpt lat="43.4626349" lon="11.161445"><ele>106.0</ele><time>2026-03-30T14:53:00.806Z</time></trkpt><trkpt lat="43.4627344" lon="11.1614827"><ele>106.0</ele><time>2026-03-30T14:53:02.813Z</time></trkpt><trkpt lat="43.4628332" lon="11.161541"><ele>106.0</ele><time>2026-03-30T14:53:04.797Z</time></trkpt><trkpt lat="43.4629317" lon="11.1615574"><ele>106.0</ele><time>2026-03-30T14:53:06.806Z</time></trkpt><trkpt lat="43.4630297" lon="11.1615778"><ele>106.0</ele><time>2026-03-30T14:53:08.883Z</time></trkpt><trkpt lat="43.463132" lon="11.1616074"><ele>106.0</ele><time>2026-03-30T14:53:10.813Z</time></trkpt><trkpt lat="43.4632281" lon="11.1616262"><ele>105.8</ele><time>2026-03-30T14:53:12.776Z</time></trkpt><trkpt lat="43.463319" lon="11.1616588"><ele>105.6</ele><time>2026-03-30T14:53:14.783Z</time></trkpt><trkpt lat="43.4634103" lon="11.1617"><ele>105.4</ele><time>2026-03-30T14:53:16.872Z</time></trkpt><trkpt lat="43.4635141" lon="11.1617344"><ele>105.2</ele><time>2026-03-30T14:53:18.784Z</time></trkpt><trkpt lat="43.4636205" lon="11.1617626"><ele>105.0</ele><time>2026-03-30T14:53:20.784Z</time></trkpt><trkpt lat="43.4637157" lon="11.1617954"><ele>105.0</ele><time>2026-03-30T14:53:22.802Z</time></trkpt><trkpt lat="43.4638192" lon="11.1618341"><ele>105.0</ele><time>2026-03-30T14:53:24.796Z</time></trkpt><trkpt lat="43.4639199" lon="11.1618674"><ele>105.0</ele><time>2026-03-30T14:53:26.802Z</time></trkpt><trkpt lat="43.4640099" lon="11.1619061"><ele>105.0</ele><time>2026-03-30T14:53:28.807Z</time></trkpt><trkpt lat="43.4640952" lon="11.1619357"><ele>105.0</ele><time>2026-03-30T14:53:30.816Z</time></trkpt><trkpt lat="43.4641932" lon="11.1619535"><ele>105.0</ele><time>2026-03-30T14:53:32.804Z</time></trkpt><trkpt lat="43.4642987" lon="11.1619643"><ele>105.0</ele><time>2026-03-30T14:53:34.788Z</time></trkpt><trkpt lat="43.4644011" lon="11.1619633"><ele>105.0</ele><time>2026-03-30T14:53:36.801Z</time></trkpt><trkpt lat="43.4644946" lon="11.1619639"><ele>105.0</ele><time>2026-03-30T14:53:38.805Z</time></trkpt><trkpt lat="43.4645878" lon="11.1619656"><ele>105.0</ele><time>2026-03-30T14:53:40.808Z</time></trkpt><trkpt lat="43.4646823" lon="11.1619644"><ele>104.6</ele><time>2026-03-30T14:53:42.801Z</time></trkpt><trkpt lat="43.4647799" lon="11.161965"><ele>104.2</ele><time>2026-03-30T14:53:44.782Z</time></trkpt><trkpt lat="43.4648813" lon="11.1619547"><ele>103.80000000000001</ele><time>2026-03-30T14:53:46.799Z</time></trkpt><trkpt lat="43.4649915" lon="11.1619796"><ele>103.4</ele><time>2026-03-30T14:53:48.805Z</time></trkpt><trkpt lat="43.4651067" lon="11.1619898"><ele>103.0</ele><time>2026-03-30T14:53:50.782Z</time></trkpt><trkpt lat="43.4652258" lon="11.1619697"><ele>103.0</ele><time>2026-03-30T14:53:52.792Z</time></trkpt><trkpt lat="43.4653397" lon="11.1619255"><ele>103.0</ele><time>2026-03-30T14:53:54.814Z</time></trkpt><trkpt lat="43.4654421" lon="11.1618691"><ele>103.0</ele><time>2026-03-30T14:53:56.803Z</time></trkpt><trkpt lat="43.4655249" lon="11.1617923"><ele>103.0</ele><time>2026-03-30T14:53:58.88Z</time></trkpt><trkpt lat="43.4656176" lon="11.1617006"><ele>103.0</ele><time>2026-03-30T14:54:00.804Z</time></trkpt><trkpt lat="43.4656996" lon="11.1616176"><ele>103.2</ele><time>2026-03-30T14:54:02.782Z</time></trkpt><trkpt lat="43.4657716" lon="11.161538"><ele>103.4</ele><time>2026-03-30T14:54:04.796Z</time></trkpt><trkpt lat="43.4658284" lon="11.1614433"><ele>103.60000000000001</ele><time>2026-03-30T14:54:06.789Z</time></trkpt><trkpt lat="43.4658536" lon="11.1613148"><ele>103.80000000000001</ele><time>2026-03-30T14:54:08.8Z</time></trkpt><trkpt lat="43.4658566" lon="11.1611872"><ele>104.0</ele><time>2026-03-30T14:54:10.813Z</time></trkpt><trkpt lat="43.4658432" lon="11.1610615"><ele>104.0</ele><time>2026-03-30T14:54:12.808Z</time></trkpt><trkpt lat="43.4658345" lon="11.1609389"><ele>104.0</ele><time>2026-03-30T14:54:14.82Z</time></trkpt><trkpt lat="43.4658342" lon="11.160821"><ele>104.0</ele><time>2026-03-30T14:54:16.792Z</time></trkpt><trkpt lat="43.4658509" lon="11.1606893"><ele>104.0</ele><time>2026-03-30T14:54:18.808Z</time></trkpt><trkpt lat="43.4658765" lon="11.1605511"><ele>104.0</ele><time>2026-03-30T14:54:20.785Z</time></trkpt><trkpt lat="43.4659051" lon="11.160411"><ele>103.99999999999999</ele><time>2026-03-30T14:54:22.815Z</time></trkpt><trkpt lat="43.4659228" lon="11.1603001"><ele>104.0</ele><time>2026-03-30T14:54:24.788Z</time></trkpt><trkpt lat="43.4659306" lon="11.1601996"><ele>104.0</ele><time>2026-03-30T14:54:26.81Z</time></trkpt><trkpt lat="43.4659638" lon="11.1600972"><ele>104.0</ele><time>2026-03-30T14:54:29.787Z</time></trkpt><trkpt lat="43.4659898" lon="11.1599949"><ele>103.99999999999999</ele><time>2026-03-30T14:54:31.875Z</time></trkpt><trkpt lat="43.466019" lon="11.1598745"><ele>104.0</ele><time>2026-03-30T14:54:33.812Z</time></trkpt><trkpt lat="43.4660512" lon="11.1597399"><ele>104.0</ele><time>2026-03-30T14:54:35.804Z</time></trkpt><trkpt lat="43.4660787" lon="11.1595918"><ele>104.0</ele><time>2026-03-30T14:54:37.865Z</time></trkpt><trkpt lat="43.4661068" lon="11.159448"><ele>104.0</ele><time>2026-03-30T14:54:39.864Z</time></trkpt><trkpt lat="43.4661393" lon="11.1593094"><ele>104.0</ele><time>2026-03-30T14:54:41.8Z</time></trkpt><trkpt lat="43.46617" lon="11.1591696"><ele>104.0</ele><time>2026-03-30T14:54:43.868Z</time></trkpt><trkpt lat="43.4661789" lon="11.158996"><ele>104.0</ele><time>2026-03-30T14:54:45.803Z</time></trkpt><trkpt lat="43.4662023" lon="11.1588701"><ele>104.0</ele><time>2026-03-30T14:54:47.788Z</time></trkpt><trkpt lat="43.4662496" lon="11.1587627"><ele>104.0</ele><time>2026-03-30T14:54:49.785Z</time></trkpt><trkpt lat="43.4663077" lon="11.1586396"><ele>104.0</ele><time>2026-03-30T14:54:51.798Z</time></trkpt><trkpt lat="43.466352" lon="11.1585024"><ele>104.0</ele><time>2026-03-30T14:54:53.813Z</time></trkpt><trkpt lat="43.4663972" lon="11.1583738"><ele>103.6</ele><time>2026-03-30T14:54:55.797Z</time></trkpt><trkpt lat="43.4664411" lon="11.158241"><ele>103.2</ele><time>2026-03-30T14:54:57.863Z</time></trkpt><trkpt lat="43.4664828" lon="11.1581461"><ele>102.8</ele><time>2026-03-30T14:54:59.784Z</time></trkpt><trkpt lat="43.466508" lon="11.1580635"><ele>102.39999999999999</ele><time>2026-03-30T14:55:00.797Z</time></trkpt><trkpt lat="43.46654" lon="11.1578971"><ele>102.0</ele><time>2026-03-30T14:55:02.808Z</time></trkpt><trkpt lat="43.4665786" lon="11.1577476"><ele>101.75</ele><time>2026-03-30T14:55:04.818Z</time></trkpt><trkpt lat="43.4666095" lon="11.1575955"><ele>101.5</ele><time>2026-03-30T14:55:06.805Z</time></trkpt><trkpt lat="43.4666402" lon="11.1574427"><ele>101.25</ele><time>2026-03-30T14:55:08.887Z</time></trkpt><trkpt lat="43.4666736" lon="11.1572882"><ele>101.0</ele><time>2026-03-30T14:55:10.805Z</time></trkpt><trkpt lat="43.4667069" lon="11.1571406"><ele>101.4</ele><time>2026-03-30T14:55:12.804Z</time></trkpt><trkpt lat="43.4667384" lon="11.1569952"><ele>101.8</ele><time>2026-03-30T14:55:14.869Z</time></trkpt><trkpt lat="43.4667713" lon="11.1568586"><ele>102.2</ele><time>2026-03-30T14:55:16.8Z</time></trkpt><trkpt lat="43.4667933" lon="11.1567104"><ele>102.60000000000001</ele><time>2026-03-30T14:55:18.811Z</time></trkpt><trkpt lat="43.4668263" lon="11.156565"><ele>103.0</ele><time>2026-03-30T14:55:20.791Z</time></trkpt><trkpt lat="43.4668695" lon="11.1564225"><ele>103.0</ele><time>2026-03-30T14:55:22.78Z</time></trkpt><trkpt lat="43.4669195" lon="11.1562811"><ele>103.0</ele><time>2026-03-30T14:55:24.87Z</time></trkpt><trkpt lat="43.466949" lon="11.1561524"><ele>103.0</ele><time>2026-03-30T14:55:26.876Z</time></trkpt><trkpt lat="43.4670081" lon="11.1560269"><ele>103.0</ele><time>2026-03-30T14:55:28.781Z</time></trkpt><trkpt lat="43.4670652" lon="11.1558966"><ele>103.0</ele><time>2026-03-30T14:55:30.786Z</time></trkpt><trkpt lat="43.4671044" lon="11.1557396"><ele>102.60000000000001</ele><time>2026-03-30T14:55:32.799Z</time></trkpt><trkpt lat="43.4671436" lon="11.1555948"><ele>102.2</ele><time>2026-03-30T14:55:34.877Z</time></trkpt><trkpt lat="43.4671807" lon="11.1554509"><ele>101.8</ele><time>2026-03-30T14:55:36.817Z</time></trkpt><trkpt lat="43.4672164" lon="11.1553085"><ele>101.4</ele><time>2026-03-30T14:55:38.815Z</time></trkpt><trkpt lat="43.4672451" lon="11.1551698"><ele>101.0</ele><time>2026-03-30T14:55:40.807Z</time></trkpt><trkpt lat="43.4672661" lon="11.1550302"><ele>101.0</ele><time>2026-03-30T14:55:42.818Z</time></trkpt><trkpt lat="43.4672599" lon="11.1548941"><ele>101.0</ele><time>2026-03-30T14:55:44.788Z</time></trkpt><trkpt lat="43.4672754" lon="11.154776"><ele>101.0</ele><time>2026-03-30T14:55:46.81Z</time></trkpt><trkpt lat="43.4673136" lon="11.1546456"><ele>101.0</ele><time>2026-03-30T14:55:48.806Z</time></trkpt><trkpt lat="43.4673543" lon="11.1545055"><ele>101.0</ele><time>2026-03-30T14:55:50.809Z</time></trkpt><trkpt lat="43.4673985" lon="11.1543731"><ele>101.0</ele><time>2026-03-30T14:55:52.871Z</time></trkpt><trkpt lat="43.4674332" lon="11.1542401"><ele>101.0</ele><time>2026-03-30T14:55:54.795Z</time></trkpt><trkpt lat="43.4674701" lon="11.1541029"><ele>101.0</ele><time>2026-03-30T14:55:56.806Z</time></trkpt><trkpt lat="43.4675102" lon="11.1539714"><ele>101.0</ele><time>2026-03-30T14:55:58.882Z</time></trkpt><trkpt lat="43.4675536" lon="11.1538517"><ele>101.0</ele><time>2026-03-30T14:56:00.808Z</time></trkpt><trkpt lat="43.4676013" lon="11.1537257"><ele>101.0</ele><time>2026-03-30T14:56:02.785Z</time></trkpt><trkpt lat="43.4676548" lon="11.1536049"><ele>101.0</ele><time>2026-03-30T14:56:04.797Z</time></trkpt><trkpt lat="43.4677278" lon="11.1534936"><ele>101.0</ele><time>2026-03-30T14:56:06.804Z</time></trkpt><trkpt lat="43.467813" lon="11.1534209"><ele>101.0</ele><time>2026-03-30T14:56:08.876Z</time></trkpt><trkpt lat="43.4679205" lon="11.1533705"><ele>101.0</ele><time>2026-03-30T14:56:10.807Z</time></trkpt><trkpt lat="43.4679696" lon="11.153315"><ele>101.16666666666666</ele><time>2026-03-30T14:56:11.805Z</time></trkpt><trkpt lat="43.468024" lon="11.1532646"><ele>101.33333333333333</ele><time>2026-03-30T14:56:12.864Z</time></trkpt><trkpt lat="43.4681241" lon="11.1531736"><ele>101.5</ele><time>2026-03-30T14:56:14.799Z</time></trkpt><trkpt lat="43.4682064" lon="11.15312"><ele>101.66666666666666</ele><time>2026-03-30T14:56:16.81Z</time></trkpt><trkpt lat="43.4682724" lon="11.1531253"><ele>101.83333333333333</ele><time>2026-03-30T14:56:18.82Z</time></trkpt><trkpt lat="43.4683527" lon="11.1531391"><ele>102.0</ele><time>2026-03-30T14:56:21.798Z</time></trkpt><trkpt lat="43.4684227" lon="11.1531004"><ele>102.0</ele><time>2026-03-30T14:56:23.803Z</time></trkpt><trkpt lat="43.4685115" lon="11.1530514"><ele>102.0</ele><time>2026-03-30T14:56:25.806Z</time></trkpt><trkpt lat="43.4686034" lon="11.1530133"><ele>102.0</ele><time>2026-03-30T14:56:27.801Z</time></trkpt><trkpt lat="43.4686931" lon="11.1529744"><ele>102.0</ele><time>2026-03-30T14:56:29.782Z</time></trkpt><trkpt lat="43.4687891" lon="11.1529149"><ele>102.0</ele><time>2026-03-30T14:56:31.789Z</time></trkpt><trkpt lat="43.468887" lon="11.1528669"><ele>102.0</ele><time>2026-03-30T14:56:33.803Z</time></trkpt><trkpt lat="43.4689876" lon="11.1528199"><ele>102.0</ele><time>2026-03-30T14:56:35.783Z</time></trkpt><trkpt lat="43.4690928" lon="11.1527834"><ele>102.0</ele><time>2026-03-30T14:56:37.878Z</time></trkpt><trkpt lat="43.4691942" lon="11.1527524"><ele>102.0</ele><time>2026-03-30T14:56:39.801Z</time></trkpt><trkpt lat="43.4693027" lon="11.1526876"><ele>102.0</ele><time>2026-03-30T14:56:41.806Z</time></trkpt><trkpt lat="43.4694043" lon="11.1526344"><ele>102.0</ele><time>2026-03-30T14:56:43.787Z</time></trkpt><trkpt lat="43.4695088" lon="11.1525714"><ele>102.0</ele><time>2026-03-30T14:56:45.794Z</time></trkpt><trkpt lat="43.4696146" lon="11.1525225"><ele>102.0</ele><time>2026-03-30T14:56:47.882Z</time></trkpt><trkpt lat="43.4697112" lon="11.1524893"><ele>102.0</ele><time>2026-03-30T14:56:49.875Z</time></trkpt><trkpt lat="43.4698043" lon="11.152466"><ele>102.0</ele><time>2026-03-30T14:56:51.799Z</time></trkpt><trkpt lat="43.4698905" lon="11.1524157"><ele>102.19999999999999</ele><time>2026-03-30T14:56:53.862Z</time></trkpt><trkpt lat="43.4700006" lon="11.1523796"><ele>102.4</ele><time>2026-03-30T14:56:55.8Z</time></trkpt><trkpt lat="43.4701048" lon="11.1523543"><ele>102.6</ele><time>2026-03-30T14:56:57.814Z</time></trkpt><trkpt lat="43.4702076" lon="11.152326"><ele>102.80000000000001</ele><time>2026-03-30T14:56:59.802Z</time></trkpt><trkpt lat="43.4703108" lon="11.1522985"><ele>103.0</ele><time>2026-03-30T14:57:01.814Z</time></trkpt><trkpt lat="43.4704113" lon="11.1522575"><ele>102.80000000000001</ele><time>2026-03-30T14:57:03.811Z</time></trkpt><trkpt lat="43.4705114" lon="11.1522105"><ele>102.6</ele><time>2026-03-30T14:57:05.805Z</time></trkpt><trkpt lat="43.4706094" lon="11.1521561"><ele>102.4</ele><time>2026-03-30T14:57:07.865Z</time></trkpt><trkpt lat="43.4707186" lon="11.1520894"><ele>102.19999999999999</ele><time>2026-03-30T14:57:09.813Z</time></trkpt><trkpt lat="43.4708151" lon="11.1520231"><ele>102.0</ele><time>2026-03-30T14:57:11.805Z</time></trkpt><trkpt lat="43.4709081" lon="11.1519607"><ele>102.0</ele><time>2026-03-30T14:57:13.873Z</time></trkpt><trkpt lat="43.4709775" lon="11.1519151"><ele>102.0</ele><time>2026-03-30T14:57:15.824Z</time></trkpt><trkpt lat="43.4710781" lon="11.1518466"><ele>102.0</ele><time>2026-03-30T14:57:17.865Z</time></trkpt><trkpt lat="43.4711331" lon="11.1518031"><ele>102.0</ele><time>2026-03-30T14:57:18.873Z</time></trkpt><trkpt lat="43.4712462" lon="11.1517358"><ele>102.0</ele><time>2026-03-30T14:57:20.799Z</time></trkpt><trkpt lat="43.4713447" lon="11.1516674"><ele>101.8</ele><time>2026-03-30T14:57:22.801Z</time></trkpt><trkpt lat="43.4714223" lon="11.1516121"><ele>101.6</ele><time>2026-03-30T14:57:24.873Z</time></trkpt><trkpt lat="43.4714948" lon="11.1515462"><ele>101.39999999999999</ele><time>2026-03-30T14:57:26.8Z</time></trkpt><trkpt lat="43.471582" lon="11.1514803"><ele>101.19999999999999</ele><time>2026-03-30T14:57:28.868Z</time></trkpt><trkpt lat="43.4716569" lon="11.1514337"><ele>101.0</ele><time>2026-03-30T14:57:30.788Z</time></trkpt><trkpt lat="43.4717403" lon="11.1513629"><ele>100.99999999999999</ele><time>2026-03-30T14:57:33.873Z</time></trkpt><trkpt lat="43.471793" lon="11.1512851"><ele>101.0</ele><time>2026-03-30T14:57:35.795Z</time></trkpt><trkpt lat="43.4718511" lon="11.1511965"><ele>101.0</ele><time>2026-03-30T14:57:37.784Z</time></trkpt><trkpt lat="43.4719109" lon="11.151109"><ele>101.0</ele><time>2026-03-30T14:57:39.794Z</time></trkpt><trkpt lat="43.4719781" lon="11.1510234"><ele>100.99999999999999</ele><time>2026-03-30T14:57:41.797Z</time></trkpt><trkpt lat="43.4720363" lon="11.1509172"><ele>101.0</ele><time>2026-03-30T14:57:43.878Z</time></trkpt><trkpt lat="43.4721086" lon="11.1508253"><ele>100.6</ele><time>2026-03-30T14:57:45.807Z</time></trkpt><trkpt lat="43.4721724" lon="11.1507276"><ele>100.19999999999999</ele><time>2026-03-30T14:57:47.803Z</time></trkpt><trkpt lat="43.4722355" lon="11.1506283"><ele>99.80000000000001</ele><time>2026-03-30T14:57:49.809Z</time></trkpt><trkpt lat="43.4723124" lon="11.1505362"><ele>99.4</ele><time>2026-03-30T14:57:51.806Z</time></trkpt><trkpt lat="43.4723859" lon="11.1504407"><ele>99.0</ele><time>2026-03-30T14:57:53.867Z</time></trkpt><trkpt lat="43.4724335" lon="11.1503334"><ele>99.0</ele><time>2026-03-30T14:57:55.798Z</time></trkpt><trkpt lat="43.4724821" lon="11.1502558"><ele>99.0</ele><time>2026-03-30T14:57:57.803Z</time></trkpt><trkpt lat="43.472525" lon="11.1501715"><ele>99.0</ele><time>2026-03-30T14:57:59.869Z</time></trkpt><trkpt lat="43.4725666" lon="11.1500729"><ele>99.0</ele><time>2026-03-30T14:58:01.805Z</time></trkpt><trkpt lat="43.4726449" lon="11.1499573"><ele>99.0</ele><time>2026-03-30T14:58:03.874Z</time></trkpt><trkpt lat="43.4727231" lon="11.1498456"><ele>99.0</ele><time>2026-03-30T14:58:05.789Z</time></trkpt><trkpt lat="43.4727924" lon="11.1497191"><ele>99.0</ele><time>2026-03-30T14:58:07.87Z</time></trkpt><trkpt lat="43.4728539" lon="11.1495985"><ele>99.0</ele><time>2026-03-30T14:58:09.866Z</time></trkpt><trkpt lat="43.4729313" lon="11.1494854"><ele>99.0</ele><time>2026-03-30T14:58:11.795Z</time></trkpt><trkpt lat="43.4730029" lon="11.1493884"><ele>99.0</ele><time>2026-03-30T14:58:13.867Z</time></trkpt><trkpt lat="43.4730871" lon="11.1492807"><ele>99.2</ele><time>2026-03-30T14:58:15.788Z</time></trkpt><trkpt lat="43.4731479" lon="11.1491624"><ele>99.4</ele><time>2026-03-30T14:58:17.865Z</time></trkpt><trkpt lat="43.4732127" lon="11.1490552"><ele>99.6</ele><time>2026-03-30T14:58:19.87Z</time></trkpt><trkpt lat="43.4732772" lon="11.1489857"><ele>99.8</ele><time>2026-03-30T14:58:21.813Z</time></trkpt><trkpt lat="43.4733352" lon="11.1489007"><ele>100.0</ele><time>2026-03-30T14:58:23.802Z</time></trkpt><trkpt lat="43.4733774" lon="11.1488022"><ele>100.00000000000001</ele><time>2026-03-30T14:58:25.808Z</time></trkpt><trkpt lat="43.4734262" lon="11.1486906"><ele>100.0</ele><time>2026-03-30T14:58:27.803Z</time></trkpt><trkpt lat="43.4734751" lon="11.1485895"><ele>100.0</ele><time>2026-03-30T14:58:29.793Z</time></trkpt><trkpt lat="43.4735015" lon="11.1485104"><ele>100.0</ele><time>2026-03-30T14:58:31.803Z</time></trkpt><trkpt lat="43.4734487" lon="11.1484259"><ele>100.00000000000001</ele><time>2026-03-30T14:58:34.782Z</time></trkpt><trkpt lat="43.4733838" lon="11.1483582"><ele>100.0</ele><time>2026-03-30T14:58:36.804Z</time></trkpt><trkpt lat="43.4733109" lon="11.1482852"><ele>100.00000000000001</ele><time>2026-03-30T14:58:38.787Z</time></trkpt><trkpt lat="43.4732479" lon="11.1482174"><ele>100.0</ele><time>2026-03-30T14:58:40.808Z</time></trkpt><trkpt lat="43.473188" lon="11.1481605"><ele>100.0</ele><time>2026-03-30T14:58:43.864Z</time></trkpt><trkpt lat="43.4731345" lon="11.1481103"><ele>100.0</ele><time>2026-03-30T14:58:45.787Z</time></trkpt><trkpt lat="43.4731091" lon="11.14801"><ele>100.00000000000001</ele><time>2026-03-30T14:58:48.875Z</time></trkpt><trkpt lat="43.4731453" lon="11.1478963"><ele>100.0</ele><time>2026-03-30T14:58:51.816Z</time></trkpt><trkpt lat="43.4731922" lon="11.1478153"><ele>100.0</ele><time>2026-03-30T14:58:53.867Z</time></trkpt><trkpt lat="43.4732687" lon="11.1477199"><ele>100.0</ele><time>2026-03-30T14:58:55.806Z</time></trkpt><trkpt lat="43.4733483" lon="11.1476425"><ele>100.0</ele><time>2026-03-30T14:58:57.883Z</time></trkpt><trkpt lat="43.4733992" lon="11.1475456"><ele>100.0</ele><time>2026-03-30T14:58:59.873Z</time></trkpt><trkpt lat="43.4734707" lon="11.1474239"><ele>100.0</ele><time>2026-03-30T14:59:02.876Z</time></trkpt><trkpt lat="43.4735264" lon="11.1473344"><ele>100.00000000000001</ele><time>2026-03-30T14:59:04.877Z</time></trkpt><trkpt lat="43.4736026" lon="11.1472129"><ele>100.0</ele><time>2026-03-30T14:59:06.806Z</time></trkpt><trkpt lat="43.4736471" lon="11.1471012"><ele>100.0</ele><time>2026-03-30T14:59:08.799Z</time></trkpt><trkpt lat="43.4736729" lon="11.1469993"><ele>100.0</ele><time>2026-03-30T14:59:10.801Z</time></trkpt><trkpt lat="43.4736241" lon="11.1469024"><ele>100.00000000000001</ele><time>2026-03-30T14:59:12.808Z</time></trkpt><trkpt lat="43.4735678" lon="11.1468322"><ele>100.0</ele><time>2026-03-30T14:59:14.875Z</time></trkpt><trkpt lat="43.4734966" lon="11.146756"><ele>100.0</ele><time>2026-03-30T14:59:16.799Z</time></trkpt><trkpt lat="43.4733867" lon="11.1466947"><ele>100.0</ele><time>2026-03-30T14:59:18.795Z</time></trkpt><trkpt lat="43.4732622" lon="11.1466928"><ele>100.0</ele><time>2026-03-30T14:59:20.803Z</time></trkpt><trkpt lat="43.4731956" lon="11.1466887"><ele>100.0</ele><time>2026-03-30T14:59:21.803Z</time></trkpt><trkpt lat="43.4730941" lon="11.1466654"><ele>100.0</ele><time>2026-03-30T14:59:23.783Z</time></trkpt><trkpt lat="43.4730768" lon="11.1465381"><ele>100.0</ele><time>2026-03-30T14:59:25.801Z</time></trkpt><trkpt lat="43.4731074" lon="11.1464155"><ele>100.0</ele><time>2026-03-30T14:59:27.803Z</time></trkpt><trkpt lat="43.4731248" lon="11.146288"><ele>100.0</ele><time>2026-03-30T14:59:29.871Z</time></trkpt><trkpt lat="43.47313" lon="11.1461528"><ele>100.0</ele><time>2026-03-30T14:59:31.797Z</time></trkpt><trkpt lat="43.4731914" lon="11.1460255"><ele>100.0</ele><time>2026-03-30T14:59:33.872Z</time></trkpt><trkpt lat="43.4732897" lon="11.1459275"><ele>100.0</ele><time>2026-03-30T14:59:35.809Z</time></trkpt><trkpt lat="43.4733772" lon="11.1458164"><ele>100.0</ele><time>2026-03-30T14:59:37.865Z</time></trkpt><trkpt lat="43.4734594" lon="11.145711"><ele>100.0</ele><time>2026-03-30T14:59:39.869Z</time></trkpt><trkpt lat="43.4735386" lon="11.1455883"><ele>100.0</ele><time>2026-03-30T14:59:41.807Z</time></trkpt><trkpt lat="43.4736001" lon="11.1454885"><ele>100.0</ele><time>2026-03-30T14:59:43.878Z</time></trkpt><trkpt lat="43.4736538" lon="11.1453928"><ele>100.0</ele><time>2026-03-30T14:59:45.81Z</time></trkpt><trkpt lat="43.4737069" lon="11.1452917"><ele>100.0</ele><time>2026-03-30T14:59:47.862Z</time></trkpt><trkpt lat="43.4737803" lon="11.1452038"><ele>100.0</ele><time>2026-03-30T14:59:49.877Z</time></trkpt><trkpt lat="43.473857" lon="11.1450987"><ele>100.0</ele><time>2026-03-30T14:59:51.801Z</time></trkpt><trkpt lat="43.4739207" lon="11.144983"><ele>100.0</ele><time>2026-03-30T14:59:53.803Z</time></trkpt><trkpt lat="43.4739624" lon="11.1448528"><ele>100.00000000000001</ele><time>2026-03-30T14:59:55.796Z</time></trkpt><trkpt lat="43.4740129" lon="11.1447527"><ele>100.0</ele><time>2026-03-30T14:59:57.802Z</time></trkpt><trkpt lat="43.4740246" lon="11.1446558"><ele>100.0</ele><time>2026-03-30T15:00:01.814Z</time></trkpt><trkpt lat="43.4739662" lon="11.1445711"><ele>100.0</ele><time>2026-03-30T15:00:04.78Z</time></trkpt><trkpt lat="43.4738974" lon="11.1445217"><ele>100.00000000000001</ele><time>2026-03-30T15:00:06.804Z</time></trkpt><trkpt lat="43.4737977" lon="11.1444683"><ele>100.0</ele><time>2026-03-30T15:00:08.801Z</time></trkpt><trkpt lat="43.4737056" lon="11.1444275"><ele>100.00000000000001</ele><time>2026-03-30T15:00:10.801Z</time></trkpt><trkpt lat="43.4736388" lon="11.1443639"><ele>100.0</ele><time>2026-03-30T15:00:12.8Z</time></trkpt><trkpt lat="43.4736421" lon="11.1442502"><ele>100.0</ele><time>2026-03-30T15:00:14.876Z</time></trkpt><trkpt lat="43.4736137" lon="11.1441482"><ele>100.0</ele><time>2026-03-30T15:00:16.801Z</time></trkpt><trkpt lat="43.4735554" lon="11.1440473"><ele>100.00000000000001</ele><time>2026-03-30T15:00:18.811Z</time></trkpt><trkpt lat="43.4735049" lon="11.143975"><ele>100.0</ele><time>2026-03-30T15:00:20.813Z</time></trkpt><trkpt lat="43.4734439" lon="11.1439288"><ele>99.33333333333334</ele><time>2026-03-30T15:00:22.809Z</time></trkpt><trkpt lat="43.4733631" lon="11.143958"><ele>98.66666666666667</ele><time>2026-03-30T15:00:26.794Z</time></trkpt><trkpt lat="43.4733459" lon="11.1438633"><ele>98.0</ele><time>2026-03-30T15:00:33.873Z</time></trkpt><trkpt lat="43.4732844" lon="11.14381"><ele>97.33333333333334</ele><time>2026-03-30T15:00:39.87Z</time></trkpt><trkpt lat="43.4732199" lon="11.1437617"><ele>96.66666666666667</ele><time>2026-03-30T15:00:41.781Z</time></trkpt><trkpt lat="43.4731602" lon="11.1436885"><ele>96.0</ele><time>2026-03-30T15:00:44.811Z</time></trkpt><trkpt lat="43.4731186" lon="11.1436073"><ele>96.0</ele><time>2026-03-30T15:00:47.802Z</time></trkpt><trkpt lat="43.4731088" lon="11.1435201"><ele>96.0</ele><time>2026-03-30T15:00:49.814Z</time></trkpt><trkpt lat="43.4730817" lon="11.1434382"><ele>96.0</ele><time>2026-03-30T15:00:51.794Z</time></trkpt><trkpt lat="43.4731176" lon="11.1433229"><ele>96.0</ele><time>2026-03-30T15:00:54.793Z</time></trkpt><trkpt lat="43.4731697" lon="11.1432448"><ele>96.0</ele><time>2026-03-30T15:00:56.807Z</time></trkpt><trkpt lat="43.4732213" lon="11.1431584"><ele>96.0</ele><time>2026-03-30T15:00:58.81Z</time></trkpt><trkpt lat="43.4732838" lon="11.1430674"><ele>96.0</ele><time>2026-03-30T15:01:00.8Z</time></trkpt><trkpt lat="43.4733446" lon="11.1429655"><ele>96.0</ele><time>2026-03-30T15:01:02.805Z</time></trkpt><trkpt lat="43.4734103" lon="11.1428705"><ele>96.0</ele><time>2026-03-30T15:01:04.876Z</time></trkpt><trkpt lat="43.4734729" lon="11.1427757"><ele>96.0</ele><time>2026-03-30T15:01:06.807Z</time></trkpt><trkpt lat="43.4735406" lon="11.1426833"><ele>96.0</ele><time>2026-03-30T15:01:08.872Z</time></trkpt><trkpt lat="43.4736104" lon="11.1425932"><ele>96.0</ele><time>2026-03-30T15:01:10.799Z</time></trkpt><trkpt lat="43.4736826" lon="11.1424968"><ele>96.0</ele><time>2026-03-30T15:01:12.8Z</time></trkpt><trkpt lat="43.4737555" lon="11.1423982"><ele>96.0</ele><time>2026-03-30T15:01:14.807Z</time></trkpt><trkpt lat="43.4738266" lon="11.1423023"><ele>96.0</ele><time>2026-03-30T15:01:16.799Z</time></trkpt><trkpt lat="43.4738966" lon="11.1422034"><ele>96.0</ele><time>2026-03-30T15:01:18.868Z</time></trkpt><trkpt lat="43.4739657" lon="11.1421056"><ele>96.6</ele><time>2026-03-30T15:01:20.807Z</time></trkpt><trkpt lat="43.4740281" lon="11.1420093"><ele>97.19999999999999</ele><time>2026-03-30T15:01:22.814Z</time></trkpt><trkpt lat="43.4740953" lon="11.1419128"><ele>97.80000000000001</ele><time>2026-03-30T15:01:24.879Z</time></trkpt><trkpt lat="43.4741671" lon="11.1418279"><ele>98.4</ele><time>2026-03-30T15:01:26.806Z</time></trkpt><trkpt lat="43.474239" lon="11.1417357"><ele>99.0</ele><time>2026-03-30T15:01:28.807Z</time></trkpt><trkpt lat="43.4743207" lon="11.1416387"><ele>98.80000000000001</ele><time>2026-03-30T15:01:30.804Z</time></trkpt><trkpt lat="43.4743991" lon="11.1415368"><ele>98.60000000000001</ele><time>2026-03-30T15:01:32.805Z</time></trkpt><trkpt lat="43.4744694" lon="11.1414366"><ele>98.4</ele><time>2026-03-30T15:01:34.786Z</time></trkpt><trkpt lat="43.4745378" lon="11.1413267"><ele>98.2</ele><time>2026-03-30T15:01:36.809Z</time></trkpt><trkpt lat="43.4746158" lon="11.1412301"><ele>98.0</ele><time>2026-03-30T15:01:38.802Z</time></trkpt><trkpt lat="43.4746941" lon="11.1411426"><ele>98.0</ele><time>2026-03-30T15:01:40.8Z</time></trkpt><trkpt lat="43.4747625" lon="11.1410685"><ele>98.0</ele><time>2026-03-30T15:01:42.79Z</time></trkpt><trkpt lat="43.4748513" lon="11.1410976"><ele>98.0</ele><time>2026-03-30T15:01:45.802Z</time></trkpt><trkpt lat="43.4749238" lon="11.1411694"><ele>98.0</ele><time>2026-03-30T15:01:47.808Z</time></trkpt><trkpt lat="43.4750204" lon="11.1411543"><ele>98.0</ele><time>2026-03-30T15:01:49.87Z</time></trkpt><trkpt lat="43.4751002" lon="11.1410612"><ele>98.0</ele><time>2026-03-30T15:01:51.797Z</time></trkpt><trkpt lat="43.4751773" lon="11.140964"><ele>98.0</ele><time>2026-03-30T15:01:53.87Z</time></trkpt><trkpt lat="43.4752635" lon="11.1409237"><ele>98.0</ele><time>2026-03-30T15:01:55.806Z</time></trkpt><trkpt lat="43.4753472" lon="11.1408216"><ele>98.0</ele><time>2026-03-30T15:01:57.872Z</time></trkpt><trkpt lat="43.4754156" lon="11.140694"><ele>98.0</ele><time>2026-03-30T15:01:59.771Z</time></trkpt><trkpt lat="43.4754881" lon="11.1405851"><ele>98.4</ele><time>2026-03-30T15:02:01.801Z</time></trkpt><trkpt lat="43.4755278" lon="11.1404737"><ele>98.80000000000001</ele><time>2026-03-30T15:02:03.788Z</time></trkpt><trkpt lat="43.4755783" lon="11.1403517"><ele>99.2</ele><time>2026-03-30T15:02:05.805Z</time></trkpt><trkpt lat="43.4756528" lon="11.140257"><ele>99.6</ele><time>2026-03-30T15:02:07.803Z</time></trkpt><trkpt lat="43.4756812" lon="11.1401563"><ele>100.0</ele><time>2026-03-30T15:02:09.862Z</time></trkpt><trkpt lat="43.4756659" lon="11.140042"><ele>100.0</ele><time>2026-03-30T15:02:11.805Z</time></trkpt><trkpt lat="43.4755899" lon="11.1399841"><ele>100.0</ele><time>2026-03-30T15:02:13.814Z</time></trkpt><trkpt lat="43.4755253" lon="11.1399957"><ele>100.0</ele><time>2026-03-30T15:02:14.809Z</time></trkpt><trkpt lat="43.475418" lon="11.1400572"><ele>100.0</ele><time>2026-03-30T15:02:16.809Z</time></trkpt><trkpt lat="43.4753369" lon="11.1401416"><ele>100.0</ele><time>2026-03-30T15:02:18.881Z</time></trkpt><trkpt lat="43.4752475" lon="11.140231"><ele>99.83333333333334</ele><time>2026-03-30T15:02:20.798Z</time></trkpt><trkpt lat="43.4751774" lon="11.1403022"><ele>99.66666666666667</ele><time>2026-03-30T15:02:22.801Z</time></trkpt><trkpt lat="43.4751123" lon="11.1403629"><ele>99.5</ele><time>2026-03-30T15:02:24.805Z</time></trkpt><trkpt lat="43.4750394" lon="11.1403935"><ele>99.33333333333334</ele><time>2026-03-30T15:02:26.813Z</time></trkpt><trkpt lat="43.4749542" lon="11.1404049"><ele>99.16666666666667</ele><time>2026-03-30T15:02:28.873Z</time></trkpt><trkpt lat="43.4748682" lon="11.1404368"><ele>99.0</ele><time>2026-03-30T15:02:30.785Z</time></trkpt><trkpt lat="43.4747783" lon="11.1404528"><ele>99.0</ele><time>2026-03-30T15:02:32.876Z</time></trkpt><trkpt lat="43.4747072" lon="11.1404394"><ele>99.0</ele><time>2026-03-30T15:02:34.875Z</time></trkpt><trkpt lat="43.4746166" lon="11.1403734"><ele>99.0</ele><time>2026-03-30T15:02:36.796Z</time></trkpt><trkpt lat="43.4745211" lon="11.14029"><ele>99.0</ele><time>2026-03-30T15:02:38.866Z</time></trkpt><trkpt lat="43.474451" lon="11.1401952"><ele>99.0</ele><time>2026-03-30T15:02:40.812Z</time></trkpt><trkpt lat="43.4743774" lon="11.140107"><ele>98.6</ele><time>2026-03-30T15:02:42.867Z</time></trkpt><trkpt lat="43.4743104" lon="11.140044"><ele>98.2</ele><time>2026-03-30T15:02:44.862Z</time></trkpt><trkpt lat="43.4742119" lon="11.1400103"><ele>97.8</ele><time>2026-03-30T15:02:46.794Z</time></trkpt><trkpt lat="43.474125" lon="11.1400585"><ele>97.39999999999999</ele><time>2026-03-30T15:02:48.789Z</time></trkpt><trkpt lat="43.474073" lon="11.1401758"><ele>97.0</ele><time>2026-03-30T15:02:50.811Z</time></trkpt><trkpt lat="43.474021" lon="11.1403005"><ele>97.00000000000001</ele><time>2026-03-30T15:02:52.805Z</time></trkpt><trkpt lat="43.4739707" lon="11.140412"><ele>97.0</ele><time>2026-03-30T15:02:54.812Z</time></trkpt><trkpt lat="43.4739" lon="11.1404385"><ele>97.0</ele><time>2026-03-30T15:02:56.806Z</time></trkpt><trkpt lat="43.4738364" lon="11.1403582"><ele>97.0</ele><time>2026-03-30T15:02:58.804Z</time></trkpt><trkpt lat="43.473767" lon="11.1402829"><ele>97.00000000000001</ele><time>2026-03-30T15:03:00.785Z</time></trkpt><trkpt lat="43.4737249" lon="11.1402174"><ele>97.0</ele><time>2026-03-30T15:03:02.815Z</time></trkpt><trkpt lat="43.473706" lon="11.1401317"><ele>97.00000000000001</ele><time>2026-03-30T15:03:06.811Z</time></trkpt><trkpt lat="43.473663" lon="11.1400633"><ele>97.0</ele><time>2026-03-30T15:03:08.795Z</time></trkpt><trkpt lat="43.4736304" lon="11.1399605"><ele>97.0</ele><time>2026-03-30T15:03:10.795Z</time></trkpt><trkpt lat="43.4736543" lon="11.1398556"><ele>97.0</ele><time>2026-03-30T15:03:12.807Z</time></trkpt><trkpt lat="43.4736954" lon="11.139761"><ele>97.00000000000001</ele><time>2026-03-30T15:03:14.861Z</time></trkpt><trkpt lat="43.473734" lon="11.1396644"><ele>97.0</ele><time>2026-03-30T15:03:16.801Z</time></trkpt><trkpt lat="43.4738201" lon="11.1395558"><ele>97.0</ele><time>2026-03-30T15:03:18.85Z</time></trkpt><trkpt lat="43.473898" lon="11.1394606"><ele>97.0</ele><time>2026-03-30T15:03:20.789Z</time></trkpt><trkpt lat="43.4739764" lon="11.1393685"><ele>97.0</ele><time>2026-03-30T15:03:22.867Z</time></trkpt><trkpt lat="43.4740359" lon="11.1392817"><ele>97.0</ele><time>2026-03-30T15:03:24.864Z</time></trkpt><trkpt lat="43.4740817" lon="11.1391973"><ele>97.0</ele><time>2026-03-30T15:03:40.797Z</time></trkpt><trkpt lat="43.4740887" lon="11.1390833"><ele>96.66666666666667</ele><time>2026-03-30T15:03:43.799Z</time></trkpt><trkpt lat="43.4740498" lon="11.1390011"><ele>96.33333333333334</ele><time>2026-03-30T15:03:45.811Z</time></trkpt><trkpt lat="43.4739793" lon="11.1389314"><ele>96.0</ele><time>2026-03-30T15:03:47.819Z</time></trkpt><trkpt lat="43.4738926" lon="11.1389027"><ele>95.66666666666667</ele><time>2026-03-30T15:03:49.809Z</time></trkpt><trkpt lat="43.4738013" lon="11.1389223"><ele>95.33333333333334</ele><time>2026-03-30T15:03:51.798Z</time></trkpt><trkpt lat="43.4737194" lon="11.1389759"><ele>95.0</ele><time>2026-03-30T15:03:53.876Z</time></trkpt><trkpt lat="43.4736202" lon="11.1389868"><ele>95.5</ele><time>2026-03-30T15:03:55.801Z</time></trkpt><trkpt lat="43.4734603" lon="11.1391788"><ele>96.0</ele><time>2026-03-30T15:03:58.867Z</time></trkpt><trkpt lat="43.4733712" lon="11.1392009"><ele>96.5</ele><time>2026-03-30T15:04:01.8Z</time></trkpt><trkpt lat="43.4732927" lon="11.1392693"><ele>97.0</ele><time>2026-03-30T15:04:03.867Z</time></trkpt><trkpt lat="43.4732294" lon="11.1392721"><ele>97.00000000000001</ele><time>2026-03-30T15:04:05.785Z</time></trkpt><trkpt lat="43.473181" lon="11.1392013"><ele>97.0</ele><time>2026-03-30T15:04:08.874Z</time></trkpt><trkpt lat="43.4731264" lon="11.1390927"><ele>97.0</ele><time>2026-03-30T15:04:10.797Z</time></trkpt><trkpt lat="43.4730899" lon="11.1389938"><ele>97.0</ele><time>2026-03-30T15:04:12.876Z</time></trkpt><trkpt lat="43.4730373" lon="11.138922"><ele>97.00000000000001</ele><time>2026-03-30T15:04:14.797Z</time></trkpt><trkpt lat="43.4729776" lon="11.1388374"><ele>97.0</ele><time>2026-03-30T15:04:16.812Z</time></trkpt><trkpt lat="43.4729151" lon="11.1387458"><ele>96.8</ele><time>2026-03-30T15:04:18.804Z</time></trkpt><trkpt lat="43.4728531" lon="11.1386478"><ele>96.6</ele><time>2026-03-30T15:04:20.795Z</time></trkpt><trkpt lat="43.4727905" lon="11.1385501"><ele>96.39999999999999</ele><time>2026-03-30T15:04:22.801Z</time></trkpt><trkpt lat="43.4727223" lon="11.1384606"><ele>96.19999999999999</ele><time>2026-03-30T15:04:24.803Z</time></trkpt><trkpt lat="43.4726506" lon="11.1383637"><ele>96.0</ele><time>2026-03-30T15:04:26.801Z</time></trkpt><trkpt lat="43.4725825" lon="11.138264"><ele>95.8</ele><time>2026-03-30T15:04:28.812Z</time></trkpt><trkpt lat="43.4725151" lon="11.1381539"><ele>95.6</ele><time>2026-03-30T15:04:30.814Z</time></trkpt><trkpt lat="43.4724485" lon="11.1380473"><ele>95.4</ele><time>2026-03-30T15:04:32.81Z</time></trkpt><trkpt lat="43.4723793" lon="11.1379424"><ele>95.2</ele><time>2026-03-30T15:04:34.793Z</time></trkpt><trkpt lat="43.472305" lon="11.137849"><ele>95.0</ele><time>2026-03-30T15:04:36.796Z</time></trkpt><trkpt lat="43.4722321" lon="11.1377676"><ele>95.0</ele><time>2026-03-30T15:04:38.807Z</time></trkpt><trkpt lat="43.472147" lon="11.1377275"><ele>95.0</ele><time>2026-03-30T15:04:40.783Z</time></trkpt><trkpt lat="43.4720595" lon="11.1377065"><ele>95.0</ele><time>2026-03-30T15:04:42.886Z</time></trkpt><trkpt lat="43.4719676" lon="11.1377062"><ele>95.0</ele><time>2026-03-30T15:04:44.796Z</time></trkpt><trkpt lat="43.4718772" lon="11.1377298"><ele>95.0</ele><time>2026-03-30T15:04:46.801Z</time></trkpt><trkpt lat="43.4717926" lon="11.1377834"><ele>95.4</ele><time>2026-03-30T15:04:48.802Z</time></trkpt><trkpt lat="43.4717229" lon="11.1378693"><ele>95.8</ele><time>2026-03-30T15:04:50.802Z</time></trkpt><trkpt lat="43.4716668" lon="11.1379774"><ele>96.19999999999999</ele><time>2026-03-30T15:04:52.795Z</time></trkpt><trkpt lat="43.4715989" lon="11.1380879"><ele>96.6</ele><time>2026-03-30T15:04:54.783Z</time></trkpt><trkpt lat="43.4715244" lon="11.1381945"><ele>97.0</ele><time>2026-03-30T15:04:56.858Z</time></trkpt><trkpt lat="43.4714509" lon="11.1382955"><ele>97.19999999999999</ele><time>2026-03-30T15:04:58.794Z</time></trkpt><trkpt lat="43.4713772" lon="11.1383982"><ele>97.4</ele><time>2026-03-30T15:05:00.793Z</time></trkpt><trkpt lat="43.4713009" lon="11.138506"><ele>97.6</ele><time>2026-03-30T15:05:02.804Z</time></trkpt><trkpt lat="43.4712246" lon="11.1386092"><ele>97.80000000000001</ele><time>2026-03-30T15:05:04.809Z</time></trkpt><trkpt lat="43.4711521" lon="11.138718"><ele>98.0</ele><time>2026-03-30T15:05:06.79Z</time></trkpt><trkpt lat="43.4710768" lon="11.1388255"><ele>97.75</ele><time>2026-03-30T15:05:08.824Z</time></trkpt><trkpt lat="43.4709868" lon="11.1389227"><ele>97.5</ele><time>2026-03-30T15:05:10.804Z</time></trkpt><trkpt lat="43.470906" lon="11.1390276"><ele>97.25</ele><time>2026-03-30T15:05:12.798Z</time></trkpt><trkpt lat="43.4708228" lon="11.1391365"><ele>97.0</ele><time>2026-03-30T15:05:14.812Z</time></trkpt><trkpt lat="43.4707397" lon="11.1392501"><ele>97.0</ele><time>2026-03-30T15:05:16.781Z</time></trkpt><trkpt lat="43.4706571" lon="11.1393689"><ele>97.0</ele><time>2026-03-30T15:05:18.798Z</time></trkpt><trkpt lat="43.4705844" lon="11.1394941"><ele>97.0</ele><time>2026-03-30T15:05:20.803Z</time></trkpt><trkpt lat="43.4705296" lon="11.1396337"><ele>97.0</ele><time>2026-03-30T15:05:22.804Z</time></trkpt><trkpt lat="43.4704914" lon="11.139762"><ele>97.00000000000001</ele><time>2026-03-30T15:05:24.874Z</time></trkpt><trkpt lat="43.4704505" lon="11.1398844"><ele>97.0</ele><time>2026-03-30T15:05:26.798Z</time></trkpt><trkpt lat="43.4704214" lon="11.1400069"><ele>97.0</ele><time>2026-03-30T15:05:28.879Z</time></trkpt><trkpt lat="43.4703722" lon="11.1400677"><ele>97.0</ele><time>2026-03-30T15:05:30.799Z</time></trkpt><trkpt lat="43.4703346" lon="11.1401745"><ele>97.00000000000001</ele><time>2026-03-30T15:05:32.865Z</time></trkpt><trkpt lat="43.4703089" lon="11.1403051"><ele>97.0</ele><time>2026-03-30T15:05:34.873Z</time></trkpt><trkpt lat="43.4702926" lon="11.1404259"><ele>97.0</ele><time>2026-03-30T15:05:36.797Z</time></trkpt><trkpt lat="43.4702641" lon="11.1405253"><ele>97.0</ele><time>2026-03-30T15:05:38.799Z</time></trkpt><trkpt lat="43.4702315" lon="11.1406176"><ele>97.0</ele><time>2026-03-30T15:05:40.795Z</time></trkpt><trkpt lat="43.4701908" lon="11.1407021"><ele>97.0</ele><time>2026-03-30T15:05:42.87Z</time></trkpt><trkpt lat="43.4701652" lon="11.1407924"><ele>97.0</ele><time>2026-03-30T15:05:44.875Z</time></trkpt><trkpt lat="43.4701396" lon="11.1408887"><ele>97.0</ele><time>2026-03-30T15:05:46.802Z</time></trkpt><trkpt lat="43.4701114" lon="11.1409803"><ele>97.0</ele><time>2026-03-30T15:05:48.801Z</time></trkpt><trkpt lat="43.4700648" lon="11.1410654"><ele>97.16666666666667</ele><time>2026-03-30T15:05:50.789Z</time></trkpt><trkpt lat="43.4699987" lon="11.1410999"><ele>97.33333333333334</ele><time>2026-03-30T15:05:52.852Z</time></trkpt><trkpt lat="43.4699384" lon="11.1410491"><ele>97.5</ele><time>2026-03-30T15:05:54.81Z</time></trkpt><trkpt lat="43.4698624" lon="11.140997"><ele>97.66666666666666</ele><time>2026-03-30T15:05:56.806Z</time></trkpt><trkpt lat="43.4697686" lon="11.1409394"><ele>97.83333333333333</ele><time>2026-03-30T15:05:58.798Z</time></trkpt><trkpt lat="43.4696661" lon="11.1408881"><ele>98.0</ele><time>2026-03-30T15:06:00.811Z</time></trkpt><trkpt lat="43.4695601" lon="11.1408379"><ele>97.25</ele><time>2026-03-30T15:06:02.797Z</time></trkpt><trkpt lat="43.4694527" lon="11.1407863"><ele>96.5</ele><time>2026-03-30T15:06:04.871Z</time></trkpt><trkpt lat="43.4693426" lon="11.1407528"><ele>95.75</ele><time>2026-03-30T15:06:06.797Z</time></trkpt><trkpt lat="43.4692448" lon="11.1406958"><ele>95.0</ele><time>2026-03-30T15:06:08.797Z</time></trkpt><trkpt lat="43.4691351" lon="11.1406184"><ele>95.0</ele><time>2026-03-30T15:06:10.784Z</time></trkpt><trkpt lat="43.4690709" lon="11.1405829"><ele>95.0</ele><time>2026-03-30T15:06:11.808Z</time></trkpt><trkpt lat="43.4689512" lon="11.1405895"><ele>95.0</ele><time>2026-03-30T15:06:13.872Z</time></trkpt><trkpt lat="43.4688875" lon="11.1405952"><ele>95.0</ele><time>2026-03-30T15:06:14.876Z</time></trkpt><trkpt lat="43.4688232" lon="11.1406035"><ele>95.0</ele><time>2026-03-30T15:06:15.787Z</time></trkpt><trkpt lat="43.4687494" lon="11.1406117"><ele>95.0</ele><time>2026-03-30T15:06:16.804Z</time></trkpt><trkpt lat="43.4686799" lon="11.1406177"><ele>94.57142857142857</ele><time>2026-03-30T15:06:17.878Z</time></trkpt><trkpt lat="43.4686124" lon="11.1406205"><ele>94.14285714285714</ele><time>2026-03-30T15:06:18.794Z</time></trkpt><trkpt lat="43.4685403" lon="11.1406261"><ele>93.71428571428572</ele><time>2026-03-30T15:06:19.784Z</time></trkpt><trkpt lat="43.4684704" lon="11.140636"><ele>93.28571428571428</ele><time>2026-03-30T15:06:20.81Z</time></trkpt><trkpt lat="43.4684007" lon="11.1406438"><ele>92.85714285714285</ele><time>2026-03-30T15:06:21.806Z</time></trkpt><trkpt lat="43.4683333" lon="11.140652"><ele>92.42857142857143</ele><time>2026-03-30T15:06:22.78Z</time></trkpt><trkpt lat="43.4682657" lon="11.1406565"><ele>92.0</ele><time>2026-03-30T15:06:23.879Z</time></trkpt><trkpt lat="43.4681387" lon="11.1406702"><ele>92.0</ele><time>2026-03-30T15:06:25.803Z</time></trkpt><trkpt lat="43.4680744" lon="11.1406815"><ele>92.0</ele><time>2026-03-30T15:06:26.8Z</time></trkpt><trkpt lat="43.4680097" lon="11.1406888"><ele>92.0</ele><time>2026-03-30T15:06:27.801Z</time></trkpt><trkpt lat="43.4679461" lon="11.1406956"><ele>92.0</ele><time>2026-03-30T15:06:28.808Z</time></trkpt><trkpt lat="43.4678818" lon="11.1407016"><ele>92.0</ele><time>2026-03-30T15:06:29.864Z</time></trkpt><trkpt lat="43.4677565" lon="11.1407041"><ele>92.0</ele><time>2026-03-30T15:06:31.791Z</time></trkpt><trkpt lat="43.4676433" lon="11.1407211"><ele>92.66666666666667</ele><time>2026-03-30T15:06:33.793Z</time></trkpt><trkpt lat="43.4675379" lon="11.1407376"><ele>93.33333333333334</ele><time>2026-03-30T15:06:35.805Z</time></trkpt><trkpt lat="43.4674648" lon="11.1407391"><ele>94.0</ele><time>2026-03-30T15:06:37.811Z</time></trkpt><trkpt lat="43.467398" lon="11.1407597"><ele>94.66666666666667</ele><time>2026-03-30T15:06:39.871Z</time></trkpt><trkpt lat="43.467323" lon="11.1407752"><ele>95.33333333333333</ele><time>2026-03-30T15:06:41.806Z</time></trkpt><trkpt lat="43.4672496" lon="11.1407096"><ele>96.0</ele><time>2026-03-30T15:06:44.792Z</time></trkpt><trkpt lat="43.4671793" lon="11.1406649"><ele>96.33333333333333</ele><time>2026-03-30T15:06:46.799Z</time></trkpt><trkpt lat="43.467086" lon="11.1406586"><ele>96.66666666666666</ele><time>2026-03-30T15:06:48.861Z</time></trkpt><trkpt lat="43.4670064" lon="11.1406912"><ele>97.0</ele><time>2026-03-30T15:06:50.796Z</time></trkpt><trkpt lat="43.4669442" lon="11.1406623"><ele>97.33333333333333</ele><time>2026-03-30T15:06:52.792Z</time></trkpt><trkpt lat="43.4669041" lon="11.1405926"><ele>97.66666666666666</ele><time>2026-03-30T15:06:54.875Z</time></trkpt><trkpt lat="43.4668608" lon="11.1404911"><ele>98.0</ele><time>2026-03-30T15:06:56.796Z</time></trkpt><trkpt lat="43.4668118" lon="11.1403859"><ele>98.0</ele><time>2026-03-30T15:06:58.795Z</time></trkpt><trkpt lat="43.4667483" lon="11.1402708"><ele>98.0</ele><time>2026-03-30T15:07:00.806Z</time></trkpt><trkpt lat="43.4666846" lon="11.1401535"><ele>98.0</ele><time>2026-03-30T15:07:02.844Z</time></trkpt><trkpt lat="43.4666426" lon="11.1400352"><ele>98.0</ele><time>2026-03-30T15:07:04.866Z</time></trkpt><trkpt lat="43.466593" lon="11.1399197"><ele>98.0</ele><time>2026-03-30T15:07:06.788Z</time></trkpt><trkpt lat="43.4665306" lon="11.1398028"><ele>97.80000000000001</ele><time>2026-03-30T15:07:08.872Z</time></trkpt><trkpt lat="43.4664668" lon="11.1397007"><ele>97.6</ele><time>2026-03-30T15:07:10.799Z</time></trkpt><trkpt lat="43.4663901" lon="11.1396128"><ele>97.4</ele><time>2026-03-30T15:07:12.778Z</time></trkpt><trkpt lat="43.4662886" lon="11.1395675"><ele>97.19999999999999</ele><time>2026-03-30T15:07:14.786Z</time></trkpt><trkpt lat="43.4661693" lon="11.1395723"><ele>97.0</ele><time>2026-03-30T15:07:16.778Z</time></trkpt><trkpt lat="43.4661043" lon="11.1395914"><ele>97.8</ele><time>2026-03-30T15:07:17.876Z</time></trkpt><trkpt lat="43.4660366" lon="11.13961"><ele>98.6</ele><time>2026-03-30T15:07:18.808Z</time></trkpt><trkpt lat="43.4659741" lon="11.1396452"><ele>99.39999999999999</ele><time>2026-03-30T15:07:19.806Z</time></trkpt><trkpt lat="43.4658991" lon="11.1397751"><ele>100.19999999999999</ele><time>2026-03-30T15:07:21.778Z</time></trkpt><trkpt lat="43.4658321" lon="11.1399021"><ele>101.0</ele><time>2026-03-30T15:07:23.868Z</time></trkpt><trkpt lat="43.4657718" lon="11.1400275"><ele>101.0</ele><time>2026-03-30T15:07:25.792Z</time></trkpt><trkpt lat="43.465709" lon="11.1401609"><ele>101.0</ele><time>2026-03-30T15:07:27.79Z</time></trkpt><trkpt lat="43.4656554" lon="11.1402825"><ele>101.0</ele><time>2026-03-30T15:07:29.873Z</time></trkpt><trkpt lat="43.4656053" lon="11.1403803"><ele>101.0</ele><time>2026-03-30T15:07:31.802Z</time></trkpt><trkpt lat="43.4655567" lon="11.1405203"><ele>101.0</ele><time>2026-03-30T15:07:33.861Z</time></trkpt><trkpt lat="43.4655066" lon="11.140651"><ele>101.0</ele><time>2026-03-30T15:07:35.801Z</time></trkpt><trkpt lat="43.4654463" lon="11.1407651"><ele>101.0</ele><time>2026-03-30T15:07:37.884Z</time></trkpt><trkpt lat="43.4653607" lon="11.140828"><ele>101.0</ele><time>2026-03-30T15:07:39.877Z</time></trkpt><trkpt lat="43.465275" lon="11.1408675"><ele>101.0</ele><time>2026-03-30T15:07:41.805Z</time></trkpt><trkpt lat="43.4651899" lon="11.1409053"><ele>101.0</ele><time>2026-03-30T15:07:43.878Z</time></trkpt><trkpt lat="43.4651203" lon="11.1409207"><ele>101.0</ele><time>2026-03-30T15:07:45.808Z</time></trkpt><trkpt lat="43.4650445" lon="11.1409094"><ele>101.0</ele><time>2026-03-30T15:07:47.864Z</time></trkpt><trkpt lat="43.4649746" lon="11.14089"><ele>101.0</ele><time>2026-03-30T15:07:49.863Z</time></trkpt><trkpt lat="43.4647798" lon="11.1408577"><ele>101.0</ele><time>2026-03-30T15:07:53.772Z</time></trkpt><trkpt lat="43.4647174" lon="11.1407952"><ele>101.0</ele><time>2026-03-30T15:07:55.777Z</time></trkpt><trkpt lat="43.4646556" lon="11.1407685"><ele>102.5</ele><time>2026-03-30T15:07:57.792Z</time></trkpt><trkpt lat="43.464579" lon="11.1407117"><ele>104.0</ele><time>2026-03-30T15:08:00.788Z</time></trkpt><trkpt lat="43.4644942" lon="11.1406384"><ele>105.5</ele><time>2026-03-30T15:08:04.784Z</time></trkpt><trkpt lat="43.4643435" lon="11.1405325"><ele>107.0</ele><time>2026-03-30T15:08:09.808Z</time></trkpt><trkpt lat="43.4642452" lon="11.1404676"><ele>106.99999999999999</ele><time>2026-03-30T15:08:12.793Z</time></trkpt><trkpt lat="43.4641871" lon="11.1404136"><ele>107.0</ele><time>2026-03-30T15:08:14.782Z</time></trkpt><trkpt lat="43.46412" lon="11.1403438"><ele>107.0</ele><time>2026-03-30T15:08:16.78Z</time></trkpt><trkpt lat="43.4640557" lon="11.1402802"><ele>107.0</ele><time>2026-03-30T15:08:18.792Z</time></trkpt><trkpt lat="43.4639844" lon="11.1402222"><ele>106.99999999999999</ele><time>2026-03-30T15:08:20.792Z</time></trkpt><trkpt lat="43.4639154" lon="11.1401607"><ele>107.0</ele><time>2026-03-30T15:08:22.795Z</time></trkpt><trkpt lat="43.4638417" lon="11.1400883"><ele>107.19999999999999</ele><time>2026-03-30T15:08:24.782Z</time></trkpt><trkpt lat="43.46377" lon="11.1400111"><ele>107.39999999999999</ele><time>2026-03-30T15:08:26.782Z</time></trkpt><trkpt lat="43.4637041" lon="11.1399264"><ele>107.60000000000001</ele><time>2026-03-30T15:08:28.793Z</time></trkpt><trkpt lat="43.463636" lon="11.1398428"><ele>107.80000000000001</ele><time>2026-03-30T15:08:30.788Z</time></trkpt><trkpt lat="43.4635766" lon="11.1397538"><ele>108.0</ele><time>2026-03-30T15:08:32.788Z</time></trkpt><trkpt lat="43.4635225" lon="11.13965"><ele>108.0</ele><time>2026-03-30T15:08:34.803Z</time></trkpt><trkpt lat="43.4634711" lon="11.1395529"><ele>108.0</ele><time>2026-03-30T15:08:36.798Z</time></trkpt><trkpt lat="43.4634235" lon="11.1394553"><ele>108.0</ele><time>2026-03-30T15:08:38.792Z</time></trkpt><trkpt lat="43.4633813" lon="11.1393455"><ele>108.0</ele><time>2026-03-30T15:08:40.781Z</time></trkpt><trkpt lat="43.4633527" lon="11.1392308"><ele>108.0</ele><time>2026-03-30T15:08:42.796Z</time></trkpt><trkpt lat="43.4633275" lon="11.1391073"><ele>108.0</ele><time>2026-03-30T15:08:44.82Z</time></trkpt><trkpt lat="43.4633074" lon="11.1389835"><ele>109.2</ele><time>2026-03-30T15:08:46.786Z</time></trkpt><trkpt lat="43.4632804" lon="11.1388528"><ele>110.4</ele><time>2026-03-30T15:08:48.801Z</time></trkpt><trkpt lat="43.4632545" lon="11.1387309"><ele>111.60000000000001</ele><time>2026-03-30T15:08:50.79Z</time></trkpt><trkpt lat="43.4632275" lon="11.1385973"><ele>112.80000000000001</ele><time>2026-03-30T15:08:52.778Z</time></trkpt><trkpt lat="43.4631933" lon="11.1384738"><ele>114.0</ele><time>2026-03-30T15:08:54.794Z</time></trkpt><trkpt lat="43.4631501" lon="11.1383514"><ele>114.0</ele><time>2026-03-30T15:08:56.778Z</time></trkpt><trkpt lat="43.4631101" lon="11.1382299"><ele>114.0</ele><time>2026-03-30T15:08:58.789Z</time></trkpt><trkpt lat="43.4630669" lon="11.1381042"><ele>114.0</ele><time>2026-03-30T15:09:00.785Z</time></trkpt><trkpt lat="43.4630163" lon="11.1379871"><ele>114.0</ele><time>2026-03-30T15:09:02.789Z</time></trkpt><trkpt lat="43.4629632" lon="11.1378774"><ele>114.0</ele><time>2026-03-30T15:09:04.78Z</time></trkpt><trkpt lat="43.4629011" lon="11.1377719"><ele>111.80000000000001</ele><time>2026-03-30T15:09:06.788Z</time></trkpt><trkpt lat="43.4628452" lon="11.1376598"><ele>109.60000000000001</ele><time>2026-03-30T15:09:08.786Z</time></trkpt><trkpt lat="43.4627917" lon="11.1375547"><ele>107.4</ele><time>2026-03-30T15:09:10.792Z</time></trkpt><trkpt lat="43.4627302" lon="11.1374565"><ele>105.2</ele><time>2026-03-30T15:09:12.789Z</time></trkpt><trkpt lat="43.4626701" lon="11.1373609"><ele>103.0</ele><time>2026-03-30T15:09:14.797Z</time></trkpt><trkpt lat="43.4626075" lon="11.1372699"><ele>108.80000000000001</ele><time>2026-03-30T15:09:16.781Z</time></trkpt><trkpt lat="43.4625407" lon="11.1371763"><ele>114.6</ele><time>2026-03-30T15:09:18.779Z</time></trkpt><trkpt lat="43.4624711" lon="11.1370838"><ele>120.39999999999999</ele><time>2026-03-30T15:09:20.784Z</time></trkpt><trkpt lat="43.4624042" lon="11.1369915"><ele>126.19999999999999</ele><time>2026-03-30T15:09:22.81Z</time></trkpt><trkpt lat="43.4623289" lon="11.1369082"><ele>132.0</ele><time>2026-03-30T15:09:24.779Z</time></trkpt><trkpt lat="43.4622527" lon="11.1368358"><ele>132.0</ele><time>2026-03-30T15:09:26.785Z</time></trkpt><trkpt lat="43.4621727" lon="11.1367683"><ele>132.0</ele><time>2026-03-30T15:09:28.8Z</time></trkpt><trkpt lat="43.4620923" lon="11.1367097"><ele>132.0</ele><time>2026-03-30T15:09:30.781Z</time></trkpt><trkpt lat="43.4620123" lon="11.1366555"><ele>132.0</ele><time>2026-03-30T15:09:32.79Z</time></trkpt><trkpt lat="43.4619349" lon="11.1366062"><ele>132.0</ele><time>2026-03-30T15:09:34.789Z</time></trkpt><trkpt lat="43.4618538" lon="11.1365625"><ele>132.0</ele><time>2026-03-30T15:09:36.787Z</time></trkpt><trkpt lat="43.4617615" lon="11.136555"><ele>133.16666666666666</ele><time>2026-03-30T15:09:38.778Z</time></trkpt><trkpt lat="43.4616743" lon="11.1365344"><ele>134.33333333333334</ele><time>2026-03-30T15:09:40.784Z</time></trkpt><trkpt lat="43.4615925" lon="11.1365184"><ele>135.5</ele><time>2026-03-30T15:09:42.778Z</time></trkpt><trkpt lat="43.4615124" lon="11.1365084"><ele>136.66666666666669</ele><time>2026-03-30T15:09:44.786Z</time></trkpt><trkpt lat="43.4614299" lon="11.1364955"><ele>137.83333333333334</ele><time>2026-03-30T15:09:46.788Z</time></trkpt><trkpt lat="43.4613477" lon="11.1364918"><ele>139.0</ele><time>2026-03-30T15:09:48.814Z</time></trkpt><trkpt lat="43.4612684" lon="11.1364941"><ele>136.33333333333334</ele><time>2026-03-30T15:09:50.776Z</time></trkpt><trkpt lat="43.4611978" lon="11.1365118"><ele>133.66666666666669</ele><time>2026-03-30T15:09:52.804Z</time></trkpt><trkpt lat="43.4611204" lon="11.1365293"><ele>131.0</ele><time>2026-03-30T15:09:54.896Z</time></trkpt><trkpt lat="43.4610354" lon="11.1365481"><ele>128.33333333333334</ele><time>2026-03-30T15:09:56.797Z</time></trkpt><trkpt lat="43.4609459" lon="11.1365691"><ele>125.66666666666667</ele><time>2026-03-30T15:09:58.795Z</time></trkpt><trkpt lat="43.4608615" lon="11.1365866"><ele>123.0</ele><time>2026-03-30T15:10:00.793Z</time></trkpt><trkpt lat="43.4607782" lon="11.1366062"><ele>121.0</ele><time>2026-03-30T15:10:02.874Z</time></trkpt><trkpt lat="43.4606124" lon="11.1366375"><ele>119.00000000000001</ele><time>2026-03-30T15:10:06.81Z</time></trkpt><trkpt lat="43.46055" lon="11.1366256"><ele>117.00000000000001</ele><time>2026-03-30T15:10:07.806Z</time></trkpt><trkpt lat="43.460471" lon="11.1366579"><ele>115.0</ele><time>2026-03-30T15:10:09.781Z</time></trkpt><trkpt lat="43.4603827" lon="11.1366792"><ele>113.0</ele><time>2026-03-30T15:10:11.814Z</time></trkpt><trkpt lat="43.460298" lon="11.1367015"><ele>112.99999999999999</ele><time>2026-03-30T15:10:13.783Z</time></trkpt><trkpt lat="43.4602155" lon="11.1367001"><ele>113.0</ele><time>2026-03-30T15:10:15.804Z</time></trkpt><trkpt lat="43.4601313" lon="11.1367052"><ele>113.0</ele><time>2026-03-30T15:10:17.797Z</time></trkpt><trkpt lat="43.4600435" lon="11.1367032"><ele>113.0</ele><time>2026-03-30T15:10:19.871Z</time></trkpt><trkpt lat="43.4599582" lon="11.136684"><ele>112.99999999999999</ele><time>2026-03-30T15:10:21.803Z</time></trkpt><trkpt lat="43.4598757" lon="11.1366645"><ele>113.0</ele><time>2026-03-30T15:10:23.863Z</time></trkpt><trkpt lat="43.4597972" lon="11.1366379"><ele>112.99999999999999</ele><time>2026-03-30T15:10:25.778Z</time></trkpt><trkpt lat="43.4597121" lon="11.1366091"><ele>113.0</ele><time>2026-03-30T15:10:27.858Z</time></trkpt><trkpt lat="43.4596289" lon="11.1365728"><ele>113.0</ele><time>2026-03-30T15:10:29.781Z</time></trkpt><trkpt lat="43.4595466" lon="11.1365274"><ele>113.0</ele><time>2026-03-30T15:10:31.802Z</time></trkpt><trkpt lat="43.4594743" lon="11.1364866"><ele>112.99999999999999</ele><time>2026-03-30T15:10:33.864Z</time></trkpt><trkpt lat="43.4593916" lon="11.1364235"><ele>113.0</ele><time>2026-03-30T15:10:36.803Z</time></trkpt><trkpt lat="43.459325" lon="11.1363577"><ele>114.33333333333333</ele><time>2026-03-30T15:10:38.88Z</time></trkpt><trkpt lat="43.4592478" lon="11.1363049"><ele>115.66666666666666</ele><time>2026-03-30T15:10:40.784Z</time></trkpt><trkpt lat="43.459159" lon="11.1362372"><ele>117.0</ele><time>2026-03-30T15:10:42.788Z</time></trkpt><trkpt lat="43.4590854" lon="11.1361694"><ele>118.33333333333334</ele><time>2026-03-30T15:10:44.805Z</time></trkpt><trkpt lat="43.4590222" lon="11.1360945"><ele>119.66666666666667</ele><time>2026-03-30T15:10:46.808Z</time></trkpt><trkpt lat="43.4589577" lon="11.1360175"><ele>121.0</ele><time>2026-03-30T15:10:48.881Z</time></trkpt><trkpt lat="43.4589023" lon="11.1359302"><ele>121.00000000000001</ele><time>2026-03-30T15:10:50.806Z</time></trkpt><trkpt lat="43.4588686" lon="11.1358555"><ele>121.0</ele><time>2026-03-30T15:10:52.78Z</time></trkpt><trkpt lat="43.4588049" lon="11.1357956"><ele>121.0</ele><time>2026-03-30T15:10:54.791Z</time></trkpt><trkpt lat="43.4587359" lon="11.1357408"><ele>121.0</ele><time>2026-03-30T15:10:56.807Z</time></trkpt><trkpt lat="43.4586808" lon="11.1356643"><ele>121.00000000000001</ele><time>2026-03-30T15:10:58.879Z</time></trkpt><trkpt lat="43.4586434" lon="11.1355684"><ele>121.0</ele><time>2026-03-30T15:11:00.806Z</time></trkpt><trkpt lat="43.4586065" lon="11.1354651"><ele>120.50000000000001</ele><time>2026-03-30T15:11:02.798Z</time></trkpt><trkpt lat="43.4585638" lon="11.1353713"><ele>120.0</ele><time>2026-03-30T15:11:04.872Z</time></trkpt><trkpt lat="43.4585273" lon="11.1352581"><ele>119.5</ele><time>2026-03-30T15:11:06.797Z</time></trkpt><trkpt lat="43.4584776" lon="11.1351505"><ele>119.0</ele><time>2026-03-30T15:11:08.872Z</time></trkpt><trkpt lat="43.4584268" lon="11.1350377"><ele>118.50000000000001</ele><time>2026-03-30T15:11:10.8Z</time></trkpt><trkpt lat="43.4583853" lon="11.1349464"><ele>118.0</ele><time>2026-03-30T15:11:12.873Z</time></trkpt><trkpt lat="43.4583486" lon="11.1348641"><ele>120.0</ele><time>2026-03-30T15:11:14.808Z</time></trkpt><trkpt lat="43.4583113" lon="11.1347511"><ele>122.00000000000001</ele><time>2026-03-30T15:11:16.794Z</time></trkpt><trkpt lat="43.4582598" lon="11.1346069"><ele>124.00000000000001</ele><time>2026-03-30T15:11:18.879Z</time></trkpt><trkpt lat="43.4582142" lon="11.1344913"><ele>126.0</ele><time>2026-03-30T15:11:20.811Z</time></trkpt><trkpt lat="43.4581583" lon="11.134381"><ele>128.0</ele><time>2026-03-30T15:11:22.882Z</time></trkpt><trkpt lat="43.4581346" lon="11.1342391"><ele>128.0</ele><time>2026-03-30T15:11:24.801Z</time></trkpt><trkpt lat="43.458073" lon="11.1341208"><ele>128.0</ele><time>2026-03-30T15:11:26.808Z</time></trkpt><trkpt lat="43.4579871" lon="11.1340067"><ele>128.0</ele><time>2026-03-30T15:11:28.797Z</time></trkpt><trkpt lat="43.4578934" lon="11.1338893"><ele>128.0</ele><time>2026-03-30T15:11:30.781Z</time></trkpt><trkpt lat="43.4578357" lon="11.1338261"><ele>128.0</ele><time>2026-03-30T15:11:31.8Z</time></trkpt><trkpt lat="43.4577847" lon="11.133767"><ele>128.5</ele><time>2026-03-30T15:11:32.801Z</time></trkpt><trkpt lat="43.457735" lon="11.133713"><ele>129.0</ele><time>2026-03-30T15:11:33.798Z</time></trkpt><trkpt lat="43.4576807" lon="11.1336637"><ele>129.5</ele><time>2026-03-30T15:11:34.865Z</time></trkpt><trkpt lat="43.4575677" lon="11.133578"><ele>130.0</ele><time>2026-03-30T15:11:36.797Z</time></trkpt><trkpt lat="43.4575075" lon="11.1335434"><ele>130.5</ele><time>2026-03-30T15:11:37.804Z</time></trkpt><trkpt lat="43.4574427" lon="11.1335105"><ele>131.0</ele><time>2026-03-30T15:11:38.796Z</time></trkpt><trkpt lat="43.4573782" lon="11.1334815"><ele>131.0</ele><time>2026-03-30T15:11:39.798Z</time></trkpt><trkpt lat="43.4573134" lon="11.1334563"><ele>131.0</ele><time>2026-03-30T15:11:40.796Z</time></trkpt><trkpt lat="43.4572476" lon="11.1334395"><ele>131.0</ele><time>2026-03-30T15:11:41.799Z</time></trkpt><trkpt lat="43.4571827" lon="11.1334252"><ele>131.0</ele><time>2026-03-30T15:11:42.868Z</time></trkpt><trkpt lat="43.4570767" lon="11.1333923"><ele>131.0</ele><time>2026-03-30T15:11:44.799Z</time></trkpt><trkpt lat="43.4569702" lon="11.1333757"><ele>131.0</ele><time>2026-03-30T15:11:46.799Z</time></trkpt><trkpt lat="43.4568443" lon="11.1333678"><ele>129.66666666666666</ele><time>2026-03-30T15:11:48.801Z</time></trkpt><trkpt lat="43.4567753" lon="11.1333725"><ele>128.33333333333331</ele><time>2026-03-30T15:11:49.794Z</time></trkpt><trkpt lat="43.4567064" lon="11.1333921"><ele>127.0</ele><time>2026-03-30T15:11:50.812Z</time></trkpt><trkpt lat="43.4566366" lon="11.1334187"><ele>125.66666666666666</ele><time>2026-03-30T15:11:51.806Z</time></trkpt><trkpt lat="43.456571" lon="11.1334496"><ele>124.33333333333333</ele><time>2026-03-30T15:11:52.868Z</time></trkpt><trkpt lat="43.456454" lon="11.1334997"><ele>123.0</ele><time>2026-03-30T15:11:54.87Z</time></trkpt><trkpt lat="43.4563339" lon="11.1335592"><ele>123.14285714285717</ele><time>2026-03-30T15:11:56.802Z</time></trkpt><trkpt lat="43.4562782" lon="11.1336029"><ele>123.28571428571429</ele><time>2026-03-30T15:11:57.882Z</time></trkpt><trkpt lat="43.4562192" lon="11.1336643"><ele>123.42857142857144</ele><time>2026-03-30T15:11:58.871Z</time></trkpt><trkpt lat="43.4561578" lon="11.1337076"><ele>123.57142857142858</ele><time>2026-03-30T15:11:59.873Z</time></trkpt><trkpt lat="43.4560947" lon="11.1337477"><ele>123.71428571428572</ele><time>2026-03-30T15:12:00.806Z</time></trkpt><trkpt lat="43.4560297" lon="11.1337837"><ele>123.85714285714286</ele><time>2026-03-30T15:12:01.798Z</time></trkpt><trkpt lat="43.4559656" lon="11.1338222"><ele>124.0</ele><time>2026-03-30T15:12:02.812Z</time></trkpt><trkpt lat="43.4559017" lon="11.1338625"><ele>124.00000000000001</ele><time>2026-03-30T15:12:03.862Z</time></trkpt><trkpt lat="43.4558079" lon="11.1339079"><ele>124.0</ele><time>2026-03-30T15:12:05.802Z</time></trkpt><trkpt lat="43.4557399" lon="11.133941"><ele>124.0</ele><time>2026-03-30T15:12:06.801Z</time></trkpt><trkpt lat="43.4556718" lon="11.133978"><ele>124.0</ele><time>2026-03-30T15:12:07.802Z</time></trkpt><trkpt lat="43.4556136" lon="11.1340125"><ele>124.00000000000001</ele><time>2026-03-30T15:12:08.875Z</time></trkpt><trkpt lat="43.4555155" lon="11.1340606"><ele>124.0</ele><time>2026-03-30T15:12:10.784Z</time></trkpt><trkpt lat="43.4553851" lon="11.1340708"><ele>123.00000000000001</ele><time>2026-03-30T15:12:12.868Z</time></trkpt><trkpt lat="43.4553176" lon="11.1340606"><ele>122.0</ele><time>2026-03-30T15:12:13.781Z</time></trkpt><trkpt lat="43.455249" lon="11.1340525"><ele>121.0</ele><time>2026-03-30T15:12:14.812Z</time></trkpt><trkpt lat="43.4551834" lon="11.1340456"><ele>120.0</ele><time>2026-03-30T15:12:15.801Z</time></trkpt><trkpt lat="43.455059" lon="11.1340165"><ele>119.00000000000001</ele><time>2026-03-30T15:12:17.807Z</time></trkpt><trkpt lat="43.4549953" lon="11.1339968"><ele>118.0</ele><time>2026-03-30T15:12:18.788Z</time></trkpt><trkpt lat="43.4549332" lon="11.133975"><ele>118.00000000000001</ele><time>2026-03-30T15:12:19.876Z</time></trkpt><trkpt lat="43.4548202" lon="11.1339079"><ele>118.0</ele><time>2026-03-30T15:12:21.801Z</time></trkpt><trkpt lat="43.4547498" lon="11.1338864"><ele>118.0</ele><time>2026-03-30T15:12:22.788Z</time></trkpt><trkpt lat="43.4546812" lon="11.1338542"><ele>118.0</ele><time>2026-03-30T15:12:23.8Z</time></trkpt><trkpt lat="43.4546173" lon="11.1338242"><ele>118.00000000000001</ele><time>2026-03-30T15:12:24.8Z</time></trkpt><trkpt lat="43.4545562" lon="11.1337924"><ele>118.0</ele><time>2026-03-30T15:12:25.799Z</time></trkpt><trkpt lat="43.4544925" lon="11.1337568"><ele>114.80000000000001</ele><time>2026-03-30T15:12:26.801Z</time></trkpt><trkpt lat="43.4544309" lon="11.1337269"><ele>111.60000000000001</ele><time>2026-03-30T15:12:27.809Z</time></trkpt><trkpt lat="43.4543199" lon="11.1336769"><ele>108.4</ele><time>2026-03-30T15:12:29.862Z</time></trkpt><trkpt lat="43.4542213" lon="11.1336433"><ele>105.19999999999999</ele><time>2026-03-30T15:12:31.812Z</time></trkpt><trkpt lat="43.4541113" lon="11.1335852"><ele>102.0</ele><time>2026-03-30T15:12:33.864Z</time></trkpt><trkpt lat="43.454012" lon="11.1335251"><ele>102.0</ele><time>2026-03-30T15:12:35.783Z</time></trkpt><trkpt lat="43.4538925" lon="11.1334644"><ele>102.0</ele><time>2026-03-30T15:12:37.794Z</time></trkpt><trkpt lat="43.4538198" lon="11.1334299"><ele>102.0</ele><time>2026-03-30T15:12:38.873Z</time></trkpt><trkpt lat="43.4537546" lon="11.1334026"><ele>102.0</ele><time>2026-03-30T15:12:39.868Z</time></trkpt><trkpt lat="43.4536418" lon="11.1333418"><ele>102.0</ele><time>2026-03-30T15:12:41.796Z</time></trkpt><trkpt lat="43.4535393" lon="11.1332904"><ele>102.19999999999999</ele><time>2026-03-30T15:12:43.867Z</time></trkpt><trkpt lat="43.4534415" lon="11.1332415"><ele>102.4</ele><time>2026-03-30T15:12:45.786Z</time></trkpt><trkpt lat="43.453342" lon="11.1331816"><ele>102.6</ele><time>2026-03-30T15:12:47.797Z</time></trkpt><trkpt lat="43.4532515" lon="11.1331248"><ele>102.80000000000001</ele><time>2026-03-30T15:12:49.867Z</time></trkpt><trkpt lat="43.4531801" lon="11.1330859"><ele>103.0</ele><time>2026-03-30T15:12:51.798Z</time></trkpt><trkpt lat="43.4530741" lon="11.1330222"><ele>103.00000000000001</ele><time>2026-03-30T15:12:53.8Z</time></trkpt><trkpt lat="43.4530156" lon="11.1329875"><ele>103.0</ele><time>2026-03-30T15:12:54.801Z</time></trkpt><trkpt lat="43.452951" lon="11.1329549"><ele>103.0</ele><time>2026-03-30T15:12:55.8Z</time></trkpt><trkpt lat="43.4528894" lon="11.1329194"><ele>103.0</ele><time>2026-03-30T15:12:56.808Z</time></trkpt><trkpt lat="43.4527776" lon="11.1328674"><ele>103.00000000000001</ele><time>2026-03-30T15:12:58.789Z</time></trkpt><trkpt lat="43.4526693" lon="11.1328178"><ele>103.0</ele><time>2026-03-30T15:13:00.793Z</time></trkpt><trkpt lat="43.4525622" lon="11.1327676"><ele>103.25</ele><time>2026-03-30T15:13:02.806Z</time></trkpt><trkpt lat="43.4524499" lon="11.1327233"><ele>103.5</ele><time>2026-03-30T15:13:04.804Z</time></trkpt><trkpt lat="43.4523348" lon="11.1326682"><ele>103.75</ele><time>2026-03-30T15:13:06.804Z</time></trkpt><trkpt lat="43.452228" lon="11.1326186"><ele>104.0</ele><time>2026-03-30T15:13:08.801Z</time></trkpt><trkpt lat="43.4521254" lon="11.1325688"><ele>103.5</ele><time>2026-03-30T15:13:10.814Z</time></trkpt><trkpt lat="43.4520201" lon="11.1325063"><ele>103.0</ele><time>2026-03-30T15:13:12.803Z</time></trkpt><trkpt lat="43.4519087" lon="11.1324431"><ele>102.5</ele><time>2026-03-30T15:13:14.808Z</time></trkpt><trkpt lat="43.451802" lon="11.1323784"><ele>102.0</ele><time>2026-03-30T15:13:16.811Z</time></trkpt><trkpt lat="43.4516938" lon="11.1323148"><ele>102.0</ele><time>2026-03-30T15:13:18.812Z</time></trkpt><trkpt lat="43.4515884" lon="11.1322671"><ele>102.0</ele><time>2026-03-30T15:13:20.811Z</time></trkpt><trkpt lat="43.4514845" lon="11.1322041"><ele>102.0</ele><time>2026-03-30T15:13:22.806Z</time></trkpt><trkpt lat="43.4513824" lon="11.1321518"><ele>102.0</ele><time>2026-03-30T15:13:24.801Z</time></trkpt><trkpt lat="43.4512767" lon="11.132121"><ele>102.0</ele><time>2026-03-30T15:13:26.805Z</time></trkpt><trkpt lat="43.4511711" lon="11.1320948"><ele>102.6</ele><time>2026-03-30T15:13:28.865Z</time></trkpt><trkpt lat="43.4510824" lon="11.1320788"><ele>103.19999999999999</ele><time>2026-03-30T15:13:30.786Z</time></trkpt><trkpt lat="43.4509804" lon="11.1320522"><ele>103.8</ele><time>2026-03-30T15:13:32.88Z</time></trkpt><trkpt lat="43.4508667" lon="11.1320294"><ele>104.4</ele><time>2026-03-30T15:13:34.871Z</time></trkpt><trkpt lat="43.4507598" lon="11.1320139"><ele>105.0</ele><time>2026-03-30T15:13:36.798Z</time></trkpt><trkpt lat="43.4506515" lon="11.1319996"><ele>105.0</ele><time>2026-03-30T15:13:38.798Z</time></trkpt><trkpt lat="43.4505413" lon="11.131984"><ele>105.0</ele><time>2026-03-30T15:13:40.805Z</time></trkpt><trkpt lat="43.4504323" lon="11.1319735"><ele>105.0</ele><time>2026-03-30T15:13:42.847Z</time></trkpt><trkpt lat="43.4503242" lon="11.1319662"><ele>105.0</ele><time>2026-03-30T15:13:44.859Z</time></trkpt><trkpt lat="43.4502213" lon="11.1319423"><ele>105.0</ele><time>2026-03-30T15:13:46.796Z</time></trkpt><trkpt lat="43.4501263" lon="11.1319339"><ele>105.25</ele><time>2026-03-30T15:13:48.811Z</time></trkpt><trkpt lat="43.450021" lon="11.1319346"><ele>105.5</ele><time>2026-03-30T15:13:50.784Z</time></trkpt><trkpt lat="43.4499184" lon="11.1319281"><ele>105.75</ele><time>2026-03-30T15:13:52.876Z</time></trkpt><trkpt lat="43.4498096" lon="11.1319173"><ele>106.0</ele><time>2026-03-30T15:13:54.875Z</time></trkpt><trkpt lat="43.4496703" lon="11.1319027"><ele>106.4</ele><time>2026-03-30T15:13:57.871Z</time></trkpt><trkpt lat="43.4495737" lon="11.1318803"><ele>106.8</ele><time>2026-03-30T15:13:59.792Z</time></trkpt><trkpt lat="43.4494661" lon="11.1318843"><ele>107.20000000000002</ele><time>2026-03-30T15:14:01.803Z</time></trkpt><trkpt lat="43.4493675" lon="11.1318815"><ele>107.60000000000001</ele><time>2026-03-30T15:14:03.878Z</time></trkpt><trkpt lat="43.4492698" lon="11.1318795"><ele>108.0</ele><time>2026-03-30T15:14:05.81Z</time></trkpt><trkpt lat="43.4491713" lon="11.1318701"><ele>108.0</ele><time>2026-03-30T15:14:07.781Z</time></trkpt><trkpt lat="43.4490745" lon="11.1318607"><ele>108.0</ele><time>2026-03-30T15:14:09.88Z</time></trkpt><trkpt lat="43.4489148" lon="11.1318317"><ele>108.0</ele><time>2026-03-30T15:14:13.792Z</time></trkpt><trkpt lat="43.4488039" lon="11.1318213"><ele>108.0</ele><time>2026-03-30T15:14:15.789Z</time></trkpt><trkpt lat="43.4487008" lon="11.1318237"><ele>108.80000000000001</ele><time>2026-03-30T15:14:17.792Z</time></trkpt><trkpt lat="43.4486001" lon="11.1318327"><ele>109.60000000000001</ele><time>2026-03-30T15:14:19.878Z</time></trkpt><trkpt lat="43.4485008" lon="11.1318234"><ele>110.39999999999999</ele><time>2026-03-30T15:14:21.801Z</time></trkpt><trkpt lat="43.4483991" lon="11.1318133"><ele>111.19999999999999</ele><time>2026-03-30T15:14:23.803Z</time></trkpt><trkpt lat="43.4482919" lon="11.1318034"><ele>112.0</ele><time>2026-03-30T15:14:25.804Z</time></trkpt><trkpt lat="43.4481864" lon="11.1317963"><ele>112.0</ele><time>2026-03-30T15:14:27.86Z</time></trkpt><trkpt lat="43.4480649" lon="11.1317768"><ele>111.99999999999999</ele><time>2026-03-30T15:14:29.877Z</time></trkpt><trkpt lat="43.4479671" lon="11.1317794"><ele>111.99999999999999</ele><time>2026-03-30T15:14:31.802Z</time></trkpt><trkpt lat="43.4478708" lon="11.1317752"><ele>112.0</ele><time>2026-03-30T15:14:33.797Z</time></trkpt><trkpt lat="43.4477683" lon="11.1317664"><ele>112.0</ele><time>2026-03-30T15:14:35.784Z</time></trkpt><trkpt lat="43.4476701" lon="11.1317662"><ele>112.0</ele><time>2026-03-30T15:14:37.865Z</time></trkpt><trkpt lat="43.4475755" lon="11.1317744"><ele>112.0</ele><time>2026-03-30T15:14:39.864Z</time></trkpt><trkpt lat="43.447478" lon="11.1317837"><ele>112.0</ele><time>2026-03-30T15:14:41.8Z</time></trkpt><trkpt lat="43.4473819" lon="11.1318115"><ele>112.0</ele><time>2026-03-30T15:14:43.867Z</time></trkpt><trkpt lat="43.4471634" lon="11.1317903"><ele>111.39999999999999</ele><time>2026-03-30T15:14:47.87Z</time></trkpt><trkpt lat="43.4471258" lon="11.1318719"><ele>110.79999999999998</ele><time>2026-03-30T15:14:48.879Z</time></trkpt><trkpt lat="43.4470519" lon="11.1319163"><ele>110.2</ele><time>2026-03-30T15:14:50.784Z</time></trkpt><trkpt lat="43.4469469" lon="11.1319762"><ele>109.6</ele><time>2026-03-30T15:14:52.868Z</time></trkpt><trkpt lat="43.4468461" lon="11.1320336"><ele>109.0</ele><time>2026-03-30T15:14:54.878Z</time></trkpt><trkpt lat="43.4467459" lon="11.1321067"><ele>109.0</ele><time>2026-03-30T15:14:56.8Z</time></trkpt><trkpt lat="43.4466434" lon="11.1321819"><ele>109.0</ele><time>2026-03-30T15:14:58.865Z</time></trkpt><trkpt lat="43.4465517" lon="11.132256"><ele>109.0</ele><time>2026-03-30T15:15:00.803Z</time></trkpt><trkpt lat="43.4464828" lon="11.1323472"><ele>109.0</ele><time>2026-03-30T15:15:02.806Z</time></trkpt><trkpt lat="43.4464006" lon="11.1324389"><ele>109.0</ele><time>2026-03-30T15:15:04.857Z</time></trkpt><trkpt lat="43.4463594" lon="11.1325332"><ele>108.80000000000001</ele><time>2026-03-30T15:15:06.801Z</time></trkpt><trkpt lat="43.4462923" lon="11.1326517"><ele>108.60000000000001</ele><time>2026-03-30T15:15:08.808Z</time></trkpt><trkpt lat="43.446229" lon="11.1327779"><ele>108.4</ele><time>2026-03-30T15:15:10.804Z</time></trkpt><trkpt lat="43.4461742" lon="11.1329002"><ele>108.2</ele><time>2026-03-30T15:15:12.781Z</time></trkpt><trkpt lat="43.4461335" lon="11.1330235"><ele>108.0</ele><time>2026-03-30T15:15:14.871Z</time></trkpt><trkpt lat="43.4460892" lon="11.1331458"><ele>108.2</ele><time>2026-03-30T15:15:16.794Z</time></trkpt><trkpt lat="43.4460167" lon="11.1332494"><ele>108.4</ele><time>2026-03-30T15:15:18.875Z</time></trkpt><trkpt lat="43.4459722" lon="11.1333797"><ele>108.60000000000001</ele><time>2026-03-30T15:15:20.808Z</time></trkpt><trkpt lat="43.4459163" lon="11.1335015"><ele>108.80000000000001</ele><time>2026-03-30T15:15:22.809Z</time></trkpt><trkpt lat="43.4458579" lon="11.1336304"><ele>109.0</ele><time>2026-03-30T15:15:24.875Z</time></trkpt><trkpt lat="43.4458035" lon="11.1337578"><ele>109.0</ele><time>2026-03-30T15:15:26.8Z</time></trkpt><trkpt lat="43.4457465" lon="11.1338795"><ele>109.0</ele><time>2026-03-30T15:15:28.789Z</time></trkpt><trkpt lat="43.4457044" lon="11.133991"><ele>109.0</ele><time>2026-03-30T15:15:30.801Z</time></trkpt><trkpt lat="43.4456456" lon="11.1341023"><ele>109.0</ele><time>2026-03-30T15:15:32.795Z</time></trkpt><trkpt lat="43.4456102" lon="11.1342411"><ele>109.0</ele><time>2026-03-30T15:15:34.804Z</time></trkpt><trkpt lat="43.4455594" lon="11.1343439"><ele>109.0</ele><time>2026-03-30T15:15:36.794Z</time></trkpt><trkpt lat="43.4454813" lon="11.1344483"><ele>109.0</ele><time>2026-03-30T15:15:38.798Z</time></trkpt><trkpt lat="43.44541" lon="11.1345672"><ele>109.0</ele><time>2026-03-30T15:15:40.804Z</time></trkpt><trkpt lat="43.4453397" lon="11.1346845"><ele>109.0</ele><time>2026-03-30T15:15:42.869Z</time></trkpt><trkpt lat="43.4452813" lon="11.1347882"><ele>109.0</ele><time>2026-03-30T15:15:44.807Z</time></trkpt><trkpt lat="43.4452016" lon="11.1349077"><ele>108.6</ele><time>2026-03-30T15:15:46.803Z</time></trkpt><trkpt lat="43.4451249" lon="11.1350223"><ele>108.2</ele><time>2026-03-30T15:15:48.815Z</time></trkpt><trkpt lat="43.4450544" lon="11.1351335"><ele>107.79999999999998</ele><time>2026-03-30T15:15:50.81Z</time></trkpt><trkpt lat="43.4449849" lon="11.1352533"><ele>107.39999999999999</ele><time>2026-03-30T15:15:52.803Z</time></trkpt><trkpt lat="43.4449183" lon="11.1353632"><ele>107.0</ele><time>2026-03-30T15:15:54.797Z</time></trkpt><trkpt lat="43.4448528" lon="11.135476"><ele>107.0</ele><time>2026-03-30T15:15:56.815Z</time></trkpt><trkpt lat="43.4447852" lon="11.1355889"><ele>106.99999999999999</ele><time>2026-03-30T15:15:58.779Z</time></trkpt><trkpt lat="43.4447203" lon="11.135698"><ele>106.99999999999999</ele><time>2026-03-30T15:16:00.787Z</time></trkpt><trkpt lat="43.4446549" lon="11.1358122"><ele>107.0</ele><time>2026-03-30T15:16:02.883Z</time></trkpt><trkpt lat="43.4445918" lon="11.1359213"><ele>107.0</ele><time>2026-03-30T15:16:04.876Z</time></trkpt><trkpt lat="43.4445401" lon="11.1360071"><ele>107.39999999999999</ele><time>2026-03-30T15:16:06.807Z</time></trkpt><trkpt lat="43.4444944" lon="11.1360686"><ele>107.79999999999998</ele><time>2026-03-30T15:16:07.867Z</time></trkpt><trkpt lat="43.4444093" lon="11.1361899"><ele>108.2</ele><time>2026-03-30T15:16:09.866Z</time></trkpt><trkpt lat="43.4443246" lon="11.1362735"><ele>108.6</ele><time>2026-03-30T15:16:11.823Z</time></trkpt><trkpt lat="43.4442684" lon="11.1363827"><ele>109.0</ele><time>2026-03-30T15:16:13.868Z</time></trkpt><trkpt lat="43.4442063" lon="11.1365171"><ele>108.80000000000001</ele><time>2026-03-30T15:16:15.791Z</time></trkpt><trkpt lat="43.4441415" lon="11.1366481"><ele>108.60000000000001</ele><time>2026-03-30T15:16:17.877Z</time></trkpt><trkpt lat="43.4440744" lon="11.1367757"><ele>108.4</ele><time>2026-03-30T15:16:19.872Z</time></trkpt><trkpt lat="43.4440254" lon="11.1368717"><ele>108.2</ele><time>2026-03-30T15:16:21.812Z</time></trkpt><trkpt lat="43.4439545" lon="11.1369894"><ele>108.0</ele><time>2026-03-30T15:16:23.809Z</time></trkpt><trkpt lat="43.4438807" lon="11.1371041"><ele>108.0</ele><time>2026-03-30T15:16:25.812Z</time></trkpt><trkpt lat="43.4438068" lon="11.1372169"><ele>108.00000000000001</ele><time>2026-03-30T15:16:27.807Z</time></trkpt><trkpt lat="43.4437451" lon="11.1373253"><ele>108.00000000000001</ele><time>2026-03-30T15:16:29.881Z</time></trkpt><trkpt lat="43.4436856" lon="11.1374404"><ele>108.0</ele><time>2026-03-30T15:16:31.807Z</time></trkpt><trkpt lat="43.4436193" lon="11.1375439"><ele>108.0</ele><time>2026-03-30T15:16:33.795Z</time></trkpt><trkpt lat="43.443554" lon="11.1376549"><ele>108.60000000000001</ele><time>2026-03-30T15:16:35.809Z</time></trkpt><trkpt lat="43.4434867" lon="11.137773"><ele>109.20000000000002</ele><time>2026-03-30T15:16:37.801Z</time></trkpt><trkpt lat="43.4434206" lon="11.1378884"><ele>109.8</ele><time>2026-03-30T15:16:39.809Z</time></trkpt><trkpt lat="43.4433573" lon="11.1380087"><ele>110.4</ele><time>2026-03-30T15:16:41.802Z</time></trkpt><trkpt lat="43.4432959" lon="11.1381232"><ele>111.0</ele><time>2026-03-30T15:16:43.802Z</time></trkpt><trkpt lat="43.4432307" lon="11.1382371"><ele>110.5</ele><time>2026-03-30T15:16:45.784Z</time></trkpt><trkpt lat="43.4431618" lon="11.1383483"><ele>110.0</ele><time>2026-03-30T15:16:47.866Z</time></trkpt><trkpt lat="43.4430964" lon="11.1384601"><ele>109.5</ele><time>2026-03-30T15:16:49.869Z</time></trkpt><trkpt lat="43.4429745" lon="11.138624"><ele>109.0</ele><time>2026-03-30T15:16:53.878Z</time></trkpt><trkpt lat="43.4428873" lon="11.1387524"><ele>109.0</ele><time>2026-03-30T15:16:55.812Z</time></trkpt><trkpt lat="43.4428541" lon="11.1388345"><ele>109.0</ele><time>2026-03-30T15:16:56.817Z</time></trkpt><trkpt lat="43.4427831" lon="11.1389683"><ele>109.0</ele><time>2026-03-30T15:16:58.877Z</time></trkpt><trkpt lat="43.4427051" lon="11.1390477"><ele>109.0</ele><time>2026-03-30T15:17:00.801Z</time></trkpt><trkpt lat="43.4426443" lon="11.1391609"><ele>109.0</ele><time>2026-03-30T15:17:02.869Z</time></trkpt><trkpt lat="43.4425677" lon="11.1392782"><ele>109.80000000000001</ele><time>2026-03-30T15:17:04.87Z</time></trkpt><trkpt lat="43.4424925" lon="11.1393785"><ele>110.60000000000001</ele><time>2026-03-30T15:17:06.809Z</time></trkpt><trkpt lat="43.4424149" lon="11.1394692"><ele>111.4</ele><time>2026-03-30T15:17:08.803Z</time></trkpt><trkpt lat="43.4423336" lon="11.1395508"><ele>112.2</ele><time>2026-03-30T15:17:10.803Z</time></trkpt><trkpt lat="43.442251" lon="11.139624"><ele>113.0</ele><time>2026-03-30T15:17:12.815Z</time></trkpt><trkpt lat="43.4421696" lon="11.1396877"><ele>112.83333333333333</ele><time>2026-03-30T15:17:14.872Z</time></trkpt><trkpt lat="43.442088" lon="11.1397389"><ele>112.66666666666666</ele><time>2026-03-30T15:17:16.794Z</time></trkpt><trkpt lat="43.4420029" lon="11.1397959"><ele>112.5</ele><time>2026-03-30T15:17:18.804Z</time></trkpt><trkpt lat="43.4419223" lon="11.1398571"><ele>112.33333333333334</ele><time>2026-03-30T15:17:20.819Z</time></trkpt><trkpt lat="43.4418451" lon="11.1398918"><ele>112.16666666666667</ele><time>2026-03-30T15:17:22.872Z</time></trkpt><trkpt lat="43.4417713" lon="11.1398921"><ele>112.0</ele><time>2026-03-30T15:17:24.808Z</time></trkpt><trkpt lat="43.4416889" lon="11.1399296"><ele>112.00000000000001</ele><time>2026-03-30T15:17:26.803Z</time></trkpt><trkpt lat="43.4416281" lon="11.1399632"><ele>112.0</ele><time>2026-03-30T15:17:28.805Z</time></trkpt><trkpt lat="43.4415407" lon="11.139996"><ele>112.0</ele><time>2026-03-30T15:17:31.81Z</time></trkpt><trkpt lat="43.4414748" lon="11.1400244"><ele>112.0</ele><time>2026-03-30T15:17:33.876Z</time></trkpt><trkpt lat="43.441396" lon="11.1400522"><ele>112.00000000000001</ele><time>2026-03-30T15:17:35.803Z</time></trkpt><trkpt lat="43.4413072" lon="11.1400889"><ele>112.0</ele><time>2026-03-30T15:17:37.817Z</time></trkpt><trkpt lat="43.4412186" lon="11.140127"><ele>112.19999999999999</ele><time>2026-03-30T15:17:39.807Z</time></trkpt><trkpt lat="43.4411414" lon="11.1401743"><ele>112.39999999999999</ele><time>2026-03-30T15:17:41.789Z</time></trkpt><trkpt lat="43.4410585" lon="11.140214"><ele>112.60000000000001</ele><time>2026-03-30T15:17:43.817Z</time></trkpt><trkpt lat="43.4409812" lon="11.1402486"><ele>112.80000000000001</ele><time>2026-03-30T15:17:45.818Z</time></trkpt><trkpt lat="43.4408148" lon="11.1403311"><ele>113.0</ele><time>2026-03-30T15:17:49.867Z</time></trkpt><trkpt lat="43.4407504" lon="11.1404515"><ele>113.0</ele><time>2026-03-30T15:17:51.802Z</time></trkpt><trkpt lat="43.4407038" lon="11.1405216"><ele>113.00000000000001</ele><time>2026-03-30T15:17:53.878Z</time></trkpt><trkpt lat="43.4406144" lon="11.1405818"><ele>113.00000000000001</ele><time>2026-03-30T15:17:55.8Z</time></trkpt><trkpt lat="43.4405381" lon="11.1406667"><ele>113.0</ele><time>2026-03-30T15:17:57.798Z</time></trkpt><trkpt lat="43.4404715" lon="11.1407526"><ele>113.0</ele><time>2026-03-30T15:17:59.868Z</time></trkpt><trkpt lat="43.4404077" lon="11.1408503"><ele>113.33333333333333</ele><time>2026-03-30T15:18:01.793Z</time></trkpt><trkpt lat="43.4403459" lon="11.1409595"><ele>113.66666666666666</ele><time>2026-03-30T15:18:03.805Z</time></trkpt><trkpt lat="43.4402886" lon="11.1410577"><ele>114.0</ele><time>2026-03-30T15:18:05.801Z</time></trkpt><trkpt lat="43.4402353" lon="11.1411618"><ele>114.33333333333334</ele><time>2026-03-30T15:18:07.778Z</time></trkpt><trkpt lat="43.4401829" lon="11.1412677"><ele>114.66666666666667</ele><time>2026-03-30T15:18:09.87Z</time></trkpt><trkpt lat="43.4401444" lon="11.1413511"><ele>115.0</ele><time>2026-03-30T15:18:11.809Z</time></trkpt><trkpt lat="43.4400875" lon="11.1414774"><ele>116.2</ele><time>2026-03-30T15:18:13.803Z</time></trkpt><trkpt lat="43.4400262" lon="11.1415915"><ele>117.4</ele><time>2026-03-30T15:18:15.799Z</time></trkpt><trkpt lat="43.4399626" lon="11.1416971"><ele>118.6</ele><time>2026-03-30T15:18:17.899Z</time></trkpt><trkpt lat="43.4399032" lon="11.1418064"><ele>119.8</ele><time>2026-03-30T15:18:19.809Z</time></trkpt><trkpt lat="43.4398454" lon="11.1419302"><ele>121.0</ele><time>2026-03-30T15:18:21.81Z</time></trkpt><trkpt lat="43.4397757" lon="11.1420407"><ele>121.0</ele><time>2026-03-30T15:18:23.881Z</time></trkpt><trkpt lat="43.4397083" lon="11.142142"><ele>121.0</ele><time>2026-03-30T15:18:25.797Z</time></trkpt><trkpt lat="43.4396318" lon="11.1422302"><ele>121.0</ele><time>2026-03-30T15:18:27.803Z</time></trkpt><trkpt lat="43.4395637" lon="11.1423303"><ele>121.0</ele><time>2026-03-30T15:18:29.805Z</time></trkpt><trkpt lat="43.439488" lon="11.1424364"><ele>121.0</ele><time>2026-03-30T15:18:31.81Z</time></trkpt><trkpt lat="43.4394108" lon="11.1425363"><ele>120.6</ele><time>2026-03-30T15:18:33.804Z</time></trkpt><trkpt lat="43.4393352" lon="11.1426371"><ele>120.19999999999999</ele><time>2026-03-30T15:18:35.801Z</time></trkpt><trkpt lat="43.4392614" lon="11.1427354"><ele>119.80000000000001</ele><time>2026-03-30T15:18:37.805Z</time></trkpt><trkpt lat="43.4391806" lon="11.1428242"><ele>119.4</ele><time>2026-03-30T15:18:39.805Z</time></trkpt><trkpt lat="43.4391063" lon="11.1429128"><ele>119.0</ele><time>2026-03-30T15:18:41.797Z</time></trkpt><trkpt lat="43.4390298" lon="11.1430098"><ele>119.0</ele><time>2026-03-30T15:18:43.806Z</time></trkpt><trkpt lat="43.4389486" lon="11.1430937"><ele>119.0</ele><time>2026-03-30T15:18:45.814Z</time></trkpt><trkpt lat="43.4388558" lon="11.1431528"><ele>119.0</ele><time>2026-03-30T15:18:47.803Z</time></trkpt><trkpt lat="43.4387593" lon="11.1432115"><ele>119.0</ele><time>2026-03-30T15:18:49.812Z</time></trkpt><trkpt lat="43.4386593" lon="11.1432632"><ele>119.0</ele><time>2026-03-30T15:18:51.805Z</time></trkpt><trkpt lat="43.4385508" lon="11.1432987"><ele>118.6</ele><time>2026-03-30T15:18:53.803Z</time></trkpt><trkpt lat="43.4384405" lon="11.1433246"><ele>118.2</ele><time>2026-03-30T15:18:55.802Z</time></trkpt><trkpt lat="43.4383299" lon="11.1433411"><ele>117.79999999999998</ele><time>2026-03-30T15:18:57.813Z</time></trkpt><trkpt lat="43.4382204" lon="11.1433478"><ele>117.39999999999999</ele><time>2026-03-30T15:18:59.803Z</time></trkpt><trkpt lat="43.4381119" lon="11.1433475"><ele>117.0</ele><time>2026-03-30T15:19:01.802Z</time></trkpt><trkpt lat="43.4380048" lon="11.1433286"><ele>116.8</ele><time>2026-03-30T15:19:03.808Z</time></trkpt><trkpt lat="43.4378993" lon="11.1432995"><ele>116.6</ele><time>2026-03-30T15:19:05.809Z</time></trkpt><trkpt lat="43.4377954" lon="11.1432605"><ele>116.39999999999999</ele><time>2026-03-30T15:19:07.799Z</time></trkpt><trkpt lat="43.4376923" lon="11.1432083"><ele>116.19999999999999</ele><time>2026-03-30T15:19:09.809Z</time></trkpt><trkpt lat="43.4375961" lon="11.1431559"><ele>116.0</ele><time>2026-03-30T15:19:11.797Z</time></trkpt><trkpt lat="43.4375035" lon="11.1430931"><ele>115.4</ele><time>2026-03-30T15:19:13.869Z</time></trkpt><trkpt lat="43.4374286" lon="11.1430202"><ele>114.8</ele><time>2026-03-30T15:19:15.807Z</time></trkpt><trkpt lat="43.4373533" lon="11.1429379"><ele>114.20000000000002</ele><time>2026-03-30T15:19:17.872Z</time></trkpt><trkpt lat="43.437272" lon="11.1428456"><ele>113.60000000000001</ele><time>2026-03-30T15:19:19.807Z</time></trkpt><trkpt lat="43.4371813" lon="11.1427469"><ele>113.0</ele><time>2026-03-30T15:19:21.806Z</time></trkpt><trkpt lat="43.4370876" lon="11.1426586"><ele>113.0</ele><time>2026-03-30T15:19:23.874Z</time></trkpt><trkpt lat="43.4369983" lon="11.1425597"><ele>113.0</ele><time>2026-03-30T15:19:25.828Z</time></trkpt><trkpt lat="43.4369013" lon="11.1424638"><ele>113.0</ele><time>2026-03-30T15:19:27.784Z</time></trkpt><trkpt lat="43.4368142" lon="11.1423702"><ele>113.0</ele><time>2026-03-30T15:19:29.819Z</time></trkpt><trkpt lat="43.4367297" lon="11.1422814"><ele>114.2</ele><time>2026-03-30T15:19:31.8Z</time></trkpt><trkpt lat="43.4366515" lon="11.1422031"><ele>115.4</ele><time>2026-03-30T15:19:33.799Z</time></trkpt><trkpt lat="43.4365754" lon="11.1421201"><ele>116.60000000000001</ele><time>2026-03-30T15:19:35.81Z</time></trkpt><trkpt lat="43.4364944" lon="11.1420378"><ele>117.80000000000001</ele><time>2026-03-30T15:19:37.81Z</time></trkpt><trkpt lat="43.4364123" lon="11.1419651"><ele>119.0</ele><time>2026-03-30T15:19:39.791Z</time></trkpt><trkpt lat="43.4363341" lon="11.1418906"><ele>119.0</ele><time>2026-03-30T15:19:41.809Z</time></trkpt><trkpt lat="43.4362475" lon="11.1418206"><ele>119.0</ele><time>2026-03-30T15:19:43.818Z</time></trkpt><trkpt lat="43.4361597" lon="11.141745"><ele>119.0</ele><time>2026-03-30T15:19:45.814Z</time></trkpt><trkpt lat="43.4360646" lon="11.1416849"><ele>119.0</ele><time>2026-03-30T15:19:47.808Z</time></trkpt><trkpt lat="43.4359686" lon="11.1416343"><ele>119.0</ele><time>2026-03-30T15:19:49.863Z</time></trkpt><trkpt lat="43.4358774" lon="11.1416191"><ele>119.0</ele><time>2026-03-30T15:19:51.808Z</time></trkpt><trkpt lat="43.4357892" lon="11.1415706"><ele>119.0</ele><time>2026-03-30T15:19:53.885Z</time></trkpt><trkpt lat="43.4357046" lon="11.1414967"><ele>119.0</ele><time>2026-03-30T15:19:55.803Z</time></trkpt><trkpt lat="43.4356238" lon="11.1413992"><ele>119.0</ele><time>2026-03-30T15:19:57.799Z</time></trkpt><trkpt lat="43.4355127" lon="11.141346"><ele>119.0</ele><time>2026-03-30T15:19:59.865Z</time></trkpt><trkpt lat="43.4354019" lon="11.1413012"><ele>121.6</ele><time>2026-03-30T15:20:01.794Z</time></trkpt><trkpt lat="43.4353403" lon="11.1412761"><ele>124.2</ele><time>2026-03-30T15:20:02.872Z</time></trkpt><trkpt lat="43.4352563" lon="11.1412078"><ele>126.79999999999998</ele><time>2026-03-30T15:20:04.797Z</time></trkpt><trkpt lat="43.4351698" lon="11.1411501"><ele>129.4</ele><time>2026-03-30T15:20:06.799Z</time></trkpt><trkpt lat="43.4350456" lon="11.1411166"><ele>132.0</ele><time>2026-03-30T15:20:08.856Z</time></trkpt><trkpt lat="43.4349388" lon="11.1410554"><ele>132.0</ele><time>2026-03-30T15:20:10.793Z</time></trkpt><trkpt lat="43.4348318" lon="11.1409921"><ele>132.0</ele><time>2026-03-30T15:20:12.791Z</time></trkpt><trkpt lat="43.4347376" lon="11.1409478"><ele>132.0</ele><time>2026-03-30T15:20:14.802Z</time></trkpt><trkpt lat="43.4346445" lon="11.1408934"><ele>132.0</ele><time>2026-03-30T15:20:16.801Z</time></trkpt><trkpt lat="43.4345647" lon="11.1408214"><ele>132.0</ele><time>2026-03-30T15:20:18.878Z</time></trkpt><trkpt lat="43.4345139" lon="11.1407498"><ele>133.2</ele><time>2026-03-30T15:20:20.782Z</time></trkpt><trkpt lat="43.4344411" lon="11.1406618"><ele>134.39999999999998</ele><time>2026-03-30T15:20:22.807Z</time></trkpt><trkpt lat="43.434356" lon="11.1405889"><ele>135.60000000000002</ele><time>2026-03-30T15:20:24.799Z</time></trkpt><trkpt lat="43.4342706" lon="11.1405113"><ele>136.8</ele><time>2026-03-30T15:20:26.801Z</time></trkpt><trkpt lat="43.4341827" lon="11.1404333"><ele>138.0</ele><time>2026-03-30T15:20:28.785Z</time></trkpt><trkpt lat="43.4341004" lon="11.1403671"><ele>138.0</ele><time>2026-03-30T15:20:30.807Z</time></trkpt><trkpt lat="43.4340133" lon="11.1403024"><ele>138.0</ele><time>2026-03-30T15:20:32.798Z</time></trkpt><trkpt lat="43.433926" lon="11.140222"><ele>138.0</ele><time>2026-03-30T15:20:34.8Z</time></trkpt><trkpt lat="43.4338369" lon="11.1401488"><ele>138.0</ele><time>2026-03-30T15:20:36.798Z</time></trkpt><trkpt lat="43.4337463" lon="11.140088"><ele>138.0</ele><time>2026-03-30T15:20:38.797Z</time></trkpt><trkpt lat="43.4336693" lon="11.1400136"><ele>139.0</ele><time>2026-03-30T15:20:40.777Z</time></trkpt><trkpt lat="43.4335946" lon="11.1399527"><ele>140.0</ele><time>2026-03-30T15:20:42.856Z</time></trkpt><trkpt lat="43.4335084" lon="11.139876"><ele>141.0</ele><time>2026-03-30T15:20:44.868Z</time></trkpt><trkpt lat="43.4334205" lon="11.1397956"><ele>142.0</ele><time>2026-03-30T15:20:46.812Z</time></trkpt><trkpt lat="43.4333359" lon="11.1397275"><ele>143.0</ele><time>2026-03-30T15:20:48.852Z</time></trkpt><trkpt lat="43.4332697" lon="11.1396737"><ele>143.0</ele><time>2026-03-30T15:20:50.797Z</time></trkpt><trkpt lat="43.4332047" lon="11.1395983"><ele>143.0</ele><time>2026-03-30T15:20:52.87Z</time></trkpt><trkpt lat="43.4331542" lon="11.1395422"><ele>143.0</ele><time>2026-03-30T15:20:53.796Z</time></trkpt><trkpt lat="43.4330602" lon="11.1394585"><ele>143.0</ele><time>2026-03-30T15:20:55.804Z</time></trkpt><trkpt lat="43.4329603" lon="11.1393705"><ele>143.0</ele><time>2026-03-30T15:20:57.803Z</time></trkpt><trkpt lat="43.432874" lon="11.1393052"><ele>142.0</ele><time>2026-03-30T15:20:59.819Z</time></trkpt><trkpt lat="43.4327919" lon="11.1392267"><ele>141.0</ele><time>2026-03-30T15:21:01.8Z</time></trkpt><trkpt lat="43.4327113" lon="11.1391497"><ele>140.0</ele><time>2026-03-30T15:21:03.872Z</time></trkpt><trkpt lat="43.4326264" lon="11.1390798"><ele>139.0</ele><time>2026-03-30T15:21:05.783Z</time></trkpt><trkpt lat="43.4325482" lon="11.1390043"><ele>138.0</ele><time>2026-03-30T15:21:07.779Z</time></trkpt><trkpt lat="43.4324691" lon="11.1389284"><ele>138.0</ele><time>2026-03-30T15:21:09.8Z</time></trkpt><trkpt lat="43.432391" lon="11.1388534"><ele>138.0</ele><time>2026-03-30T15:21:11.779Z</time></trkpt><trkpt lat="43.4323355" lon="11.1387497"><ele>138.0</ele><time>2026-03-30T15:21:13.863Z</time></trkpt><trkpt lat="43.4322886" lon="11.1386404"><ele>138.0</ele><time>2026-03-30T15:21:15.784Z</time></trkpt><trkpt lat="43.4322295" lon="11.138556"><ele>138.0</ele><time>2026-03-30T15:21:17.875Z</time></trkpt><trkpt lat="43.4321718" lon="11.1384649"><ele>135.20000000000002</ele><time>2026-03-30T15:21:19.871Z</time></trkpt><trkpt lat="43.4321253" lon="11.1383687"><ele>132.4</ele><time>2026-03-30T15:21:21.808Z</time></trkpt><trkpt lat="43.4320813" lon="11.1382669"><ele>129.60000000000002</ele><time>2026-03-30T15:21:23.863Z</time></trkpt><trkpt lat="43.4320363" lon="11.1381605"><ele>126.80000000000001</ele><time>2026-03-30T15:21:25.812Z</time></trkpt><trkpt lat="43.4319949" lon="11.1380271"><ele>124.0</ele><time>2026-03-30T15:21:27.864Z</time></trkpt><trkpt lat="43.431962" lon="11.1379044"><ele>124.0</ele><time>2026-03-30T15:21:29.862Z</time></trkpt><trkpt lat="43.4319502" lon="11.1377707"><ele>124.0</ele><time>2026-03-30T15:21:31.811Z</time></trkpt><trkpt lat="43.4319584" lon="11.1376598"><ele>124.0</ele><time>2026-03-30T15:21:33.788Z</time></trkpt><trkpt lat="43.4319401" lon="11.1375316"><ele>124.0</ele><time>2026-03-30T15:21:35.809Z</time></trkpt><trkpt lat="43.4319272" lon="11.1374066"><ele>124.0</ele><time>2026-03-30T15:21:37.798Z</time></trkpt><trkpt lat="43.4319339" lon="11.1372776"><ele>123.4</ele><time>2026-03-30T15:21:39.8Z</time></trkpt><trkpt lat="43.4319398" lon="11.1371422"><ele>122.80000000000001</ele><time>2026-03-30T15:21:41.795Z</time></trkpt><trkpt lat="43.4319575" lon="11.1370032"><ele>122.19999999999999</ele><time>2026-03-30T15:21:43.812Z</time></trkpt><trkpt lat="43.4319771" lon="11.1368649"><ele>121.6</ele><time>2026-03-30T15:21:45.798Z</time></trkpt><trkpt lat="43.4320026" lon="11.1367254"><ele>121.0</ele><time>2026-03-30T15:21:47.8Z</time></trkpt><trkpt lat="43.4320321" lon="11.1365957"><ele>120.8</ele><time>2026-03-30T15:21:49.823Z</time></trkpt><trkpt lat="43.4320658" lon="11.1364813"><ele>120.6</ele><time>2026-03-30T15:21:51.813Z</time></trkpt><trkpt lat="43.4320988" lon="11.1363645"><ele>120.4</ele><time>2026-03-30T15:21:53.8Z</time></trkpt><trkpt lat="43.4321352" lon="11.1362488"><ele>120.2</ele><time>2026-03-30T15:21:55.795Z</time></trkpt><trkpt lat="43.4321672" lon="11.1361184"><ele>120.0</ele><time>2026-03-30T15:21:57.889Z</time></trkpt><trkpt lat="43.4321983" lon="11.1359898"><ele>120.6</ele><time>2026-03-30T15:21:59.797Z</time></trkpt><trkpt lat="43.4322267" lon="11.1358564"><ele>121.2</ele><time>2026-03-30T15:22:01.803Z</time></trkpt><trkpt lat="43.4322425" lon="11.1357261"><ele>121.80000000000001</ele><time>2026-03-30T15:22:03.8Z</time></trkpt><trkpt lat="43.4322409" lon="11.1355957"><ele>122.4</ele><time>2026-03-30T15:22:05.786Z</time></trkpt><trkpt lat="43.4322485" lon="11.1354638"><ele>123.0</ele><time>2026-03-30T15:22:07.88Z</time></trkpt><trkpt lat="43.4322595" lon="11.135334"><ele>123.0</ele><time>2026-03-30T15:22:09.868Z</time></trkpt><trkpt lat="43.4322719" lon="11.135171"><ele>123.00000000000001</ele><time>2026-03-30T15:22:11.803Z</time></trkpt><trkpt lat="43.4322657" lon="11.1350398"><ele>123.00000000000001</ele><time>2026-03-30T15:22:13.876Z</time></trkpt><trkpt lat="43.4322548" lon="11.1349235"><ele>123.0</ele><time>2026-03-30T15:22:15.808Z</time></trkpt><trkpt lat="43.4322457" lon="11.1348089"><ele>123.0</ele><time>2026-03-30T15:22:17.803Z</time></trkpt><trkpt lat="43.4322375" lon="11.1346966"><ele>122.2</ele><time>2026-03-30T15:22:19.816Z</time></trkpt><trkpt lat="43.4322169" lon="11.1345798"><ele>121.4</ele><time>2026-03-30T15:22:21.799Z</time></trkpt><trkpt lat="43.4321913" lon="11.1344631"><ele>120.60000000000001</ele><time>2026-03-30T15:22:23.804Z</time></trkpt><trkpt lat="43.4321735" lon="11.1343445"><ele>119.80000000000001</ele><time>2026-03-30T15:22:25.801Z</time></trkpt><trkpt lat="43.4321526" lon="11.1342306"><ele>119.0</ele><time>2026-03-30T15:22:27.792Z</time></trkpt><trkpt lat="43.4321083" lon="11.134098"><ele>121.0</ele><time>2026-03-30T15:22:29.81Z</time></trkpt><trkpt lat="43.4320564" lon="11.1339642"><ele>123.0</ele><time>2026-03-30T15:22:31.818Z</time></trkpt><trkpt lat="43.4320042" lon="11.1338437"><ele>125.0</ele><time>2026-03-30T15:22:33.81Z</time></trkpt><trkpt lat="43.4319534" lon="11.133731"><ele>127.0</ele><time>2026-03-30T15:22:35.791Z</time></trkpt><trkpt lat="43.4319119" lon="11.1336227"><ele>129.0</ele><time>2026-03-30T15:22:37.8Z</time></trkpt><trkpt lat="43.4318607" lon="11.1335264"><ele>129.0</ele><time>2026-03-30T15:22:39.794Z</time></trkpt><trkpt lat="43.4318128" lon="11.133433"><ele>129.0</ele><time>2026-03-30T15:22:41.795Z</time></trkpt><trkpt lat="43.4317674" lon="11.1333396"><ele>129.0</ele><time>2026-03-30T15:22:43.784Z</time></trkpt><trkpt lat="43.4317248" lon="11.1332473"><ele>129.0</ele><time>2026-03-30T15:22:45.801Z</time></trkpt><trkpt lat="43.4316819" lon="11.1331499"><ele>129.0</ele><time>2026-03-30T15:22:47.801Z</time></trkpt><trkpt lat="43.4316474" lon="11.1330525"><ele>129.0</ele><time>2026-03-30T15:22:49.796Z</time></trkpt><trkpt lat="43.4316161" lon="11.1329426"><ele>130.57142857142856</ele><time>2026-03-30T15:22:51.791Z</time></trkpt><trkpt lat="43.431583" lon="11.132836"><ele>132.14285714285714</ele><time>2026-03-30T15:22:53.808Z</time></trkpt><trkpt lat="43.4315681" lon="11.1327415"><ele>133.71428571428572</ele><time>2026-03-30T15:22:55.805Z</time></trkpt><trkpt lat="43.4315522" lon="11.1326438"><ele>135.28571428571428</ele><time>2026-03-30T15:22:57.806Z</time></trkpt><trkpt lat="43.4315354" lon="11.1325481"><ele>136.85714285714286</ele><time>2026-03-30T15:22:59.8Z</time></trkpt><trkpt lat="43.4315341" lon="11.1324469"><ele>138.42857142857142</ele><time>2026-03-30T15:23:01.815Z</time></trkpt><trkpt lat="43.4315361" lon="11.1323412"><ele>140.0</ele><time>2026-03-30T15:23:03.803Z</time></trkpt><trkpt lat="43.4315324" lon="11.1322252"><ele>140.16666666666666</ele><time>2026-03-30T15:23:05.805Z</time></trkpt><trkpt lat="43.4315251" lon="11.1321046"><ele>140.33333333333331</ele><time>2026-03-30T15:23:07.796Z</time></trkpt><trkpt lat="43.4315326" lon="11.1319927"><ele>140.5</ele><time>2026-03-30T15:23:09.884Z</time></trkpt><trkpt lat="43.4315419" lon="11.1318758"><ele>140.66666666666666</ele><time>2026-03-30T15:23:11.794Z</time></trkpt><trkpt lat="43.4315448" lon="11.1317551"><ele>140.83333333333334</ele><time>2026-03-30T15:23:13.801Z</time></trkpt><trkpt lat="43.431546" lon="11.1316337"><ele>141.0</ele><time>2026-03-30T15:23:15.798Z</time></trkpt><trkpt lat="43.4315501" lon="11.1315243"><ele>141.71428571428572</ele><time>2026-03-30T15:23:17.775Z</time></trkpt><trkpt lat="43.4315458" lon="11.1314173"><ele>142.42857142857142</ele><time>2026-03-30T15:23:19.873Z</time></trkpt><trkpt lat="43.4315453" lon="11.1313134"><ele>143.14285714285714</ele><time>2026-03-30T15:23:21.809Z</time></trkpt><trkpt lat="43.4315405" lon="11.1312102"><ele>143.85714285714286</ele><time>2026-03-30T15:23:23.866Z</time></trkpt><trkpt lat="43.4315284" lon="11.1311171"><ele>144.57142857142858</ele><time>2026-03-30T15:23:25.803Z</time></trkpt><trkpt lat="43.4315096" lon="11.1310196"><ele>145.28571428571428</ele><time>2026-03-30T15:23:27.866Z</time></trkpt><trkpt lat="43.431484" lon="11.130924"><ele>146.0</ele><time>2026-03-30T15:23:29.793Z</time></trkpt><trkpt lat="43.4314627" lon="11.1308357"><ele>146.0</ele><time>2026-03-30T15:23:31.8Z</time></trkpt><trkpt lat="43.4314287" lon="11.1307607"><ele>146.0</ele><time>2026-03-30T15:23:33.873Z</time></trkpt><trkpt lat="43.4313967" lon="11.1306556"><ele>146.0</ele><time>2026-03-30T15:23:35.797Z</time></trkpt><trkpt lat="43.4313697" lon="11.1305522"><ele>146.0</ele><time>2026-03-30T15:23:37.808Z</time></trkpt><trkpt lat="43.4313386" lon="11.1304475"><ele>146.0</ele><time>2026-03-30T15:23:39.866Z</time></trkpt><trkpt lat="43.4313059" lon="11.1303531"><ele>146.0</ele><time>2026-03-30T15:23:41.794Z</time></trkpt><trkpt lat="43.4312723" lon="11.1302573"><ele>146.16666666666666</ele><time>2026-03-30T15:23:43.803Z</time></trkpt><trkpt lat="43.431248" lon="11.1301684"><ele>146.33333333333331</ele><time>2026-03-30T15:23:45.811Z</time></trkpt><trkpt lat="43.4312217" lon="11.1300871"><ele>146.5</ele><time>2026-03-30T15:23:47.806Z</time></trkpt><trkpt lat="43.4312289" lon="11.1299585"><ele>146.66666666666666</ele><time>2026-03-30T15:23:50.796Z</time></trkpt><trkpt lat="43.4312532" lon="11.1298751"><ele>146.83333333333334</ele><time>2026-03-30T15:23:52.794Z</time></trkpt><trkpt lat="43.4313031" lon="11.1297826"><ele>147.0</ele><time>2026-03-30T15:23:55.875Z</time></trkpt><trkpt lat="43.431362" lon="11.1297139"><ele>147.0</ele><time>2026-03-30T15:23:58.79Z</time></trkpt><trkpt lat="43.4314164" lon="11.1296458"><ele>147.0</ele><time>2026-03-30T15:24:01.801Z</time></trkpt><trkpt lat="43.4314667" lon="11.129586"><ele>147.0</ele><time>2026-03-30T15:24:04.873Z</time></trkpt><trkpt lat="43.4315169" lon="11.129529"><ele>147.0</ele><time>2026-03-30T15:24:07.847Z</time></trkpt><trkpt lat="43.431561" lon="11.1294534"><ele>147.0</ele><time>2026-03-30T15:24:10.803Z</time></trkpt><trkpt lat="43.4315859" lon="11.1293672"><ele>147.0</ele><time>2026-03-30T15:24:14.866Z</time></trkpt><trkpt lat="43.4316516" lon="11.1292876"><ele>147.0</ele><time>2026-03-30T15:24:19.868Z</time></trkpt><trkpt lat="43.4316886" lon="11.1291947"><ele>147.0</ele><time>2026-03-30T15:24:26.789Z</time></trkpt><trkpt lat="43.4317127" lon="11.1291097"><ele>147.0</ele><time>2026-03-30T15:24:30.796Z</time></trkpt><trkpt lat="43.4317188" lon="11.129019"><ele>147.0</ele><time>2026-03-30T15:24:34.875Z</time></trkpt><trkpt lat="43.4317399" lon="11.1289239"><ele>147.0</ele><time>2026-03-30T15:24:38.793Z</time></trkpt><trkpt lat="43.4317294" lon="11.1288212"><ele>147.0</ele><time>2026-03-30T15:24:42.801Z</time></trkpt><trkpt lat="43.4317437" lon="11.1287208"><ele>147.0</ele><time>2026-03-30T15:24:45.783Z</time></trkpt><trkpt lat="43.4317701" lon="11.1286011"><ele>147.0</ele><time>2026-03-30T15:24:48.807Z</time></trkpt><trkpt lat="43.4317969" lon="11.12851"><ele>145.6</ele><time>2026-03-30T15:24:50.87Z</time></trkpt><trkpt lat="43.431835" lon="11.128421"><ele>144.2</ele><time>2026-03-30T15:24:52.802Z</time></trkpt><trkpt lat="43.4318823" lon="11.1283108"><ele>142.8</ele><time>2026-03-30T15:24:54.872Z</time></trkpt><trkpt lat="43.4319313" lon="11.1281914"><ele>141.4</ele><time>2026-03-30T15:24:56.791Z</time></trkpt><trkpt lat="43.4319728" lon="11.1280535"><ele>140.0</ele><time>2026-03-30T15:24:58.88Z</time></trkpt><trkpt lat="43.4320216" lon="11.127917"><ele>139.0</ele><time>2026-03-30T15:25:00.78Z</time></trkpt><trkpt lat="43.4320279" lon="11.1278278"><ele>138.0</ele><time>2026-03-30T15:25:01.796Z</time></trkpt><trkpt lat="43.4320205" lon="11.1276542"><ele>137.0</ele><time>2026-03-30T15:25:03.863Z</time></trkpt><trkpt lat="43.4320038" lon="11.1275655"><ele>136.0</ele><time>2026-03-30T15:25:04.806Z</time></trkpt><trkpt lat="43.4319718" lon="11.1274826"><ele>135.0</ele><time>2026-03-30T15:25:05.793Z</time></trkpt><trkpt lat="43.4319368" lon="11.1273955"><ele>134.0</ele><time>2026-03-30T15:25:06.787Z</time></trkpt><trkpt lat="43.4319069" lon="11.1273053"><ele>133.57142857142858</ele><time>2026-03-30T15:25:07.791Z</time></trkpt><trkpt lat="43.4318867" lon="11.1272079"><ele>133.14285714285714</ele><time>2026-03-30T15:25:08.864Z</time></trkpt><trkpt lat="43.4318775" lon="11.1271105"><ele>132.71428571428572</ele><time>2026-03-30T15:25:09.874Z</time></trkpt><trkpt lat="43.4318754" lon="11.1270122"><ele>132.28571428571428</ele><time>2026-03-30T15:25:10.803Z</time></trkpt><trkpt lat="43.4318753" lon="11.1269043"><ele>131.85714285714286</ele><time>2026-03-30T15:25:11.786Z</time></trkpt><trkpt lat="43.4318771" lon="11.126798"><ele>131.42857142857144</ele><time>2026-03-30T15:25:12.796Z</time></trkpt><trkpt lat="43.4318856" lon="11.1266967"><ele>131.0</ele><time>2026-03-30T15:25:13.777Z</time></trkpt><trkpt lat="43.4318981" lon="11.1265973"><ele>130.71428571428572</ele><time>2026-03-30T15:25:14.792Z</time></trkpt><trkpt lat="43.4319143" lon="11.1264989"><ele>130.42857142857144</ele><time>2026-03-30T15:25:15.806Z</time></trkpt><trkpt lat="43.4319372" lon="11.1264066"><ele>130.14285714285714</ele><time>2026-03-30T15:25:16.781Z</time></trkpt><trkpt lat="43.4319649" lon="11.1263142"><ele>129.85714285714286</ele><time>2026-03-30T15:25:17.796Z</time></trkpt><trkpt lat="43.4319929" lon="11.1262244"><ele>129.57142857142856</ele><time>2026-03-30T15:25:18.794Z</time></trkpt><trkpt lat="43.4320197" lon="11.1261386"><ele>129.28571428571428</ele><time>2026-03-30T15:25:19.803Z</time></trkpt><trkpt lat="43.4320477" lon="11.1260556"><ele>129.0</ele><time>2026-03-30T15:25:20.789Z</time></trkpt><trkpt lat="43.43208" lon="11.125973"><ele>129.0</ele><time>2026-03-30T15:25:21.796Z</time></trkpt><trkpt lat="43.4321358" lon="11.1258389"><ele>129.0</ele><time>2026-03-30T15:25:23.801Z</time></trkpt><trkpt lat="43.4321832" lon="11.125716"><ele>129.0</ele><time>2026-03-30T15:25:25.807Z</time></trkpt><trkpt lat="43.4322228" lon="11.1255947"><ele>129.0</ele><time>2026-03-30T15:25:27.805Z</time></trkpt><trkpt lat="43.4322567" lon="11.1254803"><ele>129.0</ele><time>2026-03-30T15:25:29.796Z</time></trkpt><trkpt lat="43.4322974" lon="11.1253706"><ele>130.0</ele><time>2026-03-30T15:25:31.806Z</time></trkpt><trkpt lat="43.4323406" lon="11.125259"><ele>131.0</ele><time>2026-03-30T15:25:33.799Z</time></trkpt><trkpt lat="43.4323826" lon="11.125146"><ele>132.0</ele><time>2026-03-30T15:25:35.797Z</time></trkpt><trkpt lat="43.4324253" lon="11.1250295"><ele>133.0</ele><time>2026-03-30T15:25:37.807Z</time></trkpt><trkpt lat="43.4324704" lon="11.1249226"><ele>134.0</ele><time>2026-03-30T15:25:39.797Z</time></trkpt><trkpt lat="43.4325144" lon="11.1248164"><ele>134.0</ele><time>2026-03-30T15:25:41.798Z</time></trkpt><trkpt lat="43.4325616" lon="11.1247113"><ele>134.0</ele><time>2026-03-30T15:25:43.792Z</time></trkpt><trkpt lat="43.4326074" lon="11.1246157"><ele>134.0</ele><time>2026-03-30T15:25:45.813Z</time></trkpt><trkpt lat="43.4326596" lon="11.124523"><ele>134.0</ele><time>2026-03-30T15:25:47.81Z</time></trkpt><trkpt lat="43.4327109" lon="11.124419"><ele>134.0</ele><time>2026-03-30T15:25:49.81Z</time></trkpt><trkpt lat="43.4327715" lon="11.1243226"><ele>134.0</ele><time>2026-03-30T15:25:51.794Z</time></trkpt><trkpt lat="43.432831" lon="11.1242254"><ele>134.0</ele><time>2026-03-30T15:25:53.784Z</time></trkpt><trkpt lat="43.4328734" lon="11.1241346"><ele>134.0</ele><time>2026-03-30T15:25:55.797Z</time></trkpt><trkpt lat="43.4329145" lon="11.1240415"><ele>134.0</ele><time>2026-03-30T15:25:57.789Z</time></trkpt><trkpt lat="43.4329649" lon="11.1239535"><ele>134.0</ele><time>2026-03-30T15:25:59.803Z</time></trkpt><trkpt lat="43.4330245" lon="11.1238661"><ele>134.0</ele><time>2026-03-30T15:26:01.805Z</time></trkpt><trkpt lat="43.4330858" lon="11.1237845"><ele>134.0</ele><time>2026-03-30T15:26:03.789Z</time></trkpt><trkpt lat="43.4331423" lon="11.1236936"><ele>134.16666666666666</ele><time>2026-03-30T15:26:05.787Z</time></trkpt><trkpt lat="43.4332014" lon="11.1236022"><ele>134.33333333333331</ele><time>2026-03-30T15:26:07.807Z</time></trkpt><trkpt lat="43.4332546" lon="11.1235166"><ele>134.5</ele><time>2026-03-30T15:26:09.792Z</time></trkpt><trkpt lat="43.4333022" lon="11.1234286"><ele>134.66666666666666</ele><time>2026-03-30T15:26:11.797Z</time></trkpt><trkpt lat="43.4333539" lon="11.1233461"><ele>134.83333333333334</ele><time>2026-03-30T15:26:13.795Z</time></trkpt><trkpt lat="43.4334078" lon="11.1232529"><ele>135.0</ele><time>2026-03-30T15:26:15.789Z</time></trkpt><trkpt lat="43.4334633" lon="11.1231551"><ele>135.0</ele><time>2026-03-30T15:26:17.805Z</time></trkpt><trkpt lat="43.4335151" lon="11.1230673"><ele>135.0</ele><time>2026-03-30T15:26:19.796Z</time></trkpt><trkpt lat="43.4335639" lon="11.122975"><ele>135.0</ele><time>2026-03-30T15:26:21.827Z</time></trkpt><trkpt lat="43.4336183" lon="11.1228853"><ele>135.0</ele><time>2026-03-30T15:26:23.786Z</time></trkpt><trkpt lat="43.4336751" lon="11.1227952"><ele>135.0</ele><time>2026-03-30T15:26:25.806Z</time></trkpt><trkpt lat="43.4337277" lon="11.1227127"><ele>135.0</ele><time>2026-03-30T15:26:27.801Z</time></trkpt><trkpt lat="43.4337784" lon="11.1226257"><ele>135.33333333333334</ele><time>2026-03-30T15:26:29.866Z</time></trkpt><trkpt lat="43.4338179" lon="11.1225409"><ele>135.66666666666666</ele><time>2026-03-30T15:26:31.793Z</time></trkpt><trkpt lat="43.4338668" lon="11.1224635"><ele>136.0</ele><time>2026-03-30T15:26:33.78Z</time></trkpt><trkpt lat="43.4339233" lon="11.1224056"><ele>136.33333333333331</ele><time>2026-03-30T15:26:35.867Z</time></trkpt><trkpt lat="43.433988" lon="11.1223641"><ele>136.66666666666666</ele><time>2026-03-30T15:26:37.798Z</time></trkpt><trkpt lat="43.4340588" lon="11.1223051"><ele>137.0</ele><time>2026-03-30T15:26:39.813Z</time></trkpt><trkpt lat="43.4341297" lon="11.1222461"><ele>137.0</ele><time>2026-03-30T15:26:41.802Z</time></trkpt><trkpt lat="43.4341736" lon="11.1221789"><ele>137.0</ele><time>2026-03-30T15:26:43.8Z</time></trkpt><trkpt lat="43.4342309" lon="11.1221137"><ele>137.0</ele><time>2026-03-30T15:26:45.804Z</time></trkpt><trkpt lat="43.4342976" lon="11.1220489"><ele>137.0</ele><time>2026-03-30T15:26:47.799Z</time></trkpt><trkpt lat="43.4343709" lon="11.1219933"><ele>137.0</ele><time>2026-03-30T15:26:49.782Z</time></trkpt><trkpt lat="43.4344519" lon="11.1219318"><ele>137.0</ele><time>2026-03-30T15:26:51.78Z</time></trkpt><trkpt lat="43.4345286" lon="11.1218599"><ele>137.0</ele><time>2026-03-30T15:26:53.799Z</time></trkpt><trkpt lat="43.4346058" lon="11.121785"><ele>137.0</ele><time>2026-03-30T15:26:55.8Z</time></trkpt><trkpt lat="43.4346862" lon="11.1217022"><ele>137.0</ele><time>2026-03-30T15:26:57.806Z</time></trkpt><trkpt lat="43.4347633" lon="11.1216173"><ele>137.0</ele><time>2026-03-30T15:26:59.782Z</time></trkpt><trkpt lat="43.4348453" lon="11.1215343"><ele>137.0</ele><time>2026-03-30T15:27:01.796Z</time></trkpt><trkpt lat="43.4349244" lon="11.1214549"><ele>137.16666666666666</ele><time>2026-03-30T15:27:03.8Z</time></trkpt><trkpt lat="43.4349947" lon="11.1213791"><ele>137.33333333333331</ele><time>2026-03-30T15:27:05.793Z</time></trkpt><trkpt lat="43.4350621" lon="11.1213141"><ele>137.5</ele><time>2026-03-30T15:27:07.81Z</time></trkpt><trkpt lat="43.4351314" lon="11.121246"><ele>137.66666666666666</ele><time>2026-03-30T15:27:09.87Z</time></trkpt><trkpt lat="43.4351999" lon="11.1211814"><ele>137.83333333333334</ele><time>2026-03-30T15:27:11.817Z</time></trkpt><trkpt lat="43.4352685" lon="11.1211197"><ele>138.0</ele><time>2026-03-30T15:27:13.814Z</time></trkpt><trkpt lat="43.4353345" lon="11.1210442"><ele>138.0</ele><time>2026-03-30T15:27:15.805Z</time></trkpt><trkpt lat="43.4354001" lon="11.1209579"><ele>138.0</ele><time>2026-03-30T15:27:17.807Z</time></trkpt><trkpt lat="43.4354655" lon="11.1208949"><ele>138.0</ele><time>2026-03-30T15:27:19.863Z</time></trkpt><trkpt lat="43.4355322" lon="11.1208448"><ele>138.0</ele><time>2026-03-30T15:27:21.78Z</time></trkpt><trkpt lat="43.4355902" lon="11.1207824"><ele>138.0</ele><time>2026-03-30T15:27:23.809Z</time></trkpt><trkpt lat="43.4356528" lon="11.1207201"><ele>138.0</ele><time>2026-03-30T15:27:25.804Z</time></trkpt><trkpt lat="43.4357172" lon="11.1206586"><ele>138.71428571428572</ele><time>2026-03-30T15:27:27.78Z</time></trkpt><trkpt lat="43.4357794" lon="11.1206032"><ele>139.42857142857144</ele><time>2026-03-30T15:27:29.799Z</time></trkpt><trkpt lat="43.435836" lon="11.1205425"><ele>140.14285714285714</ele><time>2026-03-30T15:27:31.797Z</time></trkpt><trkpt lat="43.4358969" lon="11.1204797"><ele>140.85714285714286</ele><time>2026-03-30T15:27:33.796Z</time></trkpt><trkpt lat="43.4359554" lon="11.120426"><ele>141.57142857142856</ele><time>2026-03-30T15:27:35.788Z</time></trkpt><trkpt lat="43.43601" lon="11.1203797"><ele>142.28571428571428</ele><time>2026-03-30T15:27:37.795Z</time></trkpt><trkpt lat="43.4360675" lon="11.1203358"><ele>143.0</ele><time>2026-03-30T15:27:39.87Z</time></trkpt><trkpt lat="43.4361301" lon="11.1202914"><ele>142.99999999999997</ele><time>2026-03-30T15:27:41.801Z</time></trkpt><trkpt lat="43.4361933" lon="11.1202419"><ele>143.0</ele><time>2026-03-30T15:27:43.782Z</time></trkpt><trkpt lat="43.4362456" lon="11.1201829"><ele>143.0</ele><time>2026-03-30T15:27:45.778Z</time></trkpt><trkpt lat="43.4363118" lon="11.1201239"><ele>143.0</ele><time>2026-03-30T15:27:47.803Z</time></trkpt><trkpt lat="43.4363665" lon="11.1200628"><ele>143.0</ele><time>2026-03-30T15:27:49.879Z</time></trkpt><trkpt lat="43.4364222" lon="11.1200115"><ele>142.99999999999997</ele><time>2026-03-30T15:27:51.804Z</time></trkpt><trkpt lat="43.4364824" lon="11.1199248"><ele>143.0</ele><time>2026-03-30T15:27:53.871Z</time></trkpt><trkpt lat="43.4365387" lon="11.1198688"><ele>143.33333333333331</ele><time>2026-03-30T15:27:55.787Z</time></trkpt><trkpt lat="43.4366009" lon="11.1198348"><ele>143.66666666666666</ele><time>2026-03-30T15:27:57.816Z</time></trkpt><trkpt lat="43.43665" lon="11.1197722"><ele>144.0</ele><time>2026-03-30T15:27:59.806Z</time></trkpt><trkpt lat="43.4367047" lon="11.1196966"><ele>144.33333333333334</ele><time>2026-03-30T15:28:01.81Z</time></trkpt><trkpt lat="43.4367651" lon="11.1196313"><ele>144.66666666666669</ele><time>2026-03-30T15:28:03.806Z</time></trkpt><trkpt lat="43.4368353" lon="11.1195591"><ele>145.0</ele><time>2026-03-30T15:28:05.784Z</time></trkpt><trkpt lat="43.436908" lon="11.1194942"><ele>145.0</ele><time>2026-03-30T15:28:07.795Z</time></trkpt><trkpt lat="43.4369781" lon="11.1194254"><ele>145.0</ele><time>2026-03-30T15:28:09.808Z</time></trkpt><trkpt lat="43.4370459" lon="11.1193483"><ele>145.0</ele><time>2026-03-30T15:28:11.816Z</time></trkpt><trkpt lat="43.437117" lon="11.1192879"><ele>145.0</ele><time>2026-03-30T15:28:13.798Z</time></trkpt><trkpt lat="43.4371859" lon="11.1192266"><ele>145.0</ele><time>2026-03-30T15:28:15.795Z</time></trkpt><trkpt lat="43.4372557" lon="11.1191693"><ele>145.0</ele><time>2026-03-30T15:28:17.8Z</time></trkpt><trkpt lat="43.4373232" lon="11.1191161"><ele>145.14285714285714</ele><time>2026-03-30T15:28:19.811Z</time></trkpt><trkpt lat="43.4373898" lon="11.1190629"><ele>145.2857142857143</ele><time>2026-03-30T15:28:21.81Z</time></trkpt><trkpt lat="43.4374526" lon="11.1190043"><ele>145.42857142857144</ele><time>2026-03-30T15:28:23.802Z</time></trkpt><trkpt lat="43.4375085" lon="11.1189439"><ele>145.57142857142858</ele><time>2026-03-30T15:28:25.795Z</time></trkpt><trkpt lat="43.4375634" lon="11.1188837"><ele>145.71428571428572</ele><time>2026-03-30T15:28:27.801Z</time></trkpt><trkpt lat="43.4376241" lon="11.1188348"><ele>145.85714285714286</ele><time>2026-03-30T15:28:29.796Z</time></trkpt><trkpt lat="43.4376824" lon="11.1187821"><ele>146.0</ele><time>2026-03-30T15:28:31.808Z</time></trkpt><trkpt lat="43.4377481" lon="11.1187423"><ele>146.0</ele><time>2026-03-30T15:28:33.805Z</time></trkpt><trkpt lat="43.4378127" lon="11.1187007"><ele>146.0</ele><time>2026-03-30T15:28:35.808Z</time></trkpt><trkpt lat="43.4378719" lon="11.1186546"><ele>146.0</ele><time>2026-03-30T15:28:37.808Z</time></trkpt><trkpt lat="43.4379283" lon="11.1186075"><ele>146.0</ele><time>2026-03-30T15:28:39.796Z</time></trkpt><trkpt lat="43.4379994" lon="11.1185625"><ele>146.0</ele><time>2026-03-30T15:28:41.815Z</time></trkpt><trkpt lat="43.438076" lon="11.1184985"><ele>146.0</ele><time>2026-03-30T15:28:43.799Z</time></trkpt><trkpt lat="43.438152" lon="11.1184198"><ele>146.5</ele><time>2026-03-30T15:28:45.807Z</time></trkpt><trkpt lat="43.4382223" lon="11.1183363"><ele>147.0</ele><time>2026-03-30T15:28:47.808Z</time></trkpt><trkpt lat="43.4382884" lon="11.1182626"><ele>147.5</ele><time>2026-03-30T15:28:49.801Z</time></trkpt><trkpt lat="43.4383487" lon="11.118202"><ele>148.0</ele><time>2026-03-30T15:28:51.81Z</time></trkpt><trkpt lat="43.4384034" lon="11.1181419"><ele>148.5</ele><time>2026-03-30T15:28:53.815Z</time></trkpt><trkpt lat="43.4384527" lon="11.1180749"><ele>149.0</ele><time>2026-03-30T15:28:55.803Z</time></trkpt><trkpt lat="43.4384906" lon="11.1179948"><ele>149.0</ele><time>2026-03-30T15:28:57.799Z</time></trkpt><trkpt lat="43.4385233" lon="11.1179175"><ele>149.0</ele><time>2026-03-30T15:28:59.806Z</time></trkpt><trkpt lat="43.438571" lon="11.117829"><ele>149.0</ele><time>2026-03-30T15:29:02.796Z</time></trkpt><trkpt lat="43.4386132" lon="11.1177556"><ele>149.0</ele><time>2026-03-30T15:29:05.797Z</time></trkpt><trkpt lat="43.4386656" lon="11.1176852"><ele>149.0</ele><time>2026-03-30T15:29:09.817Z</time></trkpt><trkpt lat="43.4387261" lon="11.117647"><ele>149.0</ele><time>2026-03-30T15:29:13.797Z</time></trkpt><trkpt lat="43.4387883" lon="11.1176081"><ele>149.0</ele><time>2026-03-30T15:29:17.8Z</time></trkpt><trkpt lat="43.438863" lon="11.117587"><ele>152.14285714285714</ele><time>2026-03-30T15:29:21.806Z</time></trkpt><trkpt lat="43.4389391" lon="11.1175769"><ele>155.28571428571428</ele><time>2026-03-30T15:29:25.809Z</time></trkpt><trkpt lat="43.4390087" lon="11.1175743"><ele>158.42857142857142</ele><time>2026-03-30T15:29:29.784Z</time></trkpt><trkpt lat="43.4390717" lon="11.1175642"><ele>161.57142857142856</ele><time>2026-03-30T15:29:33.804Z</time></trkpt><trkpt lat="43.4391369" lon="11.117555"><ele>164.71428571428572</ele><time>2026-03-30T15:29:39.791Z</time></trkpt><trkpt lat="43.4392015" lon="11.1175652"><ele>167.85714285714283</ele><time>2026-03-30T15:29:44.804Z</time></trkpt><trkpt lat="43.4392785" lon="11.1175595"><ele>171.0</ele><time>2026-03-30T15:29:56.803Z</time></trkpt><trkpt lat="43.4393469" lon="11.1175649"><ele>170.99999999999997</ele><time>2026-03-30T15:30:02.796Z</time></trkpt><trkpt lat="43.4394093" lon="11.117584"><ele>171.0</ele><time>2026-03-30T15:30:08.819Z</time></trkpt><trkpt lat="43.4394722" lon="11.1176022"><ele>171.0</ele><time>2026-03-30T15:30:14.803Z</time></trkpt><trkpt lat="43.4395457" lon="11.1176205"><ele>171.0</ele><time>2026-03-30T15:30:23.802Z</time></trkpt><trkpt lat="43.4396167" lon="11.1176232"><ele>171.0</ele><time>2026-03-30T15:30:30.804Z</time></trkpt><trkpt lat="43.4396945" lon="11.1176629"><ele>170.99999999999997</ele><time>2026-03-30T15:30:36.796Z</time></trkpt><trkpt lat="43.439767" lon="11.117688"><ele>171.0</ele><time>2026-03-30T15:30:42.798Z</time></trkpt><trkpt lat="43.4398337" lon="11.117683"><ele>171.7142857142857</ele><time>2026-03-30T15:30:47.779Z</time></trkpt><trkpt lat="43.4399042" lon="11.117666"><ele>172.42857142857142</ele><time>2026-03-30T15:30:53.803Z</time></trkpt><trkpt lat="43.4399819" lon="11.1176426"><ele>173.14285714285714</ele><time>2026-03-30T15:30:59.798Z</time></trkpt><trkpt lat="43.4400565" lon="11.1176225"><ele>173.85714285714283</ele><time>2026-03-30T15:31:04.781Z</time></trkpt><trkpt lat="43.4401261" lon="11.117607"><ele>174.57142857142856</ele><time>2026-03-30T15:31:09.807Z</time></trkpt><trkpt lat="43.4401995" lon="11.1175862"><ele>175.28571428571428</ele><time>2026-03-30T15:31:15.805Z</time></trkpt><trkpt lat="43.4402728" lon="11.1175582"><ele>176.0</ele><time>2026-03-30T15:31:21.803Z</time></trkpt><trkpt lat="43.440336" lon="11.1175187"><ele>176.0</ele><time>2026-03-30T15:31:28.801Z</time></trkpt><trkpt lat="43.4403944" lon="11.1174767"><ele>176.0</ele><time>2026-03-30T15:31:34.801Z</time></trkpt><trkpt lat="43.440445" lon="11.1173992"><ele>176.0</ele><time>2026-03-30T15:31:41.806Z</time></trkpt><trkpt lat="43.4404736" lon="11.117319"><ele>176.0</ele><time>2026-03-30T15:31:47.798Z</time></trkpt><trkpt lat="43.4404982" lon="11.1172284"><ele>176.0</ele><time>2026-03-30T15:31:53.808Z</time></trkpt><trkpt lat="43.4405328" lon="11.1171413"><ele>176.0</ele><time>2026-03-30T15:31:59.795Z</time></trkpt><trkpt lat="43.4405757" lon="11.1170771"><ele>176.0</ele><time>2026-03-30T15:32:05.805Z</time></trkpt><trkpt lat="43.4406158" lon="11.1169984"><ele>177.0</ele><time>2026-03-30T15:32:11.802Z</time></trkpt><trkpt lat="43.440653" lon="11.116923"><ele>178.0</ele><time>2026-03-30T15:32:16.8Z</time></trkpt><trkpt lat="43.4406927" lon="11.1168384"><ele>179.0</ele><time>2026-03-30T15:32:22.783Z</time></trkpt><trkpt lat="43.440744" lon="11.1167745"><ele>180.0</ele><time>2026-03-30T15:32:29.813Z</time></trkpt><trkpt lat="43.4407778" lon="11.1166752"><ele>181.0</ele><time>2026-03-30T15:32:35.793Z</time></trkpt><trkpt lat="43.4407921" lon="11.1165888"><ele>182.0</ele><time>2026-03-30T15:32:38.868Z</time></trkpt><trkpt lat="43.4408123" lon="11.1165041"><ele>183.0</ele><time>2026-03-30T15:32:41.789Z</time></trkpt><trkpt lat="43.4408073" lon="11.116407"><ele>184.57142857142858</ele><time>2026-03-30T15:32:47.818Z</time></trkpt><trkpt lat="43.4408143" lon="11.1163126"><ele>186.14285714285717</ele><time>2026-03-30T15:32:55.794Z</time></trkpt><trkpt lat="43.440839" lon="11.1162129"><ele>187.71428571428572</ele><time>2026-03-30T15:33:01.8Z</time></trkpt><trkpt lat="43.4408581" lon="11.1161237"><ele>189.28571428571428</ele><time>2026-03-30T15:33:06.8Z</time></trkpt><trkpt lat="43.4408517" lon="11.1160273"><ele>190.85714285714286</ele><time>2026-03-30T15:33:12.806Z</time></trkpt><trkpt lat="43.4408612" lon="11.11594"><ele>192.42857142857142</ele><time>2026-03-30T15:33:18.791Z</time></trkpt><trkpt lat="43.4408287" lon="11.1158529"><ele>194.0</ele><time>2026-03-30T15:33:25.863Z</time></trkpt><trkpt lat="43.4408195" lon="11.1157596"><ele>195.28571428571428</ele><time>2026-03-30T15:33:27.797Z</time></trkpt><trkpt lat="43.4408751" lon="11.1156978"><ele>196.57142857142858</ele><time>2026-03-30T15:33:32.793Z</time></trkpt><trkpt lat="43.4409102" lon="11.1156179"><ele>197.85714285714286</ele><time>2026-03-30T15:33:38.811Z</time></trkpt><trkpt lat="43.4409379" lon="11.1155319"><ele>199.14285714285714</ele><time>2026-03-30T15:33:44.801Z</time></trkpt><trkpt lat="43.4409682" lon="11.1154492"><ele>200.42857142857144</ele><time>2026-03-30T15:33:49.819Z</time></trkpt><trkpt lat="43.4410143" lon="11.1153778"><ele>201.71428571428572</ele><time>2026-03-30T15:33:54.88Z</time></trkpt><trkpt lat="43.441058" lon="11.1153049"><ele>203.0</ele><time>2026-03-30T15:34:01.799Z</time></trkpt><trkpt lat="43.4411055" lon="11.1152287"><ele>203.0</ele><time>2026-03-30T15:34:07.809Z</time></trkpt><trkpt lat="43.4411389" lon="11.1151499"><ele>203.0</ele><time>2026-03-30T15:34:13.799Z</time></trkpt><trkpt lat="43.4411745" lon="11.1150723"><ele>203.0</ele><time>2026-03-30T15:34:18.81Z</time></trkpt><trkpt lat="43.4411903" lon="11.1149771"><ele>203.0</ele><time>2026-03-30T15:34:26.801Z</time></trkpt><trkpt lat="43.4411948" lon="11.1148903"><ele>203.0</ele><time>2026-03-30T15:34:31.781Z</time></trkpt><trkpt lat="43.4411838" lon="11.1148001"><ele>203.0</ele><time>2026-03-30T15:34:36.785Z</time></trkpt><trkpt lat="43.441171" lon="11.1147022"><ele>203.0</ele><time>2026-03-30T15:34:44.81Z</time></trkpt><trkpt lat="43.4411473" lon="11.1146079"><ele>203.57142857142858</ele><time>2026-03-30T15:34:49.871Z</time></trkpt><trkpt lat="43.4411457" lon="11.114512"><ele>204.14285714285714</ele><time>2026-03-30T15:34:55.863Z</time></trkpt><trkpt lat="43.4411048" lon="11.1144427"><ele>204.71428571428572</ele><time>2026-03-30T15:34:59.868Z</time></trkpt><trkpt lat="43.441076" lon="11.1143562"><ele>205.28571428571428</ele><time>2026-03-30T15:35:02.801Z</time></trkpt><trkpt lat="43.4410333" lon="11.114275"><ele>205.85714285714286</ele><time>2026-03-30T15:35:11.801Z</time></trkpt><trkpt lat="43.4409884" lon="11.1141975"><ele>206.42857142857144</ele><time>2026-03-30T15:35:17.801Z</time></trkpt><trkpt lat="43.4409475" lon="11.1141143"><ele>207.0</ele><time>2026-03-30T15:35:22.808Z</time></trkpt><trkpt lat="43.4409044" lon="11.1140278"><ele>207.0</ele><time>2026-03-30T15:35:27.798Z</time></trkpt><trkpt lat="43.4408674" lon="11.1139414"><ele>207.0</ele><time>2026-03-30T15:35:31.788Z</time></trkpt><trkpt lat="43.44084" lon="11.1138399"><ele>207.0</ele><time>2026-03-30T15:35:34.794Z</time></trkpt><trkpt lat="43.4408598" lon="11.1137279"><ele>207.0</ele><time>2026-03-30T15:35:37.811Z</time></trkpt><trkpt lat="43.4408553" lon="11.1136219"><ele>207.0</ele><time>2026-03-30T15:35:39.807Z</time></trkpt><trkpt lat="43.4408306" lon="11.1134825"><ele>207.0</ele><time>2026-03-30T15:35:41.791Z</time></trkpt><trkpt lat="43.4408135" lon="11.1133972"><ele>207.0</ele><time>2026-03-30T15:35:42.808Z</time></trkpt><trkpt lat="43.4407973" lon="11.1133034"><ele>207.0</ele><time>2026-03-30T15:35:43.813Z</time></trkpt><trkpt lat="43.4407842" lon="11.1132034"><ele>207.0</ele><time>2026-03-30T15:35:44.857Z</time></trkpt><trkpt lat="43.4407753" lon="11.1131039"><ele>207.0</ele><time>2026-03-30T15:35:45.793Z</time></trkpt><trkpt lat="43.4407583" lon="11.1130024"><ele>207.0</ele><time>2026-03-30T15:35:46.791Z</time></trkpt><trkpt lat="43.4407381" lon="11.1128972"><ele>207.0</ele><time>2026-03-30T15:35:47.791Z</time></trkpt><trkpt lat="43.4407222" lon="11.1127906"><ele>206.66666666666666</ele><time>2026-03-30T15:35:48.875Z</time></trkpt><trkpt lat="43.4407139" lon="11.1126868"><ele>206.33333333333331</ele><time>2026-03-30T15:35:49.808Z</time></trkpt><trkpt lat="43.4407058" lon="11.1125819"><ele>206.0</ele><time>2026-03-30T15:35:50.798Z</time></trkpt><trkpt lat="43.4406954" lon="11.1124813"><ele>205.66666666666666</ele><time>2026-03-30T15:35:51.805Z</time></trkpt><trkpt lat="43.4406862" lon="11.1123834"><ele>205.33333333333331</ele><time>2026-03-30T15:35:52.802Z</time></trkpt><trkpt lat="43.440675" lon="11.1122913"><ele>205.0</ele><time>2026-03-30T15:35:53.792Z</time></trkpt><trkpt lat="43.4406575" lon="11.1121383"><ele>204.99999999999997</ele><time>2026-03-30T15:35:55.796Z</time></trkpt><trkpt lat="43.4406482" lon="11.1120283"><ele>205.0</ele><time>2026-03-30T15:35:57.794Z</time></trkpt><trkpt lat="43.4406416" lon="11.1119282"><ele>205.0</ele><time>2026-03-30T15:35:59.813Z</time></trkpt><trkpt lat="43.4406406" lon="11.1118363"><ele>205.0</ele><time>2026-03-30T15:36:01.798Z</time></trkpt><trkpt lat="43.4406339" lon="11.1117488"><ele>204.99999999999997</ele><time>2026-03-30T15:36:03.805Z</time></trkpt><trkpt lat="43.440625" lon="11.1116327"><ele>205.0</ele><time>2026-03-30T15:36:06.798Z</time></trkpt><trkpt lat="43.4406174" lon="11.1115113"><ele>205.16666666666666</ele><time>2026-03-30T15:36:09.869Z</time></trkpt><trkpt lat="43.4406102" lon="11.1114054"><ele>205.33333333333331</ele><time>2026-03-30T15:36:12.798Z</time></trkpt><trkpt lat="43.4406053" lon="11.1112896"><ele>205.5</ele><time>2026-03-30T15:36:15.799Z</time></trkpt><trkpt lat="43.4405992" lon="11.1111794"><ele>205.66666666666669</ele><time>2026-03-30T15:36:18.813Z</time></trkpt><trkpt lat="43.4405975" lon="11.1110856"><ele>205.83333333333334</ele><time>2026-03-30T15:36:21.798Z</time></trkpt><trkpt lat="43.4405932" lon="11.1109931"><ele>206.0</ele><time>2026-03-30T15:36:24.807Z</time></trkpt><trkpt lat="43.4405951" lon="11.1108864"><ele>206.00000000000003</ele><time>2026-03-30T15:36:27.797Z</time></trkpt><trkpt lat="43.4405924" lon="11.1107861"><ele>206.0</ele><time>2026-03-30T15:36:29.864Z</time></trkpt><trkpt lat="43.4405846" lon="11.1106715"><ele>206.0</ele><time>2026-03-30T15:36:31.809Z</time></trkpt><trkpt lat="43.4405702" lon="11.110538"><ele>206.0</ele><time>2026-03-30T15:36:33.803Z</time></trkpt><trkpt lat="43.4405718" lon="11.110405"><ele>206.00000000000003</ele><time>2026-03-30T15:36:35.815Z</time></trkpt><trkpt lat="43.4405804" lon="11.1102719"><ele>206.0</ele><time>2026-03-30T15:36:37.812Z</time></trkpt><trkpt lat="43.4405971" lon="11.1101382"><ele>206.0</ele><time>2026-03-30T15:36:39.801Z</time></trkpt><trkpt lat="43.4406137" lon="11.1100103"><ele>206.0</ele><time>2026-03-30T15:36:41.809Z</time></trkpt><trkpt lat="43.4406297" lon="11.1098799"><ele>206.0</ele><time>2026-03-30T15:36:43.812Z</time></trkpt><trkpt lat="43.4406483" lon="11.1097537"><ele>206.0</ele><time>2026-03-30T15:36:45.819Z</time></trkpt><trkpt lat="43.4406668" lon="11.1096364"><ele>206.0</ele><time>2026-03-30T15:36:47.8Z</time></trkpt><trkpt lat="43.4406813" lon="11.1095225"><ele>206.33333333333334</ele><time>2026-03-30T15:36:49.801Z</time></trkpt><trkpt lat="43.4406907" lon="11.1094144"><ele>206.66666666666669</ele><time>2026-03-30T15:36:51.81Z</time></trkpt><trkpt lat="43.4406974" lon="11.1093045"><ele>207.0</ele><time>2026-03-30T15:36:53.792Z</time></trkpt><trkpt lat="43.4406989" lon="11.1091962"><ele>207.33333333333331</ele><time>2026-03-30T15:36:55.807Z</time></trkpt><trkpt lat="43.4406944" lon="11.1090912"><ele>207.66666666666666</ele><time>2026-03-30T15:36:57.795Z</time></trkpt><trkpt lat="43.4406975" lon="11.1089887"><ele>208.0</ele><time>2026-03-30T15:36:59.799Z</time></trkpt><trkpt lat="43.4406991" lon="11.1088868"><ele>208.33333333333331</ele><time>2026-03-30T15:37:01.801Z</time></trkpt><trkpt lat="43.4406976" lon="11.1087915"><ele>208.66666666666666</ele><time>2026-03-30T15:37:03.801Z</time></trkpt><trkpt lat="43.4407056" lon="11.1086633"><ele>209.0</ele><time>2026-03-30T15:37:06.81Z</time></trkpt><trkpt lat="43.440696" lon="11.1085763"><ele>209.33333333333331</ele><time>2026-03-30T15:37:08.806Z</time></trkpt><trkpt lat="43.4407152" lon="11.1084775"><ele>209.66666666666666</ele><time>2026-03-30T15:37:11.801Z</time></trkpt><trkpt lat="43.4407594" lon="11.1083757"><ele>210.0</ele><time>2026-03-30T15:37:14.802Z</time></trkpt><trkpt lat="43.4407908" lon="11.1082906"><ele>209.33333333333334</ele><time>2026-03-30T15:37:16.807Z</time></trkpt><trkpt lat="43.4408187" lon="11.1081566"><ele>208.66666666666669</ele><time>2026-03-30T15:37:18.798Z</time></trkpt><trkpt lat="43.440839" lon="11.1080653"><ele>208.0</ele><time>2026-03-30T15:37:19.814Z</time></trkpt><trkpt lat="43.4408621" lon="11.1079679"><ele>207.33333333333334</ele><time>2026-03-30T15:37:20.873Z</time></trkpt><trkpt lat="43.4408845" lon="11.1078738"><ele>206.66666666666669</ele><time>2026-03-30T15:37:21.788Z</time></trkpt><trkpt lat="43.4409117" lon="11.107777"><ele>206.0</ele><time>2026-03-30T15:37:22.799Z</time></trkpt><trkpt lat="43.4409383" lon="11.1076822"><ele>206.00000000000003</ele><time>2026-03-30T15:37:23.782Z</time></trkpt><trkpt lat="43.4409664" lon="11.1075929"><ele>206.0</ele><time>2026-03-30T15:37:24.792Z</time></trkpt><trkpt lat="43.4409965" lon="11.1075092"><ele>206.0</ele><time>2026-03-30T15:37:25.809Z</time></trkpt><trkpt lat="43.4410252" lon="11.1074268"><ele>206.0</ele><time>2026-03-30T15:37:26.797Z</time></trkpt><trkpt lat="43.4410811" lon="11.1072806"><ele>206.00000000000003</ele><time>2026-03-30T15:37:28.809Z</time></trkpt><trkpt lat="43.4411417" lon="11.107154"><ele>206.0</ele><time>2026-03-30T15:37:30.802Z</time></trkpt><trkpt lat="43.4411988" lon="11.1070426"><ele>205.66666666666669</ele><time>2026-03-30T15:37:32.797Z</time></trkpt><trkpt lat="43.4412529" lon="11.1069404"><ele>205.33333333333334</ele><time>2026-03-30T15:37:34.881Z</time></trkpt><trkpt lat="43.4413019" lon="11.1068425"><ele>205.0</ele><time>2026-03-30T15:37:36.797Z</time></trkpt><trkpt lat="43.4413429" lon="11.1067423"><ele>204.66666666666669</ele><time>2026-03-30T15:37:38.787Z</time></trkpt><trkpt lat="43.4413883" lon="11.1066569"><ele>204.33333333333334</ele><time>2026-03-30T15:37:40.78Z</time></trkpt><trkpt lat="43.4414337" lon="11.10658"><ele>204.0</ele><time>2026-03-30T15:37:42.808Z</time></trkpt><trkpt lat="43.4414778" lon="11.1065007"><ele>206.14285714285714</ele><time>2026-03-30T15:37:44.856Z</time></trkpt><trkpt lat="43.4415217" lon="11.1064299"><ele>208.28571428571428</ele><time>2026-03-30T15:37:46.799Z</time></trkpt><trkpt lat="43.4415624" lon="11.1063637"><ele>210.42857142857144</ele><time>2026-03-30T15:37:48.8Z</time></trkpt><trkpt lat="43.4416083" lon="11.1063039"><ele>212.57142857142856</ele><time>2026-03-30T15:37:50.863Z</time></trkpt><trkpt lat="43.441645" lon="11.1062165"><ele>214.7142857142857</ele><time>2026-03-30T15:37:52.791Z</time></trkpt><trkpt lat="43.441688" lon="11.1061086"><ele>216.85714285714286</ele><time>2026-03-30T15:37:55.8Z</time></trkpt><trkpt lat="43.4417362" lon="11.1060172"><ele>219.0</ele><time>2026-03-30T15:37:58.84Z</time></trkpt><trkpt lat="43.4417863" lon="11.1059458"><ele>219.0</ele><time>2026-03-30T15:38:01.804Z</time></trkpt><trkpt lat="43.4418253" lon="11.1058689"><ele>219.0</ele><time>2026-03-30T15:38:04.799Z</time></trkpt><trkpt lat="43.4418664" lon="11.1057819"><ele>219.0</ele><time>2026-03-30T15:38:07.804Z</time></trkpt><trkpt lat="43.4419212" lon="11.1057173"><ele>219.0</ele><time>2026-03-30T15:38:10.86Z</time></trkpt><trkpt lat="43.4419698" lon="11.1056415"><ele>219.0</ele><time>2026-03-30T15:38:14.797Z</time></trkpt><trkpt lat="43.4420266" lon="11.1055619"><ele>219.0</ele><time>2026-03-30T15:38:18.798Z</time></trkpt><trkpt lat="43.4420911" lon="11.1054869"><ele>219.71428571428572</ele><time>2026-03-30T15:38:22.81Z</time></trkpt><trkpt lat="43.4421178" lon="11.1053919"><ele>220.42857142857142</ele><time>2026-03-30T15:38:26.795Z</time></trkpt><trkpt lat="43.4421591" lon="11.1053245"><ele>221.14285714285714</ele><time>2026-03-30T15:38:29.792Z</time></trkpt><trkpt lat="43.442196" lon="11.1052533"><ele>221.85714285714286</ele><time>2026-03-30T15:38:32.791Z</time></trkpt><trkpt lat="43.4422335" lon="11.1051687"><ele>222.57142857142856</ele><time>2026-03-30T15:38:36.786Z</time></trkpt><trkpt lat="43.4422749" lon="11.105077"><ele>223.28571428571428</ele><time>2026-03-30T15:38:40.823Z</time></trkpt><trkpt lat="43.4423191" lon="11.1050032"><ele>224.0</ele><time>2026-03-30T15:38:44.799Z</time></trkpt><trkpt lat="43.4423637" lon="11.1049317"><ele>223.00000000000003</ele><time>2026-03-30T15:38:48.801Z</time></trkpt><trkpt lat="43.442414" lon="11.1048309"><ele>222.0</ele><time>2026-03-30T15:38:51.802Z</time></trkpt><trkpt lat="43.4424532" lon="11.1047532"><ele>221.0</ele><time>2026-03-30T15:38:53.807Z</time></trkpt><trkpt lat="43.4425008" lon="11.1046684"><ele>220.0</ele><time>2026-03-30T15:38:55.788Z</time></trkpt><trkpt lat="43.4425401" lon="11.104586"><ele>219.00000000000003</ele><time>2026-03-30T15:38:57.799Z</time></trkpt><trkpt lat="43.4425976" lon="11.1044934"><ele>218.0</ele><time>2026-03-30T15:39:00.804Z</time></trkpt><trkpt lat="43.4426553" lon="11.104419"><ele>218.00000000000003</ele><time>2026-03-30T15:39:03.798Z</time></trkpt><trkpt lat="43.4427116" lon="11.1043303"><ele>218.0</ele><time>2026-03-30T15:39:06.8Z</time></trkpt><trkpt lat="43.4427516" lon="11.1042609"><ele>218.0</ele><time>2026-03-30T15:39:08.798Z</time></trkpt><trkpt lat="43.4427906" lon="11.1041806"><ele>218.0</ele><time>2026-03-30T15:39:10.799Z</time></trkpt><trkpt lat="43.442834" lon="11.1040997"><ele>218.00000000000003</ele><time>2026-03-30T15:39:12.814Z</time></trkpt><trkpt lat="43.44288" lon="11.1040121"><ele>218.0</ele><time>2026-03-30T15:39:14.786Z</time></trkpt><trkpt lat="43.442927" lon="11.1039132"><ele>218.57142857142858</ele><time>2026-03-30T15:39:16.8Z</time></trkpt><trkpt lat="43.4429634" lon="11.1038196"><ele>219.14285714285717</ele><time>2026-03-30T15:39:18.8Z</time></trkpt><trkpt lat="43.4430114" lon="11.1037394"><ele>219.71428571428572</ele><time>2026-03-30T15:39:20.796Z</time></trkpt><trkpt lat="43.4430562" lon="11.1036542"><ele>220.28571428571428</ele><time>2026-03-30T15:39:22.806Z</time></trkpt><trkpt lat="43.443095" lon="11.1035667"><ele>220.85714285714286</ele><time>2026-03-30T15:39:24.877Z</time></trkpt><trkpt lat="43.4431468" lon="11.1035073"><ele>221.42857142857142</ele><time>2026-03-30T15:39:26.806Z</time></trkpt><trkpt lat="43.4431976" lon="11.1034365"><ele>222.0</ele><time>2026-03-30T15:39:28.799Z</time></trkpt><trkpt lat="43.4432391" lon="11.103345"><ele>222.0</ele><time>2026-03-30T15:39:30.796Z</time></trkpt><trkpt lat="43.4432785" lon="11.1032544"><ele>222.0</ele><time>2026-03-30T15:39:32.801Z</time></trkpt><trkpt lat="43.4433143" lon="11.103172"><ele>222.0</ele><time>2026-03-30T15:39:34.796Z</time></trkpt><trkpt lat="43.4433502" lon="11.1030868"><ele>222.0</ele><time>2026-03-30T15:39:36.8Z</time></trkpt><trkpt lat="43.4433831" lon="11.1030026"><ele>222.0</ele><time>2026-03-30T15:39:38.801Z</time></trkpt><trkpt lat="43.4434183" lon="11.1029269"><ele>222.0</ele><time>2026-03-30T15:39:40.801Z</time></trkpt><trkpt lat="43.4434657" lon="11.1028197"><ele>222.0</ele><time>2026-03-30T15:39:43.805Z</time></trkpt><trkpt lat="43.4434967" lon="11.1027324"><ele>222.6</ele><time>2026-03-30T15:39:45.809Z</time></trkpt><trkpt lat="43.4435392" lon="11.1026262"><ele>223.2</ele><time>2026-03-30T15:39:47.798Z</time></trkpt><trkpt lat="43.4435825" lon="11.1025091"><ele>223.8</ele><time>2026-03-30T15:39:49.792Z</time></trkpt><trkpt lat="43.4436352" lon="11.1023811"><ele>224.4</ele><time>2026-03-30T15:39:51.79Z</time></trkpt><trkpt lat="43.443698" lon="11.1022395"><ele>225.0</ele><time>2026-03-30T15:39:53.779Z</time></trkpt><trkpt lat="43.443729" lon="11.1021571"><ele>223.66666666666666</ele><time>2026-03-30T15:39:54.88Z</time></trkpt><trkpt lat="43.4437624" lon="11.1020797"><ele>222.33333333333331</ele><time>2026-03-30T15:39:55.805Z</time></trkpt><trkpt lat="43.4438526" lon="11.1019567"><ele>221.0</ele><time>2026-03-30T15:39:57.797Z</time></trkpt><trkpt lat="43.4438928" lon="11.101882"><ele>219.66666666666666</ele><time>2026-03-30T15:39:58.808Z</time></trkpt><trkpt lat="43.4439314" lon="11.1017941"><ele>218.33333333333331</ele><time>2026-03-30T15:39:59.803Z</time></trkpt><trkpt lat="43.4439691" lon="11.1016978"><ele>217.0</ele><time>2026-03-30T15:40:00.808Z</time></trkpt><trkpt lat="43.4440051" lon="11.1016001"><ele>217.0</ele><time>2026-03-30T15:40:01.811Z</time></trkpt><trkpt lat="43.4440361" lon="11.1015049"><ele>217.0</ele><time>2026-03-30T15:40:02.802Z</time></trkpt><trkpt lat="43.4440726" lon="11.1014175"><ele>217.0</ele><time>2026-03-30T15:40:03.804Z</time></trkpt><trkpt lat="43.4441133" lon="11.1013386"><ele>217.0</ele><time>2026-03-30T15:40:04.798Z</time></trkpt><trkpt lat="43.4441544" lon="11.1012629"><ele>217.0</ele><time>2026-03-30T15:40:05.805Z</time></trkpt><trkpt lat="43.4441991" lon="11.1011917"><ele>217.0</ele><time>2026-03-30T15:40:06.802Z</time></trkpt><trkpt lat="43.4442461" lon="11.1011169"><ele>217.0</ele><time>2026-03-30T15:40:07.793Z</time></trkpt><trkpt lat="43.4442881" lon="11.1010425"><ele>216.99999999999997</ele><time>2026-03-30T15:40:08.809Z</time></trkpt><trkpt lat="43.4443207" lon="11.100964"><ele>217.0</ele><time>2026-03-30T15:40:09.797Z</time></trkpt><trkpt lat="43.4443384" lon="11.100818"><ele>217.0</ele><time>2026-03-30T15:40:11.793Z</time></trkpt><trkpt lat="43.4442957" lon="11.1007123"><ele>217.0</ele><time>2026-03-30T15:40:14.788Z</time></trkpt><trkpt lat="43.4442336" lon="11.1006549"><ele>216.99999999999997</ele><time>2026-03-30T15:40:17.801Z</time></trkpt><trkpt lat="43.4441662" lon="11.1005884"><ele>217.0</ele><time>2026-03-30T15:40:20.804Z</time></trkpt><trkpt lat="43.4441084" lon="11.1005095"><ele>216.0</ele><time>2026-03-30T15:40:22.796Z</time></trkpt><trkpt lat="43.4440549" lon="11.1004063"><ele>215.0</ele><time>2026-03-30T15:40:24.809Z</time></trkpt><trkpt lat="43.4440011" lon="11.1002757"><ele>214.0</ele><time>2026-03-30T15:40:26.797Z</time></trkpt><trkpt lat="43.4439469" lon="11.1001485"><ele>213.0</ele><time>2026-03-30T15:40:28.795Z</time></trkpt><trkpt lat="43.4438911" lon="11.1000327"><ele>212.0</ele><time>2026-03-30T15:40:30.805Z</time></trkpt><trkpt lat="43.4438461" lon="11.0999194"><ele>212.16666666666669</ele><time>2026-03-30T15:40:32.8Z</time></trkpt><trkpt lat="43.443798" lon="11.0998118"><ele>212.33333333333334</ele><time>2026-03-30T15:40:34.808Z</time></trkpt><trkpt lat="43.4437414" lon="11.0997199"><ele>212.5</ele><time>2026-03-30T15:40:36.81Z</time></trkpt><trkpt lat="43.4436978" lon="11.0996301"><ele>212.66666666666669</ele><time>2026-03-30T15:40:38.796Z</time></trkpt><trkpt lat="43.4436639" lon="11.0995532"><ele>212.83333333333334</ele><time>2026-03-30T15:40:41.802Z</time></trkpt><trkpt lat="43.4436332" lon="11.0994539"><ele>213.0</ele><time>2026-03-30T15:40:45.803Z</time></trkpt><trkpt lat="43.4436255" lon="11.099355"><ele>212.99999999999997</ele><time>2026-03-30T15:40:48.802Z</time></trkpt><trkpt lat="43.4435759" lon="11.0992986"><ele>213.0</ele><time>2026-03-30T15:40:50.804Z</time></trkpt><trkpt lat="43.4435208" lon="11.0992338"><ele>213.0</ele><time>2026-03-30T15:40:52.799Z</time></trkpt><trkpt lat="43.4434532" lon="11.0991539"><ele>213.0</ele><time>2026-03-30T15:40:54.874Z</time></trkpt><trkpt lat="43.4433868" lon="11.0990911"><ele>213.0</ele><time>2026-03-30T15:40:56.816Z</time></trkpt><trkpt lat="43.4433253" lon="11.0990333"><ele>212.99999999999997</ele><time>2026-03-30T15:40:58.781Z</time></trkpt><trkpt lat="43.443274" lon="11.0989769"><ele>213.0</ele><time>2026-03-30T15:41:00.798Z</time></trkpt><trkpt lat="43.4432131" lon="11.0988896"><ele>213.16666666666666</ele><time>2026-03-30T15:41:03.866Z</time></trkpt><trkpt lat="43.4431431" lon="11.0988084"><ele>213.33333333333331</ele><time>2026-03-30T15:41:06.804Z</time></trkpt><trkpt lat="43.4430764" lon="11.0987414"><ele>213.5</ele><time>2026-03-30T15:41:08.795Z</time></trkpt><trkpt lat="43.443004" lon="11.0986629"><ele>213.66666666666666</ele><time>2026-03-30T15:41:11.807Z</time></trkpt><trkpt lat="43.442948" lon="11.0986064"><ele>213.83333333333331</ele><time>2026-03-30T15:41:13.865Z</time></trkpt><trkpt lat="43.4428869" lon="11.09852"><ele>214.0</ele><time>2026-03-30T15:41:16.796Z</time></trkpt><trkpt lat="43.4428391" lon="11.0984508"><ele>214.00000000000003</ele><time>2026-03-30T15:41:18.806Z</time></trkpt><trkpt lat="43.4427902" lon="11.0983785"><ele>214.0</ele><time>2026-03-30T15:41:20.802Z</time></trkpt><trkpt lat="43.4427388" lon="11.0983078"><ele>214.0</ele><time>2026-03-30T15:41:22.8Z</time></trkpt><trkpt lat="43.442683" lon="11.0982449"><ele>214.0</ele><time>2026-03-30T15:41:24.854Z</time></trkpt><trkpt lat="43.4426353" lon="11.0981762"><ele>214.0</ele><time>2026-03-30T15:41:26.779Z</time></trkpt><trkpt lat="43.4425871" lon="11.0981061"><ele>214.00000000000003</ele><time>2026-03-30T15:41:28.781Z</time></trkpt><trkpt lat="43.4425306" lon="11.0980076"><ele>214.0</ele><time>2026-03-30T15:41:31.795Z</time></trkpt><trkpt lat="43.4424658" lon="11.0978985"><ele>214.99999999999997</ele><time>2026-03-30T15:41:34.782Z</time></trkpt><trkpt lat="43.4424146" lon="11.0978238"><ele>216.0</ele><time>2026-03-30T15:41:36.789Z</time></trkpt><trkpt lat="43.442363" lon="11.0977509"><ele>217.0</ele><time>2026-03-30T15:41:38.817Z</time></trkpt><trkpt lat="43.4422827" lon="11.0976458"><ele>218.0</ele><time>2026-03-30T15:41:41.775Z</time></trkpt><trkpt lat="43.4422306" lon="11.0975669"><ele>218.99999999999997</ele><time>2026-03-30T15:41:43.772Z</time></trkpt><trkpt lat="43.4421757" lon="11.0974849"><ele>220.0</ele><time>2026-03-30T15:41:45.784Z</time></trkpt><trkpt lat="43.4421245" lon="11.097399"><ele>220.28571428571428</ele><time>2026-03-30T15:41:47.815Z</time></trkpt><trkpt lat="43.4420716" lon="11.0973171"><ele>220.57142857142856</ele><time>2026-03-30T15:41:49.774Z</time></trkpt><trkpt lat="43.4420216" lon="11.0972391"><ele>220.85714285714283</ele><time>2026-03-30T15:41:51.808Z</time></trkpt><trkpt lat="43.4419687" lon="11.0971732"><ele>221.14285714285714</ele><time>2026-03-30T15:41:53.79Z</time></trkpt><trkpt lat="43.4419182" lon="11.0971105"><ele>221.42857142857144</ele><time>2026-03-30T15:41:55.774Z</time></trkpt><trkpt lat="43.4418608" lon="11.0970514"><ele>221.7142857142857</ele><time>2026-03-30T15:41:57.793Z</time></trkpt><trkpt lat="43.4418094" lon="11.0969886"><ele>222.0</ele><time>2026-03-30T15:41:59.773Z</time></trkpt><trkpt lat="43.4417523" lon="11.0969374"><ele>222.0</ele><time>2026-03-30T15:42:01.789Z</time></trkpt><trkpt lat="43.4416889" lon="11.0968943"><ele>222.0</ele><time>2026-03-30T15:42:03.781Z</time></trkpt><trkpt lat="43.441622" lon="11.0968577"><ele>222.0</ele><time>2026-03-30T15:42:05.785Z</time></trkpt><trkpt lat="43.4415448" lon="11.0968223"><ele>222.0</ele><time>2026-03-30T15:42:07.79Z</time></trkpt><trkpt lat="43.4414709" lon="11.0967905"><ele>222.0</ele><time>2026-03-30T15:42:09.776Z</time></trkpt><trkpt lat="43.4413971" lon="11.0967589"><ele>222.0</ele><time>2026-03-30T15:42:11.79Z</time></trkpt><trkpt lat="43.4413216" lon="11.0967228"><ele>222.0</ele><time>2026-03-30T15:42:13.789Z</time></trkpt><trkpt lat="43.44125" lon="11.0966896"><ele>222.0</ele><time>2026-03-30T15:42:15.782Z</time></trkpt><trkpt lat="43.4411808" lon="11.0966548"><ele>222.0</ele><time>2026-03-30T15:42:17.779Z</time></trkpt><trkpt lat="43.4411123" lon="11.0966203"><ele>222.0</ele><time>2026-03-30T15:42:19.792Z</time></trkpt><trkpt lat="43.4410414" lon="11.0965919"><ele>222.0</ele><time>2026-03-30T15:42:21.776Z</time></trkpt><trkpt lat="43.4409771" lon="11.0965582"><ele>222.0</ele><time>2026-03-30T15:42:23.776Z</time></trkpt><trkpt lat="43.4409112" lon="11.0965189"><ele>222.0</ele><time>2026-03-30T15:42:25.794Z</time></trkpt><trkpt lat="43.4408448" lon="11.0964889"><ele>222.28571428571428</ele><time>2026-03-30T15:42:27.773Z</time></trkpt><trkpt lat="43.4407772" lon="11.0964583"><ele>222.57142857142858</ele><time>2026-03-30T15:42:29.778Z</time></trkpt><trkpt lat="43.4407146" lon="11.0964174"><ele>222.85714285714286</ele><time>2026-03-30T15:42:31.799Z</time></trkpt><trkpt lat="43.440656" lon="11.0963742"><ele>223.14285714285714</ele><time>2026-03-30T15:42:33.788Z</time></trkpt><trkpt lat="43.4405973" lon="11.0963269"><ele>223.42857142857144</ele><time>2026-03-30T15:42:35.789Z</time></trkpt><trkpt lat="43.4405365" lon="11.0962769"><ele>223.71428571428572</ele><time>2026-03-30T15:42:37.788Z</time></trkpt><trkpt lat="43.4404798" lon="11.0962255"><ele>224.0</ele><time>2026-03-30T15:42:39.791Z</time></trkpt><trkpt lat="43.4404227" lon="11.0961727"><ele>224.0</ele><time>2026-03-30T15:42:41.79Z</time></trkpt><trkpt lat="43.440365" lon="11.0961188"><ele>224.0</ele><time>2026-03-30T15:42:43.771Z</time></trkpt><trkpt lat="43.4403074" lon="11.0960639"><ele>224.0</ele><time>2026-03-30T15:42:45.782Z</time></trkpt><trkpt lat="43.4402518" lon="11.0960098"><ele>224.0</ele><time>2026-03-30T15:42:47.792Z</time></trkpt><trkpt lat="43.4401872" lon="11.0959497"><ele>224.0</ele><time>2026-03-30T15:42:49.777Z</time></trkpt><trkpt lat="43.440122" lon="11.0958897"><ele>224.0</ele><time>2026-03-30T15:42:51.806Z</time></trkpt><trkpt lat="43.4400666" lon="11.0958354"><ele>224.0</ele><time>2026-03-30T15:42:53.777Z</time></trkpt><trkpt lat="43.4400128" lon="11.0957814"><ele>224.28571428571428</ele><time>2026-03-30T15:42:55.775Z</time></trkpt><trkpt lat="43.4399625" lon="11.0957287"><ele>224.57142857142856</ele><time>2026-03-30T15:42:57.803Z</time></trkpt><trkpt lat="43.4399113" lon="11.0956779"><ele>224.85714285714286</ele><time>2026-03-30T15:42:59.778Z</time></trkpt><trkpt lat="43.4398578" lon="11.0956252"><ele>225.14285714285714</ele><time>2026-03-30T15:43:01.777Z</time></trkpt><trkpt lat="43.4398044" lon="11.0955765"><ele>225.42857142857142</ele><time>2026-03-30T15:43:03.791Z</time></trkpt><trkpt lat="43.4397501" lon="11.0955224"><ele>225.71428571428572</ele><time>2026-03-30T15:43:05.786Z</time></trkpt><trkpt lat="43.4396942" lon="11.0954657"><ele>226.0</ele><time>2026-03-30T15:43:07.786Z</time></trkpt><trkpt lat="43.4396303" lon="11.095406"><ele>226.14285714285717</ele><time>2026-03-30T15:43:09.785Z</time></trkpt><trkpt lat="43.4395717" lon="11.0953467"><ele>226.28571428571428</ele><time>2026-03-30T15:43:11.782Z</time></trkpt><trkpt lat="43.4395146" lon="11.0952923"><ele>226.42857142857144</ele><time>2026-03-30T15:43:13.778Z</time></trkpt><trkpt lat="43.4394601" lon="11.0952421"><ele>226.57142857142858</ele><time>2026-03-30T15:43:15.792Z</time></trkpt><trkpt lat="43.4394031" lon="11.0951877"><ele>226.71428571428572</ele><time>2026-03-30T15:43:17.781Z</time></trkpt><trkpt lat="43.4393459" lon="11.095132"><ele>226.85714285714286</ele><time>2026-03-30T15:43:19.794Z</time></trkpt><trkpt lat="43.4392874" lon="11.0950758"><ele>227.0</ele><time>2026-03-30T15:43:21.781Z</time></trkpt><trkpt lat="43.4392268" lon="11.0950174"><ele>227.00000000000003</ele><time>2026-03-30T15:43:23.798Z</time></trkpt><trkpt lat="43.4391653" lon="11.0949557"><ele>227.0</ele><time>2026-03-30T15:43:25.776Z</time></trkpt><trkpt lat="43.4390963" lon="11.0948911"><ele>227.0</ele><time>2026-03-30T15:43:27.778Z</time></trkpt><trkpt lat="43.4390244" lon="11.09483"><ele>227.0</ele><time>2026-03-30T15:43:29.776Z</time></trkpt><trkpt lat="43.4389558" lon="11.0947641"><ele>227.00000000000003</ele><time>2026-03-30T15:43:31.77Z</time></trkpt><trkpt lat="43.4388925" lon="11.0947002"><ele>227.0</ele><time>2026-03-30T15:43:33.793Z</time></trkpt><trkpt lat="43.4388253" lon="11.0946367"><ele>227.33333333333334</ele><time>2026-03-30T15:43:35.796Z</time></trkpt><trkpt lat="43.4387576" lon="11.094578"><ele>227.66666666666669</ele><time>2026-03-30T15:43:37.781Z</time></trkpt><trkpt lat="43.4386873" lon="11.0945246"><ele>228.0</ele><time>2026-03-30T15:43:39.777Z</time></trkpt><trkpt lat="43.4386131" lon="11.094475"><ele>228.33333333333331</ele><time>2026-03-30T15:43:41.783Z</time></trkpt><trkpt lat="43.4385352" lon="11.0944307"><ele>228.66666666666666</ele><time>2026-03-30T15:43:43.781Z</time></trkpt><trkpt lat="43.4384579" lon="11.094406"><ele>229.0</ele><time>2026-03-30T15:43:45.772Z</time></trkpt><trkpt lat="43.4383768" lon="11.0943784"><ele>229.0</ele><time>2026-03-30T15:43:47.789Z</time></trkpt><trkpt lat="43.4382845" lon="11.0943625"><ele>228.99999999999997</ele><time>2026-03-30T15:43:49.771Z</time></trkpt><trkpt lat="43.4381933" lon="11.0943534"><ele>228.99999999999997</ele><time>2026-03-30T15:43:51.769Z</time></trkpt><trkpt lat="43.4381033" lon="11.0943441"><ele>229.0</ele><time>2026-03-30T15:43:53.777Z</time></trkpt><trkpt lat="43.4380151" lon="11.0943373"><ele>229.0</ele><time>2026-03-30T15:43:55.774Z</time></trkpt><trkpt lat="43.4379274" lon="11.0943313"><ele>228.99999999999997</ele><time>2026-03-30T15:43:57.795Z</time></trkpt><trkpt lat="43.4378389" lon="11.0943215"><ele>229.0</ele><time>2026-03-30T15:43:59.776Z</time></trkpt><trkpt lat="43.4377516" lon="11.0943098"><ele>229.0</ele><time>2026-03-30T15:44:01.783Z</time></trkpt><trkpt lat="43.4376651" lon="11.0943003"><ele>229.0</ele><time>2026-03-30T15:44:03.777Z</time></trkpt><trkpt lat="43.4375811" lon="11.0942949"><ele>228.99999999999997</ele><time>2026-03-30T15:44:05.778Z</time></trkpt><trkpt lat="43.4374972" lon="11.0942841"><ele>229.0</ele><time>2026-03-30T15:44:07.787Z</time></trkpt><trkpt lat="43.4374212" lon="11.094277"><ele>229.0</ele><time>2026-03-30T15:44:09.798Z</time></trkpt><trkpt lat="43.4373473" lon="11.0942663"><ele>229.0</ele><time>2026-03-30T15:44:11.777Z</time></trkpt><trkpt lat="43.437275" lon="11.0942616"><ele>229.0</ele><time>2026-03-30T15:44:13.78Z</time></trkpt><trkpt lat="43.4372002" lon="11.0942617"><ele>229.0</ele><time>2026-03-30T15:44:15.774Z</time></trkpt><trkpt lat="43.4371267" lon="11.0942489"><ele>229.0</ele><time>2026-03-30T15:44:17.79Z</time></trkpt><trkpt lat="43.4370563" lon="11.0942452"><ele>229.0</ele><time>2026-03-30T15:44:19.77Z</time></trkpt><trkpt lat="43.4369832" lon="11.0942361"><ele>229.0</ele><time>2026-03-30T15:44:21.795Z</time></trkpt><trkpt lat="43.4369109" lon="11.0942269"><ele>229.28571428571428</ele><time>2026-03-30T15:44:23.777Z</time></trkpt><trkpt lat="43.4368394" lon="11.0942079"><ele>229.57142857142858</ele><time>2026-03-30T15:44:25.773Z</time></trkpt><trkpt lat="43.4367617" lon="11.0942001"><ele>229.85714285714286</ele><time>2026-03-30T15:44:27.803Z</time></trkpt><trkpt lat="43.4366885" lon="11.0941991"><ele>230.14285714285714</ele><time>2026-03-30T15:44:29.772Z</time></trkpt><trkpt lat="43.4366155" lon="11.094198"><ele>230.42857142857144</ele><time>2026-03-30T15:44:31.773Z</time></trkpt><trkpt lat="43.4365391" lon="11.0941799"><ele>230.71428571428572</ele><time>2026-03-30T15:44:33.777Z</time></trkpt><trkpt lat="43.4364655" lon="11.0941597"><ele>231.0</ele><time>2026-03-30T15:44:35.783Z</time></trkpt><trkpt lat="43.436396" lon="11.094134"><ele>231.0</ele><time>2026-03-30T15:44:37.782Z</time></trkpt><trkpt lat="43.4363266" lon="11.0941104"><ele>231.0</ele><time>2026-03-30T15:44:39.778Z</time></trkpt><trkpt lat="43.4362584" lon="11.0940898"><ele>231.0</ele><time>2026-03-30T15:44:41.774Z</time></trkpt><trkpt lat="43.4361911" lon="11.0940574"><ele>231.0</ele><time>2026-03-30T15:44:43.793Z</time></trkpt><trkpt lat="43.43612" lon="11.0940277"><ele>231.0</ele><time>2026-03-30T15:44:45.776Z</time></trkpt><trkpt lat="43.4360513" lon="11.093997"><ele>231.0</ele><time>2026-03-30T15:44:47.774Z</time></trkpt><trkpt lat="43.4359826" lon="11.0939734"><ele>231.0</ele><time>2026-03-30T15:44:49.774Z</time></trkpt><trkpt lat="43.4359154" lon="11.0939456"><ele>231.16666666666666</ele><time>2026-03-30T15:44:51.801Z</time></trkpt><trkpt lat="43.4358424" lon="11.0939192"><ele>231.33333333333331</ele><time>2026-03-30T15:44:53.777Z</time></trkpt><trkpt lat="43.4357713" lon="11.093892"><ele>231.5</ele><time>2026-03-30T15:44:55.781Z</time></trkpt><trkpt lat="43.4357013" lon="11.0938621"><ele>231.66666666666666</ele><time>2026-03-30T15:44:57.778Z</time></trkpt><trkpt lat="43.4356315" lon="11.0938316"><ele>231.83333333333331</ele><time>2026-03-30T15:44:59.776Z</time></trkpt><trkpt lat="43.4355583" lon="11.0938011"><ele>232.0</ele><time>2026-03-30T15:45:01.777Z</time></trkpt><trkpt lat="43.4354795" lon="11.0937689"><ele>232.49999999999997</ele><time>2026-03-30T15:45:03.779Z</time></trkpt><trkpt lat="43.4354036" lon="11.0937365"><ele>233.0</ele><time>2026-03-30T15:45:05.793Z</time></trkpt><trkpt lat="43.4353294" lon="11.0937058"><ele>233.5</ele><time>2026-03-30T15:45:07.781Z</time></trkpt><trkpt lat="43.4352526" lon="11.0936766"><ele>234.0</ele><time>2026-03-30T15:45:09.783Z</time></trkpt><trkpt lat="43.4351765" lon="11.0936439"><ele>234.49999999999997</ele><time>2026-03-30T15:45:11.782Z</time></trkpt><trkpt lat="43.4351014" lon="11.0936121"><ele>235.0</ele><time>2026-03-30T15:45:13.785Z</time></trkpt><trkpt lat="43.4350236" lon="11.0935833"><ele>234.99999999999997</ele><time>2026-03-30T15:45:15.784Z</time></trkpt><trkpt lat="43.4349456" lon="11.0935542"><ele>235.0</ele><time>2026-03-30T15:45:17.786Z</time></trkpt><trkpt lat="43.4348697" lon="11.0935258"><ele>235.0</ele><time>2026-03-30T15:45:19.783Z</time></trkpt><trkpt lat="43.4347888" lon="11.0934906"><ele>235.0</ele><time>2026-03-30T15:45:21.777Z</time></trkpt><trkpt lat="43.4347038" lon="11.0934499"><ele>234.99999999999997</ele><time>2026-03-30T15:45:23.79Z</time></trkpt><trkpt lat="43.4346247" lon="11.093408"><ele>235.0</ele><time>2026-03-30T15:45:25.773Z</time></trkpt><trkpt lat="43.434549" lon="11.0933691"><ele>234.99999999999997</ele><time>2026-03-30T15:45:27.781Z</time></trkpt><trkpt lat="43.4344732" lon="11.0933274"><ele>235.0</ele><time>2026-03-30T15:45:29.781Z</time></trkpt><trkpt lat="43.4343982" lon="11.0932789"><ele>235.0</ele><time>2026-03-30T15:45:31.772Z</time></trkpt><trkpt lat="43.4343252" lon="11.0932268"><ele>235.0</ele><time>2026-03-30T15:45:33.783Z</time></trkpt><trkpt lat="43.4342541" lon="11.0931826"><ele>234.99999999999997</ele><time>2026-03-30T15:45:35.79Z</time></trkpt><trkpt lat="43.4341885" lon="11.0931372"><ele>235.0</ele><time>2026-03-30T15:45:37.797Z</time></trkpt><trkpt lat="43.4341167" lon="11.0930873"><ele>235.33333333333331</ele><time>2026-03-30T15:45:39.776Z</time></trkpt><trkpt lat="43.4340461" lon="11.0930395"><ele>235.66666666666666</ele><time>2026-03-30T15:45:41.77Z</time></trkpt><trkpt lat="43.4339768" lon="11.0929918"><ele>236.0</ele><time>2026-03-30T15:45:43.782Z</time></trkpt><trkpt lat="43.4339052" lon="11.0929403"><ele>236.33333333333331</ele><time>2026-03-30T15:45:45.776Z</time></trkpt><trkpt lat="43.4338323" lon="11.0928879"><ele>236.66666666666666</ele><time>2026-03-30T15:45:47.785Z</time></trkpt><trkpt lat="43.4337603" lon="11.0928339"><ele>237.0</ele><time>2026-03-30T15:45:49.805Z</time></trkpt><trkpt lat="43.4336875" lon="11.0927864"><ele>237.28571428571425</ele><time>2026-03-30T15:45:51.776Z</time></trkpt><trkpt lat="43.4336143" lon="11.0927335"><ele>237.57142857142856</ele><time>2026-03-30T15:45:53.806Z</time></trkpt><trkpt lat="43.4335444" lon="11.0926879"><ele>237.85714285714286</ele><time>2026-03-30T15:45:55.797Z</time></trkpt><trkpt lat="43.4334816" lon="11.092646"><ele>238.14285714285714</ele><time>2026-03-30T15:45:57.778Z</time></trkpt><trkpt lat="43.4334166" lon="11.0925989"><ele>238.42857142857144</ele><time>2026-03-30T15:45:59.776Z</time></trkpt><trkpt lat="43.4333525" lon="11.0925564"><ele>238.71428571428575</ele><time>2026-03-30T15:46:01.776Z</time></trkpt><trkpt lat="43.4332946" lon="11.0925138"><ele>239.00000000000003</ele><time>2026-03-30T15:46:03.781Z</time></trkpt><trkpt lat="43.4332342" lon="11.0924682"><ele>239.00000000000003</ele><time>2026-03-30T15:46:05.782Z</time></trkpt><trkpt lat="43.4331718" lon="11.092423"><ele>239.0</ele><time>2026-03-30T15:46:07.769Z</time></trkpt><trkpt lat="43.4331089" lon="11.0923807"><ele>239.00000000000003</ele><time>2026-03-30T15:46:09.792Z</time></trkpt><trkpt lat="43.4330481" lon="11.0923359"><ele>239.00000000000003</ele><time>2026-03-30T15:46:11.769Z</time></trkpt><trkpt lat="43.4329843" lon="11.092289"><ele>239.0</ele><time>2026-03-30T15:46:13.778Z</time></trkpt><trkpt lat="43.4329219" lon="11.0922392"><ele>239.00000000000003</ele><time>2026-03-30T15:46:15.774Z</time></trkpt><trkpt lat="43.4328633" lon="11.0921875"><ele>239.00000000000003</ele><time>2026-03-30T15:46:17.776Z</time></trkpt><trkpt lat="43.4328077" lon="11.0921346"><ele>239.28571428571433</ele><time>2026-03-30T15:46:19.773Z</time></trkpt><trkpt lat="43.4327497" lon="11.0920702"><ele>239.57142857142858</ele><time>2026-03-30T15:46:21.783Z</time></trkpt><trkpt lat="43.432689" lon="11.0920026"><ele>239.8571428571429</ele><time>2026-03-30T15:46:23.787Z</time></trkpt><trkpt lat="43.4326307" lon="11.0919317"><ele>240.14285714285717</ele><time>2026-03-30T15:46:25.786Z</time></trkpt><trkpt lat="43.432575" lon="11.0918648"><ele>240.42857142857144</ele><time>2026-03-30T15:46:27.773Z</time></trkpt><trkpt lat="43.4325195" lon="11.0918002"><ele>240.71428571428572</ele><time>2026-03-30T15:46:29.788Z</time></trkpt><trkpt lat="43.432469" lon="11.0917349"><ele>241.0</ele><time>2026-03-30T15:46:31.784Z</time></trkpt><trkpt lat="43.4324181" lon="11.0916692"><ele>241.0</ele><time>2026-03-30T15:46:33.779Z</time></trkpt><trkpt lat="43.4323598" lon="11.0915991"><ele>241.00000000000003</ele><time>2026-03-30T15:46:35.787Z</time></trkpt><trkpt lat="43.4323052" lon="11.0915317"><ele>241.0</ele><time>2026-03-30T15:46:37.775Z</time></trkpt><trkpt lat="43.4322515" lon="11.0914699"><ele>241.0</ele><time>2026-03-30T15:46:39.781Z</time></trkpt><trkpt lat="43.432198" lon="11.0914067"><ele>241.00000000000003</ele><time>2026-03-30T15:46:41.778Z</time></trkpt><trkpt lat="43.4321404" lon="11.0913452"><ele>241.0</ele><time>2026-03-30T15:46:43.784Z</time></trkpt><trkpt lat="43.4320802" lon="11.0912829"><ele>241.0</ele><time>2026-03-30T15:46:45.776Z</time></trkpt><trkpt lat="43.4320143" lon="11.091225"><ele>241.16666666666666</ele><time>2026-03-30T15:46:47.777Z</time></trkpt><trkpt lat="43.4319481" lon="11.0911666"><ele>241.33333333333331</ele><time>2026-03-30T15:46:49.777Z</time></trkpt><trkpt lat="43.4318822" lon="11.0911099"><ele>241.5</ele><time>2026-03-30T15:46:51.776Z</time></trkpt><trkpt lat="43.4318165" lon="11.0910571"><ele>241.66666666666669</ele><time>2026-03-30T15:46:53.773Z</time></trkpt><trkpt lat="43.4317488" lon="11.0910111"><ele>241.83333333333334</ele><time>2026-03-30T15:46:55.775Z</time></trkpt><trkpt lat="43.4316816" lon="11.0909545"><ele>242.0</ele><time>2026-03-30T15:46:57.781Z</time></trkpt><trkpt lat="43.4316129" lon="11.0909021"><ele>242.00000000000003</ele><time>2026-03-30T15:46:59.777Z</time></trkpt><trkpt lat="43.4315442" lon="11.0908511"><ele>242.0</ele><time>2026-03-30T15:47:01.779Z</time></trkpt><trkpt lat="43.4314733" lon="11.0908034"><ele>242.0</ele><time>2026-03-30T15:47:03.785Z</time></trkpt><trkpt lat="43.4314023" lon="11.0907519"><ele>242.0</ele><time>2026-03-30T15:47:05.779Z</time></trkpt><trkpt lat="43.4313256" lon="11.0907101"><ele>242.00000000000003</ele><time>2026-03-30T15:47:07.781Z</time></trkpt><trkpt lat="43.4312492" lon="11.0906683"><ele>242.0</ele><time>2026-03-30T15:47:09.774Z</time></trkpt><trkpt lat="43.4311681" lon="11.0906451"><ele>242.33333333333334</ele><time>2026-03-30T15:47:11.785Z</time></trkpt><trkpt lat="43.4310846" lon="11.090627"><ele>242.66666666666669</ele><time>2026-03-30T15:47:13.77Z</time></trkpt><trkpt lat="43.4310031" lon="11.0906228"><ele>243.0</ele><time>2026-03-30T15:47:15.78Z</time></trkpt><trkpt lat="43.4309217" lon="11.0906258"><ele>243.33333333333331</ele><time>2026-03-30T15:47:17.782Z</time></trkpt><trkpt lat="43.430836" lon="11.0906308"><ele>243.66666666666666</ele><time>2026-03-30T15:47:19.783Z</time></trkpt><trkpt lat="43.4307451" lon="11.0906405"><ele>244.0</ele><time>2026-03-30T15:47:21.792Z</time></trkpt><trkpt lat="43.430652" lon="11.0906444"><ele>243.99999999999997</ele><time>2026-03-30T15:47:23.786Z</time></trkpt><trkpt lat="43.4305649" lon="11.0906542"><ele>244.0</ele><time>2026-03-30T15:47:25.776Z</time></trkpt><trkpt lat="43.4304783" lon="11.0906655"><ele>244.0</ele><time>2026-03-30T15:47:27.774Z</time></trkpt><trkpt lat="43.4303937" lon="11.0906675"><ele>244.0</ele><time>2026-03-30T15:47:29.789Z</time></trkpt><trkpt lat="43.4303087" lon="11.0906772"><ele>243.99999999999997</ele><time>2026-03-30T15:47:31.783Z</time></trkpt><trkpt lat="43.4302227" lon="11.0906801"><ele>244.0</ele><time>2026-03-30T15:47:33.787Z</time></trkpt><trkpt lat="43.4301372" lon="11.0906853"><ele>243.99999999999997</ele><time>2026-03-30T15:47:35.785Z</time></trkpt><trkpt lat="43.4300441" lon="11.0906943"><ele>244.0</ele><time>2026-03-30T15:47:37.796Z</time></trkpt><trkpt lat="43.429959" lon="11.0907017"><ele>244.0</ele><time>2026-03-30T15:47:39.773Z</time></trkpt><trkpt lat="43.4298714" lon="11.0907065"><ele>244.0</ele><time>2026-03-30T15:47:41.777Z</time></trkpt><trkpt lat="43.4297842" lon="11.090714"><ele>243.99999999999997</ele><time>2026-03-30T15:47:43.774Z</time></trkpt><trkpt lat="43.4296932" lon="11.0907224"><ele>244.0</ele><time>2026-03-30T15:47:45.776Z</time></trkpt><trkpt lat="43.4296067" lon="11.0907291"><ele>243.99999999999997</ele><time>2026-03-30T15:47:47.79Z</time></trkpt><trkpt lat="43.4295207" lon="11.0907334"><ele>244.0</ele><time>2026-03-30T15:47:49.777Z</time></trkpt><trkpt lat="43.4294349" lon="11.0907417"><ele>244.0</ele><time>2026-03-30T15:47:51.774Z</time></trkpt><trkpt lat="43.4293492" lon="11.0907501"><ele>244.0</ele><time>2026-03-30T15:47:53.792Z</time></trkpt><trkpt lat="43.4292616" lon="11.0907563"><ele>243.99999999999997</ele><time>2026-03-30T15:47:55.777Z</time></trkpt><trkpt lat="43.4291739" lon="11.0907609"><ele>244.0</ele><time>2026-03-30T15:47:57.776Z</time></trkpt><trkpt lat="43.4290855" lon="11.0907668"><ele>244.0</ele><time>2026-03-30T15:47:59.789Z</time></trkpt><trkpt lat="43.4289996" lon="11.0907709"><ele>243.99999999999997</ele><time>2026-03-30T15:48:01.776Z</time></trkpt><trkpt lat="43.4289083" lon="11.0907785"><ele>243.99999999999997</ele><time>2026-03-30T15:48:03.777Z</time></trkpt><trkpt lat="43.4288167" lon="11.0907888"><ele>244.0</ele><time>2026-03-30T15:48:05.791Z</time></trkpt><trkpt lat="43.4287242" lon="11.0907976"><ele>244.0</ele><time>2026-03-30T15:48:07.784Z</time></trkpt><trkpt lat="43.428634" lon="11.0908065"><ele>244.6</ele><time>2026-03-30T15:48:09.776Z</time></trkpt><trkpt lat="43.4285445" lon="11.0908138"><ele>245.2</ele><time>2026-03-30T15:48:11.779Z</time></trkpt><trkpt lat="43.4284498" lon="11.0908294"><ele>245.79999999999998</ele><time>2026-03-30T15:48:13.789Z</time></trkpt><trkpt lat="43.4283586" lon="11.0908373"><ele>246.39999999999998</ele><time>2026-03-30T15:48:15.78Z</time></trkpt><trkpt lat="43.4282664" lon="11.0908444"><ele>247.0</ele><time>2026-03-30T15:48:17.787Z</time></trkpt><trkpt lat="43.4281779" lon="11.0908557"><ele>247.0</ele><time>2026-03-30T15:48:19.783Z</time></trkpt><trkpt lat="43.4280913" lon="11.0908684"><ele>247.0</ele><time>2026-03-30T15:48:21.772Z</time></trkpt><trkpt lat="43.4280009" lon="11.0908958"><ele>247.0</ele><time>2026-03-30T15:48:23.783Z</time></trkpt><trkpt lat="43.4279125" lon="11.0909244"><ele>247.0</ele><time>2026-03-30T15:48:25.783Z</time></trkpt><trkpt lat="43.4278255" lon="11.0909618"><ele>247.0</ele><time>2026-03-30T15:48:27.779Z</time></trkpt><trkpt lat="43.4277395" lon="11.090996"><ele>247.2</ele><time>2026-03-30T15:48:29.791Z</time></trkpt><trkpt lat="43.4276507" lon="11.0910326"><ele>247.39999999999998</ele><time>2026-03-30T15:48:31.783Z</time></trkpt><trkpt lat="43.4275611" lon="11.09107"><ele>247.60000000000002</ele><time>2026-03-30T15:48:33.788Z</time></trkpt><trkpt lat="43.4274756" lon="11.0911035"><ele>247.8</ele><time>2026-03-30T15:48:35.774Z</time></trkpt><trkpt lat="43.4273861" lon="11.0911397"><ele>248.0</ele><time>2026-03-30T15:48:37.781Z</time></trkpt><trkpt lat="43.4273014" lon="11.0911884"><ele>248.0</ele><time>2026-03-30T15:48:39.773Z</time></trkpt><trkpt lat="43.4272195" lon="11.0912319"><ele>248.0</ele><time>2026-03-30T15:48:41.777Z</time></trkpt><trkpt lat="43.4271317" lon="11.0912643"><ele>248.0</ele><time>2026-03-30T15:48:43.793Z</time></trkpt><trkpt lat="43.4270489" lon="11.091298"><ele>248.0</ele><time>2026-03-30T15:48:45.786Z</time></trkpt><trkpt lat="43.4269612" lon="11.0913406"><ele>248.0</ele><time>2026-03-30T15:48:47.784Z</time></trkpt><trkpt lat="43.4268732" lon="11.0913919"><ele>248.60000000000002</ele><time>2026-03-30T15:48:49.779Z</time></trkpt><trkpt lat="43.4267832" lon="11.0914302"><ele>249.20000000000002</ele><time>2026-03-30T15:48:51.776Z</time></trkpt><trkpt lat="43.4266918" lon="11.0914516"><ele>249.8</ele><time>2026-03-30T15:48:53.78Z</time></trkpt><trkpt lat="43.4266005" lon="11.0914712"><ele>250.4</ele><time>2026-03-30T15:48:55.782Z</time></trkpt><trkpt lat="43.4265055" lon="11.0914941"><ele>251.0</ele><time>2026-03-30T15:48:57.771Z</time></trkpt><trkpt lat="43.4264063" lon="11.0915244"><ele>250.8</ele><time>2026-03-30T15:48:59.783Z</time></trkpt><trkpt lat="43.4262978" lon="11.0915524"><ele>250.60000000000002</ele><time>2026-03-30T15:49:01.776Z</time></trkpt><trkpt lat="43.4261947" lon="11.0915932"><ele>250.4</ele><time>2026-03-30T15:49:03.78Z</time></trkpt><trkpt lat="43.4260884" lon="11.091638"><ele>250.2</ele><time>2026-03-30T15:49:05.769Z</time></trkpt><trkpt lat="43.425986" lon="11.091686"><ele>250.0</ele><time>2026-03-30T15:49:07.765Z</time></trkpt><trkpt lat="43.4258896" lon="11.091728"><ele>249.6</ele><time>2026-03-30T15:49:09.776Z</time></trkpt><trkpt lat="43.4257908" lon="11.0917754"><ele>249.2</ele><time>2026-03-30T15:49:11.781Z</time></trkpt><trkpt lat="43.4256918" lon="11.0918239"><ele>248.8</ele><time>2026-03-30T15:49:13.784Z</time></trkpt><trkpt lat="43.4255896" lon="11.0918697"><ele>248.4</ele><time>2026-03-30T15:49:15.798Z</time></trkpt><trkpt lat="43.4254861" lon="11.0919171"><ele>248.0</ele><time>2026-03-30T15:49:17.771Z</time></trkpt><trkpt lat="43.4253869" lon="11.0919657"><ele>248.0</ele><time>2026-03-30T15:49:19.77Z</time></trkpt><trkpt lat="43.4252892" lon="11.0920094"><ele>248.0</ele><time>2026-03-30T15:49:21.784Z</time></trkpt><trkpt lat="43.4251894" lon="11.0920557"><ele>248.0</ele><time>2026-03-30T15:49:23.786Z</time></trkpt><trkpt lat="43.4250875" lon="11.0921053"><ele>248.0</ele><time>2026-03-30T15:49:25.788Z</time></trkpt><trkpt lat="43.4249827" lon="11.0921485"><ele>248.0</ele><time>2026-03-30T15:49:27.785Z</time></trkpt><trkpt lat="43.424878" lon="11.0921964"><ele>248.0</ele><time>2026-03-30T15:49:29.773Z</time></trkpt><trkpt lat="43.4247765" lon="11.0922538"><ele>248.0</ele><time>2026-03-30T15:49:31.773Z</time></trkpt><trkpt lat="43.4246758" lon="11.0923093"><ele>248.0</ele><time>2026-03-30T15:49:33.773Z</time></trkpt><trkpt lat="43.4245775" lon="11.0923599"><ele>248.0</ele><time>2026-03-30T15:49:35.802Z</time></trkpt><trkpt lat="43.4244818" lon="11.0924081"><ele>248.0</ele><time>2026-03-30T15:49:37.778Z</time></trkpt><trkpt lat="43.4243831" lon="11.0924492"><ele>248.4</ele><time>2026-03-30T15:49:39.785Z</time></trkpt><trkpt lat="43.4242913" lon="11.092493"><ele>248.8</ele><time>2026-03-30T15:49:41.77Z</time></trkpt><trkpt lat="43.4241977" lon="11.0925368"><ele>249.2</ele><time>2026-03-30T15:49:43.788Z</time></trkpt><trkpt lat="43.4241019" lon="11.0925894"><ele>249.6</ele><time>2026-03-30T15:49:45.78Z</time></trkpt><trkpt lat="43.4240146" lon="11.0926489"><ele>250.0</ele><time>2026-03-30T15:49:47.769Z</time></trkpt><trkpt lat="43.4239265" lon="11.0927047"><ele>250.0</ele><time>2026-03-30T15:49:49.775Z</time></trkpt><trkpt lat="43.4238385" lon="11.0927702"><ele>250.0</ele><time>2026-03-30T15:49:51.785Z</time></trkpt><trkpt lat="43.4237506" lon="11.0928377"><ele>250.0</ele><time>2026-03-30T15:49:53.777Z</time></trkpt><trkpt lat="43.4236667" lon="11.0929072"><ele>250.0</ele><time>2026-03-30T15:49:55.781Z</time></trkpt><trkpt lat="43.4235823" lon="11.0929781"><ele>250.0</ele><time>2026-03-30T15:49:57.776Z</time></trkpt><trkpt lat="43.4234994" lon="11.0930529"><ele>249.99999999999997</ele><time>2026-03-30T15:49:59.799Z</time></trkpt><trkpt lat="43.4234239" lon="11.0931121"><ele>250.0</ele><time>2026-03-30T15:50:01.798Z</time></trkpt><trkpt lat="43.4233518" lon="11.0931686"><ele>250.0</ele><time>2026-03-30T15:50:03.786Z</time></trkpt><trkpt lat="43.4232823" lon="11.0932185"><ele>250.0</ele><time>2026-03-30T15:50:05.781Z</time></trkpt><trkpt lat="43.4232122" lon="11.0932701"><ele>249.99999999999997</ele><time>2026-03-30T15:50:07.78Z</time></trkpt><trkpt lat="43.4231361" lon="11.0933191"><ele>250.0</ele><time>2026-03-30T15:50:09.774Z</time></trkpt><trkpt lat="43.423056" lon="11.0933696"><ele>249.4</ele><time>2026-03-30T15:50:11.794Z</time></trkpt><trkpt lat="43.4229782" lon="11.0934309"><ele>248.8</ele><time>2026-03-30T15:50:13.792Z</time></trkpt><trkpt lat="43.4228993" lon="11.0935064"><ele>248.2</ele><time>2026-03-30T15:50:15.781Z</time></trkpt><trkpt lat="43.4228279" lon="11.0935838"><ele>247.6</ele><time>2026-03-30T15:50:17.789Z</time></trkpt><trkpt lat="43.4227539" lon="11.093666"><ele>247.0</ele><time>2026-03-30T15:50:19.784Z</time></trkpt><trkpt lat="43.422676" lon="11.0937639"><ele>247.0</ele><time>2026-03-30T15:50:21.781Z</time></trkpt><trkpt lat="43.422598" lon="11.0938755"><ele>247.0</ele><time>2026-03-30T15:50:23.77Z</time></trkpt><trkpt lat="43.4225193" lon="11.0939847"><ele>247.0</ele><time>2026-03-30T15:50:25.776Z</time></trkpt><trkpt lat="43.4224485" lon="11.0940994"><ele>247.0</ele><time>2026-03-30T15:50:27.782Z</time></trkpt><trkpt lat="43.4223682" lon="11.0942139"><ele>247.0</ele><time>2026-03-30T15:50:29.787Z</time></trkpt><trkpt lat="43.422284" lon="11.0943307"><ele>247.25</ele><time>2026-03-30T15:50:31.774Z</time></trkpt><trkpt lat="43.4222028" lon="11.0944496"><ele>247.5</ele><time>2026-03-30T15:50:33.799Z</time></trkpt><trkpt lat="43.4221212" lon="11.0945678"><ele>247.75</ele><time>2026-03-30T15:50:35.779Z</time></trkpt><trkpt lat="43.4220362" lon="11.0946848"><ele>248.0</ele><time>2026-03-30T15:50:37.772Z</time></trkpt><trkpt lat="43.4219457" lon="11.0947969"><ele>247.71428571428572</ele><time>2026-03-30T15:50:39.787Z</time></trkpt><trkpt lat="43.4218937" lon="11.0948516"><ele>247.42857142857144</ele><time>2026-03-30T15:50:40.781Z</time></trkpt><trkpt lat="43.4218389" lon="11.0949067"><ele>247.14285714285717</ele><time>2026-03-30T15:50:41.778Z</time></trkpt><trkpt lat="43.4217836" lon="11.09496"><ele>246.8571428571429</ele><time>2026-03-30T15:50:42.776Z</time></trkpt><trkpt lat="43.4217293" lon="11.0950108"><ele>246.57142857142858</ele><time>2026-03-30T15:50:43.789Z</time></trkpt><trkpt lat="43.4216764" lon="11.0950586"><ele>246.28571428571433</ele><time>2026-03-30T15:50:44.781Z</time></trkpt><trkpt lat="43.4216241" lon="11.0951081"><ele>246.00000000000003</ele><time>2026-03-30T15:50:45.78Z</time></trkpt><trkpt lat="43.4215701" lon="11.0951565"><ele>246.00000000000003</ele><time>2026-03-30T15:50:46.777Z</time></trkpt><trkpt lat="43.4215122" lon="11.0952071"><ele>246.0</ele><time>2026-03-30T15:50:47.781Z</time></trkpt><trkpt lat="43.4214546" lon="11.0952595"><ele>246.00000000000003</ele><time>2026-03-30T15:50:48.773Z</time></trkpt><trkpt lat="43.4213958" lon="11.0953116"><ele>246.00000000000003</ele><time>2026-03-30T15:50:49.78Z</time></trkpt><trkpt lat="43.4213357" lon="11.0953583"><ele>246.0</ele><time>2026-03-30T15:50:50.787Z</time></trkpt><trkpt lat="43.4212762" lon="11.0954077"><ele>246.00000000000003</ele><time>2026-03-30T15:50:51.793Z</time></trkpt><trkpt lat="43.421218" lon="11.0954579"><ele>246.00000000000003</ele><time>2026-03-30T15:50:52.815Z</time></trkpt><trkpt lat="43.421161" lon="11.0955095"><ele>245.8571428571429</ele><time>2026-03-30T15:50:53.788Z</time></trkpt><trkpt lat="43.4211007" lon="11.0955643"><ele>245.71428571428572</ele><time>2026-03-30T15:50:54.777Z</time></trkpt><trkpt lat="43.4210404" lon="11.0956185"><ele>245.57142857142858</ele><time>2026-03-30T15:50:55.775Z</time></trkpt><trkpt lat="43.4209823" lon="11.0956729"><ele>245.42857142857144</ele><time>2026-03-30T15:50:56.77Z</time></trkpt><trkpt lat="43.4209248" lon="11.0957278"><ele>245.28571428571428</ele><time>2026-03-30T15:50:57.785Z</time></trkpt><trkpt lat="43.4208657" lon="11.0957767"><ele>245.14285714285714</ele><time>2026-03-30T15:50:58.773Z</time></trkpt><trkpt lat="43.4208074" lon="11.095829"><ele>245.0</ele><time>2026-03-30T15:50:59.795Z</time></trkpt><trkpt lat="43.4207516" lon="11.095885"><ele>244.83333333333334</ele><time>2026-03-30T15:51:00.775Z</time></trkpt><trkpt lat="43.4206926" lon="11.0959427"><ele>244.66666666666669</ele><time>2026-03-30T15:51:01.787Z</time></trkpt><trkpt lat="43.4206363" lon="11.095993"><ele>244.5</ele><time>2026-03-30T15:51:02.781Z</time></trkpt><trkpt lat="43.4205783" lon="11.096043"><ele>244.33333333333331</ele><time>2026-03-30T15:51:03.767Z</time></trkpt><trkpt lat="43.4205248" lon="11.0960923"><ele>244.16666666666666</ele><time>2026-03-30T15:51:04.783Z</time></trkpt><trkpt lat="43.4204144" lon="11.0961817"><ele>244.0</ele><time>2026-03-30T15:51:06.801Z</time></trkpt><trkpt lat="43.4203549" lon="11.096229"><ele>243.79999999999998</ele><time>2026-03-30T15:51:07.784Z</time></trkpt><trkpt lat="43.4202956" lon="11.0962787"><ele>243.59999999999997</ele><time>2026-03-30T15:51:08.804Z</time></trkpt><trkpt lat="43.4202375" lon="11.0963283"><ele>243.4</ele><time>2026-03-30T15:51:09.803Z</time></trkpt><trkpt lat="43.4201808" lon="11.0963767"><ele>243.2</ele><time>2026-03-30T15:51:10.881Z</time></trkpt><trkpt lat="43.4200733" lon="11.0964592"><ele>243.0</ele><time>2026-03-30T15:51:12.795Z</time></trkpt><trkpt lat="43.4199643" lon="11.0965482"><ele>243.0</ele><time>2026-03-30T15:51:14.793Z</time></trkpt><trkpt lat="43.4199012" lon="11.0965906"><ele>243.0</ele><time>2026-03-30T15:51:15.801Z</time></trkpt><trkpt lat="43.4198318" lon="11.0966284"><ele>243.0</ele><time>2026-03-30T15:51:16.789Z</time></trkpt><trkpt lat="43.4197687" lon="11.0966555"><ele>243.0</ele><time>2026-03-30T15:51:17.8Z</time></trkpt><trkpt lat="43.4197032" lon="11.0966704"><ele>243.0</ele><time>2026-03-30T15:51:18.795Z</time></trkpt><trkpt lat="43.4196378" lon="11.0966869"><ele>243.0</ele><time>2026-03-30T15:51:19.779Z</time></trkpt><trkpt lat="43.4195758" lon="11.0967021"><ele>243.0</ele><time>2026-03-30T15:51:20.779Z</time></trkpt><trkpt lat="43.4194537" lon="11.09674"><ele>242.8</ele><time>2026-03-30T15:51:22.797Z</time></trkpt><trkpt lat="43.4193332" lon="11.0967406"><ele>242.60000000000002</ele><time>2026-03-30T15:51:24.777Z</time></trkpt><trkpt lat="43.4192234" lon="11.096735"><ele>242.39999999999998</ele><time>2026-03-30T15:51:26.784Z</time></trkpt><trkpt lat="43.4191403" lon="11.0968015"><ele>242.2</ele><time>2026-03-30T15:51:28.8Z</time></trkpt><trkpt lat="43.4190979" lon="11.0968838"><ele>242.0</ele><time>2026-03-30T15:51:30.859Z</time></trkpt><trkpt lat="43.4190699" lon="11.09699"><ele>242.00000000000003</ele><time>2026-03-30T15:51:32.81Z</time></trkpt><trkpt lat="43.4190823" lon="11.0971168"><ele>242.0</ele><time>2026-03-30T15:51:34.799Z</time></trkpt><trkpt lat="43.4191066" lon="11.0972417"><ele>242.0</ele><time>2026-03-30T15:51:36.794Z</time></trkpt><trkpt lat="43.4191313" lon="11.0973675"><ele>242.0</ele><time>2026-03-30T15:51:38.854Z</time></trkpt><trkpt lat="43.4191336" lon="11.0974577"><ele>242.00000000000003</ele><time>2026-03-30T15:51:39.856Z</time></trkpt><trkpt lat="43.4191296" lon="11.0975477"><ele>242.0</ele><time>2026-03-30T15:51:40.872Z</time></trkpt><trkpt lat="43.4191542" lon="11.0976597"><ele>242.00000000000003</ele><time>2026-03-30T15:51:42.792Z</time></trkpt><trkpt lat="43.4191978" lon="11.0977439"><ele>242.0</ele><time>2026-03-30T15:51:44.794Z</time></trkpt><trkpt lat="43.4192261" lon="11.0978466"><ele>242.0</ele><time>2026-03-30T15:51:46.789Z</time></trkpt><trkpt lat="43.4192402" lon="11.0979574"><ele>242.0</ele><time>2026-03-30T15:51:48.792Z</time></trkpt><trkpt lat="43.4192285" lon="11.0980719"><ele>242.00000000000003</ele><time>2026-03-30T15:51:50.796Z</time></trkpt><trkpt lat="43.4191753" lon="11.0981601"><ele>242.0</ele><time>2026-03-30T15:51:52.799Z</time></trkpt><trkpt lat="43.4191018" lon="11.0982046"><ele>242.0</ele><time>2026-03-30T15:51:54.86Z</time></trkpt><trkpt lat="43.4190215" lon="11.0982098"><ele>242.0</ele><time>2026-03-30T15:51:56.799Z</time></trkpt><trkpt lat="43.4189379" lon="11.0981395"><ele>242.0</ele><time>2026-03-30T15:51:58.815Z</time></trkpt><trkpt lat="43.4188632" lon="11.0980421"><ele>242.0</ele><time>2026-03-30T15:52:00.807Z</time></trkpt><trkpt lat="43.4187897" lon="11.0979601"><ele>242.0</ele><time>2026-03-30T15:52:02.815Z</time></trkpt><trkpt lat="43.4187213" lon="11.0978762"><ele>242.2</ele><time>2026-03-30T15:52:04.807Z</time></trkpt><trkpt lat="43.4186505" lon="11.0977921"><ele>242.39999999999998</ele><time>2026-03-30T15:52:06.795Z</time></trkpt><trkpt lat="43.4185805" lon="11.0977136"><ele>242.60000000000002</ele><time>2026-03-30T15:52:08.79Z</time></trkpt><trkpt lat="43.418512" lon="11.0976362"><ele>242.8</ele><time>2026-03-30T15:52:10.858Z</time></trkpt><trkpt lat="43.4184368" lon="11.0975329"><ele>243.0</ele><time>2026-03-30T15:52:12.791Z</time></trkpt><trkpt lat="43.4183691" lon="11.0974615"><ele>243.0</ele><time>2026-03-30T15:52:14.86Z</time></trkpt><trkpt lat="43.4183025" lon="11.0973956"><ele>243.0</ele><time>2026-03-30T15:52:16.785Z</time></trkpt><trkpt lat="43.4182342" lon="11.097321"><ele>243.0</ele><time>2026-03-30T15:52:18.86Z</time></trkpt><trkpt lat="43.418167" lon="11.0972486"><ele>243.0</ele><time>2026-03-30T15:52:20.867Z</time></trkpt><trkpt lat="43.4181042" lon="11.0971638"><ele>243.0</ele><time>2026-03-30T15:52:22.798Z</time></trkpt><trkpt lat="43.4180287" lon="11.0970898"><ele>243.0</ele><time>2026-03-30T15:52:24.877Z</time></trkpt><trkpt lat="43.4179523" lon="11.0970114"><ele>242.8</ele><time>2026-03-30T15:52:26.805Z</time></trkpt><trkpt lat="43.4178713" lon="11.0969257"><ele>242.60000000000002</ele><time>2026-03-30T15:52:28.866Z</time></trkpt><trkpt lat="43.417799" lon="11.0968446"><ele>242.39999999999998</ele><time>2026-03-30T15:52:30.859Z</time></trkpt><trkpt lat="43.4177206" lon="11.0967643"><ele>242.2</ele><time>2026-03-30T15:52:32.813Z</time></trkpt><trkpt lat="43.417643" lon="11.0966774"><ele>242.0</ele><time>2026-03-30T15:52:34.797Z</time></trkpt><trkpt lat="43.4175613" lon="11.0965965"><ele>242.0</ele><time>2026-03-30T15:52:36.797Z</time></trkpt><trkpt lat="43.4174799" lon="11.0965171"><ele>242.0</ele><time>2026-03-30T15:52:38.861Z</time></trkpt><trkpt lat="43.4173942" lon="11.0964502"><ele>242.0</ele><time>2026-03-30T15:52:40.862Z</time></trkpt><trkpt lat="43.4173039" lon="11.0963925"><ele>242.0</ele><time>2026-03-30T15:52:42.791Z</time></trkpt><trkpt lat="43.4172033" lon="11.0963465"><ele>242.0</ele><time>2026-03-30T15:52:44.804Z</time></trkpt><trkpt lat="43.4170963" lon="11.0963116"><ele>241.8</ele><time>2026-03-30T15:52:46.805Z</time></trkpt><trkpt lat="43.4169821" lon="11.0962731"><ele>241.6</ele><time>2026-03-30T15:52:48.858Z</time></trkpt><trkpt lat="43.4169147" lon="11.096274"><ele>241.40000000000003</ele><time>2026-03-30T15:52:49.781Z</time></trkpt><trkpt lat="43.416848" lon="11.0962691"><ele>241.20000000000002</ele><time>2026-03-30T15:52:50.802Z</time></trkpt><trkpt lat="43.4167457" lon="11.0962276"><ele>241.0</ele><time>2026-03-30T15:52:52.798Z</time></trkpt><trkpt lat="43.4166429" lon="11.0961716"><ele>240.99999999999997</ele><time>2026-03-30T15:52:54.776Z</time></trkpt><trkpt lat="43.4165323" lon="11.0961228"><ele>241.0</ele><time>2026-03-30T15:52:56.814Z</time></trkpt><trkpt lat="43.4164216" lon="11.0960819"><ele>241.0</ele><time>2026-03-30T15:52:58.859Z</time></trkpt><trkpt lat="43.4163587" lon="11.0960668"><ele>241.0</ele><time>2026-03-30T15:52:59.864Z</time></trkpt><trkpt lat="43.4162905" lon="11.0960592"><ele>240.99999999999997</ele><time>2026-03-30T15:53:00.877Z</time></trkpt><trkpt lat="43.4162253" lon="11.0960401"><ele>241.0</ele><time>2026-03-30T15:53:01.783Z</time></trkpt><trkpt lat="43.4161604" lon="11.0960109"><ele>240.49999999999997</ele><time>2026-03-30T15:53:02.792Z</time></trkpt><trkpt lat="43.4160787" lon="11.0959747"><ele>240.0</ele><time>2026-03-30T15:53:03.86Z</time></trkpt><trkpt lat="43.4160062" lon="11.0959393"><ele>239.5</ele><time>2026-03-30T15:53:04.801Z</time></trkpt><trkpt lat="43.4159321" lon="11.0958993"><ele>239.0</ele><time>2026-03-30T15:53:05.885Z</time></trkpt><trkpt lat="43.4158633" lon="11.095856"><ele>238.49999999999997</ele><time>2026-03-30T15:53:06.791Z</time></trkpt><trkpt lat="43.415786" lon="11.0958083"><ele>238.0</ele><time>2026-03-30T15:53:07.795Z</time></trkpt><trkpt lat="43.4157046" lon="11.0957535"><ele>237.49999999999997</ele><time>2026-03-30T15:53:08.866Z</time></trkpt><trkpt lat="43.4156276" lon="11.0957017"><ele>237.0</ele><time>2026-03-30T15:53:09.861Z</time></trkpt><trkpt lat="43.415543" lon="11.0956533"><ele>236.5</ele><time>2026-03-30T15:53:10.862Z</time></trkpt><trkpt lat="43.4154636" lon="11.0956"><ele>236.0</ele><time>2026-03-30T15:53:11.783Z</time></trkpt><trkpt lat="43.4153818" lon="11.0955449"><ele>235.49999999999997</ele><time>2026-03-30T15:53:12.789Z</time></trkpt><trkpt lat="43.4153073" lon="11.0954726"><ele>235.0</ele><time>2026-03-30T15:53:13.858Z</time></trkpt><trkpt lat="43.4152386" lon="11.0954077"><ele>234.16666666666666</ele><time>2026-03-30T15:53:14.867Z</time></trkpt><trkpt lat="43.4151541" lon="11.0953401"><ele>233.33333333333331</ele><time>2026-03-30T15:53:15.87Z</time></trkpt><trkpt lat="43.415066" lon="11.0952762"><ele>232.5</ele><time>2026-03-30T15:53:16.793Z</time></trkpt><trkpt lat="43.4149937" lon="11.0952271"><ele>231.66666666666669</ele><time>2026-03-30T15:53:17.792Z</time></trkpt><trkpt lat="43.4149256" lon="11.0951799"><ele>230.83333333333334</ele><time>2026-03-30T15:53:18.788Z</time></trkpt><trkpt lat="43.4148544" lon="11.0951322"><ele>230.0</ele><time>2026-03-30T15:53:19.801Z</time></trkpt><trkpt lat="43.4147829" lon="11.0950845"><ele>229.99999999999997</ele><time>2026-03-30T15:53:20.813Z</time></trkpt><trkpt lat="43.4147103" lon="11.0950363"><ele>230.0</ele><time>2026-03-30T15:53:21.795Z</time></trkpt><trkpt lat="43.4146392" lon="11.0949899"><ele>229.99999999999997</ele><time>2026-03-30T15:53:22.775Z</time></trkpt><trkpt lat="43.4145741" lon="11.0949419"><ele>229.99999999999997</ele><time>2026-03-30T15:53:23.809Z</time></trkpt><trkpt lat="43.4145124" lon="11.0949047"><ele>230.0</ele><time>2026-03-30T15:53:24.87Z</time></trkpt><trkpt lat="43.414454" lon="11.0948643"><ele>229.99999999999997</ele><time>2026-03-30T15:53:25.863Z</time></trkpt><trkpt lat="43.4143927" lon="11.0948155"><ele>229.99999999999997</ele><time>2026-03-30T15:53:26.793Z</time></trkpt><trkpt lat="43.4143297" lon="11.094764"><ele>230.2</ele><time>2026-03-30T15:53:27.791Z</time></trkpt><trkpt lat="43.414274" lon="11.0947224"><ele>230.4</ele><time>2026-03-30T15:53:28.777Z</time></trkpt><trkpt lat="43.4141776" lon="11.0946528"><ele>230.60000000000002</ele><time>2026-03-30T15:53:30.789Z</time></trkpt><trkpt lat="43.4140905" lon="11.0945853"><ele>230.8</ele><time>2026-03-30T15:53:32.792Z</time></trkpt><trkpt lat="43.4140057" lon="11.094518"><ele>231.0</ele><time>2026-03-30T15:53:34.789Z</time></trkpt><trkpt lat="43.413917" lon="11.0944568"><ele>231.0</ele><time>2026-03-30T15:53:36.813Z</time></trkpt><trkpt lat="43.4138383" lon="11.0943996"><ele>231.0</ele><time>2026-03-30T15:53:38.807Z</time></trkpt><trkpt lat="43.413772" lon="11.094352"><ele>231.0</ele><time>2026-03-30T15:53:40.797Z</time></trkpt><trkpt lat="43.4137033" lon="11.0942984"><ele>231.0</ele><time>2026-03-30T15:53:42.804Z</time></trkpt><trkpt lat="43.4136364" lon="11.0942577"><ele>231.0</ele><time>2026-03-30T15:53:44.851Z</time></trkpt><trkpt lat="43.4135731" lon="11.0942223"><ele>231.0</ele><time>2026-03-30T15:53:46.8Z</time></trkpt><trkpt lat="43.4135025" lon="11.0941572"><ele>231.5</ele><time>2026-03-30T15:53:48.873Z</time></trkpt><trkpt lat="43.4134388" lon="11.0941048"><ele>232.0</ele><time>2026-03-30T15:53:50.797Z</time></trkpt><trkpt lat="43.4133761" lon="11.0940568"><ele>232.5</ele><time>2026-03-30T15:53:52.804Z</time></trkpt><trkpt lat="43.4133063" lon="11.0940164"><ele>233.0</ele><time>2026-03-30T15:53:54.864Z</time></trkpt><trkpt lat="43.4132309" lon="11.0939548"><ele>233.5</ele><time>2026-03-30T15:53:56.786Z</time></trkpt><trkpt lat="43.4131522" lon="11.0938503"><ele>234.0</ele><time>2026-03-30T15:53:59.872Z</time></trkpt><trkpt lat="43.4130812" lon="11.0938327"><ele>234.0</ele><time>2026-03-30T15:54:01.786Z</time></trkpt><trkpt lat="43.4130008" lon="11.0937794"><ele>234.0</ele><time>2026-03-30T15:54:03.794Z</time></trkpt><trkpt lat="43.412929" lon="11.0937279"><ele>234.0</ele><time>2026-03-30T15:54:05.8Z</time></trkpt><trkpt lat="43.4128538" lon="11.0936722"><ele>234.0</ele><time>2026-03-30T15:54:07.791Z</time></trkpt><trkpt lat="43.4127782" lon="11.093617"><ele>234.0</ele><time>2026-03-30T15:54:09.789Z</time></trkpt><trkpt lat="43.4127219" lon="11.0935661"><ele>234.0</ele><time>2026-03-30T15:54:11.803Z</time></trkpt><trkpt lat="43.4126437" lon="11.0935217"><ele>234.2</ele><time>2026-03-30T15:54:13.778Z</time></trkpt><trkpt lat="43.4125566" lon="11.0934666"><ele>234.39999999999998</ele><time>2026-03-30T15:54:15.801Z</time></trkpt><trkpt lat="43.4124824" lon="11.0934126"><ele>234.6</ele><time>2026-03-30T15:54:17.799Z</time></trkpt><trkpt lat="43.412403" lon="11.093357"><ele>234.8</ele><time>2026-03-30T15:54:19.798Z</time></trkpt><trkpt lat="43.4122776" lon="11.0932455"><ele>235.0</ele><time>2026-03-30T15:54:22.791Z</time></trkpt><trkpt lat="43.4122012" lon="11.0931979"><ele>235.6</ele><time>2026-03-30T15:54:24.785Z</time></trkpt><trkpt lat="43.4121331" lon="11.0931624"><ele>236.2</ele><time>2026-03-30T15:54:26.795Z</time></trkpt><trkpt lat="43.4120453" lon="11.093094"><ele>236.8</ele><time>2026-03-30T15:54:28.794Z</time></trkpt><trkpt lat="43.4119514" lon="11.093034"><ele>237.4</ele><time>2026-03-30T15:54:30.871Z</time></trkpt><trkpt lat="43.4118619" lon="11.0929565"><ele>238.0</ele><time>2026-03-30T15:54:32.797Z</time></trkpt><trkpt lat="43.4117782" lon="11.0929049"><ele>238.0</ele><time>2026-03-30T15:54:34.867Z</time></trkpt><trkpt lat="43.4116143" lon="11.0927507"><ele>238.0</ele><time>2026-03-30T15:54:38.852Z</time></trkpt><trkpt lat="43.4115285" lon="11.0926964"><ele>238.0</ele><time>2026-03-30T15:54:41.785Z</time></trkpt><trkpt lat="43.4114282" lon="11.0926678"><ele>238.0</ele><time>2026-03-30T15:54:43.809Z</time></trkpt><trkpt lat="43.4113415" lon="11.0927526"><ele>237.0</ele><time>2026-03-30T15:54:45.854Z</time></trkpt><trkpt lat="43.411295" lon="11.092879"><ele>236.0</ele><time>2026-03-30T15:54:47.79Z</time></trkpt><trkpt lat="43.4112477" lon="11.0930195"><ele>235.0</ele><time>2026-03-30T15:54:49.796Z</time></trkpt><trkpt lat="43.4111965" lon="11.0931686"><ele>234.0</ele><time>2026-03-30T15:54:51.798Z</time></trkpt><trkpt lat="43.4111444" lon="11.0933109"><ele>234.0</ele><time>2026-03-30T15:54:53.806Z</time></trkpt><trkpt lat="43.4110976" lon="11.0934534"><ele>233.99999999999997</ele><time>2026-03-30T15:54:55.79Z</time></trkpt><trkpt lat="43.4110548" lon="11.0935893"><ele>233.99999999999997</ele><time>2026-03-30T15:54:57.792Z</time></trkpt><trkpt lat="43.4110055" lon="11.0937162"><ele>234.0</ele><time>2026-03-30T15:54:59.798Z</time></trkpt><trkpt lat="43.4109678" lon="11.0938363"><ele>234.0</ele><time>2026-03-30T15:55:01.805Z</time></trkpt><trkpt lat="43.410936" lon="11.0939385"><ele>234.0</ele><time>2026-03-30T15:55:03.777Z</time></trkpt><trkpt lat="43.4108963" lon="11.0940327"><ele>234.0</ele><time>2026-03-30T15:55:05.855Z</time></trkpt><trkpt lat="43.4108472" lon="11.094145"><ele>234.0</ele><time>2026-03-30T15:55:07.803Z</time></trkpt><trkpt lat="43.4108096" lon="11.0942471"><ele>234.0</ele><time>2026-03-30T15:55:09.809Z</time></trkpt><trkpt lat="43.4107617" lon="11.0943473"><ele>234.0</ele><time>2026-03-30T15:55:11.807Z</time></trkpt><trkpt lat="43.4106943" lon="11.0944504"><ele>234.0</ele><time>2026-03-30T15:55:13.856Z</time></trkpt><trkpt lat="43.4106197" lon="11.0945639"><ele>233.85714285714286</ele><time>2026-03-30T15:55:15.856Z</time></trkpt><trkpt lat="43.4105822" lon="11.0946349"><ele>233.71428571428572</ele><time>2026-03-30T15:55:16.788Z</time></trkpt><trkpt lat="43.4105445" lon="11.0947048"><ele>233.57142857142858</ele><time>2026-03-30T15:55:17.787Z</time></trkpt><trkpt lat="43.4104991" lon="11.0947677"><ele>233.42857142857144</ele><time>2026-03-30T15:55:18.859Z</time></trkpt><trkpt lat="43.4104495" lon="11.0948445"><ele>233.28571428571428</ele><time>2026-03-30T15:55:19.855Z</time></trkpt><trkpt lat="43.4104137" lon="11.0949369"><ele>233.14285714285717</ele><time>2026-03-30T15:55:20.831Z</time></trkpt><trkpt lat="43.4103794" lon="11.095035"><ele>233.0</ele><time>2026-03-30T15:55:21.775Z</time></trkpt><trkpt lat="43.410347" lon="11.0951407"><ele>233.33333333333334</ele><time>2026-03-30T15:55:22.818Z</time></trkpt><trkpt lat="43.4103191" lon="11.0952504"><ele>233.66666666666669</ele><time>2026-03-30T15:55:23.855Z</time></trkpt><trkpt lat="43.4102995" lon="11.0953667"><ele>234.0</ele><time>2026-03-30T15:55:24.859Z</time></trkpt><trkpt lat="43.4102627" lon="11.0954775"><ele>234.33333333333331</ele><time>2026-03-30T15:55:25.858Z</time></trkpt><trkpt lat="43.4102351" lon="11.0955863"><ele>234.66666666666666</ele><time>2026-03-30T15:55:26.777Z</time></trkpt><trkpt lat="43.4102295" lon="11.0956866"><ele>235.0</ele><time>2026-03-30T15:55:27.808Z</time></trkpt><trkpt lat="43.4102453" lon="11.0957888"><ele>235.6</ele><time>2026-03-30T15:55:28.87Z</time></trkpt><trkpt lat="43.4102804" lon="11.095942"><ele>236.2</ele><time>2026-03-30T15:55:30.869Z</time></trkpt><trkpt lat="43.4103007" lon="11.0960268"><ele>236.8</ele><time>2026-03-30T15:55:31.792Z</time></trkpt><trkpt lat="43.41033" lon="11.0961664"><ele>237.4</ele><time>2026-03-30T15:55:33.859Z</time></trkpt><trkpt lat="43.4103472" lon="11.0962919"><ele>238.0</ele><time>2026-03-30T15:55:35.858Z</time></trkpt><trkpt lat="43.4103568" lon="11.0964216"><ele>238.0</ele><time>2026-03-30T15:55:37.801Z</time></trkpt><trkpt lat="43.4103759" lon="11.0965508"><ele>238.0</ele><time>2026-03-30T15:55:39.797Z</time></trkpt><trkpt lat="43.4103927" lon="11.0966887"><ele>238.0</ele><time>2026-03-30T15:55:41.805Z</time></trkpt><trkpt lat="43.4104121" lon="11.0968133"><ele>238.0</ele><time>2026-03-30T15:55:43.863Z</time></trkpt><trkpt lat="43.4104224" lon="11.0969357"><ele>238.0</ele><time>2026-03-30T15:55:45.793Z</time></trkpt><trkpt lat="43.4104075" lon="11.0970402"><ele>237.83333333333331</ele><time>2026-03-30T15:55:47.801Z</time></trkpt><trkpt lat="43.4103828" lon="11.0971342"><ele>237.66666666666666</ele><time>2026-03-30T15:55:49.79Z</time></trkpt><trkpt lat="43.4103466" lon="11.0972403"><ele>237.5</ele><time>2026-03-30T15:55:51.8Z</time></trkpt><trkpt lat="43.41031" lon="11.0973562"><ele>237.33333333333331</ele><time>2026-03-30T15:55:53.877Z</time></trkpt><trkpt lat="43.4102783" lon="11.0974576"><ele>237.16666666666666</ele><time>2026-03-30T15:55:55.793Z</time></trkpt><trkpt lat="43.4102578" lon="11.0975718"><ele>237.0</ele><time>2026-03-30T15:55:58.775Z</time></trkpt><trkpt lat="43.4101957" lon="11.0977313"><ele>236.8</ele><time>2026-03-30T15:56:00.859Z</time></trkpt><trkpt lat="43.4101727" lon="11.0978141"><ele>236.6</ele><time>2026-03-30T15:56:01.803Z</time></trkpt><trkpt lat="43.4101243" lon="11.097942"><ele>236.40000000000003</ele><time>2026-03-30T15:56:03.869Z</time></trkpt><trkpt lat="43.4100798" lon="11.0980855"><ele>236.20000000000002</ele><time>2026-03-30T15:56:05.809Z</time></trkpt><trkpt lat="43.4100337" lon="11.0982159"><ele>236.0</ele><time>2026-03-30T15:56:07.804Z</time></trkpt><trkpt lat="43.4099913" lon="11.0983489"><ele>235.20000000000002</ele><time>2026-03-30T15:56:09.856Z</time></trkpt><trkpt lat="43.4099497" lon="11.0984803"><ele>234.40000000000003</ele><time>2026-03-30T15:56:11.799Z</time></trkpt><trkpt lat="43.4099145" lon="11.0986262"><ele>233.6</ele><time>2026-03-30T15:56:13.797Z</time></trkpt><trkpt lat="43.4098785" lon="11.0987742"><ele>232.8</ele><time>2026-03-30T15:56:15.804Z</time></trkpt><trkpt lat="43.4098489" lon="11.0989231"><ele>232.0</ele><time>2026-03-30T15:56:17.797Z</time></trkpt><trkpt lat="43.4098324" lon="11.0990667"><ele>231.6</ele><time>2026-03-30T15:56:19.865Z</time></trkpt><trkpt lat="43.4098442" lon="11.0992365"><ele>231.2</ele><time>2026-03-30T15:56:21.803Z</time></trkpt><trkpt lat="43.4098592" lon="11.0993291"><ele>230.8</ele><time>2026-03-30T15:56:23.804Z</time></trkpt><trkpt lat="43.4098797" lon="11.0994673"><ele>230.4</ele><time>2026-03-30T15:56:25.795Z</time></trkpt><trkpt lat="43.4098802" lon="11.0996005"><ele>230.0</ele><time>2026-03-30T15:56:27.791Z</time></trkpt><trkpt lat="43.4098141" lon="11.0996231"><ele>230.0</ele><time>2026-03-30T15:56:29.804Z</time></trkpt><trkpt lat="43.4097405" lon="11.0996068"><ele>230.0</ele><time>2026-03-30T15:56:30.792Z</time></trkpt><trkpt lat="43.4096276" lon="11.0995932"><ele>230.0</ele><time>2026-03-30T15:56:32.793Z</time></trkpt><trkpt lat="43.4095319" lon="11.0995831"><ele>230.0</ele><time>2026-03-30T15:56:34.799Z</time></trkpt><trkpt lat="43.4094462" lon="11.0995558"><ele>230.0</ele><time>2026-03-30T15:56:36.791Z</time></trkpt><trkpt lat="43.4093529" lon="11.0995585"><ele>230.83333333333334</ele><time>2026-03-30T15:56:39.859Z</time></trkpt><trkpt lat="43.4092727" lon="11.0995745"><ele>231.66666666666669</ele><time>2026-03-30T15:56:41.792Z</time></trkpt><trkpt lat="43.4091938" lon="11.099581"><ele>232.5</ele><time>2026-03-30T15:56:43.856Z</time></trkpt><trkpt lat="43.4091213" lon="11.0995651"><ele>233.33333333333331</ele><time>2026-03-30T15:56:45.796Z</time></trkpt><trkpt lat="43.4090579" lon="11.0995498"><ele>234.16666666666666</ele><time>2026-03-30T15:56:47.789Z</time></trkpt><trkpt lat="43.4089949" lon="11.0995463"><ele>235.0</ele><time>2026-03-30T15:56:49.854Z</time></trkpt><trkpt lat="43.4089436" lon="11.0996564"><ele>235.0</ele><time>2026-03-30T15:56:52.788Z</time></trkpt><trkpt lat="43.4089394" lon="11.0997704"><ele>235.0</ele><time>2026-03-30T15:56:54.865Z</time></trkpt><trkpt lat="43.4089221" lon="11.0998922"><ele>235.0</ele><time>2026-03-30T15:56:56.785Z</time></trkpt><trkpt lat="43.4089139" lon="11.1000203"><ele>235.0</ele><time>2026-03-30T15:56:58.79Z</time></trkpt><trkpt lat="43.408921" lon="11.10015"><ele>235.0</ele><time>2026-03-30T15:57:00.806Z</time></trkpt><trkpt lat="43.4088957" lon="11.1002832"><ele>234.8</ele><time>2026-03-30T15:57:02.794Z</time></trkpt><trkpt lat="43.4088639" lon="11.1004129"><ele>234.6</ele><time>2026-03-30T15:57:04.857Z</time></trkpt><trkpt lat="43.408824" lon="11.1005411"><ele>234.39999999999998</ele><time>2026-03-30T15:57:06.804Z</time></trkpt><trkpt lat="43.4087876" lon="11.1006857"><ele>234.2</ele><time>2026-03-30T15:57:08.794Z</time></trkpt><trkpt lat="43.4087567" lon="11.1008306"><ele>234.0</ele><time>2026-03-30T15:57:10.795Z</time></trkpt><trkpt lat="43.4087369" lon="11.1009781"><ele>233.79999999999998</ele><time>2026-03-30T15:57:12.795Z</time></trkpt><trkpt lat="43.4087078" lon="11.1011216"><ele>233.59999999999997</ele><time>2026-03-30T15:57:14.799Z</time></trkpt><trkpt lat="43.4086778" lon="11.1012582"><ele>233.4</ele><time>2026-03-30T15:57:16.794Z</time></trkpt><trkpt lat="43.4086604" lon="11.1013982"><ele>233.2</ele><time>2026-03-30T15:57:18.794Z</time></trkpt><trkpt lat="43.4086465" lon="11.1015333"><ele>233.0</ele><time>2026-03-30T15:57:20.8Z</time></trkpt><trkpt lat="43.4086416" lon="11.1016718"><ele>232.8</ele><time>2026-03-30T15:57:22.791Z</time></trkpt><trkpt lat="43.4086509" lon="11.1018032"><ele>232.60000000000002</ele><time>2026-03-30T15:57:24.798Z</time></trkpt><trkpt lat="43.4086723" lon="11.1019101"><ele>232.39999999999998</ele><time>2026-03-30T15:57:26.786Z</time></trkpt><trkpt lat="43.4086681" lon="11.1020356"><ele>232.2</ele><time>2026-03-30T15:57:28.86Z</time></trkpt><trkpt lat="43.4086528" lon="11.1021732"><ele>232.0</ele><time>2026-03-30T15:57:30.885Z</time></trkpt><trkpt lat="43.4086771" lon="11.1023463"><ele>232.0</ele><time>2026-03-30T15:57:32.792Z</time></trkpt><trkpt lat="43.4086404" lon="11.1024957"><ele>232.0</ele><time>2026-03-30T15:57:34.871Z</time></trkpt><trkpt lat="43.408605" lon="11.1026447"><ele>232.0</ele><time>2026-03-30T15:57:36.794Z</time></trkpt><trkpt lat="43.4085641" lon="11.1027499"><ele>232.0</ele><time>2026-03-30T15:57:38.807Z</time></trkpt><trkpt lat="43.4085169" lon="11.1028696"><ele>232.0</ele><time>2026-03-30T15:57:40.859Z</time></trkpt><trkpt lat="43.4084749" lon="11.1030117"><ele>232.0</ele><time>2026-03-30T15:57:42.795Z</time></trkpt><trkpt lat="43.4084297" lon="11.1031486"><ele>232.0</ele><time>2026-03-30T15:57:44.806Z</time></trkpt><trkpt lat="43.4083997" lon="11.1032812"><ele>232.0</ele><time>2026-03-30T15:57:46.791Z</time></trkpt><trkpt lat="43.408369" lon="11.1034144"><ele>232.0</ele><time>2026-03-30T15:57:48.8Z</time></trkpt><trkpt lat="43.4083438" lon="11.1035409"><ele>232.0</ele><time>2026-03-30T15:57:50.855Z</time></trkpt><trkpt lat="43.4083145" lon="11.1036839"><ele>232.0</ele><time>2026-03-30T15:57:52.788Z</time></trkpt><trkpt lat="43.4082808" lon="11.1038158"><ele>232.0</ele><time>2026-03-30T15:57:54.796Z</time></trkpt><trkpt lat="43.4082492" lon="11.1039389"><ele>232.0</ele><time>2026-03-30T15:57:56.794Z</time></trkpt><trkpt lat="43.4082132" lon="11.1040661"><ele>232.0</ele><time>2026-03-30T15:57:58.86Z</time></trkpt><trkpt lat="43.4081772" lon="11.1041962"><ele>232.0</ele><time>2026-03-30T15:58:00.862Z</time></trkpt><trkpt lat="43.408147" lon="11.104338"><ele>232.0</ele><time>2026-03-30T15:58:02.797Z</time></trkpt><trkpt lat="43.4081131" lon="11.10448"><ele>232.0</ele><time>2026-03-30T15:58:04.797Z</time></trkpt><trkpt lat="43.4080759" lon="11.1046154"><ele>232.0</ele><time>2026-03-30T15:58:06.793Z</time></trkpt><trkpt lat="43.408019" lon="11.1047443"><ele>232.0</ele><time>2026-03-30T15:58:08.871Z</time></trkpt><trkpt lat="43.407955" lon="11.1048681"><ele>232.0</ele><time>2026-03-30T15:58:10.859Z</time></trkpt><trkpt lat="43.407878" lon="11.1049727"><ele>231.75</ele><time>2026-03-30T15:58:12.79Z</time></trkpt><trkpt lat="43.4077931" lon="11.1050789"><ele>231.5</ele><time>2026-03-30T15:58:14.801Z</time></trkpt><trkpt lat="43.4077178" lon="11.1051993"><ele>231.25</ele><time>2026-03-30T15:58:16.789Z</time></trkpt><trkpt lat="43.4076468" lon="11.1053227"><ele>231.0</ele><time>2026-03-30T15:58:18.863Z</time></trkpt><trkpt lat="43.4075462" lon="11.1054206"><ele>231.0</ele><time>2026-03-30T15:58:20.787Z</time></trkpt><trkpt lat="43.4074553" lon="11.1055148"><ele>231.0</ele><time>2026-03-30T15:58:22.789Z</time></trkpt><trkpt lat="43.4073691" lon="11.1056232"><ele>231.0</ele><time>2026-03-30T15:58:24.799Z</time></trkpt><trkpt lat="43.407279" lon="11.1057332"><ele>231.0</ele><time>2026-03-30T15:58:26.781Z</time></trkpt><trkpt lat="43.4071917" lon="11.1058348"><ele>231.0</ele><time>2026-03-30T15:58:28.798Z</time></trkpt><trkpt lat="43.4071105" lon="11.1059454"><ele>231.0</ele><time>2026-03-30T15:58:30.794Z</time></trkpt><trkpt lat="43.407031" lon="11.1060564"><ele>231.0</ele><time>2026-03-30T15:58:32.797Z</time></trkpt><trkpt lat="43.4069496" lon="11.1061606"><ele>231.0</ele><time>2026-03-30T15:58:34.787Z</time></trkpt><trkpt lat="43.4068883" lon="11.1062924"><ele>231.0</ele><time>2026-03-30T15:58:36.781Z</time></trkpt><trkpt lat="43.4068517" lon="11.106445"><ele>231.00000000000003</ele><time>2026-03-30T15:58:38.879Z</time></trkpt><trkpt lat="43.4068152" lon="11.1065829"><ele>231.00000000000003</ele><time>2026-03-30T15:58:40.791Z</time></trkpt><trkpt lat="43.4068046" lon="11.1067252"><ele>231.0</ele><time>2026-03-30T15:58:42.802Z</time></trkpt><trkpt lat="43.4067719" lon="11.1068833"><ele>231.0</ele><time>2026-03-30T15:58:44.867Z</time></trkpt><trkpt lat="43.4067492" lon="11.1070304"><ele>230.5</ele><time>2026-03-30T15:58:46.835Z</time></trkpt><trkpt lat="43.4067272" lon="11.1071851"><ele>230.0</ele><time>2026-03-30T15:58:48.876Z</time></trkpt><trkpt lat="43.4066924" lon="11.1073253"><ele>229.5</ele><time>2026-03-30T15:58:50.798Z</time></trkpt><trkpt lat="43.4066741" lon="11.1074884"><ele>229.0</ele><time>2026-03-30T15:58:52.807Z</time></trkpt><trkpt lat="43.4066534" lon="11.107651"><ele>228.83333333333331</ele><time>2026-03-30T15:58:54.86Z</time></trkpt><trkpt lat="43.4066347" lon="11.1078218"><ele>228.66666666666666</ele><time>2026-03-30T15:58:56.796Z</time></trkpt><trkpt lat="43.406632" lon="11.1079091"><ele>228.5</ele><time>2026-03-30T15:58:57.802Z</time></trkpt><trkpt lat="43.4066314" lon="11.107996"><ele>228.33333333333331</ele><time>2026-03-30T15:58:58.799Z</time></trkpt><trkpt lat="43.4066293" lon="11.108083"><ele>228.16666666666666</ele><time>2026-03-30T15:58:59.784Z</time></trkpt><trkpt lat="43.4066294" lon="11.1081722"><ele>228.0</ele><time>2026-03-30T15:59:00.795Z</time></trkpt><trkpt lat="43.4066335" lon="11.1083437"><ele>227.8</ele><time>2026-03-30T15:59:02.793Z</time></trkpt><trkpt lat="43.4066337" lon="11.1085108"><ele>227.60000000000002</ele><time>2026-03-30T15:59:04.862Z</time></trkpt><trkpt lat="43.4066388" lon="11.1086001"><ele>227.39999999999998</ele><time>2026-03-30T15:59:05.799Z</time></trkpt><trkpt lat="43.4066441" lon="11.1086878"><ele>227.2</ele><time>2026-03-30T15:59:06.804Z</time></trkpt><trkpt lat="43.4066234" lon="11.108846"><ele>227.0</ele><time>2026-03-30T15:59:08.783Z</time></trkpt><trkpt lat="43.4066091" lon="11.1090068"><ele>227.0</ele><time>2026-03-30T15:59:10.806Z</time></trkpt><trkpt lat="43.4065969" lon="11.1091617"><ele>227.0</ele><time>2026-03-30T15:59:12.777Z</time></trkpt><trkpt lat="43.4065848" lon="11.1093212"><ele>227.0</ele><time>2026-03-30T15:59:14.801Z</time></trkpt><trkpt lat="43.4065848" lon="11.1094747"><ele>227.0</ele><time>2026-03-30T15:59:16.785Z</time></trkpt><trkpt lat="43.4065865" lon="11.1096217"><ele>227.0</ele><time>2026-03-30T15:59:18.8Z</time></trkpt><trkpt lat="43.4065749" lon="11.1097669"><ele>227.33333333333334</ele><time>2026-03-30T15:59:20.875Z</time></trkpt><trkpt lat="43.4065634" lon="11.1099133"><ele>227.66666666666669</ele><time>2026-03-30T15:59:22.794Z</time></trkpt><trkpt lat="43.4065617" lon="11.110063"><ele>228.0</ele><time>2026-03-30T15:59:24.868Z</time></trkpt><trkpt lat="43.4065623" lon="11.110207"><ele>228.33333333333331</ele><time>2026-03-30T15:59:26.78Z</time></trkpt><trkpt lat="43.40658" lon="11.1102914"><ele>228.66666666666666</ele><time>2026-03-30T15:59:27.794Z</time></trkpt><trkpt lat="43.4065855" lon="11.1103804"><ele>229.0</ele><time>2026-03-30T15:59:28.801Z</time></trkpt><trkpt lat="43.4066015" lon="11.1104644"><ele>228.99999999999997</ele><time>2026-03-30T15:59:29.851Z</time></trkpt><trkpt lat="43.4066295" lon="11.1106282"><ele>229.0</ele><time>2026-03-30T15:59:31.793Z</time></trkpt><trkpt lat="43.4066427" lon="11.1107141"><ele>229.0</ele><time>2026-03-30T15:59:32.774Z</time></trkpt><trkpt lat="43.4066575" lon="11.110808"><ele>229.0</ele><time>2026-03-30T15:59:33.807Z</time></trkpt><trkpt lat="43.406666" lon="11.1109013"><ele>228.99999999999997</ele><time>2026-03-30T15:59:34.778Z</time></trkpt><trkpt lat="43.4066722" lon="11.1109892"><ele>229.0</ele><time>2026-03-30T15:59:35.88Z</time></trkpt><trkpt lat="43.4067013" lon="11.1111492"><ele>228.5</ele><time>2026-03-30T15:59:37.793Z</time></trkpt><trkpt lat="43.4067326" lon="11.1113004"><ele>228.0</ele><time>2026-03-30T15:59:39.864Z</time></trkpt><trkpt lat="43.406757" lon="11.1114562"><ele>227.5</ele><time>2026-03-30T15:59:41.802Z</time></trkpt><trkpt lat="43.4067999" lon="11.1116074"><ele>227.0</ele><time>2026-03-30T15:59:43.778Z</time></trkpt><trkpt lat="43.4068418" lon="11.1117658"><ele>226.5</ele><time>2026-03-30T15:59:45.806Z</time></trkpt><trkpt lat="43.4068705" lon="11.1119283"><ele>226.0</ele><time>2026-03-30T15:59:47.802Z</time></trkpt><trkpt lat="43.4069115" lon="11.1120884"><ele>225.5</ele><time>2026-03-30T15:59:49.788Z</time></trkpt><trkpt lat="43.4069579" lon="11.1122433"><ele>225.0</ele><time>2026-03-30T15:59:51.778Z</time></trkpt><trkpt lat="43.4070035" lon="11.1123914"><ele>224.8</ele><time>2026-03-30T15:59:53.843Z</time></trkpt><trkpt lat="43.4070499" lon="11.1125461"><ele>224.6</ele><time>2026-03-30T15:59:55.805Z</time></trkpt><trkpt lat="43.407105" lon="11.1126973"><ele>224.39999999999998</ele><time>2026-03-30T15:59:57.794Z</time></trkpt><trkpt lat="43.4071646" lon="11.112847"><ele>224.2</ele><time>2026-03-30T15:59:59.8Z</time></trkpt><trkpt lat="43.4071963" lon="11.1129276"><ele>224.0</ele><time>2026-03-30T16:00:00.791Z</time></trkpt><trkpt lat="43.40725" lon="11.1130778"><ele>224.6</ele><time>2026-03-30T16:00:02.805Z</time></trkpt><trkpt lat="43.4072751" lon="11.1131575"><ele>225.2</ele><time>2026-03-30T16:00:03.806Z</time></trkpt><trkpt lat="43.4073274" lon="11.1133062"><ele>225.79999999999998</ele><time>2026-03-30T16:00:05.804Z</time></trkpt><trkpt lat="43.4073834" lon="11.1134502"><ele>226.39999999999998</ele><time>2026-03-30T16:00:07.802Z</time></trkpt><trkpt lat="43.4074157" lon="11.1135271"><ele>227.0</ele><time>2026-03-30T16:00:08.795Z</time></trkpt><trkpt lat="43.4074792" lon="11.1136754"><ele>227.0</ele><time>2026-03-30T16:00:10.795Z</time></trkpt><trkpt lat="43.407514" lon="11.1137492"><ele>227.0</ele><time>2026-03-30T16:00:11.809Z</time></trkpt><trkpt lat="43.4075871" lon="11.1138877"><ele>227.0</ele><time>2026-03-30T16:00:13.818Z</time></trkpt><trkpt lat="43.4076591" lon="11.1140167"><ele>227.0</ele><time>2026-03-30T16:00:15.795Z</time></trkpt><trkpt lat="43.4077026" lon="11.1140796"><ele>227.0</ele><time>2026-03-30T16:00:16.802Z</time></trkpt><trkpt lat="43.407776" lon="11.114227"><ele>226.33333333333334</ele><time>2026-03-30T16:00:18.821Z</time></trkpt><trkpt lat="43.4078435" lon="11.1143777"><ele>225.66666666666669</ele><time>2026-03-30T16:00:20.778Z</time></trkpt><trkpt lat="43.4078723" lon="11.1144633"><ele>225.0</ele><time>2026-03-30T16:00:21.779Z</time></trkpt><trkpt lat="43.4079001" lon="11.1145483"><ele>224.33333333333331</ele><time>2026-03-30T16:00:22.803Z</time></trkpt><trkpt lat="43.4079289" lon="11.1146382"><ele>223.66666666666666</ele><time>2026-03-30T16:00:23.801Z</time></trkpt><trkpt lat="43.4079555" lon="11.1147324"><ele>223.0</ele><time>2026-03-30T16:00:24.8Z</time></trkpt><trkpt lat="43.4079841" lon="11.1148255"><ele>222.66666666666666</ele><time>2026-03-30T16:00:25.8Z</time></trkpt><trkpt lat="43.408015" lon="11.1149219"><ele>222.33333333333331</ele><time>2026-03-30T16:00:26.794Z</time></trkpt><trkpt lat="43.4080511" lon="11.1150172"><ele>222.0</ele><time>2026-03-30T16:00:27.797Z</time></trkpt><trkpt lat="43.4080937" lon="11.1151133"><ele>221.66666666666669</ele><time>2026-03-30T16:00:28.796Z</time></trkpt><trkpt lat="43.4081419" lon="11.1152054"><ele>221.33333333333334</ele><time>2026-03-30T16:00:29.799Z</time></trkpt><trkpt lat="43.408186" lon="11.1152978"><ele>221.0</ele><time>2026-03-30T16:00:30.802Z</time></trkpt><trkpt lat="43.408226" lon="11.1153907"><ele>221.00000000000003</ele><time>2026-03-30T16:00:31.801Z</time></trkpt><trkpt lat="43.4082674" lon="11.1154784"><ele>221.0</ele><time>2026-03-30T16:00:32.798Z</time></trkpt><trkpt lat="43.4083041" lon="11.115565"><ele>221.0</ele><time>2026-03-30T16:00:33.797Z</time></trkpt><trkpt lat="43.4083361" lon="11.115653"><ele>221.0</ele><time>2026-03-30T16:00:34.799Z</time></trkpt><trkpt lat="43.4083655" lon="11.1157376"><ele>221.00000000000003</ele><time>2026-03-30T16:00:35.783Z</time></trkpt><trkpt lat="43.4084235" lon="11.1158883"><ele>221.0</ele><time>2026-03-30T16:00:37.801Z</time></trkpt><trkpt lat="43.4084574" lon="11.1160324"><ele>220.5</ele><time>2026-03-30T16:00:39.791Z</time></trkpt><trkpt lat="43.4084633" lon="11.1161827"><ele>220.0</ele><time>2026-03-30T16:00:41.803Z</time></trkpt><trkpt lat="43.4084818" lon="11.1163446"><ele>219.5</ele><time>2026-03-30T16:00:43.793Z</time></trkpt><trkpt lat="43.4085013" lon="11.116507"><ele>219.0</ele><time>2026-03-30T16:00:45.813Z</time></trkpt><trkpt lat="43.4084895" lon="11.116662"><ele>219.0</ele><time>2026-03-30T16:00:47.795Z</time></trkpt><trkpt lat="43.408428" lon="11.1167619"><ele>218.99999999999997</ele><time>2026-03-30T16:00:49.81Z</time></trkpt><trkpt lat="43.4083418" lon="11.1168225"><ele>218.99999999999997</ele><time>2026-03-30T16:00:51.795Z</time></trkpt><trkpt lat="43.4082479" lon="11.1169147"><ele>219.0</ele><time>2026-03-30T16:00:53.792Z</time></trkpt><trkpt lat="43.4081483" lon="11.1170162"><ele>219.0</ele><time>2026-03-30T16:00:55.809Z</time></trkpt><trkpt lat="43.4080658" lon="11.1171314"><ele>219.0</ele><time>2026-03-30T16:00:57.802Z</time></trkpt><trkpt lat="43.4080045" lon="11.1172628"><ele>219.0</ele><time>2026-03-30T16:00:59.807Z</time></trkpt><trkpt lat="43.4079522" lon="11.1174047"><ele>219.0</ele><time>2026-03-30T16:01:01.792Z</time></trkpt><trkpt lat="43.4078823" lon="11.117535"><ele>219.0</ele><time>2026-03-30T16:01:03.794Z</time></trkpt><trkpt lat="43.4078226" lon="11.1176724"><ele>217.75</ele><time>2026-03-30T16:01:05.806Z</time></trkpt><trkpt lat="43.407759" lon="11.117802"><ele>216.5</ele><time>2026-03-30T16:01:07.798Z</time></trkpt><trkpt lat="43.4076958" lon="11.117936"><ele>215.25</ele><time>2026-03-30T16:01:09.79Z</time></trkpt><trkpt lat="43.4076327" lon="11.1180652"><ele>214.0</ele><time>2026-03-30T16:01:11.789Z</time></trkpt><trkpt lat="43.4075725" lon="11.1182079"><ele>214.0</ele><time>2026-03-30T16:01:13.799Z</time></trkpt><trkpt lat="43.4075064" lon="11.1183458"><ele>214.0</ele><time>2026-03-30T16:01:15.775Z</time></trkpt><trkpt lat="43.4074448" lon="11.118493"><ele>214.0</ele><time>2026-03-30T16:01:17.805Z</time></trkpt><trkpt lat="43.4073766" lon="11.1186336"><ele>214.0</ele><time>2026-03-30T16:01:19.796Z</time></trkpt><trkpt lat="43.4073028" lon="11.1187636"><ele>214.0</ele><time>2026-03-30T16:01:21.802Z</time></trkpt><trkpt lat="43.4072285" lon="11.1188972"><ele>213.99999999999997</ele><time>2026-03-30T16:01:23.799Z</time></trkpt><trkpt lat="43.40717" lon="11.1190465"><ele>213.99999999999997</ele><time>2026-03-30T16:01:25.792Z</time></trkpt><trkpt lat="43.4071211" lon="11.1192058"><ele>214.0</ele><time>2026-03-30T16:01:27.805Z</time></trkpt><trkpt lat="43.407098" lon="11.1192872"><ele>214.0</ele><time>2026-03-30T16:01:28.797Z</time></trkpt><trkpt lat="43.4070557" lon="11.119446"><ele>213.25</ele><time>2026-03-30T16:01:30.794Z</time></trkpt><trkpt lat="43.4070118" lon="11.1196062"><ele>212.5</ele><time>2026-03-30T16:01:32.799Z</time></trkpt><trkpt lat="43.406967" lon="11.1197599"><ele>211.75</ele><time>2026-03-30T16:01:34.8Z</time></trkpt><trkpt lat="43.406921" lon="11.1199154"><ele>211.0</ele><time>2026-03-30T16:01:36.798Z</time></trkpt><trkpt lat="43.4068782" lon="11.1200681"><ele>211.0</ele><time>2026-03-30T16:01:38.886Z</time></trkpt><trkpt lat="43.406837" lon="11.1202179"><ele>211.0</ele><time>2026-03-30T16:01:40.805Z</time></trkpt><trkpt lat="43.4067941" lon="11.1203609"><ele>211.0</ele><time>2026-03-30T16:01:42.793Z</time></trkpt><trkpt lat="43.4067438" lon="11.1204957"><ele>211.0</ele><time>2026-03-30T16:01:44.868Z</time></trkpt><trkpt lat="43.4067145" lon="11.1205726"><ele>211.0</ele><time>2026-03-30T16:01:45.793Z</time></trkpt><trkpt lat="43.4066494" lon="11.1208658"><ele>211.16666666666666</ele><time>2026-03-30T16:01:48.766Z</time></trkpt><trkpt lat="43.4066472" lon="11.1209793"><ele>211.33333333333331</ele><time>2026-03-30T16:01:50.846Z</time></trkpt><trkpt lat="43.4066088" lon="11.121071"><ele>211.5</ele><time>2026-03-30T16:01:52.785Z</time></trkpt><trkpt lat="43.4065646" lon="11.1211775"><ele>211.66666666666669</ele><time>2026-03-30T16:01:54.777Z</time></trkpt><trkpt lat="43.4065292" lon="11.1212952"><ele>211.83333333333334</ele><time>2026-03-30T16:01:56.792Z</time></trkpt><trkpt lat="43.406513" lon="11.121388"><ele>212.0</ele><time>2026-03-30T16:01:57.795Z</time></trkpt><trkpt lat="43.4064754" lon="11.1215447"><ele>211.83333333333334</ele><time>2026-03-30T16:01:59.792Z</time></trkpt><trkpt lat="43.4064378" lon="11.1217037"><ele>211.66666666666669</ele><time>2026-03-30T16:02:01.79Z</time></trkpt><trkpt lat="43.4064168" lon="11.1217857"><ele>211.5</ele><time>2026-03-30T16:02:02.802Z</time></trkpt><trkpt lat="43.406397" lon="11.1218689"><ele>211.33333333333331</ele><time>2026-03-30T16:02:03.861Z</time></trkpt><trkpt lat="43.4063742" lon="11.1219517"><ele>211.16666666666666</ele><time>2026-03-30T16:02:04.802Z</time></trkpt><trkpt lat="43.406353" lon="11.1220364"><ele>211.0</ele><time>2026-03-30T16:02:05.793Z</time></trkpt><trkpt lat="43.4063083" lon="11.1221988"><ele>210.57142857142858</ele><time>2026-03-30T16:02:07.801Z</time></trkpt><trkpt lat="43.4062865" lon="11.1222922"><ele>210.14285714285717</ele><time>2026-03-30T16:02:08.789Z</time></trkpt><trkpt lat="43.4062653" lon="11.1223843"><ele>209.71428571428572</ele><time>2026-03-30T16:02:09.795Z</time></trkpt><trkpt lat="43.4062446" lon="11.1224816"><ele>209.28571428571428</ele><time>2026-03-30T16:02:10.867Z</time></trkpt><trkpt lat="43.4062232" lon="11.1225777"><ele>208.85714285714286</ele><time>2026-03-30T16:02:11.792Z</time></trkpt><trkpt lat="43.4062069" lon="11.1226857"><ele>208.42857142857142</ele><time>2026-03-30T16:02:12.8Z</time></trkpt><trkpt lat="43.4061847" lon="11.1227799"><ele>208.0</ele><time>2026-03-30T16:02:13.809Z</time></trkpt><trkpt lat="43.4061643" lon="11.1228791"><ele>207.99999999999997</ele><time>2026-03-30T16:02:14.78Z</time></trkpt><trkpt lat="43.4061438" lon="11.1229748"><ele>208.0</ele><time>2026-03-30T16:02:15.801Z</time></trkpt><trkpt lat="43.4061128" lon="11.1230697"><ele>208.0</ele><time>2026-03-30T16:02:16.807Z</time></trkpt><trkpt lat="43.4060833" lon="11.1231655"><ele>208.0</ele><time>2026-03-30T16:02:17.809Z</time></trkpt><trkpt lat="43.4060517" lon="11.1232587"><ele>207.99999999999997</ele><time>2026-03-30T16:02:18.784Z</time></trkpt><trkpt lat="43.4060213" lon="11.1233523"><ele>208.0</ele><time>2026-03-30T16:02:19.798Z</time></trkpt><trkpt lat="43.4059915" lon="11.1234555"><ele>207.99999999999997</ele><time>2026-03-30T16:02:20.792Z</time></trkpt><trkpt lat="43.4059626" lon="11.1235628"><ele>208.0</ele><time>2026-03-30T16:02:21.859Z</time></trkpt><trkpt lat="43.4059442" lon="11.12366"><ele>208.0</ele><time>2026-03-30T16:02:22.788Z</time></trkpt><trkpt lat="43.4059063" lon="11.1238248"><ele>208.0</ele><time>2026-03-30T16:02:24.802Z</time></trkpt><trkpt lat="43.4058818" lon="11.1239173"><ele>207.99999999999997</ele><time>2026-03-30T16:02:25.862Z</time></trkpt><trkpt lat="43.4058598" lon="11.1240077"><ele>208.0</ele><time>2026-03-30T16:02:26.781Z</time></trkpt><trkpt lat="43.4058377" lon="11.1241037"><ele>207.83333333333331</ele><time>2026-03-30T16:02:27.808Z</time></trkpt><trkpt lat="43.4058167" lon="11.1242042"><ele>207.66666666666666</ele><time>2026-03-30T16:02:28.876Z</time></trkpt><trkpt lat="43.4057938" lon="11.1243025"><ele>207.5</ele><time>2026-03-30T16:02:29.857Z</time></trkpt><trkpt lat="43.405773" lon="11.1244038"><ele>207.33333333333331</ele><time>2026-03-30T16:02:30.861Z</time></trkpt><trkpt lat="43.4057512" lon="11.1245095"><ele>207.16666666666666</ele><time>2026-03-30T16:02:31.791Z</time></trkpt><trkpt lat="43.4057316" lon="11.1246138"><ele>207.0</ele><time>2026-03-30T16:02:32.811Z</time></trkpt><trkpt lat="43.4057147" lon="11.1247166"><ele>207.0</ele><time>2026-03-30T16:02:33.794Z</time></trkpt><trkpt lat="43.4056941" lon="11.1248189"><ele>207.0</ele><time>2026-03-30T16:02:34.802Z</time></trkpt><trkpt lat="43.4056738" lon="11.1249195"><ele>207.0</ele><time>2026-03-30T16:02:35.864Z</time></trkpt><trkpt lat="43.4056541" lon="11.1250219"><ele>207.0</ele><time>2026-03-30T16:02:36.794Z</time></trkpt><trkpt lat="43.4056353" lon="11.1251256"><ele>207.0</ele><time>2026-03-30T16:02:37.814Z</time></trkpt><trkpt lat="43.4056191" lon="11.1252319"><ele>207.0</ele><time>2026-03-30T16:02:38.801Z</time></trkpt><trkpt lat="43.4056057" lon="11.1253328"><ele>207.14285714285717</ele><time>2026-03-30T16:02:39.791Z</time></trkpt><trkpt lat="43.4055921" lon="11.1254338"><ele>207.28571428571428</ele><time>2026-03-30T16:02:40.883Z</time></trkpt><trkpt lat="43.4055817" lon="11.1255429"><ele>207.42857142857144</ele><time>2026-03-30T16:02:41.784Z</time></trkpt><trkpt lat="43.4055698" lon="11.1256546"><ele>207.57142857142858</ele><time>2026-03-30T16:02:42.817Z</time></trkpt><trkpt lat="43.4055586" lon="11.125749"><ele>207.71428571428572</ele><time>2026-03-30T16:02:43.8Z</time></trkpt><trkpt lat="43.4055426" lon="11.1258447"><ele>207.85714285714286</ele><time>2026-03-30T16:02:44.793Z</time></trkpt><trkpt lat="43.4055277" lon="11.1259351"><ele>208.0</ele><time>2026-03-30T16:02:45.807Z</time></trkpt><trkpt lat="43.4055124" lon="11.1260329"><ele>208.0</ele><time>2026-03-30T16:02:46.797Z</time></trkpt><trkpt lat="43.4054946" lon="11.1261246"><ele>208.0</ele><time>2026-03-30T16:02:47.792Z</time></trkpt><trkpt lat="43.405478" lon="11.1262165"><ele>208.0</ele><time>2026-03-30T16:02:48.811Z</time></trkpt><trkpt lat="43.4054637" lon="11.1263114"><ele>208.0</ele><time>2026-03-30T16:02:49.777Z</time></trkpt><trkpt lat="43.4054522" lon="11.1263984"><ele>208.0</ele><time>2026-03-30T16:02:50.78Z</time></trkpt><trkpt lat="43.4054383" lon="11.126486"><ele>208.0</ele><time>2026-03-30T16:02:51.813Z</time></trkpt><trkpt lat="43.4054281" lon="11.1265729"><ele>208.0</ele><time>2026-03-30T16:02:52.806Z</time></trkpt><trkpt lat="43.4054281" lon="11.1266602"><ele>207.83333333333331</ele><time>2026-03-30T16:02:53.812Z</time></trkpt><trkpt lat="43.4054495" lon="11.1267481"><ele>207.66666666666666</ele><time>2026-03-30T16:02:54.804Z</time></trkpt><trkpt lat="43.405491" lon="11.1268312"><ele>207.5</ele><time>2026-03-30T16:02:55.783Z</time></trkpt><trkpt lat="43.4055469" lon="11.1268883"><ele>207.33333333333331</ele><time>2026-03-30T16:02:56.794Z</time></trkpt><trkpt lat="43.4056699" lon="11.1269175"><ele>207.16666666666666</ele><time>2026-03-30T16:02:58.807Z</time></trkpt><trkpt lat="43.405735" lon="11.1269252"><ele>207.0</ele><time>2026-03-30T16:02:59.803Z</time></trkpt><trkpt lat="43.4058059" lon="11.1269323"><ele>207.00000000000003</ele><time>2026-03-30T16:03:00.805Z</time></trkpt><trkpt lat="43.4058774" lon="11.1269431"><ele>207.0</ele><time>2026-03-30T16:03:01.803Z</time></trkpt><trkpt lat="43.4059476" lon="11.1269537"><ele>207.0</ele><time>2026-03-30T16:03:02.791Z</time></trkpt><trkpt lat="43.4060185" lon="11.1269665"><ele>207.0</ele><time>2026-03-30T16:03:03.797Z</time></trkpt><trkpt lat="43.4060877" lon="11.1269763"><ele>207.0</ele><time>2026-03-30T16:03:04.811Z</time></trkpt><trkpt lat="43.4061555" lon="11.1269852"><ele>207.00000000000003</ele><time>2026-03-30T16:03:05.795Z</time></trkpt><trkpt lat="43.4062254" lon="11.1269955"><ele>207.0</ele><time>2026-03-30T16:03:06.807Z</time></trkpt><trkpt lat="43.406297" lon="11.1270052"><ele>207.00000000000003</ele><time>2026-03-30T16:03:07.779Z</time></trkpt><trkpt lat="43.4063652" lon="11.127018"><ele>207.0</ele><time>2026-03-30T16:03:08.794Z</time></trkpt><trkpt lat="43.4064327" lon="11.1270303"><ele>207.0</ele><time>2026-03-30T16:03:09.797Z</time></trkpt><trkpt lat="43.4065025" lon="11.1270357"><ele>207.0</ele><time>2026-03-30T16:03:10.791Z</time></trkpt><trkpt lat="43.4065717" lon="11.127049"><ele>207.0</ele><time>2026-03-30T16:03:11.803Z</time></trkpt><trkpt lat="43.4066411" lon="11.1270628"><ele>207.00000000000003</ele><time>2026-03-30T16:03:12.814Z</time></trkpt><trkpt lat="43.406708" lon="11.1270786"><ele>207.0</ele><time>2026-03-30T16:03:13.804Z</time></trkpt><trkpt lat="43.4067707" lon="11.1270954"><ele>207.0</ele><time>2026-03-30T16:03:14.865Z</time></trkpt><trkpt lat="43.4068372" lon="11.1271102"><ele>207.0</ele><time>2026-03-30T16:03:15.875Z</time></trkpt><trkpt lat="43.4069552" lon="11.1271525"><ele>207.0</ele><time>2026-03-30T16:03:17.796Z</time></trkpt><trkpt lat="43.4070229" lon="11.1271694"><ele>207.0</ele><time>2026-03-30T16:03:18.866Z</time></trkpt><trkpt lat="43.4070968" lon="11.1271758"><ele>207.0</ele><time>2026-03-30T16:03:19.858Z</time></trkpt><trkpt lat="43.4071654" lon="11.1271955"><ele>207.0</ele><time>2026-03-30T16:03:20.861Z</time></trkpt><trkpt lat="43.407232" lon="11.1272089"><ele>207.0</ele><time>2026-03-30T16:03:21.783Z</time></trkpt><trkpt lat="43.4072944" lon="11.1272235"><ele>207.0</ele><time>2026-03-30T16:03:22.797Z</time></trkpt><trkpt lat="43.4073565" lon="11.1272458"><ele>207.0</ele><time>2026-03-30T16:03:23.797Z</time></trkpt><trkpt lat="43.407417" lon="11.1272701"><ele>207.0</ele><time>2026-03-30T16:03:24.863Z</time></trkpt><trkpt lat="43.4074866" lon="11.127295"><ele>207.0</ele><time>2026-03-30T16:03:25.86Z</time></trkpt><trkpt lat="43.4075541" lon="11.1273132"><ele>207.0</ele><time>2026-03-30T16:03:26.794Z</time></trkpt><trkpt lat="43.4076741" lon="11.1273341"><ele>207.0</ele><time>2026-03-30T16:03:28.791Z</time></trkpt><trkpt lat="43.4077987" lon="11.127375"><ele>207.0</ele><time>2026-03-30T16:03:30.797Z</time></trkpt><trkpt lat="43.4078701" lon="11.1273872"><ele>207.0</ele><time>2026-03-30T16:03:31.796Z</time></trkpt><trkpt lat="43.4079371" lon="11.127414"><ele>207.0</ele><time>2026-03-30T16:03:32.791Z</time></trkpt><trkpt lat="43.4080049" lon="11.1274426"><ele>207.0</ele><time>2026-03-30T16:03:33.794Z</time></trkpt><trkpt lat="43.4080737" lon="11.127467"><ele>207.0</ele><time>2026-03-30T16:03:34.772Z</time></trkpt><trkpt lat="43.4081463" lon="11.1274904"><ele>206.71428571428572</ele><time>2026-03-30T16:03:35.867Z</time></trkpt><trkpt lat="43.4082112" lon="11.1275118"><ele>206.42857142857144</ele><time>2026-03-30T16:03:36.799Z</time></trkpt><trkpt lat="43.4082779" lon="11.1275356"><ele>206.14285714285717</ele><time>2026-03-30T16:03:37.801Z</time></trkpt><trkpt lat="43.4083452" lon="11.1275626"><ele>205.85714285714286</ele><time>2026-03-30T16:03:38.796Z</time></trkpt><trkpt lat="43.4084112" lon="11.1275911"><ele>205.57142857142856</ele><time>2026-03-30T16:03:39.781Z</time></trkpt><trkpt lat="43.4084795" lon="11.127616"><ele>205.2857142857143</ele><time>2026-03-30T16:03:40.797Z</time></trkpt><trkpt lat="43.4085506" lon="11.127646"><ele>205.0</ele><time>2026-03-30T16:03:41.787Z</time></trkpt><trkpt lat="43.4086216" lon="11.1276784"><ele>204.99999999999997</ele><time>2026-03-30T16:03:42.802Z</time></trkpt><trkpt lat="43.4086937" lon="11.1277123"><ele>205.0</ele><time>2026-03-30T16:03:43.806Z</time></trkpt><trkpt lat="43.4087668" lon="11.1277485"><ele>205.0</ele><time>2026-03-30T16:03:44.782Z</time></trkpt><trkpt lat="43.4088374" lon="11.1277897"><ele>205.0</ele><time>2026-03-30T16:03:45.79Z</time></trkpt><trkpt lat="43.4089064" lon="11.1278408"><ele>204.99999999999997</ele><time>2026-03-30T16:03:46.79Z</time></trkpt><trkpt lat="43.4089803" lon="11.1278932"><ele>205.0</ele><time>2026-03-30T16:03:47.794Z</time></trkpt><trkpt lat="43.4090507" lon="11.12795"><ele>204.66666666666666</ele><time>2026-03-30T16:03:48.807Z</time></trkpt><trkpt lat="43.4091251" lon="11.1280091"><ele>204.33333333333331</ele><time>2026-03-30T16:03:49.792Z</time></trkpt><trkpt lat="43.4091996" lon="11.1280674"><ele>204.0</ele><time>2026-03-30T16:03:50.852Z</time></trkpt><trkpt lat="43.4092774" lon="11.1281262"><ele>203.66666666666669</ele><time>2026-03-30T16:03:51.8Z</time></trkpt><trkpt lat="43.4093521" lon="11.1281787"><ele>203.33333333333334</ele><time>2026-03-30T16:03:52.797Z</time></trkpt><trkpt lat="43.4094248" lon="11.1282349"><ele>203.0</ele><time>2026-03-30T16:03:53.807Z</time></trkpt><trkpt lat="43.4094957" lon="11.1282943"><ele>202.0</ele><time>2026-03-30T16:03:54.807Z</time></trkpt><trkpt lat="43.4095597" lon="11.1283586"><ele>201.0</ele><time>2026-03-30T16:03:55.841Z</time></trkpt><trkpt lat="43.4096156" lon="11.1284265"><ele>200.0</ele><time>2026-03-30T16:03:56.797Z</time></trkpt><trkpt lat="43.4096686" lon="11.1284875"><ele>199.0</ele><time>2026-03-30T16:03:57.808Z</time></trkpt><trkpt lat="43.4097517" lon="11.1286083"><ele>198.0</ele><time>2026-03-30T16:03:59.81Z</time></trkpt><trkpt lat="43.4098088" lon="11.1287635"><ele>197.60000000000002</ele><time>2026-03-30T16:04:01.8Z</time></trkpt><trkpt lat="43.4098587" lon="11.1289063"><ele>197.20000000000002</ele><time>2026-03-30T16:04:03.8Z</time></trkpt><trkpt lat="43.4098948" lon="11.129023"><ele>196.8</ele><time>2026-03-30T16:04:05.804Z</time></trkpt><trkpt lat="43.4098802" lon="11.1291361"><ele>196.4</ele><time>2026-03-30T16:04:07.803Z</time></trkpt><trkpt lat="43.409843" lon="11.1292652"><ele>196.0</ele><time>2026-03-30T16:04:09.794Z</time></trkpt><trkpt lat="43.4098306" lon="11.1294063"><ele>195.33333333333331</ele><time>2026-03-30T16:04:11.798Z</time></trkpt><trkpt lat="43.4098399" lon="11.1295606"><ele>194.66666666666666</ele><time>2026-03-30T16:04:13.795Z</time></trkpt><trkpt lat="43.4098777" lon="11.1297137"><ele>194.0</ele><time>2026-03-30T16:04:15.808Z</time></trkpt><trkpt lat="43.4099003" lon="11.1297989"><ele>193.33333333333331</ele><time>2026-03-30T16:04:16.797Z</time></trkpt><trkpt lat="43.4099277" lon="11.129887"><ele>192.66666666666666</ele><time>2026-03-30T16:04:17.792Z</time></trkpt><trkpt lat="43.4099629" lon="11.1299795"><ele>192.0</ele><time>2026-03-30T16:04:18.8Z</time></trkpt><trkpt lat="43.4100081" lon="11.130083"><ele>191.16666666666666</ele><time>2026-03-30T16:04:19.796Z</time></trkpt><trkpt lat="43.4100486" lon="11.1301838"><ele>190.33333333333334</ele><time>2026-03-30T16:04:20.803Z</time></trkpt><trkpt lat="43.4100842" lon="11.1302794"><ele>189.5</ele><time>2026-03-30T16:04:21.798Z</time></trkpt><trkpt lat="43.410118" lon="11.1303752"><ele>188.66666666666669</ele><time>2026-03-30T16:04:22.8Z</time></trkpt><trkpt lat="43.4101502" lon="11.1304697"><ele>187.83333333333334</ele><time>2026-03-30T16:04:23.812Z</time></trkpt><trkpt lat="43.410189" lon="11.1305731"><ele>187.0</ele><time>2026-03-30T16:04:24.796Z</time></trkpt><trkpt lat="43.4102255" lon="11.13068"><ele>185.83333333333334</ele><time>2026-03-30T16:04:25.802Z</time></trkpt><trkpt lat="43.4102583" lon="11.1307889"><ele>184.66666666666669</ele><time>2026-03-30T16:04:26.808Z</time></trkpt><trkpt lat="43.4102972" lon="11.1309037"><ele>183.5</ele><time>2026-03-30T16:04:27.81Z</time></trkpt><trkpt lat="43.4103325" lon="11.1310082"><ele>182.33333333333334</ele><time>2026-03-30T16:04:28.794Z</time></trkpt><trkpt lat="43.4103555" lon="11.1311053"><ele>181.16666666666666</ele><time>2026-03-30T16:04:29.796Z</time></trkpt><trkpt lat="43.4103784" lon="11.131201"><ele>180.0</ele><time>2026-03-30T16:04:30.793Z</time></trkpt><trkpt lat="43.4104129" lon="11.1312932"><ele>180.0</ele><time>2026-03-30T16:04:31.772Z</time></trkpt><trkpt lat="43.4104522" lon="11.1313789"><ele>180.0</ele><time>2026-03-30T16:04:32.804Z</time></trkpt><trkpt lat="43.4104896" lon="11.1314671"><ele>180.0</ele><time>2026-03-30T16:04:33.789Z</time></trkpt><trkpt lat="43.4105266" lon="11.1315743"><ele>180.0</ele><time>2026-03-30T16:04:34.784Z</time></trkpt><trkpt lat="43.4105681" lon="11.1316929"><ele>180.0</ele><time>2026-03-30T16:04:35.784Z</time></trkpt><trkpt lat="43.4106083" lon="11.1318157"><ele>180.0</ele><time>2026-03-30T16:04:36.795Z</time></trkpt><trkpt lat="43.4106477" lon="11.1319435"><ele>178.2</ele><time>2026-03-30T16:04:37.792Z</time></trkpt><trkpt lat="43.4106781" lon="11.1320615"><ele>176.4</ele><time>2026-03-30T16:04:38.795Z</time></trkpt><trkpt lat="43.410707" lon="11.1321755"><ele>174.60000000000002</ele><time>2026-03-30T16:04:39.861Z</time></trkpt><trkpt lat="43.4107429" lon="11.1322859"><ele>172.8</ele><time>2026-03-30T16:04:40.795Z</time></trkpt><trkpt lat="43.4107736" lon="11.1323806"><ele>171.0</ele><time>2026-03-30T16:04:41.792Z</time></trkpt><trkpt lat="43.4107945" lon="11.132571"><ele>170.83333333333334</ele><time>2026-03-30T16:04:43.806Z</time></trkpt><trkpt lat="43.4107943" lon="11.1326616"><ele>170.66666666666666</ele><time>2026-03-30T16:04:44.87Z</time></trkpt><trkpt lat="43.4107687" lon="11.1327487"><ele>170.5</ele><time>2026-03-30T16:04:45.866Z</time></trkpt><trkpt lat="43.410725" lon="11.1328225"><ele>170.33333333333331</ele><time>2026-03-30T16:04:46.795Z</time></trkpt><trkpt lat="43.410663" lon="11.1328651"><ele>170.16666666666666</ele><time>2026-03-30T16:04:47.807Z</time></trkpt><trkpt lat="43.4105461" lon="11.1328964"><ele>170.0</ele><time>2026-03-30T16:04:49.859Z</time></trkpt><trkpt lat="43.4104832" lon="11.1329173"><ele>170.0</ele><time>2026-03-30T16:04:50.787Z</time></trkpt><trkpt lat="43.4104211" lon="11.1329409"><ele>170.0</ele><time>2026-03-30T16:04:51.785Z</time></trkpt><trkpt lat="43.410353" lon="11.1329513"><ele>170.0</ele><time>2026-03-30T16:04:52.786Z</time></trkpt><trkpt lat="43.4102875" lon="11.1329619"><ele>170.0</ele><time>2026-03-30T16:04:53.796Z</time></trkpt><trkpt lat="43.4102229" lon="11.1329627"><ele>170.0</ele><time>2026-03-30T16:04:54.784Z</time></trkpt><trkpt lat="43.4101496" lon="11.1329698"><ele>170.0</ele><time>2026-03-30T16:04:55.814Z</time></trkpt><trkpt lat="43.410082" lon="11.1329864"><ele>170.0</ele><time>2026-03-30T16:04:56.807Z</time></trkpt><trkpt lat="43.4100199" lon="11.1330043"><ele>170.0</ele><time>2026-03-30T16:04:57.801Z</time></trkpt><trkpt lat="43.4099023" lon="11.133042"><ele>170.0</ele><time>2026-03-30T16:04:59.811Z</time></trkpt><trkpt lat="43.4097774" lon="11.1330982"><ele>170.0</ele><time>2026-03-30T16:05:01.781Z</time></trkpt><trkpt lat="43.4097057" lon="11.1331336"><ele>170.0</ele><time>2026-03-30T16:05:02.796Z</time></trkpt><trkpt lat="43.40964" lon="11.1331434"><ele>170.0</ele><time>2026-03-30T16:05:03.777Z</time></trkpt><trkpt lat="43.4095263" lon="11.133149"><ele>170.33333333333331</ele><time>2026-03-30T16:05:05.784Z</time></trkpt><trkpt lat="43.4094024" lon="11.1331604"><ele>170.66666666666666</ele><time>2026-03-30T16:05:07.791Z</time></trkpt><trkpt lat="43.4093317" lon="11.1331673"><ele>171.0</ele><time>2026-03-30T16:05:08.789Z</time></trkpt><trkpt lat="43.4092591" lon="11.133173"><ele>171.33333333333334</ele><time>2026-03-30T16:05:09.855Z</time></trkpt><trkpt lat="43.4091826" lon="11.1331891"><ele>171.66666666666669</ele><time>2026-03-30T16:05:10.871Z</time></trkpt><trkpt lat="43.4091066" lon="11.1332046"><ele>172.0</ele><time>2026-03-30T16:05:11.783Z</time></trkpt><trkpt lat="43.4090252" lon="11.1332193"><ele>171.0</ele><time>2026-03-30T16:05:12.797Z</time></trkpt><trkpt lat="43.408945" lon="11.1332246"><ele>170.0</ele><time>2026-03-30T16:05:13.801Z</time></trkpt><trkpt lat="43.4088647" lon="11.1332305"><ele>169.0</ele><time>2026-03-30T16:05:14.791Z</time></trkpt><trkpt lat="43.4087816" lon="11.1332459"><ele>168.0</ele><time>2026-03-30T16:05:15.79Z</time></trkpt><trkpt lat="43.4086969" lon="11.1332578"><ele>167.0</ele><time>2026-03-30T16:05:16.796Z</time></trkpt><trkpt lat="43.4086077" lon="11.1332724"><ele>166.0</ele><time>2026-03-30T16:05:17.807Z</time></trkpt><trkpt lat="43.4085196" lon="11.1332865"><ele>165.5</ele><time>2026-03-30T16:05:18.79Z</time></trkpt><trkpt lat="43.4084301" lon="11.1333029"><ele>165.0</ele><time>2026-03-30T16:05:19.857Z</time></trkpt><trkpt lat="43.4083394" lon="11.1333177"><ele>164.5</ele><time>2026-03-30T16:05:20.87Z</time></trkpt><trkpt lat="43.4082527" lon="11.1333289"><ele>164.0</ele><time>2026-03-30T16:05:21.78Z</time></trkpt><trkpt lat="43.408163" lon="11.1333339"><ele>163.5</ele><time>2026-03-30T16:05:22.802Z</time></trkpt><trkpt lat="43.4080793" lon="11.1333336"><ele>163.0</ele><time>2026-03-30T16:05:23.789Z</time></trkpt><trkpt lat="43.4079953" lon="11.133331"><ele>163.5</ele><time>2026-03-30T16:05:24.862Z</time></trkpt><trkpt lat="43.407916" lon="11.1333306"><ele>164.0</ele><time>2026-03-30T16:05:25.856Z</time></trkpt><trkpt lat="43.4078381" lon="11.1333327"><ele>164.5</ele><time>2026-03-30T16:05:26.833Z</time></trkpt><trkpt lat="43.4077609" lon="11.1333372"><ele>165.0</ele><time>2026-03-30T16:05:27.795Z</time></trkpt><trkpt lat="43.4076815" lon="11.1333453"><ele>165.5</ele><time>2026-03-30T16:05:28.802Z</time></trkpt><trkpt lat="43.4076045" lon="11.1333559"><ele>166.0</ele><time>2026-03-30T16:05:29.868Z</time></trkpt><trkpt lat="43.4075397" lon="11.1333636"><ele>166.0</ele><time>2026-03-30T16:05:30.862Z</time></trkpt><trkpt lat="43.4074165" lon="11.1333697"><ele>166.0</ele><time>2026-03-30T16:05:32.796Z</time></trkpt><trkpt lat="43.4073524" lon="11.1333965"><ele>166.0</ele><time>2026-03-30T16:05:33.791Z</time></trkpt><trkpt lat="43.407295" lon="11.1334343"><ele>166.0</ele><time>2026-03-30T16:05:34.771Z</time></trkpt><trkpt lat="43.4071841" lon="11.1334924"><ele>166.0</ele><time>2026-03-30T16:05:36.794Z</time></trkpt><trkpt lat="43.4070748" lon="11.1335238"><ele>167.0</ele><time>2026-03-30T16:05:38.795Z</time></trkpt><trkpt lat="43.4069757" lon="11.1335496"><ele>168.0</ele><time>2026-03-30T16:05:40.795Z</time></trkpt><trkpt lat="43.4068851" lon="11.1335776"><ele>169.0</ele><time>2026-03-30T16:05:42.799Z</time></trkpt><trkpt lat="43.4067976" lon="11.1336153"><ele>170.0</ele><time>2026-03-30T16:05:44.795Z</time></trkpt><trkpt lat="43.406708" lon="11.1336469"><ele>171.0</ele><time>2026-03-30T16:05:46.867Z</time></trkpt><trkpt lat="43.4065169" lon="11.1337403"><ele>171.0</ele><time>2026-03-30T16:05:50.783Z</time></trkpt><trkpt lat="43.4064211" lon="11.1337137"><ele>171.0</ele><time>2026-03-30T16:05:53.803Z</time></trkpt><trkpt lat="43.4063342" lon="11.1337255"><ele>171.0</ele><time>2026-03-30T16:05:55.803Z</time></trkpt><trkpt lat="43.4062545" lon="11.1337595"><ele>171.0</ele><time>2026-03-30T16:05:57.801Z</time></trkpt><trkpt lat="43.4061695" lon="11.1337881"><ele>171.0</ele><time>2026-03-30T16:05:59.793Z</time></trkpt><trkpt lat="43.4060834" lon="11.1338051"><ele>171.0</ele><time>2026-03-30T16:06:01.799Z</time></trkpt><trkpt lat="43.4060074" lon="11.1338225"><ele>173.0</ele><time>2026-03-30T16:06:03.792Z</time></trkpt><trkpt lat="43.4059262" lon="11.1338315"><ele>175.0</ele><time>2026-03-30T16:06:05.866Z</time></trkpt><trkpt lat="43.4058453" lon="11.1338533"><ele>177.0</ele><time>2026-03-30T16:06:07.789Z</time></trkpt><trkpt lat="43.405745" lon="11.1338657"><ele>179.0</ele><time>2026-03-30T16:06:09.851Z</time></trkpt><trkpt lat="43.4056327" lon="11.1338566"><ele>181.0</ele><time>2026-03-30T16:06:11.805Z</time></trkpt><trkpt lat="43.4055413" lon="11.1338652"><ele>181.0</ele><time>2026-03-30T16:06:13.796Z</time></trkpt><trkpt lat="43.4054625" lon="11.1338742"><ele>181.0</ele><time>2026-03-30T16:06:15.786Z</time></trkpt><trkpt lat="43.4053813" lon="11.1338812"><ele>181.0</ele><time>2026-03-30T16:06:17.799Z</time></trkpt><trkpt lat="43.4053015" lon="11.1338832"><ele>181.0</ele><time>2026-03-30T16:06:19.785Z</time></trkpt><trkpt lat="43.4052102" lon="11.133889"><ele>181.0</ele><time>2026-03-30T16:06:21.8Z</time></trkpt><trkpt lat="43.4051176" lon="11.1338896"><ele>181.0</ele><time>2026-03-30T16:06:23.793Z</time></trkpt><trkpt lat="43.4050248" lon="11.1338968"><ele>181.0</ele><time>2026-03-30T16:06:25.855Z</time></trkpt><trkpt lat="43.4049237" lon="11.1339135"><ele>181.0</ele><time>2026-03-30T16:06:27.79Z</time></trkpt><trkpt lat="43.4048281" lon="11.1339458"><ele>181.0</ele><time>2026-03-30T16:06:29.8Z</time></trkpt><trkpt lat="43.4047446" lon="11.1339721"><ele>181.0</ele><time>2026-03-30T16:06:31.781Z</time></trkpt><trkpt lat="43.4046561" lon="11.1340095"><ele>181.0</ele><time>2026-03-30T16:06:33.801Z</time></trkpt><trkpt lat="43.4045623" lon="11.1340343"><ele>179.4</ele><time>2026-03-30T16:06:35.789Z</time></trkpt><trkpt lat="43.4044675" lon="11.1340612"><ele>177.8</ele><time>2026-03-30T16:06:37.8Z</time></trkpt><trkpt lat="43.4043787" lon="11.1340894"><ele>176.20000000000002</ele><time>2026-03-30T16:06:39.796Z</time></trkpt><trkpt lat="43.4042814" lon="11.1341158"><ele>174.60000000000002</ele><time>2026-03-30T16:06:41.787Z</time></trkpt><trkpt lat="43.4041889" lon="11.1341456"><ele>173.0</ele><time>2026-03-30T16:06:43.797Z</time></trkpt><trkpt lat="43.4040956" lon="11.1341856"><ele>173.0</ele><time>2026-03-30T16:06:45.796Z</time></trkpt><trkpt lat="43.4040022" lon="11.1342282"><ele>173.0</ele><time>2026-03-30T16:06:47.788Z</time></trkpt><trkpt lat="43.4039141" lon="11.1342534"><ele>173.0</ele><time>2026-03-30T16:06:49.799Z</time></trkpt><trkpt lat="43.403822" lon="11.1342652"><ele>173.0</ele><time>2026-03-30T16:06:51.865Z</time></trkpt><trkpt lat="43.4037385" lon="11.1342939"><ele>173.0</ele><time>2026-03-30T16:06:53.801Z</time></trkpt><trkpt lat="43.4036399" lon="11.1343264"><ele>173.2</ele><time>2026-03-30T16:06:55.839Z</time></trkpt><trkpt lat="43.4035387" lon="11.1343842"><ele>173.4</ele><time>2026-03-30T16:06:57.791Z</time></trkpt><trkpt lat="43.4034262" lon="11.1344452"><ele>173.6</ele><time>2026-03-30T16:06:59.787Z</time></trkpt><trkpt lat="43.4033656" lon="11.1344746"><ele>173.79999999999998</ele><time>2026-03-30T16:07:00.866Z</time></trkpt><trkpt lat="43.4032478" lon="11.1345106"><ele>174.0</ele><time>2026-03-30T16:07:02.834Z</time></trkpt><trkpt lat="43.403143" lon="11.13456"><ele>174.0</ele><time>2026-03-30T16:07:04.796Z</time></trkpt><trkpt lat="43.4031039" lon="11.1347005"><ele>174.0</ele><time>2026-03-30T16:07:06.795Z</time></trkpt><trkpt lat="43.4031284" lon="11.1348587"><ele>174.0</ele><time>2026-03-30T16:07:08.798Z</time></trkpt><trkpt lat="43.4031725" lon="11.1349961"><ele>174.0</ele><time>2026-03-30T16:07:10.861Z</time></trkpt><trkpt lat="43.4031745" lon="11.1351439"><ele>174.0</ele><time>2026-03-30T16:07:12.793Z</time></trkpt><trkpt lat="43.4031404" lon="11.1352968"><ele>174.0</ele><time>2026-03-30T16:07:14.78Z</time></trkpt><trkpt lat="43.4031039" lon="11.1354462"><ele>174.0</ele><time>2026-03-30T16:07:16.777Z</time></trkpt><trkpt lat="43.4030757" lon="11.1355879"><ele>174.0</ele><time>2026-03-30T16:07:18.771Z</time></trkpt><trkpt lat="43.4030845" lon="11.1357048"><ele>174.0</ele><time>2026-03-30T16:07:20.799Z</time></trkpt><trkpt lat="43.4030987" lon="11.1358692"><ele>174.0</ele><time>2026-03-30T16:07:22.78Z</time></trkpt><trkpt lat="43.4031918" lon="11.1359421"><ele>174.0</ele><time>2026-03-30T16:07:24.862Z</time></trkpt><trkpt lat="43.4032561" lon="11.1359607"><ele>174.0</ele><time>2026-03-30T16:07:25.855Z</time></trkpt><trkpt lat="43.4033255" lon="11.1359888"><ele>174.0</ele><time>2026-03-30T16:07:26.858Z</time></trkpt><trkpt lat="43.403393" lon="11.1360103"><ele>174.0</ele><time>2026-03-30T16:07:27.787Z</time></trkpt><trkpt lat="43.4034634" lon="11.1360325"><ele>174.0</ele><time>2026-03-30T16:07:28.789Z</time></trkpt><trkpt lat="43.4035294" lon="11.1360618"><ele>174.0</ele><time>2026-03-30T16:07:29.869Z</time></trkpt><trkpt lat="43.403596" lon="11.1361065"><ele>174.0</ele><time>2026-03-30T16:07:30.802Z</time></trkpt><trkpt lat="43.4036602" lon="11.1361567"><ele>174.0</ele><time>2026-03-30T16:07:31.856Z</time></trkpt><trkpt lat="43.4037154" lon="11.1362025"><ele>174.0</ele><time>2026-03-30T16:07:32.785Z</time></trkpt><trkpt lat="43.4037808" lon="11.1362339"><ele>174.0</ele><time>2026-03-30T16:07:33.788Z</time></trkpt><trkpt lat="43.4038554" lon="11.1362746"><ele>174.0</ele><time>2026-03-30T16:07:34.87Z</time></trkpt><trkpt lat="43.4039307" lon="11.1363151"><ele>174.0</ele><time>2026-03-30T16:07:35.791Z</time></trkpt><trkpt lat="43.4040025" lon="11.1363558"><ele>174.0</ele><time>2026-03-30T16:07:36.862Z</time></trkpt><trkpt lat="43.4040709" lon="11.1364021"><ele>174.0</ele><time>2026-03-30T16:07:37.774Z</time></trkpt><trkpt lat="43.4041444" lon="11.1364469"><ele>173.66666666666666</ele><time>2026-03-30T16:07:38.798Z</time></trkpt><trkpt lat="43.4042161" lon="11.136509"><ele>173.33333333333334</ele><time>2026-03-30T16:07:39.793Z</time></trkpt><trkpt lat="43.4042946" lon="11.1365697"><ele>173.0</ele><time>2026-03-30T16:07:40.863Z</time></trkpt><trkpt lat="43.4043676" lon="11.1366387"><ele>172.66666666666669</ele><time>2026-03-30T16:07:41.855Z</time></trkpt><trkpt lat="43.4044362" lon="11.1367018"><ele>172.33333333333334</ele><time>2026-03-30T16:07:42.791Z</time></trkpt><trkpt lat="43.4045026" lon="11.1367676"><ele>172.0</ele><time>2026-03-30T16:07:43.789Z</time></trkpt><trkpt lat="43.4045542" lon="11.1368385"><ele>172.00000000000003</ele><time>2026-03-30T16:07:44.787Z</time></trkpt><trkpt lat="43.4045995" lon="11.1369154"><ele>172.0</ele><time>2026-03-30T16:07:45.791Z</time></trkpt><trkpt lat="43.4046423" lon="11.1369982"><ele>172.0</ele><time>2026-03-30T16:07:46.791Z</time></trkpt><trkpt lat="43.4046826" lon="11.1370795"><ele>172.0</ele><time>2026-03-30T16:07:47.786Z</time></trkpt><trkpt lat="43.4047195" lon="11.1371527"><ele>172.0</ele><time>2026-03-30T16:07:48.789Z</time></trkpt><trkpt lat="43.4047592" lon="11.1372245"><ele>172.00000000000003</ele><time>2026-03-30T16:07:49.788Z</time></trkpt><trkpt lat="43.404801" lon="11.137296"><ele>172.0</ele><time>2026-03-30T16:07:50.803Z</time></trkpt><trkpt lat="43.4048442" lon="11.1373643"><ele>171.83333333333334</ele><time>2026-03-30T16:07:51.8Z</time></trkpt><trkpt lat="43.4048828" lon="11.1374344"><ele>171.66666666666669</ele><time>2026-03-30T16:07:52.803Z</time></trkpt><trkpt lat="43.4049228" lon="11.1375027"><ele>171.5</ele><time>2026-03-30T16:07:53.798Z</time></trkpt><trkpt lat="43.404998" lon="11.1376391"><ele>171.33333333333334</ele><time>2026-03-30T16:07:55.804Z</time></trkpt><trkpt lat="43.4050359" lon="11.1377092"><ele>171.16666666666666</ele><time>2026-03-30T16:07:56.8Z</time></trkpt><trkpt lat="43.4051129" lon="11.1378419"><ele>171.0</ele><time>2026-03-30T16:07:58.816Z</time></trkpt><trkpt lat="43.4051917" lon="11.1379802"><ele>171.0</ele><time>2026-03-30T16:08:00.808Z</time></trkpt><trkpt lat="43.4052281" lon="11.1380521"><ele>171.0</ele><time>2026-03-30T16:08:01.809Z</time></trkpt><trkpt lat="43.4052666" lon="11.1381219"><ele>171.0</ele><time>2026-03-30T16:08:02.8Z</time></trkpt><trkpt lat="43.4053043" lon="11.1381928"><ele>171.0</ele><time>2026-03-30T16:08:03.802Z</time></trkpt><trkpt lat="43.4053446" lon="11.1382602"><ele>171.0</ele><time>2026-03-30T16:08:04.806Z</time></trkpt><trkpt lat="43.4053881" lon="11.1383276"><ele>171.0</ele><time>2026-03-30T16:08:05.855Z</time></trkpt><trkpt lat="43.4054242" lon="11.1383991"><ele>171.0</ele><time>2026-03-30T16:08:06.831Z</time></trkpt><trkpt lat="43.4054634" lon="11.1384679"><ele>171.0</ele><time>2026-03-30T16:08:07.786Z</time></trkpt><trkpt lat="43.4055055" lon="11.13854"><ele>170.66666666666666</ele><time>2026-03-30T16:08:08.803Z</time></trkpt><trkpt lat="43.4055852" lon="11.1386717"><ele>170.33333333333334</ele><time>2026-03-30T16:08:10.794Z</time></trkpt><trkpt lat="43.4056277" lon="11.1387373"><ele>170.0</ele><time>2026-03-30T16:08:11.79Z</time></trkpt><trkpt lat="43.4056691" lon="11.1388103"><ele>169.66666666666669</ele><time>2026-03-30T16:08:12.789Z</time></trkpt><trkpt lat="43.4057135" lon="11.1388837"><ele>169.33333333333334</ele><time>2026-03-30T16:08:13.796Z</time></trkpt><trkpt lat="43.4057584" lon="11.1389572"><ele>169.0</ele><time>2026-03-30T16:08:14.886Z</time></trkpt><trkpt lat="43.4058005" lon="11.1390304"><ele>169.0</ele><time>2026-03-30T16:08:15.857Z</time></trkpt><trkpt lat="43.405843" lon="11.1391011"><ele>169.0</ele><time>2026-03-30T16:08:16.783Z</time></trkpt><trkpt lat="43.4058879" lon="11.1391762"><ele>169.0</ele><time>2026-03-30T16:08:17.807Z</time></trkpt><trkpt lat="43.4059309" lon="11.1392447"><ele>169.0</ele><time>2026-03-30T16:08:18.793Z</time></trkpt><trkpt lat="43.4059754" lon="11.1393153"><ele>169.0</ele><time>2026-03-30T16:08:19.786Z</time></trkpt><trkpt lat="43.406019" lon="11.1393889"><ele>169.0</ele><time>2026-03-30T16:08:20.798Z</time></trkpt><trkpt lat="43.4060627" lon="11.1394599"><ele>169.0</ele><time>2026-03-30T16:08:21.859Z</time></trkpt><trkpt lat="43.4061382" lon="11.139586"><ele>169.0</ele><time>2026-03-30T16:08:23.786Z</time></trkpt><trkpt lat="43.4061865" lon="11.1396631"><ele>169.0</ele><time>2026-03-30T16:08:24.793Z</time></trkpt><trkpt lat="43.406232" lon="11.1397462"><ele>169.0</ele><time>2026-03-30T16:08:25.788Z</time></trkpt><trkpt lat="43.4062778" lon="11.1398254"><ele>169.0</ele><time>2026-03-30T16:08:26.8Z</time></trkpt><trkpt lat="43.4063253" lon="11.1399029"><ele>169.0</ele><time>2026-03-30T16:08:27.796Z</time></trkpt><trkpt lat="43.4063715" lon="11.139977"><ele>169.0</ele><time>2026-03-30T16:08:28.789Z</time></trkpt><trkpt lat="43.4064175" lon="11.1400482"><ele>169.0</ele><time>2026-03-30T16:08:29.789Z</time></trkpt><trkpt lat="43.4064617" lon="11.1401188"><ele>169.0</ele><time>2026-03-30T16:08:30.801Z</time></trkpt><trkpt lat="43.4065015" lon="11.1401897"><ele>169.0</ele><time>2026-03-30T16:08:31.798Z</time></trkpt><trkpt lat="43.4065394" lon="11.1402637"><ele>169.0</ele><time>2026-03-30T16:08:32.79Z</time></trkpt><trkpt lat="43.4065733" lon="11.1403402"><ele>169.0</ele><time>2026-03-30T16:08:33.783Z</time></trkpt><trkpt lat="43.4066007" lon="11.1404208"><ele>169.0</ele><time>2026-03-30T16:08:34.805Z</time></trkpt><trkpt lat="43.4066436" lon="11.1405785"><ele>169.0</ele><time>2026-03-30T16:08:36.871Z</time></trkpt><trkpt lat="43.4066823" lon="11.1407381"><ele>169.0</ele><time>2026-03-30T16:08:38.789Z</time></trkpt><trkpt lat="43.406714" lon="11.1408965"><ele>169.0</ele><time>2026-03-30T16:08:40.805Z</time></trkpt><trkpt lat="43.4067482" lon="11.1410594"><ele>169.0</ele><time>2026-03-30T16:08:42.781Z</time></trkpt><trkpt lat="43.4067924" lon="11.141219"><ele>169.0</ele><time>2026-03-30T16:08:44.874Z</time></trkpt><trkpt lat="43.4068124" lon="11.1413023"><ele>169.0</ele><time>2026-03-30T16:08:45.856Z</time></trkpt><trkpt lat="43.4068478" lon="11.1414662"><ele>169.5</ele><time>2026-03-30T16:08:47.802Z</time></trkpt><trkpt lat="43.4068667" lon="11.1415489"><ele>170.0</ele><time>2026-03-30T16:08:48.796Z</time></trkpt><trkpt lat="43.4068862" lon="11.1416324"><ele>170.5</ele><time>2026-03-30T16:08:49.801Z</time></trkpt><trkpt lat="43.4069065" lon="11.1417153"><ele>171.0</ele><time>2026-03-30T16:08:50.804Z</time></trkpt><trkpt lat="43.4069292" lon="11.1417967"><ele>171.5</ele><time>2026-03-30T16:08:51.86Z</time></trkpt><trkpt lat="43.4069543" lon="11.1418841"><ele>172.0</ele><time>2026-03-30T16:08:52.803Z</time></trkpt><trkpt lat="43.4070738" lon="11.1420886"><ele>172.0</ele><time>2026-03-30T16:08:55.856Z</time></trkpt><trkpt lat="43.4071145" lon="11.1422454"><ele>172.0</ele><time>2026-03-30T16:08:57.804Z</time></trkpt><trkpt lat="43.4071208" lon="11.142339"><ele>172.0</ele><time>2026-03-30T16:08:58.802Z</time></trkpt><trkpt lat="43.4071328" lon="11.1424919"><ele>172.0</ele><time>2026-03-30T16:09:00.804Z</time></trkpt><trkpt lat="43.4071688" lon="11.1426361"><ele>172.0</ele><time>2026-03-30T16:09:02.8Z</time></trkpt><trkpt lat="43.4072173" lon="11.1427676"><ele>172.2</ele><time>2026-03-30T16:09:04.783Z</time></trkpt><trkpt lat="43.4072838" lon="11.1428869"><ele>172.39999999999998</ele><time>2026-03-30T16:09:06.795Z</time></trkpt><trkpt lat="43.4073562" lon="11.1429879"><ele>172.60000000000002</ele><time>2026-03-30T16:09:08.793Z</time></trkpt><trkpt lat="43.4074355" lon="11.143065"><ele>172.8</ele><time>2026-03-30T16:09:10.793Z</time></trkpt><trkpt lat="43.4075187" lon="11.1431203"><ele>173.0</ele><time>2026-03-30T16:09:12.805Z</time></trkpt><trkpt lat="43.4076051" lon="11.1431532"><ele>173.0</ele><time>2026-03-30T16:09:14.802Z</time></trkpt><trkpt lat="43.4076818" lon="11.143197"><ele>173.0</ele><time>2026-03-30T16:09:16.797Z</time></trkpt><trkpt lat="43.4077533" lon="11.1432239"><ele>173.0</ele><time>2026-03-30T16:09:18.802Z</time></trkpt><trkpt lat="43.4078286" lon="11.1432331"><ele>173.0</ele><time>2026-03-30T16:09:20.791Z</time></trkpt><trkpt lat="43.407899" lon="11.143242"><ele>173.0</ele><time>2026-03-30T16:09:22.797Z</time></trkpt><trkpt lat="43.4079691" lon="11.1432449"><ele>173.0</ele><time>2026-03-30T16:09:24.807Z</time></trkpt><trkpt lat="43.4080362" lon="11.1432431"><ele>173.0</ele><time>2026-03-30T16:09:26.796Z</time></trkpt><trkpt lat="43.4081007" lon="11.1432379"><ele>173.66666666666666</ele><time>2026-03-30T16:09:28.8Z</time></trkpt><trkpt lat="43.4081648" lon="11.1432314"><ele>174.33333333333331</ele><time>2026-03-30T16:09:30.79Z</time></trkpt><trkpt lat="43.4082535" lon="11.1432326"><ele>175.0</ele><time>2026-03-30T16:09:33.789Z</time></trkpt><trkpt lat="43.4083428" lon="11.1432525"><ele>175.66666666666666</ele><time>2026-03-30T16:09:36.869Z</time></trkpt><trkpt lat="43.4084222" lon="11.1432904"><ele>176.33333333333334</ele><time>2026-03-30T16:09:39.858Z</time></trkpt><trkpt lat="43.4084992" lon="11.1433344"><ele>177.0</ele><time>2026-03-30T16:09:42.783Z</time></trkpt><trkpt lat="43.4085681" lon="11.1433958"><ele>177.0</ele><time>2026-03-30T16:09:45.81Z</time></trkpt><trkpt lat="43.4086212" lon="11.1434652"><ele>177.0</ele><time>2026-03-30T16:09:48.811Z</time></trkpt><trkpt lat="43.4086629" lon="11.1435427"><ele>177.0</ele><time>2026-03-30T16:09:51.793Z</time></trkpt><trkpt lat="43.4086996" lon="11.1436222"><ele>177.0</ele><time>2026-03-30T16:09:54.801Z</time></trkpt><trkpt lat="43.4087397" lon="11.1436938"><ele>177.0</ele><time>2026-03-30T16:09:57.805Z</time></trkpt><trkpt lat="43.4087755" lon="11.1437655"><ele>177.0</ele><time>2026-03-30T16:10:00.796Z</time></trkpt><trkpt lat="43.4088159" lon="11.1438352"><ele>177.0</ele><time>2026-03-30T16:10:03.798Z</time></trkpt><trkpt lat="43.408858" lon="11.1439362"><ele>177.0</ele><time>2026-03-30T16:10:07.795Z</time></trkpt><trkpt lat="43.4088926" lon="11.1440154"><ele>177.0</ele><time>2026-03-30T16:10:10.802Z</time></trkpt><trkpt lat="43.4089233" lon="11.1440912"><ele>177.0</ele><time>2026-03-30T16:10:13.802Z</time></trkpt><trkpt lat="43.4089596" lon="11.1441887"><ele>177.0</ele><time>2026-03-30T16:10:17.796Z</time></trkpt><trkpt lat="43.4089927" lon="11.1442897"><ele>177.0</ele><time>2026-03-30T16:10:21.795Z</time></trkpt><trkpt lat="43.4090232" lon="11.1443706"><ele>177.0</ele><time>2026-03-30T16:10:24.792Z</time></trkpt><trkpt lat="43.4090623" lon="11.1444702"><ele>177.0</ele><time>2026-03-30T16:10:28.804Z</time></trkpt><trkpt lat="43.4090971" lon="11.1445643"><ele>178.2857142857143</ele><time>2026-03-30T16:10:32.799Z</time></trkpt><trkpt lat="43.4091325" lon="11.144655"><ele>179.57142857142856</ele><time>2026-03-30T16:10:36.793Z</time></trkpt><trkpt lat="43.4091814" lon="11.1447292"><ele>180.85714285714286</ele><time>2026-03-30T16:10:40.806Z</time></trkpt><trkpt lat="43.4092412" lon="11.144758"><ele>182.14285714285717</ele><time>2026-03-30T16:10:44.797Z</time></trkpt><trkpt lat="43.4093056" lon="11.1447999"><ele>183.42857142857144</ele><time>2026-03-30T16:10:48.801Z</time></trkpt><trkpt lat="43.4093806" lon="11.1448132"><ele>184.71428571428572</ele><time>2026-03-30T16:10:52.805Z</time></trkpt><trkpt lat="43.4094428" lon="11.1448402"><ele>186.0</ele><time>2026-03-30T16:10:55.798Z</time></trkpt><trkpt lat="43.4095094" lon="11.1448548"><ele>186.00000000000003</ele><time>2026-03-30T16:10:58.794Z</time></trkpt><trkpt lat="43.4095723" lon="11.1448698"><ele>186.0</ele><time>2026-03-30T16:11:01.793Z</time></trkpt><trkpt lat="43.4096416" lon="11.1448995"><ele>186.0</ele><time>2026-03-30T16:11:04.794Z</time></trkpt><trkpt lat="43.4097101" lon="11.1449153"><ele>186.0</ele><time>2026-03-30T16:11:07.796Z</time></trkpt><trkpt lat="43.4097719" lon="11.1449435"><ele>186.0</ele><time>2026-03-30T16:11:10.791Z</time></trkpt><trkpt lat="43.4098335" lon="11.1449709"><ele>186.00000000000003</ele><time>2026-03-30T16:11:13.789Z</time></trkpt><trkpt lat="43.4099099" lon="11.1450066"><ele>186.0</ele><time>2026-03-30T16:11:17.793Z</time></trkpt><trkpt lat="43.4099717" lon="11.145042"><ele>187.42857142857144</ele><time>2026-03-30T16:11:20.8Z</time></trkpt><trkpt lat="43.4100343" lon="11.1450751"><ele>188.85714285714286</ele><time>2026-03-30T16:11:23.808Z</time></trkpt><trkpt lat="43.4100905" lon="11.1451549"><ele>190.28571428571428</ele><time>2026-03-30T16:11:26.789Z</time></trkpt><trkpt lat="43.4101599" lon="11.1451954"><ele>191.71428571428572</ele><time>2026-03-30T16:11:30.797Z</time></trkpt><trkpt lat="43.4102241" lon="11.1452007"><ele>193.14285714285714</ele><time>2026-03-30T16:11:34.797Z</time></trkpt><trkpt lat="43.4102856" lon="11.1452245"><ele>194.57142857142858</ele><time>2026-03-30T16:11:38.789Z</time></trkpt><trkpt lat="43.4103338" lon="11.145301"><ele>196.0</ele><time>2026-03-30T16:11:42.794Z</time></trkpt><trkpt lat="43.4104095" lon="11.1453313"><ele>196.0</ele><time>2026-03-30T16:11:46.788Z</time></trkpt><trkpt lat="43.4104674" lon="11.1453757"><ele>196.0</ele><time>2026-03-30T16:11:49.787Z</time></trkpt><trkpt lat="43.4105369" lon="11.1454084"><ele>196.0</ele><time>2026-03-30T16:11:52.8Z</time></trkpt><trkpt lat="43.4106054" lon="11.1454334"><ele>196.0</ele><time>2026-03-30T16:11:55.789Z</time></trkpt><trkpt lat="43.4106842" lon="11.1454697"><ele>196.0</ele><time>2026-03-30T16:11:58.773Z</time></trkpt><trkpt lat="43.4107511" lon="11.1455055"><ele>196.0</ele><time>2026-03-30T16:12:01.856Z</time></trkpt><trkpt lat="43.4108243" lon="11.1455475"><ele>196.0</ele><time>2026-03-30T16:12:04.871Z</time></trkpt><trkpt lat="43.4108907" lon="11.1455867"><ele>195.99999999999997</ele><time>2026-03-30T16:12:07.773Z</time></trkpt><trkpt lat="43.4109666" lon="11.1456367"><ele>196.0</ele><time>2026-03-30T16:12:10.79Z</time></trkpt><trkpt lat="43.4110146" lon="11.1457067"><ele>196.0</ele><time>2026-03-30T16:12:13.782Z</time></trkpt><trkpt lat="43.411069" lon="11.145772"><ele>196.0</ele><time>2026-03-30T16:12:16.861Z</time></trkpt><trkpt lat="43.4111099" lon="11.1458459"><ele>195.99999999999997</ele><time>2026-03-30T16:12:19.776Z</time></trkpt><trkpt lat="43.4111645" lon="11.1459326"><ele>196.0</ele><time>2026-03-30T16:12:22.835Z</time></trkpt><trkpt lat="43.4111961" lon="11.1460271"><ele>197.42857142857142</ele><time>2026-03-30T16:12:25.789Z</time></trkpt><trkpt lat="43.4112104" lon="11.1461213"><ele>198.85714285714286</ele><time>2026-03-30T16:12:28.779Z</time></trkpt><trkpt lat="43.4112073" lon="11.1462294"><ele>200.28571428571428</ele><time>2026-03-30T16:12:32.795Z</time></trkpt><trkpt lat="43.4111893" lon="11.1463356"><ele>201.71428571428572</ele><time>2026-03-30T16:12:36.807Z</time></trkpt><trkpt lat="43.4111555" lon="11.1464199"><ele>203.14285714285714</ele><time>2026-03-30T16:12:39.78Z</time></trkpt><trkpt lat="43.4111129" lon="11.1465093"><ele>204.57142857142856</ele><time>2026-03-30T16:12:42.775Z</time></trkpt><trkpt lat="43.4110677" lon="11.1465886"><ele>206.0</ele><time>2026-03-30T16:12:45.865Z</time></trkpt><trkpt lat="43.4110283" lon="11.1466691"><ele>206.99999999999997</ele><time>2026-03-30T16:12:48.79Z</time></trkpt><trkpt lat="43.4109909" lon="11.1467439"><ele>208.0</ele><time>2026-03-30T16:12:51.858Z</time></trkpt><trkpt lat="43.4109541" lon="11.1468305"><ele>209.0</ele><time>2026-03-30T16:12:54.866Z</time></trkpt><trkpt lat="43.4109246" lon="11.146911"><ele>210.0</ele><time>2026-03-30T16:12:57.781Z</time></trkpt><trkpt lat="43.4108878" lon="11.1469921"><ele>211.0</ele><time>2026-03-30T16:13:00.786Z</time></trkpt><trkpt lat="43.4108406" lon="11.1470896"><ele>211.99999999999997</ele><time>2026-03-30T16:13:04.777Z</time></trkpt><trkpt lat="43.4108019" lon="11.1471633"><ele>213.0</ele><time>2026-03-30T16:13:07.78Z</time></trkpt><trkpt lat="43.4107698" lon="11.1472433"><ele>212.99999999999997</ele><time>2026-03-30T16:13:10.786Z</time></trkpt><trkpt lat="43.4107457" lon="11.1473324"><ele>213.0</ele><time>2026-03-30T16:13:13.801Z</time></trkpt><trkpt lat="43.4107088" lon="11.1474296"><ele>213.0</ele><time>2026-03-30T16:13:17.797Z</time></trkpt><trkpt lat="43.4106976" lon="11.1475223"><ele>213.0</ele><time>2026-03-30T16:13:20.796Z</time></trkpt><trkpt lat="43.4106985" lon="11.1476153"><ele>213.0</ele><time>2026-03-30T16:13:23.795Z</time></trkpt><trkpt lat="43.4107138" lon="11.1477037"><ele>212.99999999999997</ele><time>2026-03-30T16:13:26.864Z</time></trkpt><trkpt lat="43.4107407" lon="11.1477995"><ele>213.0</ele><time>2026-03-30T16:13:29.799Z</time></trkpt><trkpt lat="43.4107946" lon="11.1478759"><ele>213.57142857142856</ele><time>2026-03-30T16:13:32.792Z</time></trkpt><trkpt lat="43.4108513" lon="11.1479171"><ele>214.14285714285714</ele><time>2026-03-30T16:13:35.793Z</time></trkpt><trkpt lat="43.4109144" lon="11.147953"><ele>214.71428571428572</ele><time>2026-03-30T16:13:38.803Z</time></trkpt><trkpt lat="43.4109745" lon="11.1479926"><ele>215.28571428571428</ele><time>2026-03-30T16:13:41.778Z</time></trkpt><trkpt lat="43.4110486" lon="11.1480418"><ele>215.85714285714286</ele><time>2026-03-30T16:13:44.78Z</time></trkpt><trkpt lat="43.411128" lon="11.1480788"><ele>216.42857142857142</ele><time>2026-03-30T16:13:47.79Z</time></trkpt><trkpt lat="43.4111843" lon="11.1481394"><ele>217.0</ele><time>2026-03-30T16:13:50.793Z</time></trkpt><trkpt lat="43.4112536" lon="11.1481905"><ele>217.99999999999997</ele><time>2026-03-30T16:13:53.782Z</time></trkpt><trkpt lat="43.4113281" lon="11.1482294"><ele>219.0</ele><time>2026-03-30T16:13:56.795Z</time></trkpt><trkpt lat="43.4114001" lon="11.1482754"><ele>220.0</ele><time>2026-03-30T16:13:59.8Z</time></trkpt><trkpt lat="43.4114612" lon="11.1483501"><ele>221.0</ele><time>2026-03-30T16:14:02.789Z</time></trkpt><trkpt lat="43.4115155" lon="11.1484162"><ele>221.99999999999997</ele><time>2026-03-30T16:14:05.793Z</time></trkpt><trkpt lat="43.4115853" lon="11.1484403"><ele>223.0</ele><time>2026-03-30T16:14:08.787Z</time></trkpt><trkpt lat="43.4116648" lon="11.1484708"><ele>222.99999999999997</ele><time>2026-03-30T16:14:11.796Z</time></trkpt><trkpt lat="43.4117337" lon="11.1485058"><ele>223.0</ele><time>2026-03-30T16:14:14.79Z</time></trkpt><trkpt lat="43.4118032" lon="11.1485419"><ele>223.0</ele><time>2026-03-30T16:14:17.793Z</time></trkpt><trkpt lat="43.411873" lon="11.1485812"><ele>223.0</ele><time>2026-03-30T16:14:20.777Z</time></trkpt><trkpt lat="43.4119531" lon="11.1486134"><ele>222.99999999999997</ele><time>2026-03-30T16:14:23.803Z</time></trkpt><trkpt lat="43.4120246" lon="11.1486321"><ele>223.0</ele><time>2026-03-30T16:14:26.772Z</time></trkpt><trkpt lat="43.412095" lon="11.1486337"><ele>222.83333333333331</ele><time>2026-03-30T16:14:29.785Z</time></trkpt><trkpt lat="43.4121763" lon="11.1486671"><ele>222.66666666666666</ele><time>2026-03-30T16:14:32.774Z</time></trkpt><trkpt lat="43.4122364" lon="11.1486951"><ele>222.5</ele><time>2026-03-30T16:14:34.799Z</time></trkpt><trkpt lat="43.4123257" lon="11.1486879"><ele>222.33333333333331</ele><time>2026-03-30T16:14:37.79Z</time></trkpt><trkpt lat="43.4124098" lon="11.148675"><ele>222.16666666666666</ele><time>2026-03-30T16:14:40.88Z</time></trkpt><trkpt lat="43.4124782" lon="11.1486757"><ele>222.0</ele><time>2026-03-30T16:14:42.798Z</time></trkpt><trkpt lat="43.4125494" lon="11.1486723"><ele>222.0</ele><time>2026-03-30T16:14:44.791Z</time></trkpt><trkpt lat="43.4126358" lon="11.1486682"><ele>222.0</ele><time>2026-03-30T16:14:46.877Z</time></trkpt><trkpt lat="43.4127376" lon="11.1486671"><ele>222.0</ele><time>2026-03-30T16:14:48.789Z</time></trkpt><trkpt lat="43.4128461" lon="11.1486602"><ele>222.0</ele><time>2026-03-30T16:14:50.805Z</time></trkpt><trkpt lat="43.4129575" lon="11.1486559"><ele>222.0</ele><time>2026-03-30T16:14:52.789Z</time></trkpt><trkpt lat="43.413074" lon="11.1486568"><ele>221.66666666666666</ele><time>2026-03-30T16:14:54.791Z</time></trkpt><trkpt lat="43.4131882" lon="11.148652"><ele>221.33333333333331</ele><time>2026-03-30T16:14:56.857Z</time></trkpt><trkpt lat="43.4133059" lon="11.1486464"><ele>221.0</ele><time>2026-03-30T16:14:58.794Z</time></trkpt><trkpt lat="43.4133687" lon="11.1486375"><ele>220.66666666666666</ele><time>2026-03-30T16:14:59.814Z</time></trkpt><trkpt lat="43.4134367" lon="11.1486158"><ele>220.33333333333331</ele><time>2026-03-30T16:15:00.868Z</time></trkpt><trkpt lat="43.413504" lon="11.1485852"><ele>220.0</ele><time>2026-03-30T16:15:01.792Z</time></trkpt><trkpt lat="43.4135697" lon="11.1485432"><ele>219.99999999999997</ele><time>2026-03-30T16:15:02.793Z</time></trkpt><trkpt lat="43.413631" lon="11.1484926"><ele>220.0</ele><time>2026-03-30T16:15:03.8Z</time></trkpt><trkpt lat="43.413692" lon="11.1484332"><ele>220.0</ele><time>2026-03-30T16:15:04.786Z</time></trkpt><trkpt lat="43.4137594" lon="11.1483682"><ele>220.0</ele><time>2026-03-30T16:15:05.806Z</time></trkpt><trkpt lat="43.413827" lon="11.1482983"><ele>219.99999999999997</ele><time>2026-03-30T16:15:06.867Z</time></trkpt><trkpt lat="43.4138951" lon="11.1482379"><ele>220.0</ele><time>2026-03-30T16:15:07.785Z</time></trkpt><trkpt lat="43.413961" lon="11.1481714"><ele>219.33333333333331</ele><time>2026-03-30T16:15:08.794Z</time></trkpt><trkpt lat="43.4140347" lon="11.1480944"><ele>218.66666666666666</ele><time>2026-03-30T16:15:09.869Z</time></trkpt><trkpt lat="43.4141119" lon="11.1480177"><ele>218.0</ele><time>2026-03-30T16:15:10.857Z</time></trkpt><trkpt lat="43.4141877" lon="11.1479533"><ele>217.33333333333331</ele><time>2026-03-30T16:15:11.868Z</time></trkpt><trkpt lat="43.4142565" lon="11.1478914"><ele>216.66666666666666</ele><time>2026-03-30T16:15:12.797Z</time></trkpt><trkpt lat="43.4143214" lon="11.1478266"><ele>216.0</ele><time>2026-03-30T16:15:13.786Z</time></trkpt><trkpt lat="43.4143846" lon="11.1477643"><ele>216.0</ele><time>2026-03-30T16:15:14.796Z</time></trkpt><trkpt lat="43.4144434" lon="11.1477086"><ele>216.0</ele><time>2026-03-30T16:15:15.777Z</time></trkpt><trkpt lat="43.4145063" lon="11.1476515"><ele>216.0</ele><time>2026-03-30T16:15:16.874Z</time></trkpt><trkpt lat="43.414566" lon="11.1476011"><ele>216.0</ele><time>2026-03-30T16:15:17.788Z</time></trkpt><trkpt lat="43.4146207" lon="11.1475439"><ele>216.0</ele><time>2026-03-30T16:15:18.798Z</time></trkpt><trkpt lat="43.4147218" lon="11.1474462"><ele>216.0</ele><time>2026-03-30T16:15:20.776Z</time></trkpt><trkpt lat="43.4147756" lon="11.1473965"><ele>215.14285714285714</ele><time>2026-03-30T16:15:21.789Z</time></trkpt><trkpt lat="43.4148295" lon="11.1473473"><ele>214.28571428571428</ele><time>2026-03-30T16:15:22.803Z</time></trkpt><trkpt lat="43.4148853" lon="11.1472934"><ele>213.42857142857144</ele><time>2026-03-30T16:15:23.79Z</time></trkpt><trkpt lat="43.4149387" lon="11.1472416"><ele>212.57142857142856</ele><time>2026-03-30T16:15:24.866Z</time></trkpt><trkpt lat="43.4149933" lon="11.1471957"><ele>211.71428571428572</ele><time>2026-03-30T16:15:25.793Z</time></trkpt><trkpt lat="43.4150496" lon="11.1471566"><ele>210.85714285714286</ele><time>2026-03-30T16:15:26.793Z</time></trkpt><trkpt lat="43.4151655" lon="11.1471015"><ele>210.0</ele><time>2026-03-30T16:15:28.795Z</time></trkpt><trkpt lat="43.4152282" lon="11.1470753"><ele>210.0</ele><time>2026-03-30T16:15:29.784Z</time></trkpt><trkpt lat="43.4153468" lon="11.1470409"><ele>210.0</ele><time>2026-03-30T16:15:31.792Z</time></trkpt><trkpt lat="43.4154559" lon="11.1470331"><ele>210.0</ele><time>2026-03-30T16:15:33.779Z</time></trkpt><trkpt lat="43.4155592" lon="11.1470619"><ele>210.0</ele><time>2026-03-30T16:15:35.783Z</time></trkpt><trkpt lat="43.4156642" lon="11.1471026"><ele>210.0</ele><time>2026-03-30T16:15:37.775Z</time></trkpt><trkpt lat="43.4157605" lon="11.1471447"><ele>210.8</ele><time>2026-03-30T16:15:39.792Z</time></trkpt><trkpt lat="43.4158596" lon="11.1471842"><ele>211.6</ele><time>2026-03-30T16:15:41.784Z</time></trkpt><trkpt lat="43.4159595" lon="11.1472144"><ele>212.39999999999998</ele><time>2026-03-30T16:15:43.801Z</time></trkpt><trkpt lat="43.4160574" lon="11.1472472"><ele>213.2</ele><time>2026-03-30T16:15:45.79Z</time></trkpt><trkpt lat="43.4161586" lon="11.1472746"><ele>214.0</ele><time>2026-03-30T16:15:47.776Z</time></trkpt><trkpt lat="43.4162543" lon="11.1472863"><ele>214.66666666666666</ele><time>2026-03-30T16:15:49.795Z</time></trkpt><trkpt lat="43.4163443" lon="11.1472976"><ele>215.33333333333331</ele><time>2026-03-30T16:15:51.783Z</time></trkpt><trkpt lat="43.4164301" lon="11.147311"><ele>216.0</ele><time>2026-03-30T16:15:53.788Z</time></trkpt><trkpt lat="43.4165127" lon="11.1473323"><ele>216.66666666666669</ele><time>2026-03-30T16:15:55.8Z</time></trkpt><trkpt lat="43.416573" lon="11.1473692"><ele>217.33333333333334</ele><time>2026-03-30T16:15:57.788Z</time></trkpt><trkpt lat="43.4166207" lon="11.1474778"><ele>218.0</ele><time>2026-03-30T16:16:00.795Z</time></trkpt><trkpt lat="43.4166438" lon="11.1475616"><ele>218.16666666666669</ele><time>2026-03-30T16:16:02.797Z</time></trkpt><trkpt lat="43.4166667" lon="11.1476492"><ele>218.33333333333334</ele><time>2026-03-30T16:16:04.805Z</time></trkpt><trkpt lat="43.4166931" lon="11.1477419"><ele>218.5</ele><time>2026-03-30T16:16:06.797Z</time></trkpt><trkpt lat="43.4167234" lon="11.1478392"><ele>218.66666666666669</ele><time>2026-03-30T16:16:08.778Z</time></trkpt><trkpt lat="43.4167566" lon="11.1479494"><ele>218.83333333333334</ele><time>2026-03-30T16:16:10.779Z</time></trkpt><trkpt lat="43.4167864" lon="11.1480574"><ele>219.0</ele><time>2026-03-30T16:16:12.786Z</time></trkpt><trkpt lat="43.4168183" lon="11.1481743"><ele>218.66666666666666</ele><time>2026-03-30T16:16:14.801Z</time></trkpt><trkpt lat="43.4168498" lon="11.1482888"><ele>218.33333333333331</ele><time>2026-03-30T16:16:16.8Z</time></trkpt><trkpt lat="43.416874" lon="11.1484013"><ele>218.0</ele><time>2026-03-30T16:16:18.778Z</time></trkpt><trkpt lat="43.416897" lon="11.1485126"><ele>217.66666666666666</ele><time>2026-03-30T16:16:20.864Z</time></trkpt><trkpt lat="43.4169066" lon="11.1486276"><ele>217.33333333333331</ele><time>2026-03-30T16:16:22.794Z</time></trkpt><trkpt lat="43.4169167" lon="11.1487499"><ele>217.0</ele><time>2026-03-30T16:16:24.872Z</time></trkpt><trkpt lat="43.4169132" lon="11.1489035"><ele>216.99999999999997</ele><time>2026-03-30T16:16:26.793Z</time></trkpt><trkpt lat="43.4169202" lon="11.1490288"><ele>217.0</ele><time>2026-03-30T16:16:28.786Z</time></trkpt><trkpt lat="43.4169065" lon="11.1491437"><ele>217.0</ele><time>2026-03-30T16:16:30.855Z</time></trkpt><trkpt lat="43.4168907" lon="11.1492556"><ele>217.0</ele><time>2026-03-30T16:16:32.781Z</time></trkpt><trkpt lat="43.4168707" lon="11.1493692"><ele>216.99999999999997</ele><time>2026-03-30T16:16:34.871Z</time></trkpt><trkpt lat="43.4168463" lon="11.149469"><ele>217.0</ele><time>2026-03-30T16:16:36.875Z</time></trkpt><trkpt lat="43.4168205" lon="11.1495741"><ele>217.66666666666666</ele><time>2026-03-30T16:16:38.79Z</time></trkpt><trkpt lat="43.4167966" lon="11.1496768"><ele>218.33333333333331</ele><time>2026-03-30T16:16:40.859Z</time></trkpt><trkpt lat="43.4167655" lon="11.1497763"><ele>219.0</ele><time>2026-03-30T16:16:42.8Z</time></trkpt><trkpt lat="43.4167293" lon="11.1498877"><ele>219.66666666666669</ele><time>2026-03-30T16:16:44.789Z</time></trkpt><trkpt lat="43.4167085" lon="11.1499867"><ele>220.33333333333334</ele><time>2026-03-30T16:16:46.775Z</time></trkpt><trkpt lat="43.4166895" lon="11.1501061"><ele>221.0</ele><time>2026-03-30T16:16:48.774Z</time></trkpt><trkpt lat="43.4166644" lon="11.1502216"><ele>221.66666666666669</ele><time>2026-03-30T16:16:50.777Z</time></trkpt><trkpt lat="43.4166402" lon="11.150328"><ele>222.33333333333334</ele><time>2026-03-30T16:16:52.795Z</time></trkpt><trkpt lat="43.4166141" lon="11.1504225"><ele>223.0</ele><time>2026-03-30T16:16:54.798Z</time></trkpt><trkpt lat="43.4165891" lon="11.1505262"><ele>223.66666666666669</ele><time>2026-03-30T16:16:56.88Z</time></trkpt><trkpt lat="43.4165661" lon="11.1506289"><ele>224.33333333333334</ele><time>2026-03-30T16:16:58.795Z</time></trkpt><trkpt lat="43.4165375" lon="11.1507398"><ele>225.0</ele><time>2026-03-30T16:17:00.778Z</time></trkpt><trkpt lat="43.416507" lon="11.1508502"><ele>225.0</ele><time>2026-03-30T16:17:02.787Z</time></trkpt><trkpt lat="43.4164736" lon="11.1509704"><ele>225.0</ele><time>2026-03-30T16:17:04.797Z</time></trkpt><trkpt lat="43.4164456" lon="11.1510947"><ele>225.0</ele><time>2026-03-30T16:17:06.804Z</time></trkpt><trkpt lat="43.4164151" lon="11.1512228"><ele>225.0</ele><time>2026-03-30T16:17:08.792Z</time></trkpt><trkpt lat="43.416382" lon="11.1513609"><ele>225.0</ele><time>2026-03-30T16:17:10.79Z</time></trkpt><trkpt lat="43.4163438" lon="11.1514861"><ele>225.25</ele><time>2026-03-30T16:17:12.775Z</time></trkpt><trkpt lat="43.4163138" lon="11.151651"><ele>225.5</ele><time>2026-03-30T16:17:14.888Z</time></trkpt><trkpt lat="43.4162823" lon="11.1517984"><ele>225.75</ele><time>2026-03-30T16:17:16.783Z</time></trkpt><trkpt lat="43.41625" lon="11.1519392"><ele>226.0</ele><time>2026-03-30T16:17:18.801Z</time></trkpt><trkpt lat="43.4162151" lon="11.1520813"><ele>226.0</ele><time>2026-03-30T16:17:20.795Z</time></trkpt><trkpt lat="43.4161766" lon="11.1522343"><ele>226.0</ele><time>2026-03-30T16:17:22.792Z</time></trkpt><trkpt lat="43.4161176" lon="11.1523897"><ele>226.0</ele><time>2026-03-30T16:17:25.862Z</time></trkpt><trkpt lat="43.4161113" lon="11.1525441"><ele>226.0</ele><time>2026-03-30T16:17:27.79Z</time></trkpt><trkpt lat="43.4160691" lon="11.1526898"><ele>226.0</ele><time>2026-03-30T16:17:29.799Z</time></trkpt><trkpt lat="43.4160291" lon="11.1528288"><ele>226.00000000000003</ele><time>2026-03-30T16:17:31.788Z</time></trkpt><trkpt lat="43.4159981" lon="11.1529693"><ele>226.00000000000003</ele><time>2026-03-30T16:17:33.792Z</time></trkpt><trkpt lat="43.4159643" lon="11.1531054"><ele>226.0</ele><time>2026-03-30T16:17:35.794Z</time></trkpt><trkpt lat="43.41593" lon="11.1532391"><ele>226.0</ele><time>2026-03-30T16:17:37.8Z</time></trkpt><trkpt lat="43.4159007" lon="11.1533712"><ele>226.4</ele><time>2026-03-30T16:17:39.788Z</time></trkpt><trkpt lat="43.4158727" lon="11.1535054"><ele>226.8</ele><time>2026-03-30T16:17:41.797Z</time></trkpt><trkpt lat="43.4158427" lon="11.1536343"><ele>227.20000000000002</ele><time>2026-03-30T16:17:43.796Z</time></trkpt><trkpt lat="43.4158123" lon="11.1537602"><ele>227.60000000000002</ele><time>2026-03-30T16:17:45.791Z</time></trkpt><trkpt lat="43.4157801" lon="11.1538885"><ele>228.0</ele><time>2026-03-30T16:17:47.795Z</time></trkpt><trkpt lat="43.4157494" lon="11.1540194"><ele>228.2</ele><time>2026-03-30T16:17:49.795Z</time></trkpt><trkpt lat="43.4157161" lon="11.1541526"><ele>228.4</ele><time>2026-03-30T16:17:51.796Z</time></trkpt><trkpt lat="43.415683" lon="11.1542855"><ele>228.59999999999997</ele><time>2026-03-30T16:17:53.801Z</time></trkpt><trkpt lat="43.4156542" lon="11.154417"><ele>228.79999999999998</ele><time>2026-03-30T16:17:55.788Z</time></trkpt><trkpt lat="43.4156227" lon="11.1545478"><ele>229.0</ele><time>2026-03-30T16:17:57.801Z</time></trkpt><trkpt lat="43.4155872" lon="11.1546711"><ele>229.0</ele><time>2026-03-30T16:17:59.802Z</time></trkpt><trkpt lat="43.415551" lon="11.1547932"><ele>228.99999999999997</ele><time>2026-03-30T16:18:01.797Z</time></trkpt><trkpt lat="43.4155163" lon="11.1549189"><ele>228.99999999999997</ele><time>2026-03-30T16:18:03.796Z</time></trkpt><trkpt lat="43.4154789" lon="11.1550485"><ele>229.0</ele><time>2026-03-30T16:18:05.792Z</time></trkpt><trkpt lat="43.4154344" lon="11.1551777"><ele>229.0</ele><time>2026-03-30T16:18:07.781Z</time></trkpt><trkpt lat="43.4153864" lon="11.1553097"><ele>229.0</ele><time>2026-03-30T16:18:09.794Z</time></trkpt><trkpt lat="43.4153344" lon="11.1554351"><ele>228.99999999999997</ele><time>2026-03-30T16:18:11.77Z</time></trkpt><trkpt lat="43.4152818" lon="11.1555604"><ele>228.99999999999997</ele><time>2026-03-30T16:18:13.799Z</time></trkpt><trkpt lat="43.415229" lon="11.1556818"><ele>229.0</ele><time>2026-03-30T16:18:15.802Z</time></trkpt><trkpt lat="43.4151764" lon="11.1557903"><ele>229.0</ele><time>2026-03-30T16:18:17.796Z</time></trkpt><trkpt lat="43.4151252" lon="11.1559027"><ele>229.79999999999998</ele><time>2026-03-30T16:18:19.789Z</time></trkpt><trkpt lat="43.4150682" lon="11.1560151"><ele>230.59999999999997</ele><time>2026-03-30T16:18:21.801Z</time></trkpt><trkpt lat="43.4150162" lon="11.1561307"><ele>231.4</ele><time>2026-03-30T16:18:23.804Z</time></trkpt><trkpt lat="43.4149671" lon="11.1562486"><ele>232.2</ele><time>2026-03-30T16:18:25.789Z</time></trkpt><trkpt lat="43.4149195" lon="11.1563639"><ele>233.0</ele><time>2026-03-30T16:18:27.775Z</time></trkpt><trkpt lat="43.414869" lon="11.1564806"><ele>233.2</ele><time>2026-03-30T16:18:29.802Z</time></trkpt><trkpt lat="43.4148119" lon="11.1566058"><ele>233.4</ele><time>2026-03-30T16:18:31.804Z</time></trkpt><trkpt lat="43.4147568" lon="11.1567342"><ele>233.59999999999997</ele><time>2026-03-30T16:18:33.791Z</time></trkpt><trkpt lat="43.4146931" lon="11.1568694"><ele>233.79999999999998</ele><time>2026-03-30T16:18:35.793Z</time></trkpt><trkpt lat="43.4146608" lon="11.1569458"><ele>234.0</ele><time>2026-03-30T16:18:36.795Z</time></trkpt><trkpt lat="43.4146267" lon="11.1570207"><ele>233.2857142857143</ele><time>2026-03-30T16:18:37.794Z</time></trkpt><trkpt lat="43.4145895" lon="11.1570908"><ele>232.5714285714286</ele><time>2026-03-30T16:18:38.796Z</time></trkpt><trkpt lat="43.4145482" lon="11.1571658"><ele>231.85714285714286</ele><time>2026-03-30T16:18:39.787Z</time></trkpt><trkpt lat="43.4145006" lon="11.1572387"><ele>231.14285714285717</ele><time>2026-03-30T16:18:40.799Z</time></trkpt><trkpt lat="43.414453" lon="11.157309"><ele>230.42857142857144</ele><time>2026-03-30T16:18:41.794Z</time></trkpt><trkpt lat="43.4144053" lon="11.1573769"><ele>229.71428571428572</ele><time>2026-03-30T16:18:42.799Z</time></trkpt><trkpt lat="43.4143553" lon="11.1574401"><ele>229.0</ele><time>2026-03-30T16:18:43.787Z</time></trkpt><trkpt lat="43.4143035" lon="11.1575041"><ele>229.0</ele><time>2026-03-30T16:18:44.795Z</time></trkpt><trkpt lat="43.4142518" lon="11.1575678"><ele>229.0</ele><time>2026-03-30T16:18:45.791Z</time></trkpt><trkpt lat="43.4141987" lon="11.1576318"><ele>229.0</ele><time>2026-03-30T16:18:46.795Z</time></trkpt><trkpt lat="43.4141456" lon="11.1576905"><ele>229.0</ele><time>2026-03-30T16:18:47.807Z</time></trkpt><trkpt lat="43.4140931" lon="11.1577476"><ele>229.0</ele><time>2026-03-30T16:18:48.785Z</time></trkpt><trkpt lat="43.4140397" lon="11.1578047"><ele>229.0</ele><time>2026-03-30T16:18:49.793Z</time></trkpt><trkpt lat="43.4139871" lon="11.1578614"><ele>229.0</ele><time>2026-03-30T16:18:50.796Z</time></trkpt><trkpt lat="43.4139355" lon="11.1579156"><ele>229.0</ele><time>2026-03-30T16:18:51.798Z</time></trkpt><trkpt lat="43.4138841" lon="11.1579735"><ele>229.0</ele><time>2026-03-30T16:18:52.791Z</time></trkpt><trkpt lat="43.4138332" lon="11.1580331"><ele>229.0</ele><time>2026-03-30T16:18:53.79Z</time></trkpt><trkpt lat="43.4137824" lon="11.158091"><ele>229.0</ele><time>2026-03-30T16:18:54.798Z</time></trkpt><trkpt lat="43.4137318" lon="11.1581458"><ele>229.0</ele><time>2026-03-30T16:18:55.794Z</time></trkpt><trkpt lat="43.4136797" lon="11.1582001"><ele>229.0</ele><time>2026-03-30T16:18:56.805Z</time></trkpt><trkpt lat="43.4136229" lon="11.1582451"><ele>229.0</ele><time>2026-03-30T16:18:57.807Z</time></trkpt><trkpt lat="43.4135619" lon="11.1582721"><ele>228.39999999999998</ele><time>2026-03-30T16:18:58.801Z</time></trkpt><trkpt lat="43.4134363" lon="11.1582951"><ele>227.79999999999998</ele><time>2026-03-30T16:19:00.8Z</time></trkpt><trkpt lat="43.4133128" lon="11.1583116"><ele>227.20000000000002</ele><time>2026-03-30T16:19:02.804Z</time></trkpt><trkpt lat="43.4132026" lon="11.158399"><ele>226.60000000000002</ele><time>2026-03-30T16:19:04.791Z</time></trkpt><trkpt lat="43.4131621" lon="11.1584745"><ele>226.0</ele><time>2026-03-30T16:19:05.808Z</time></trkpt><trkpt lat="43.4131507" lon="11.1585657"><ele>226.0</ele><time>2026-03-30T16:19:06.803Z</time></trkpt><trkpt lat="43.413155" lon="11.1586648"><ele>226.0</ele><time>2026-03-30T16:19:07.795Z</time></trkpt><trkpt lat="43.4131786" lon="11.158765"><ele>226.0</ele><time>2026-03-30T16:19:08.798Z</time></trkpt><trkpt lat="43.4132209" lon="11.1588495"><ele>226.0</ele><time>2026-03-30T16:19:09.798Z</time></trkpt><trkpt lat="43.4132772" lon="11.1589219"><ele>226.0</ele><time>2026-03-30T16:19:10.783Z</time></trkpt><trkpt lat="43.4133384" lon="11.1589809"><ele>226.0</ele><time>2026-03-30T16:19:11.777Z</time></trkpt><trkpt lat="43.4133984" lon="11.1590326"><ele>226.0</ele><time>2026-03-30T16:19:12.773Z</time></trkpt><trkpt lat="43.4134561" lon="11.1590812"><ele>226.20000000000002</ele><time>2026-03-30T16:19:13.782Z</time></trkpt><trkpt lat="43.413508" lon="11.1591328"><ele>226.40000000000003</ele><time>2026-03-30T16:19:14.775Z</time></trkpt><trkpt lat="43.4135966" lon="11.1592525"><ele>226.6</ele><time>2026-03-30T16:19:16.781Z</time></trkpt><trkpt lat="43.4136388" lon="11.1593183"><ele>226.8</ele><time>2026-03-30T16:19:17.775Z</time></trkpt><trkpt lat="43.4137259" lon="11.1594456"><ele>227.0</ele><time>2026-03-30T16:19:19.773Z</time></trkpt><trkpt lat="43.41382" lon="11.1595586"><ele>227.0</ele><time>2026-03-30T16:19:21.79Z</time></trkpt><trkpt lat="43.413903" lon="11.1596645"><ele>227.0</ele><time>2026-03-30T16:19:23.805Z</time></trkpt><trkpt lat="43.413985" lon="11.1597661"><ele>227.0</ele><time>2026-03-30T16:19:25.872Z</time></trkpt><trkpt lat="43.4140631" lon="11.1598593"><ele>227.0</ele><time>2026-03-30T16:19:27.788Z</time></trkpt><trkpt lat="43.4141316" lon="11.1599522"><ele>227.0</ele><time>2026-03-30T16:19:29.848Z</time></trkpt><trkpt lat="43.4141929" lon="11.1600373"><ele>227.33333333333334</ele><time>2026-03-30T16:19:31.787Z</time></trkpt><trkpt lat="43.4142578" lon="11.1601147"><ele>227.66666666666669</ele><time>2026-03-30T16:19:33.796Z</time></trkpt><trkpt lat="43.4143141" lon="11.1601968"><ele>228.0</ele><time>2026-03-30T16:19:35.883Z</time></trkpt><trkpt lat="43.4143774" lon="11.1602628"><ele>228.33333333333331</ele><time>2026-03-30T16:19:37.781Z</time></trkpt><trkpt lat="43.4144424" lon="11.1603342"><ele>228.66666666666666</ele><time>2026-03-30T16:19:39.79Z</time></trkpt><trkpt lat="43.414498" lon="11.1604023"><ele>229.0</ele><time>2026-03-30T16:19:41.795Z</time></trkpt><trkpt lat="43.4145442" lon="11.1604697"><ele>229.0</ele><time>2026-03-30T16:19:43.784Z</time></trkpt><trkpt lat="43.4146519" lon="11.1606365"><ele>229.0</ele><time>2026-03-30T16:19:47.778Z</time></trkpt><trkpt lat="43.4147524" lon="11.1607621"><ele>229.0</ele><time>2026-03-30T16:19:50.789Z</time></trkpt><trkpt lat="43.4148202" lon="11.1608296"><ele>229.0</ele><time>2026-03-30T16:19:52.772Z</time></trkpt><trkpt lat="43.4148985" lon="11.1608739"><ele>229.6</ele><time>2026-03-30T16:19:54.787Z</time></trkpt><trkpt lat="43.4149883" lon="11.1608913"><ele>230.2</ele><time>2026-03-30T16:19:56.792Z</time></trkpt><trkpt lat="43.4150792" lon="11.1608814"><ele>230.79999999999998</ele><time>2026-03-30T16:19:58.777Z</time></trkpt><trkpt lat="43.4151666" lon="11.1608483"><ele>231.39999999999998</ele><time>2026-03-30T16:20:00.778Z</time></trkpt><trkpt lat="43.4152529" lon="11.1607963"><ele>232.0</ele><time>2026-03-30T16:20:02.793Z</time></trkpt><trkpt lat="43.415333" lon="11.1607312"><ele>231.99999999999997</ele><time>2026-03-30T16:20:04.803Z</time></trkpt><trkpt lat="43.415406" lon="11.1606702"><ele>232.0</ele><time>2026-03-30T16:20:06.78Z</time></trkpt><trkpt lat="43.4154807" lon="11.1606025"><ele>232.0</ele><time>2026-03-30T16:20:08.792Z</time></trkpt><trkpt lat="43.4155547" lon="11.1605463"><ele>232.0</ele><time>2026-03-30T16:20:10.776Z</time></trkpt><trkpt lat="43.4156342" lon="11.1604832"><ele>231.99999999999997</ele><time>2026-03-30T16:20:12.783Z</time></trkpt><trkpt lat="43.4157102" lon="11.1604238"><ele>232.0</ele><time>2026-03-30T16:20:14.781Z</time></trkpt><trkpt lat="43.4157863" lon="11.1603617"><ele>232.0</ele><time>2026-03-30T16:20:16.799Z</time></trkpt><trkpt lat="43.4158654" lon="11.1602951"><ele>232.0</ele><time>2026-03-30T16:20:18.791Z</time></trkpt><trkpt lat="43.4159433" lon="11.16023"><ele>232.0</ele><time>2026-03-30T16:20:20.79Z</time></trkpt><trkpt lat="43.4160217" lon="11.1601677"><ele>232.0</ele><time>2026-03-30T16:20:22.793Z</time></trkpt><trkpt lat="43.4161019" lon="11.1601098"><ele>232.0</ele><time>2026-03-30T16:20:24.777Z</time></trkpt><trkpt lat="43.4161813" lon="11.1600433"><ele>232.0</ele><time>2026-03-30T16:20:26.774Z</time></trkpt><trkpt lat="43.4162562" lon="11.1599778"><ele>232.0</ele><time>2026-03-30T16:20:28.797Z</time></trkpt><trkpt lat="43.4163309" lon="11.1599143"><ele>232.0</ele><time>2026-03-30T16:20:30.77Z</time></trkpt><trkpt lat="43.4164115" lon="11.1598494"><ele>232.0</ele><time>2026-03-30T16:20:32.782Z</time></trkpt><trkpt lat="43.4164931" lon="11.1597808"><ele>232.0</ele><time>2026-03-30T16:20:34.782Z</time></trkpt><trkpt lat="43.416577" lon="11.1597131"><ele>232.49999999999997</ele><time>2026-03-30T16:20:36.795Z</time></trkpt><trkpt lat="43.4166577" lon="11.1596505"><ele>233.0</ele><time>2026-03-30T16:20:38.773Z</time></trkpt><trkpt lat="43.4167399" lon="11.1595881"><ele>233.5</ele><time>2026-03-30T16:20:40.798Z</time></trkpt><trkpt lat="43.4168183" lon="11.159517"><ele>234.0</ele><time>2026-03-30T16:20:42.788Z</time></trkpt><trkpt lat="43.4168765" lon="11.1594663"><ele>234.49999999999997</ele><time>2026-03-30T16:20:45.786Z</time></trkpt><trkpt lat="43.4169385" lon="11.1594128"><ele>235.0</ele><time>2026-03-30T16:20:47.776Z</time></trkpt><trkpt lat="43.4170413" lon="11.1593394"><ele>235.0</ele><time>2026-03-30T16:20:49.786Z</time></trkpt><trkpt lat="43.4171362" lon="11.1592595"><ele>235.0</ele><time>2026-03-30T16:20:51.79Z</time></trkpt><trkpt lat="43.4172429" lon="11.1591977"><ele>235.0</ele><time>2026-03-30T16:20:53.792Z</time></trkpt><trkpt lat="43.4173419" lon="11.1591522"><ele>235.0</ele><time>2026-03-30T16:20:55.77Z</time></trkpt><trkpt lat="43.4174473" lon="11.1591267"><ele>235.0</ele><time>2026-03-30T16:20:57.781Z</time></trkpt><trkpt lat="43.417541" lon="11.1591237"><ele>236.0</ele><time>2026-03-30T16:20:59.78Z</time></trkpt><trkpt lat="43.417631" lon="11.1591394"><ele>237.0</ele><time>2026-03-30T16:21:01.789Z</time></trkpt><trkpt lat="43.4177167" lon="11.1591858"><ele>238.0</ele><time>2026-03-30T16:21:03.77Z</time></trkpt><trkpt lat="43.4177925" lon="11.1592552"><ele>239.0</ele><time>2026-03-30T16:21:05.774Z</time></trkpt><trkpt lat="43.417865" lon="11.1593305"><ele>240.0</ele><time>2026-03-30T16:21:07.781Z</time></trkpt><trkpt lat="43.4179313" lon="11.1594228"><ele>240.0</ele><time>2026-03-30T16:21:09.778Z</time></trkpt><trkpt lat="43.4179895" lon="11.1595159"><ele>240.0</ele><time>2026-03-30T16:21:11.787Z</time></trkpt><trkpt lat="43.4180415" lon="11.1596189"><ele>240.0</ele><time>2026-03-30T16:21:13.794Z</time></trkpt><trkpt lat="43.418097" lon="11.1597193"><ele>240.0</ele><time>2026-03-30T16:21:15.786Z</time></trkpt><trkpt lat="43.4181483" lon="11.1598176"><ele>240.0</ele><time>2026-03-30T16:21:17.777Z</time></trkpt><trkpt lat="43.4181921" lon="11.1599167"><ele>240.0</ele><time>2026-03-30T16:21:19.795Z</time></trkpt><trkpt lat="43.4182379" lon="11.160014"><ele>240.0</ele><time>2026-03-30T16:21:21.78Z</time></trkpt><trkpt lat="43.4182851" lon="11.1601148"><ele>240.0</ele><time>2026-03-30T16:21:23.78Z</time></trkpt><trkpt lat="43.4183311" lon="11.1602155"><ele>240.0</ele><time>2026-03-30T16:21:25.779Z</time></trkpt><trkpt lat="43.4183803" lon="11.1603148"><ele>240.0</ele><time>2026-03-30T16:21:27.794Z</time></trkpt><trkpt lat="43.4184282" lon="11.1604145"><ele>240.0</ele><time>2026-03-30T16:21:29.775Z</time></trkpt><trkpt lat="43.4184737" lon="11.1605174"><ele>240.0</ele><time>2026-03-30T16:21:31.777Z</time></trkpt><trkpt lat="43.4185249" lon="11.1606177"><ele>240.0</ele><time>2026-03-30T16:21:33.781Z</time></trkpt><trkpt lat="43.4185743" lon="11.1607297"><ele>240.0</ele><time>2026-03-30T16:21:35.789Z</time></trkpt><trkpt lat="43.4186188" lon="11.1608423"><ele>240.0</ele><time>2026-03-30T16:21:37.776Z</time></trkpt><trkpt lat="43.4186608" lon="11.1609556"><ele>240.0</ele><time>2026-03-30T16:21:39.774Z</time></trkpt><trkpt lat="43.418701" lon="11.1610658"><ele>240.0</ele><time>2026-03-30T16:21:41.776Z</time></trkpt><trkpt lat="43.4187436" lon="11.1611779"><ele>240.0</ele><time>2026-03-30T16:21:43.784Z</time></trkpt><trkpt lat="43.4187819" lon="11.161296"><ele>240.0</ele><time>2026-03-30T16:21:45.791Z</time></trkpt><trkpt lat="43.4188153" lon="11.161424"><ele>240.0</ele><time>2026-03-30T16:21:47.784Z</time></trkpt><trkpt lat="43.4188467" lon="11.1615625"><ele>240.0</ele><time>2026-03-30T16:21:49.784Z</time></trkpt><trkpt lat="43.4188733" lon="11.1617001"><ele>240.0</ele><time>2026-03-30T16:21:51.781Z</time></trkpt><trkpt lat="43.4188992" lon="11.1618336"><ele>240.2</ele><time>2026-03-30T16:21:53.802Z</time></trkpt><trkpt lat="43.41893" lon="11.1619739"><ele>240.4</ele><time>2026-03-30T16:21:55.777Z</time></trkpt><trkpt lat="43.4189496" lon="11.1621244"><ele>240.60000000000002</ele><time>2026-03-30T16:21:57.791Z</time></trkpt><trkpt lat="43.418979" lon="11.1622672"><ele>240.8</ele><time>2026-03-30T16:21:59.779Z</time></trkpt><trkpt lat="43.4190148" lon="11.1624138"><ele>241.0</ele><time>2026-03-30T16:22:01.793Z</time></trkpt><trkpt lat="43.4190504" lon="11.1625626"><ele>241.0</ele><time>2026-03-30T16:22:03.808Z</time></trkpt><trkpt lat="43.4190818" lon="11.162721"><ele>241.0</ele><time>2026-03-30T16:22:05.785Z</time></trkpt><trkpt lat="43.4191169" lon="11.1628821"><ele>241.0</ele><time>2026-03-30T16:22:07.783Z</time></trkpt><trkpt lat="43.419152" lon="11.1630419"><ele>241.0</ele><time>2026-03-30T16:22:09.798Z</time></trkpt><trkpt lat="43.4191833" lon="11.1631958"><ele>241.0</ele><time>2026-03-30T16:22:11.798Z</time></trkpt><trkpt lat="43.4192159" lon="11.1633534"><ele>241.0</ele><time>2026-03-30T16:22:13.788Z</time></trkpt><trkpt lat="43.4192483" lon="11.1635129"><ele>241.0</ele><time>2026-03-30T16:22:15.79Z</time></trkpt><trkpt lat="43.4192787" lon="11.16367"><ele>241.0</ele><time>2026-03-30T16:22:17.781Z</time></trkpt><trkpt lat="43.4193092" lon="11.1638259"><ele>241.0</ele><time>2026-03-30T16:22:19.776Z</time></trkpt><trkpt lat="43.419336" lon="11.1639838"><ele>241.00000000000003</ele><time>2026-03-30T16:22:21.782Z</time></trkpt><trkpt lat="43.4193638" lon="11.1641486"><ele>241.00000000000003</ele><time>2026-03-30T16:22:23.767Z</time></trkpt><trkpt lat="43.41938" lon="11.1643141"><ele>241.0</ele><time>2026-03-30T16:22:25.784Z</time></trkpt><trkpt lat="43.4193869" lon="11.1644022"><ele>241.0</ele><time>2026-03-30T16:22:26.774Z</time></trkpt><trkpt lat="43.4193958" lon="11.1644892"><ele>240.85714285714286</ele><time>2026-03-30T16:22:27.782Z</time></trkpt><trkpt lat="43.4194051" lon="11.164575"><ele>240.71428571428572</ele><time>2026-03-30T16:22:28.786Z</time></trkpt><trkpt lat="43.4194135" lon="11.1646614"><ele>240.57142857142858</ele><time>2026-03-30T16:22:29.781Z</time></trkpt><trkpt lat="43.4194216" lon="11.1647489"><ele>240.42857142857144</ele><time>2026-03-30T16:22:30.778Z</time></trkpt><trkpt lat="43.4194303" lon="11.1648357"><ele>240.28571428571428</ele><time>2026-03-30T16:22:31.772Z</time></trkpt><trkpt lat="43.4194396" lon="11.1649256"><ele>240.14285714285717</ele><time>2026-03-30T16:22:32.797Z</time></trkpt><trkpt lat="43.4194476" lon="11.1650154"><ele>240.0</ele><time>2026-03-30T16:22:33.777Z</time></trkpt><trkpt lat="43.4194538" lon="11.1651068"><ele>240.0</ele><time>2026-03-30T16:22:34.779Z</time></trkpt><trkpt lat="43.4194587" lon="11.1651986"><ele>240.0</ele><time>2026-03-30T16:22:35.775Z</time></trkpt><trkpt lat="43.4194636" lon="11.16529"><ele>240.0</ele><time>2026-03-30T16:22:36.786Z</time></trkpt><trkpt lat="43.419469" lon="11.1653831"><ele>240.0</ele><time>2026-03-30T16:22:37.776Z</time></trkpt><trkpt lat="43.4194744" lon="11.1654757"><ele>240.0</ele><time>2026-03-30T16:22:38.783Z</time></trkpt><trkpt lat="43.4194827" lon="11.1655632"><ele>240.0</ele><time>2026-03-30T16:22:39.775Z</time></trkpt><trkpt lat="43.4194905" lon="11.1656529"><ele>240.0</ele><time>2026-03-30T16:22:40.77Z</time></trkpt><trkpt lat="43.4194963" lon="11.1657457"><ele>240.0</ele><time>2026-03-30T16:22:41.786Z</time></trkpt><trkpt lat="43.4195035" lon="11.1658388"><ele>240.0</ele><time>2026-03-30T16:22:42.789Z</time></trkpt><trkpt lat="43.4195117" lon="11.1659323"><ele>240.0</ele><time>2026-03-30T16:22:43.78Z</time></trkpt><trkpt lat="43.4195178" lon="11.1660268"><ele>240.0</ele><time>2026-03-30T16:22:44.774Z</time></trkpt><trkpt lat="43.4195241" lon="11.166119"><ele>240.0</ele><time>2026-03-30T16:22:45.783Z</time></trkpt><trkpt lat="43.4195293" lon="11.1662121"><ele>240.0</ele><time>2026-03-30T16:22:46.786Z</time></trkpt><trkpt lat="43.4195381" lon="11.1663038"><ele>240.0</ele><time>2026-03-30T16:22:47.786Z</time></trkpt><trkpt lat="43.4195486" lon="11.1663996"><ele>240.0</ele><time>2026-03-30T16:22:48.791Z</time></trkpt><trkpt lat="43.4195582" lon="11.166496"><ele>240.0</ele><time>2026-03-30T16:22:49.781Z</time></trkpt><trkpt lat="43.4195652" lon="11.166593"><ele>240.0</ele><time>2026-03-30T16:22:50.774Z</time></trkpt><trkpt lat="43.419573" lon="11.1666893"><ele>240.0</ele><time>2026-03-30T16:22:51.78Z</time></trkpt><trkpt lat="43.4195825" lon="11.1667825"><ele>240.0</ele><time>2026-03-30T16:22:52.776Z</time></trkpt><trkpt lat="43.4195915" lon="11.1668794"><ele>240.0</ele><time>2026-03-30T16:22:53.801Z</time></trkpt><trkpt lat="43.4196013" lon="11.1669825"><ele>240.0</ele><time>2026-03-30T16:22:54.795Z</time></trkpt><trkpt lat="43.41961" lon="11.167082"><ele>240.0</ele><time>2026-03-30T16:22:55.793Z</time></trkpt><trkpt lat="43.4196191" lon="11.1671828"><ele>240.0</ele><time>2026-03-30T16:22:56.803Z</time></trkpt><trkpt lat="43.4196265" lon="11.1672848"><ele>240.0</ele><time>2026-03-30T16:22:57.786Z</time></trkpt><trkpt lat="43.4196349" lon="11.1673889"><ele>240.0</ele><time>2026-03-30T16:22:58.781Z</time></trkpt><trkpt lat="43.4196433" lon="11.1674916"><ele>240.0</ele><time>2026-03-30T16:22:59.79Z</time></trkpt><trkpt lat="43.4196522" lon="11.1675923"><ele>240.0</ele><time>2026-03-30T16:23:00.78Z</time></trkpt><trkpt lat="43.4196615" lon="11.1676942"><ele>240.0</ele><time>2026-03-30T16:23:01.783Z</time></trkpt><trkpt lat="43.4196725" lon="11.1678005"><ele>240.0</ele><time>2026-03-30T16:23:02.774Z</time></trkpt><trkpt lat="43.4196807" lon="11.1679045"><ele>240.0</ele><time>2026-03-30T16:23:03.782Z</time></trkpt><trkpt lat="43.4196905" lon="11.1680057"><ele>240.0</ele><time>2026-03-30T16:23:04.805Z</time></trkpt><trkpt lat="43.4196984" lon="11.1681041"><ele>240.0</ele><time>2026-03-30T16:23:05.797Z</time></trkpt><trkpt lat="43.419706" lon="11.1682038"><ele>240.0</ele><time>2026-03-30T16:23:06.798Z</time></trkpt><trkpt lat="43.4197134" lon="11.1683021"><ele>240.0</ele><time>2026-03-30T16:23:07.778Z</time></trkpt><trkpt lat="43.4197187" lon="11.1684007"><ele>240.0</ele><time>2026-03-30T16:23:08.775Z</time></trkpt><trkpt lat="43.4197234" lon="11.1685001"><ele>240.0</ele><time>2026-03-30T16:23:09.778Z</time></trkpt><trkpt lat="43.4197304" lon="11.1685957"><ele>240.0</ele><time>2026-03-30T16:23:10.773Z</time></trkpt><trkpt lat="43.4197366" lon="11.1686874"><ele>240.0</ele><time>2026-03-30T16:23:11.8Z</time></trkpt><trkpt lat="43.4197465" lon="11.1687768"><ele>240.0</ele><time>2026-03-30T16:23:12.78Z</time></trkpt><trkpt lat="43.4197569" lon="11.1688662"><ele>240.0</ele><time>2026-03-30T16:23:13.787Z</time></trkpt><trkpt lat="43.4197627" lon="11.1689535"><ele>240.0</ele><time>2026-03-30T16:23:14.78Z</time></trkpt><trkpt lat="43.4197762" lon="11.169117"><ele>240.25</ele><time>2026-03-30T16:23:16.793Z</time></trkpt><trkpt lat="43.4197957" lon="11.1692749"><ele>240.5</ele><time>2026-03-30T16:23:18.782Z</time></trkpt><trkpt lat="43.4198154" lon="11.169448"><ele>240.75</ele><time>2026-03-30T16:23:20.786Z</time></trkpt><trkpt lat="43.4198391" lon="11.1696133"><ele>241.0</ele><time>2026-03-30T16:23:22.785Z</time></trkpt><trkpt lat="43.4198619" lon="11.1697787"><ele>241.0</ele><time>2026-03-30T16:23:24.804Z</time></trkpt><trkpt lat="43.4198937" lon="11.1699424"><ele>241.0</ele><time>2026-03-30T16:23:26.794Z</time></trkpt><trkpt lat="43.4199263" lon="11.1701053"><ele>241.0</ele><time>2026-03-30T16:23:28.785Z</time></trkpt><trkpt lat="43.4199558" lon="11.1702591"><ele>241.0</ele><time>2026-03-30T16:23:30.79Z</time></trkpt><trkpt lat="43.4199735" lon="11.1704182"><ele>241.0</ele><time>2026-03-30T16:23:32.781Z</time></trkpt><trkpt lat="43.4199967" lon="11.1705746"><ele>241.0</ele><time>2026-03-30T16:23:34.775Z</time></trkpt><trkpt lat="43.4200242" lon="11.1707303"><ele>241.0</ele><time>2026-03-30T16:23:36.779Z</time></trkpt><trkpt lat="43.4200475" lon="11.1708878"><ele>241.0</ele><time>2026-03-30T16:23:38.777Z</time></trkpt><trkpt lat="43.4200714" lon="11.1710454"><ele>241.16666666666666</ele><time>2026-03-30T16:23:40.778Z</time></trkpt><trkpt lat="43.4201018" lon="11.1712092"><ele>241.33333333333331</ele><time>2026-03-30T16:23:42.769Z</time></trkpt><trkpt lat="43.4201151" lon="11.1713002"><ele>241.5</ele><time>2026-03-30T16:23:43.797Z</time></trkpt><trkpt lat="43.4201289" lon="11.1713915"><ele>241.66666666666669</ele><time>2026-03-30T16:23:44.777Z</time></trkpt><trkpt lat="43.4201464" lon="11.1714883"><ele>241.83333333333334</ele><time>2026-03-30T16:23:45.786Z</time></trkpt><trkpt lat="43.4201663" lon="11.1715929"><ele>242.0</ele><time>2026-03-30T16:23:46.78Z</time></trkpt><trkpt lat="43.420184" lon="11.1717046"><ele>242.00000000000003</ele><time>2026-03-30T16:23:47.776Z</time></trkpt><trkpt lat="43.4202006" lon="11.171817"><ele>242.0</ele><time>2026-03-30T16:23:48.776Z</time></trkpt><trkpt lat="43.420216" lon="11.1719305"><ele>242.0</ele><time>2026-03-30T16:23:49.778Z</time></trkpt><trkpt lat="43.4202275" lon="11.1720493"><ele>242.0</ele><time>2026-03-30T16:23:50.779Z</time></trkpt><trkpt lat="43.4202332" lon="11.1721724"><ele>242.00000000000003</ele><time>2026-03-30T16:23:51.798Z</time></trkpt><trkpt lat="43.4202336" lon="11.1722917"><ele>242.0</ele><time>2026-03-30T16:23:52.782Z</time></trkpt><trkpt lat="43.4202327" lon="11.1724085"><ele>241.66666666666669</ele><time>2026-03-30T16:23:53.774Z</time></trkpt><trkpt lat="43.4202321" lon="11.1725206"><ele>241.33333333333334</ele><time>2026-03-30T16:23:54.79Z</time></trkpt><trkpt lat="43.4202337" lon="11.1726316"><ele>241.0</ele><time>2026-03-30T16:23:55.782Z</time></trkpt><trkpt lat="43.4202358" lon="11.172749"><ele>240.66666666666669</ele><time>2026-03-30T16:23:56.783Z</time></trkpt><trkpt lat="43.4202348" lon="11.172868"><ele>240.33333333333334</ele><time>2026-03-30T16:23:57.779Z</time></trkpt><trkpt lat="43.4202361" lon="11.1729839"><ele>240.0</ele><time>2026-03-30T16:23:58.772Z</time></trkpt><trkpt lat="43.4202373" lon="11.1731059"><ele>238.8</ele><time>2026-03-30T16:23:59.775Z</time></trkpt><trkpt lat="43.4202345" lon="11.173235"><ele>237.6</ele><time>2026-03-30T16:24:00.774Z</time></trkpt><trkpt lat="43.420228" lon="11.1733736"><ele>236.39999999999998</ele><time>2026-03-30T16:24:01.783Z</time></trkpt><trkpt lat="43.4202171" lon="11.1735128"><ele>235.2</ele><time>2026-03-30T16:24:02.797Z</time></trkpt><trkpt lat="43.4202086" lon="11.1736447"><ele>234.0</ele><time>2026-03-30T16:24:03.778Z</time></trkpt><trkpt lat="43.4202014" lon="11.1737727"><ele>234.0</ele><time>2026-03-30T16:24:04.784Z</time></trkpt><trkpt lat="43.4201937" lon="11.1739016"><ele>233.99999999999997</ele><time>2026-03-30T16:24:05.792Z</time></trkpt><trkpt lat="43.4201909" lon="11.1740349"><ele>233.99999999999997</ele><time>2026-03-30T16:24:06.766Z</time></trkpt><trkpt lat="43.4201933" lon="11.1741724"><ele>234.0</ele><time>2026-03-30T16:24:07.79Z</time></trkpt><trkpt lat="43.4202006" lon="11.1743074"><ele>234.0</ele><time>2026-03-30T16:24:08.774Z</time></trkpt><trkpt lat="43.4202137" lon="11.1744409"><ele>232.6</ele><time>2026-03-30T16:24:09.776Z</time></trkpt><trkpt lat="43.4202327" lon="11.1745791"><ele>231.2</ele><time>2026-03-30T16:24:10.784Z</time></trkpt><trkpt lat="43.4202616" lon="11.1747193"><ele>229.79999999999998</ele><time>2026-03-30T16:24:11.779Z</time></trkpt><trkpt lat="43.420296" lon="11.174867"><ele>228.39999999999998</ele><time>2026-03-30T16:24:12.786Z</time></trkpt><trkpt lat="43.4203356" lon="11.175014"><ele>227.0</ele><time>2026-03-30T16:24:13.778Z</time></trkpt><trkpt lat="43.4203798" lon="11.1751591"><ele>225.8</ele><time>2026-03-30T16:24:14.787Z</time></trkpt><trkpt lat="43.4204252" lon="11.1753021"><ele>224.6</ele><time>2026-03-30T16:24:15.77Z</time></trkpt><trkpt lat="43.4204703" lon="11.1754452"><ele>223.40000000000003</ele><time>2026-03-30T16:24:16.782Z</time></trkpt><trkpt lat="43.4205137" lon="11.1755787"><ele>222.20000000000002</ele><time>2026-03-30T16:24:17.781Z</time></trkpt><trkpt lat="43.4205605" lon="11.1757077"><ele>221.0</ele><time>2026-03-30T16:24:18.777Z</time></trkpt><trkpt lat="43.4206092" lon="11.1758362"><ele>219.0</ele><time>2026-03-30T16:24:19.779Z</time></trkpt><trkpt lat="43.4206604" lon="11.1759607"><ele>217.00000000000003</ele><time>2026-03-30T16:24:20.798Z</time></trkpt><trkpt lat="43.4207112" lon="11.1760856"><ele>215.0</ele><time>2026-03-30T16:24:21.787Z</time></trkpt><trkpt lat="43.4207596" lon="11.1762181"><ele>213.0</ele><time>2026-03-30T16:24:22.796Z</time></trkpt><trkpt lat="43.4208006" lon="11.1763592"><ele>211.0</ele><time>2026-03-30T16:24:23.774Z</time></trkpt><trkpt lat="43.4208367" lon="11.1765115"><ele>207.75</ele><time>2026-03-30T16:24:24.785Z</time></trkpt><trkpt lat="43.4208697" lon="11.176666"><ele>204.5</ele><time>2026-03-30T16:24:25.78Z</time></trkpt><trkpt lat="43.4209011" lon="11.1768236"><ele>201.25</ele><time>2026-03-30T16:24:26.786Z</time></trkpt><trkpt lat="43.4209262" lon="11.1769843"><ele>198.0</ele><time>2026-03-30T16:24:27.783Z</time></trkpt><trkpt lat="43.420943" lon="11.1771427"><ele>198.0</ele><time>2026-03-30T16:24:28.786Z</time></trkpt><trkpt lat="43.4209495" lon="11.1773001"><ele>198.0</ele><time>2026-03-30T16:24:29.778Z</time></trkpt><trkpt lat="43.420952" lon="11.1774621"><ele>198.0</ele><time>2026-03-30T16:24:30.778Z</time></trkpt><trkpt lat="43.4209537" lon="11.1776315"><ele>198.0</ele><time>2026-03-30T16:24:31.778Z</time></trkpt><trkpt lat="43.4209547" lon="11.1778054"><ele>196.25</ele><time>2026-03-30T16:24:32.782Z</time></trkpt><trkpt lat="43.4209567" lon="11.1779841"><ele>194.5</ele><time>2026-03-30T16:24:33.792Z</time></trkpt><trkpt lat="43.4209615" lon="11.178164"><ele>192.75</ele><time>2026-03-30T16:24:34.784Z</time></trkpt><trkpt lat="43.420971" lon="11.178342"><ele>191.0</ele><time>2026-03-30T16:24:35.793Z</time></trkpt><trkpt lat="43.4209845" lon="11.1785152"><ele>190.0</ele><time>2026-03-30T16:24:36.776Z</time></trkpt><trkpt lat="43.4210029" lon="11.1786872"><ele>189.0</ele><time>2026-03-30T16:24:37.795Z</time></trkpt><trkpt lat="43.4210322" lon="11.1788602"><ele>188.0</ele><time>2026-03-30T16:24:38.797Z</time></trkpt><trkpt lat="43.4210737" lon="11.1790261"><ele>187.0</ele><time>2026-03-30T16:24:39.781Z</time></trkpt><trkpt lat="43.4211201" lon="11.1791875"><ele>186.25</ele><time>2026-03-30T16:24:40.797Z</time></trkpt><trkpt lat="43.4211669" lon="11.1793394"><ele>185.5</ele><time>2026-03-30T16:24:41.788Z</time></trkpt><trkpt lat="43.42121" lon="11.1794862"><ele>184.75</ele><time>2026-03-30T16:24:42.803Z</time></trkpt><trkpt lat="43.42124" lon="11.1796353"><ele>184.0</ele><time>2026-03-30T16:24:43.777Z</time></trkpt><trkpt lat="43.4212491" lon="11.1797869"><ele>183.33333333333334</ele><time>2026-03-30T16:24:44.778Z</time></trkpt><trkpt lat="43.4212522" lon="11.1799262"><ele>182.66666666666669</ele><time>2026-03-30T16:24:45.783Z</time></trkpt><trkpt lat="43.4212673" lon="11.1800441"><ele>182.0</ele><time>2026-03-30T16:24:46.775Z</time></trkpt><trkpt lat="43.4213052" lon="11.18014"><ele>181.33333333333334</ele><time>2026-03-30T16:24:47.805Z</time></trkpt><trkpt lat="43.4213576" lon="11.1802273"><ele>180.66666666666666</ele><time>2026-03-30T16:24:48.824Z</time></trkpt><trkpt lat="43.4214122" lon="11.1803096"><ele>180.0</ele><time>2026-03-30T16:24:49.786Z</time></trkpt><trkpt lat="43.4214596" lon="11.1803992"><ele>179.14285714285714</ele><time>2026-03-30T16:24:50.786Z</time></trkpt><trkpt lat="43.4215002" lon="11.1804882"><ele>178.2857142857143</ele><time>2026-03-30T16:24:51.795Z</time></trkpt><trkpt lat="43.4215319" lon="11.1805644"><ele>177.42857142857144</ele><time>2026-03-30T16:24:52.781Z</time></trkpt><trkpt lat="43.4215692" lon="11.1806874"><ele>176.57142857142856</ele><time>2026-03-30T16:24:54.776Z</time></trkpt><trkpt lat="43.4215928" lon="11.1807726"><ele>175.71428571428572</ele><time>2026-03-30T16:24:56.795Z</time></trkpt><trkpt lat="43.4216418" lon="11.1807163"><ele>174.85714285714286</ele><time>2026-03-30T16:25:01.78Z</time></trkpt><trkpt lat="43.4217055" lon="11.1806502"><ele>174.0</ele><time>2026-03-30T16:25:04.773Z</time></trkpt><trkpt lat="43.4217645" lon="11.1806152"><ele>173.83333333333334</ele><time>2026-03-30T16:25:06.771Z</time></trkpt><trkpt lat="43.4218343" lon="11.1805417"><ele>173.66666666666666</ele><time>2026-03-30T16:25:09.781Z</time></trkpt><trkpt lat="43.4218992" lon="11.1804978"><ele>173.5</ele><time>2026-03-30T16:25:12.785Z</time></trkpt><trkpt lat="43.4219688" lon="11.18044"><ele>173.33333333333331</ele><time>2026-03-30T16:25:16.767Z</time></trkpt><trkpt lat="43.422026" lon="11.1803936"><ele>173.16666666666666</ele><time>2026-03-30T16:25:19.775Z</time></trkpt><trkpt lat="43.4220859" lon="11.1803448"><ele>173.0</ele><time>2026-03-30T16:25:23.783Z</time></trkpt><trkpt lat="43.4221161" lon="11.1804355"><ele>173.0</ele><time>2026-03-30T16:25:27.786Z</time></trkpt><trkpt lat="43.4221318" lon="11.1805381"><ele>173.0</ele><time>2026-03-30T16:25:31.784Z</time></trkpt><trkpt lat="43.4221532" lon="11.180623"><ele>173.0</ele><time>2026-03-30T16:25:34.771Z</time></trkpt><trkpt lat="43.4221826" lon="11.1807091"><ele>173.0</ele><time>2026-03-30T16:25:37.785Z</time></trkpt><trkpt lat="43.4222123" lon="11.1808308"><ele>173.0</ele><time>2026-03-30T16:25:40.787Z</time></trkpt><trkpt lat="43.4222336" lon="11.1809143"><ele>173.0</ele><time>2026-03-30T16:25:42.773Z</time></trkpt><trkpt lat="43.4222345" lon="11.1810155"><ele>173.0</ele><time>2026-03-30T16:25:45.789Z</time></trkpt><trkpt lat="43.4222431" lon="11.1811074"><ele>170.0</ele><time>2026-03-30T16:25:48.777Z</time></trkpt><trkpt lat="43.4222052" lon="11.1811778"><ele>170.0</ele><time>2026-03-30T16:25:53.777Z</time></trkpt><trkpt lat="43.4221333" lon="11.1811992"><ele>174.0</ele><time>2026-03-30T16:25:58.769Z</time></trkpt><trkpt lat="43.4220613" lon="11.1811869"><ele>174.0</ele><time>2026-03-30T16:26:46.782Z</time></trkpt><trkpt lat="43.4219983" lon="11.1811863"><ele>174.0</ele><time>2026-03-30T16:27:38.777Z</time></trkpt></trkseg></trk></gpx>